# Wetter Temperatur Luftdruck Luftfeuchtigkeit Sichtweite Windgeschwindigkeit Windrichtung Zeit
1 Clouds 14 1008 87 10000 4.6 10 09:57 08.04.2020
2 Clouds 14 1008 82 10000 3.1 20 09:39 08.04.2020
3 Clouds 14 1008 82 10000 3.1 20 09:18 08.04.2020
4 Clouds 14 1008 82 10000 3.1 20 09:18 08.04.2020
5 Clouds 14 1008 82 10000 3.1 20 09:18 08.04.2020
6 Clouds 14 1008 82 10000 3.1 10 08:56 08.04.2020
7 Clouds 14 1008 77 10000 1 300 08:38 08.04.2020
8 Clouds 15 1008 77 10000 1 300 08:20 08.04.2020
9 Clouds 16 1008 77 10000 1.5 200 07:42 08.04.2020
10 Clouds 16 1008 77 10000 1.5 200 07:20 08.04.2020
11 Clouds 17 1009 72 10000 2.6 200 06:23 08.04.2020
12 Clouds 17 1009 77 10000 3.1 200 04:54 08.04.2020
13 Clouds 16 1011 72 10000 4.6 190 02:50 08.04.2020
14 Clouds 16 1011 67 10000 4.6 180 02:21 08.04.2020
15 Clouds 16 1011 77 10000 5.1 180 01:56 08.04.2020
16 Clouds 15 1011 77 10000 4.6 170 01:27 08.04.2020
17 Clouds 15 1012 77 10000 5.1 180 00:44 08.04.2020
18 Rain 14 1012 77 10000 5.1 180 00:23 08.04.2020
19 Rain 14 1011 76 10000 6.7 180 23:40 07.04.2020
20 Rain 14 1011 76 10000 6.7 180 23:22 07.04.2020
21 Rain 13 1011 76 10000 6.7 180 22:58 07.04.2020
22 Rain 13 1011 82 10000 6.7 180 22:40 07.04.2020
23 Rain 13 1011 82 10000 6.7 180 22:21 07.04.2020
24 Drizzle 13 1011 82 10000 6.7 180 21:59 07.04.2020
25 Rain 13 1011 82 10000 6.7 180 21:41 07.04.2020
26 Rain 13 1011 87 10000 6.7 190 21:21 07.04.2020
27 Rain 13 1010 87 10000 8.2 190 20:58 07.04.2020
28 Rain 13 1010 87 10000 8.2 190 20:39 07.04.2020
29 Rain 13 1010 87 10000 8.2 190 20:20 07.04.2020
30 Rain 13 1010 93 10000 4.6 180 19:57 07.04.2020
31 Rain 13 1010 93 10000 4.6 180 19:37 07.04.2020
32 Rain 13 1010 93 10000 4.1 180 19:19 07.04.2020
33 Rain 13 1010 93 10000 4.1 180 18:57 07.04.2020
34 Rain 13 1010 93 10000 4.1 180 18:39 07.04.2020
35 Rain 14 1010 93 10000 4.6 180 18:19 07.04.2020
36 Rain 14 1009 93 6000 5.1 180 17:45 07.04.2020
37 Rain 15 1009 93 6000 5.1 180 17:21 07.04.2020
38 Rain 15 1010 100 6000 5.1 220 16:48 07.04.2020
39 Rain 16 1009 82 10000 4.1 330 16:29 07.04.2020
40 Rain 16 1009 82 10000 4.1 330 15:59 07.04.2020
41 Rain 16 1009 82 10000 5.7 340 15:41 07.04.2020
42 Clouds 16 1008 88 10000 7.7 350 15:23 07.04.2020
43 Clouds 16 1008 88 10000 7.7 350 14:42 07.04.2020
44 Clouds 16 1008 88 10000 8.2 360 14:23 07.04.2020
45 Clouds 16 1009 88 10000 8.7 360 13:57 07.04.2020
46 Clouds 16 1008 88 10000 8.7 350 13:39 07.04.2020
47 Clouds 16 1008 88 10000 8.7 350 13:18 07.04.2020
48 Clouds 16 1008 88 10000 9.3 350 12:55 07.04.2020
49 Clouds 16 1008 82 10000 10.3 350 12:36 07.04.2020
50 Rain 17 1008 82 10000 10.3 350 12:18 07.04.2020
51 Rain 17 1008 82 10000 9.3 350 11:44 07.04.2020
52 Rain 17 1008 82 10000 10.3 350 11:26 07.04.2020
53 Rain 17 1008 82 10000 10.3 350 11:26 07.04.2020
54 Rain 17 1008 82 10000 9.3 350 10:59 07.04.2020
55 Rain 17 1009 82 10000 7.7 350 10:38 07.04.2020
56 Rain 17 1009 82 10000 7.7 350 10:19 07.04.2020
57 Rain 17 1008 82 10000 9.8 350 09:46 07.04.2020
58 Clouds 17 1008 77 10000 10.8 340 09:20 07.04.2020
59 Clouds 17 1008 77 10000 8.7 340 08:57 07.04.2020
60 Clouds 17 1008 77 10000 8.2 340 08:38 07.04.2020
61 Clouds 17 1008 77 10000 8.2 340 08:19 07.04.2020
62 Clouds 17 1009 77 10000 10.8 360 07:44 07.04.2020
63 Clouds 17 1009 77 10000 8.7 340 07:26 07.04.2020
64 Clouds 17 1009 77 10000 8.7 350 06:52 07.04.2020
65 Clouds 17 1009 77 10000 9.8 360 06:25 07.04.2020
66 Clouds 17 1010 77 10000 10.8 360 05:48 07.04.2020
67 Clouds 17 1010 72 10000 10.3 350 05:23 07.04.2020
68 Clouds 16 1011 77 10000 8.2 10 03:34 07.04.2020
69 Clouds 16 1012 77 10000 8.7 20 02:59 07.04.2020
70 Clouds 16 1012 72 10000 10.8 10 02:33 07.04.2020
71 Clouds 17 1012 77 10000 9.8 10 01:33 07.04.2020
72 Clouds 16 1013 77 10000 9.3 10 00:44 07.04.2020
73 Clouds 16 1013 77 10000 9.3 10 00:25 07.04.2020
74 Clouds 16 1013 77 10000 7.7 10 23:39 06.04.2020
75 Clouds 16 1013 77 10000 7.7 10 23:20 06.04.2020
76 Clouds 15 1014 82 10000 7.2 10 22:41 06.04.2020
77 Clouds 15 1014 82 10000 7.7 10 22:23 06.04.2020
78 Clouds 14 1014 77 10000 8.2 360 21:59 06.04.2020
79 Clouds 14 1014 77 10000 8.2 360 21:40 06.04.2020
80 Clouds 14 1014 87 10000 7.7 360 21:19 06.04.2020
81 Clouds 14 1014 82 10000 7.2 10 20:56 06.04.2020
82 Clouds 14 1014 82 10000 8.2 10 20:38 06.04.2020
83 Clouds 14 1014 82 10000 8.2 10 20:19 06.04.2020
84 Clouds 14 1014 82 10000 7.7 10 19:56 06.04.2020
85 Clouds 14 1014 82 10000 6.2 20 19:37 06.04.2020
86 Clouds 14 1014 82 10000 6.2 20 19:19 06.04.2020
87 Clouds 14 1015 82 10000 7.2 20 18:41 06.04.2020
88 Clouds 14 1015 82 10000 7.2 20 18:23 06.04.2020
89 Clouds 14 1015 82 10000 7.2 20 17:55 06.04.2020
90 Clouds 14 1016 82 10000 6.7 20 17:37 06.04.2020
91 Clouds 14 1016 82 10000 6.7 20 17:18 06.04.2020
92 Clouds 14 1016 87 10000 7.2 10 16:47 06.04.2020
93 Clouds 14 1017 87 10000 6.7 10 16:29 06.04.2020
94 Clouds 14 1017 82 10000 6.2 20 14:46 06.04.2020
95 Clouds 14 1017 82 10000 6.2 20 14:46 06.04.2020
96 Clouds 14 1017 82 10000 6.2 20 14:46 06.04.2020
97 Clouds 14 1017 82 10000 6.2 20 14:46 06.04.2020
98 Clouds 14 1017 82 10000 6.2 20 14:46 06.04.2020
99 Clouds 14 1018 87 10000 5.1 20 13:44 06.04.2020
100 Clouds 14 1018 87 10000 5.7 20 13:21 06.04.2020
101 Clouds 14 1018 87 10000 5.7 20 13:21 06.04.2020
102 Clouds 14 1018 87 10000 5.7 10 12:41 06.04.2020
103 Clouds 14 1018 87 10000 5.7 10 12:41 06.04.2020
104 Clouds 15 1018 87 10000 6.7 10 12:18 06.04.2020
105 Clouds 15 1018 87 10000 6.7 10 12:18 06.04.2020
106 Clouds 15 1018 87 10000 6.7 10 12:18 06.04.2020
107 Clouds 15 1018 87 10000 6.7 10 12:18 06.04.2020
108 Clouds 14 1018 87 10000 6.2 20 11:40 06.04.2020
109 Clouds 14 1018 87 10000 6.2 20 11:40 06.04.2020
110 Clouds 14 1018 87 10000 6.7 360 10:55 06.04.2020
111 Clouds 15 1018 87 10000 6.7 360 10:37 06.04.2020
112 Clouds 15 1018 87 10000 6.7 360 10:37 06.04.2020
113 Clouds 15 1019 87 10000 5.7 360 10:18 06.04.2020
114 Clouds 15 1019 87 10000 5.1 10 09:37 06.04.2020
115 Clouds 15 1019 82 10000 5.1 20 09:18 06.04.2020
116 Clouds 15 1019 77 10000 5.1 10 08:43 06.04.2020
117 Clouds 15 1019 77 10000 5.1 10 08:43 06.04.2020
118 Clouds 15 1019 77 10000 5.1 10 08:42 06.04.2020
119 Clouds 15 1019 77 10000 5.1 10 08:41 06.04.2020
120 Clouds 15 1019 77 10000 5.1 10 08:41 06.04.2020
121 Clouds 16 1019 77 10000 5.1 360 07:56 06.04.2020
122 Clouds 16 1020 67 10000 5.7 360 07:20 06.04.2020
123 Clouds 17 1020 63 10000 5.1 330 06:26 06.04.2020
124 Clouds 17 1021 59 10000 5.7 350 05:42 06.04.2020
125 Clouds 18 1022 63 10000 5.7 330 03:33 06.04.2020
126 Clouds 18 1023 59 10000 4.6 340 02:49 06.04.2020
127 Clouds 18 1023 59 10000 4.6 340 02:49 06.04.2020
128 Clouds 18 1023 55 10000 5.1 340 01:53 06.04.2020
129 Clouds 17 1024 55 10000 6.7 360 00:52 06.04.2020
130 Clouds 17 1024 63 10000 7.7 360 00:27 06.04.2020
131 Clouds 16 1024 67 10000 5.7 20 23:50 05.04.2020
132 Clouds 15 1024 72 10000 5.7 360 23:32 05.04.2020
133 Clouds 15 1024 72 10000 5.7 360 23:32 05.04.2020
134 Clouds 15 1024 72 10000 5.7 360 23:32 05.04.2020
135 Clouds 14 1024 76 10000 5.1 340 22:57 05.04.2020
136 Clouds 13 1024 76 10000 5.1 340 22:38 05.04.2020
137 Clouds 12 1024 82 10000 4.1 350 22:19 05.04.2020
138 Clouds 12 1025 82 10000 3.6 350 21:58 05.04.2020
139 Clouds 12 1025 82 10000 3.6 350 21:40 05.04.2020
140 Clouds 11 1024 87 10000 3.1 10 21:21 05.04.2020
141 Clouds 11 1024 81 10000 4.1 20 20:22 05.04.2020
142 Clouds 11 1024 81 10000 4.1 20 20:22 05.04.2020
143 Clouds 11 1025 93 10000 4.6 360 19:42 05.04.2020
144 Clouds 11 1025 81 10000 4.1 20 19:22 05.04.2020
145 Clouds 12 1025 87 10000 3.1 10 18:47 05.04.2020
146 Clouds 11 1025 87 10000 4.6 30 17:59 05.04.2020
147 Clouds 11 1025 87 10000 4.6 30 17:59 05.04.2020
148 Clouds 11 1025 87 10000 4.6 30 17:59 05.04.2020
149 Clouds 11 1025 87 10000 4.6 30 17:59 05.04.2020
150 Clouds 11 1025 87 10000 4.6 30 17:40 05.04.2020
151 Clouds 11 1025 87 10000 4.6 30 17:40 05.04.2020
152 Clouds 11 1025 87 10000 4.6 30 17:40 05.04.2020
153 Clouds 11 1025 87 10000 4.6 30 17:40 05.04.2020
154 Clouds 11 1025 87 10000 4.6 30 17:40 05.04.2020
155 Clouds 12 1025 87 10000 4.1 30 17:20 05.04.2020
156 Clouds 12 1025 87 10000 6.2 10 16:46 05.04.2020
157 Clouds 12 1025 87 10000 6.2 10 16:46 05.04.2020
158 Clouds 12 1025 87 10000 6.2 10 16:46 05.04.2020
159 Clouds 12 1025 87 10000 6.2 10 16:46 05.04.2020
160 Clouds 12 1025 87 10000 6.2 10 16:46 05.04.2020
161 Clouds 12 1025 87 10000 4.6 20 16:18 05.04.2020
162 Clouds 12 1025 87 10000 6.2 30 15:45 05.04.2020
163 Clouds 12 1026 87 10000 5.1 30 15:25 05.04.2020
164 Clear 13 1025 87 10000 4.6 30 14:48 05.04.2020
165 Clear 13 1025 87 10000 4.6 30 14:48 05.04.2020
166 Clear 13 1025 87 10000 4.6 30 14:48 05.04.2020
167 Clear 13 1025 87 10000 4.6 30 14:48 05.04.2020
168 Clear 13 1026 87 10000 3.6 20 13:47 05.04.2020
169 Clear 13 1026 87 10000 3.6 20 13:47 05.04.2020
170 Clear 13 1026 87 10000 3.6 20 13:47 05.04.2020
171 Clear 13 1026 87 10000 3.6 20 13:47 05.04.2020
172 Clear 13 1026 87 10000 3.6 20 13:47 05.04.2020
173 Clear 13 1026 93 10000 4.6 360 12:59 05.04.2020
174 Clear 13 1026 87 10000 4.6 10 11:58 05.04.2020
175 Clear 14 1026 87 10000 4.6 10 11:38 05.04.2020
176 Clear 14 1026 87 10000 5.1 10 11:19 05.04.2020
177 Clear 14 1026 87 10000 4.1 10 10:45 05.04.2020
178 Clear 14 1026 87 10000 4.1 20 10:21 05.04.2020
179 Clear 15 1026 87 10000 4.1 10 09:52 05.04.2020
180 Clear 15 1026 87 10000 4.1 10 09:52 05.04.2020
181 Clear 15 1025 82 10000 5.1 350 09:25 05.04.2020
182 Clear 15 1025 82 10000 5.1 350 09:25 05.04.2020
183 Clear 15 1025 82 10000 5.1 350 09:25 05.04.2020
184 Clear 15 1025 82 10000 5.1 350 09:25 05.04.2020
185 Clear 15 1025 82 10000 5.1 350 09:25 05.04.2020
186 Clear 16 1025 68 10000 5.1 340 07:58 05.04.2020
187 Clouds 19 1026 52 10000 5.7 350 05:01 05.04.2020
188 Clouds 19 1026 56 10000 5.7 340 03:35 05.04.2020
189 Clouds 19 1027 52 10000 7.7 10 02:56 05.04.2020
190 Clouds 19 1027 52 10000 7.2 10 01:52 05.04.2020
191 Clouds 19 1027 52 10000 7.2 10 01:52 05.04.2020
192 Clouds 18 1027 52 10000 7.2 10 01:33 05.04.2020
193 Clouds 17 1027 55 10000 4.1 350 00:52 05.04.2020
194 Clouds 17 1028 67 10000 3.6 360 00:22 05.04.2020
195 Clouds 16 1028 67 10000 2.6 20 23:58 04.04.2020
196 Clouds 16 1028 67 10000 2.6 20 23:58 04.04.2020
197 Clouds 15 1028 67 10000 2.6 20 23:38 04.04.2020
198 Clouds 13 1028 76 10000 3.6 10 23:20 04.04.2020
199 Clouds 13 1027 82 10000 4.1 360 22:56 04.04.2020
200 Clouds 12 1027 82 10000 4.1 360 22:38 04.04.2020
201 Clouds 11 1027 76 10000 3.1 20 22:19 04.04.2020
202 Clouds 10 1027 81 10000 3.1 40 21:55 04.04.2020
203 Clouds 10 1027 81 10000 3.1 40 21:37 04.04.2020
204 Clouds 10 1027 81 10000 3.1 30 21:18 04.04.2020
205 Clouds 10 1027 87 10000 2.1 20 20:43 04.04.2020
206 Clouds 10 1027 81 10000 2.6 30 20:23 04.04.2020
207 Clouds 10 1027 87 10000 2.6 40 19:59 04.04.2020
208 Clouds 9 1027 87 10000 2.6 40 19:39 04.04.2020
209 Clouds 9 1027 87 10000 2.6 40 19:20 04.04.2020
210 Clouds 9 1027 81 10000 1.5 30 18:58 04.04.2020
211 Clouds 9 1027 81 10000 1.5 30 18:39 04.04.2020
212 Clear 9 1027 87 10000 1.5 30 18:19 04.04.2020
213 Clouds 9 1027 81 10000 1.5 60 17:58 04.04.2020
214 Clear 9 1027 81 10000 1.5 60 17:38 04.04.2020
215 Clouds 9 1027 87 10000 1.5 70 17:19 04.04.2020
216 Clouds 9 1027 81 10000 1.5 360 16:42 04.04.2020
217 Clouds 9 1027 81 10000 1.5 30 16:23 04.04.2020
218 Clouds 10 1027 81 10000 1.5 360 15:58 04.04.2020
219 Clouds 10 1027 81 10000 1.5 360 15:38 04.04.2020
220 Clouds 10 1027 81 10000 1.5 20 15:19 04.04.2020
221 Clouds 10 1027 81 10000 1.5 20 15:19 04.04.2020
222 Clouds 10 1027 81 10000 1.5 20 15:19 04.04.2020
223 Clouds 11 1027 76 10000 1.5 360 14:46 04.04.2020
224 Clouds 11 1027 76 10000 1.5 10 14:25 04.04.2020
225 Clouds 11 1027 76 10000 2.6 340 14:00 04.04.2020
226 Clouds 11 1027 76 10000 2.6 340 13:41 04.04.2020
227 Clouds 11 1027 81 10000 1.5 350 13:20 04.04.2020
228 Clouds 11 1027 76 10000 2.1 30 12:58 04.04.2020
229 Clouds 12 1027 76 10000 2.1 30 12:39 04.04.2020
230 Clouds 13 1027 76 10000 3.1 10 12:19 04.04.2020
231 Clouds 12 1027 71 10000 4.1 10 11:41 04.04.2020
232 Clouds 12 1026 82 10000 4.1 360 11:23 04.04.2020
233 Clouds 12 1026 76 10000 3.6 10 10:58 04.04.2020
234 Clouds 13 1026 76 10000 3.6 10 10:40 04.04.2020
235 Clouds 13 1026 76 10000 2.1 350 10:22 04.04.2020
236 Clouds 14 1026 77 10000 1.5 360 09:55 04.04.2020
237 Clouds 14 1026 77 10000 1.5 360 09:37 04.04.2020
238 Clouds 15 1025 82 10000 1 330 09:19 04.04.2020
239 Clouds 15 1025 77 10000 1 190 08:42 04.04.2020
240 Clouds 16 1025 67 10000 1.5 160 08:23 04.04.2020
241 Clouds 17 1025 68 10000 2.6 220 07:55 04.04.2020
242 Clouds 17 1025 68 10000 2.6 220 07:37 04.04.2020
243 Clouds 18 1025 68 10000 3.6 220 07:19 04.04.2020
244 Clouds 18 1025 63 10000 4.6 220 06:29 04.04.2020
245 Clouds 19 1025 63 10000 4.1 220 05:52 04.04.2020
246 Clouds 18 1025 63 10000 4.1 220 05:32 04.04.2020
247 Clouds 18 1025 68 10000 4.1 210 04:34 04.04.2020
248 Clouds 19 1025 67 10000 4.1 200 03:56 04.04.2020
249 Clouds 19 1022 61 0 2.78 132 03:29 04.04.2020
250 Clouds 19 1024 69 0 0.45 93 02:45 04.04.2020
251 Clouds 19 1024 70 0 1.81 113 02:25 04.04.2020
252 Clouds 17 1026 72 10000 2.6 190 01:27 04.04.2020
253 Clouds 16 1026 87 10000 3.1 180 00:58 04.04.2020
254 Clouds 16 1026 82 10000 2.6 180 00:31 04.04.2020
255 Clouds 16 1026 82 10000 1.5 200 23:57 03.04.2020
256 Clouds 15 1026 82 10000 1.5 200 23:38 03.04.2020
257 Clouds 15 1026 82 10000 0.5 130 23:19 03.04.2020
258 Clouds 13 1026 87 10000 1 60 22:40 03.04.2020
259 Clouds 12 1026 87 10000 1 50 22:19 03.04.2020
260 Clouds 12 1026 87 10000 1 50 22:19 03.04.2020
261 Clouds 11 1025 100 10000 1 50 21:57 03.04.2020
262 Clouds 11 1025 100 10000 1 50 21:38 03.04.2020
263 Clouds 11 1025 93 10000 1.5 80 21:20 03.04.2020
264 Clouds 10 1025 93 10000 1 80 20:55 03.04.2020
265 Clouds 10 1025 93 10000 1 80 20:36 03.04.2020
266 Clouds 11 1025 93 10000 1 350 20:18 03.04.2020
267 Clouds 11 1025 93 10000 4.1 160 19:55 03.04.2020
268 Clouds 11 1025 93 10000 4.1 160 19:36 03.04.2020
269 Clouds 11 1025 93 10000 4.1 160 19:18 03.04.2020
270 Clouds 11 1025 93 10000 4.1 150 18:57 03.04.2020
271 Clouds 12 1025 93 10000 4.1 150 18:39 03.04.2020
272 Clouds 12 1025 93 10000 4.1 150 18:39 03.04.2020
273 Clouds 12 1025 93 10000 4.1 150 18:21 03.04.2020
274 Clouds 12 1025 93 10000 5.1 160 17:41 03.04.2020
275 Clouds 12 1025 93 10000 4.6 160 17:20 03.04.2020
276 Clouds 12 1025 93 10000 4.1 170 16:55 03.04.2020
277 Clouds 12 1023 94 0 3.1 159 16:37 03.04.2020
278 Clouds 13 1025 93 10000 4.6 160 16:19 03.04.2020
279 Clouds 13 1025 87 10000 4.6 170 15:56 03.04.2020
280 Clouds 12 1024 94 0 3.1 159 15:37 03.04.2020
281 Clouds 12 1020 90 0 3.58 154 15:19 03.04.2020
282 Clouds 12 1023 94 0 3.58 154 14:40 03.04.2020
283 Clouds 12 1023 94 0 3.81 160 14:22 03.04.2020
284 Clouds 12 1023 94 0 3.81 160 13:54 03.04.2020
285 Clouds 12 1020 90 0 3.81 160 13:36 03.04.2020
286 Clouds 12 1020 89 0 3.81 160 13:18 03.04.2020
287 Clouds 13 1024 93 10000 2.1 150 12:42 03.04.2020
288 Clouds 13 1024 87 10000 4.1 150 12:20 03.04.2020
289 Clouds 13 1024 87 10000 5.1 160 11:56 03.04.2020
290 Clouds 13 1024 87 10000 5.1 160 11:37 03.04.2020
291 Clouds 13 1024 87 10000 4.6 180 11:18 03.04.2020
292 Clouds 13 1024 87 10000 3.6 170 10:57 03.04.2020
293 Clouds 13 1024 87 10000 3.6 170 10:38 03.04.2020
294 Clouds 13 1024 87 10000 4.6 170 10:20 03.04.2020
295 Clouds 13 1024 87 10000 4.6 160 09:57 03.04.2020
296 Clouds 13 1024 87 10000 4.6 160 09:57 03.04.2020
297 Clouds 13 1024 87 10000 4.6 160 09:38 03.04.2020
298 Clouds 13 1023 87 10000 4.6 150 09:20 03.04.2020
299 Clouds 13 1023 100 10000 4.6 160 08:45 03.04.2020
300 Clouds 13 1023 100 10000 5.1 170 08:26 03.04.2020
301 Clouds 14 1022 100 6000 5.1 170 07:59 03.04.2020
302 Clouds 14 1022 100 6000 5.1 170 07:40 03.04.2020
303 Clouds 14 1022 93 10000 4.6 160 07:22 03.04.2020
304 Clouds 15 1022 82 10000 5.1 180 06:33 03.04.2020
305 Clouds 15 1022 87 10000 5.7 190 05:43 03.04.2020
306 Clouds 16 1022 87 10000 5.1 170 05:21 03.04.2020
307 Clouds 15 1022 93 10000 5.1 190 03:37 03.04.2020
308 Rain 15 1023 93 6000 5.7 190 02:47 03.04.2020
309 Clouds 15 1023 93 10000 6.7 190 01:27 03.04.2020
310 Rain 15 1023 100 9000 6.2 190 00:56 03.04.2020
311 Drizzle 14 1023 100 4600 6.2 190 00:33 03.04.2020
312 Clouds 13 1023 93 10000 5.7 170 23:57 02.04.2020
313 Clouds 13 1023 93 10000 5.7 170 23:39 02.04.2020
314 Rain 13 1023 93 7000 5.1 180 23:19 02.04.2020
315 Rain 13 1022 93 10000 5.7 200 22:43 02.04.2020
316 Rain 13 1022 93 5000 4.1 190 22:25 02.04.2020
317 Rain 12 1022 100 5000 5.1 180 21:59 02.04.2020
318 Rain 12 1022 100 5000 5.1 180 21:59 02.04.2020
319 Rain 12 1022 100 5000 5.1 180 21:59 02.04.2020
320 Rain 12 1022 100 5000 5.1 180 21:37 02.04.2020
321 Clouds 12 1022 87 10000 5.7 180 21:19 02.04.2020
322 Drizzle 12 1022 93 7000 6.2 190 20:55 02.04.2020
323 Drizzle 12 1022 93 7000 6.2 190 20:37 02.04.2020
324 Clouds 12 1022 87 10000 6.7 200 20:18 02.04.2020
325 Clouds 12 1021 87 10000 6.7 190 19:42 02.04.2020
326 Clouds 12 1021 87 10000 6.7 190 19:20 02.04.2020
327 Clouds 12 1021 82 10000 6.7 190 18:56 02.04.2020
328 Clouds 12 1021 82 10000 6.7 190 18:38 02.04.2020
329 Clouds 12 1021 82 10000 6.7 190 18:19 02.04.2020
330 Clouds 12 1021 82 10000 7.2 200 17:44 02.04.2020
331 Clouds 12 1021 76 10000 6.7 190 17:26 02.04.2020
332 Clouds 12 1021 76 10000 7.2 200 16:59 02.04.2020
333 Clouds 12 1021 76 10000 7.2 200 16:41 02.04.2020
334 Clouds 12 1021 76 10000 7.2 200 16:22 02.04.2020
335 Clouds 12 1021 82 10000 6.7 190 15:59 02.04.2020
336 Clouds 12 1021 82 10000 6.7 190 15:40 02.04.2020
337 Clouds 12 1021 76 10000 6.7 190 15:20 02.04.2020
338 Clouds 12 1021 76 10000 5.7 190 14:58 02.04.2020
339 Clouds 12 1021 76 10000 5.7 190 14:38 02.04.2020
340 Clouds 12 1021 76 10000 6.7 190 14:19 02.04.2020
341 Clouds 12 1021 76 10000 6.7 190 14:19 02.04.2020
342 Clouds 12 1021 76 10000 6.2 190 13:55 02.04.2020
343 Clouds 12 1021 76 10000 6.2 190 13:37 02.04.2020
344 Clouds 12 1021 76 10000 6.2 180 13:18 02.04.2020
345 Clouds 13 1021 76 10000 6.7 190 12:46 02.04.2020
346 Clouds 13 1021 76 10000 6.7 190 12:20 02.04.2020
347 Clouds 13 1021 82 10000 6.7 190 11:58 02.04.2020
348 Clouds 13 1021 82 10000 6.7 190 11:39 02.04.2020
349 Clouds 13 1021 82 10000 5.7 190 11:20 02.04.2020
350 Clouds 13 1021 82 10000 6.2 190 10:57 02.04.2020
351 Clouds 13 1021 82 10000 6.2 190 10:39 02.04.2020
352 Clouds 13 1020 82 10000 5.1 180 10:21 02.04.2020
353 Clouds 13 1020 82 10000 4.1 180 09:59 02.04.2020
354 Clouds 13 1020 82 10000 4.1 180 09:41 02.04.2020
355 Clouds 13 1020 76 10000 5.1 190 09:21 02.04.2020
356 Clouds 13 1020 76 10000 5.7 170 08:48 02.04.2020
357 Clouds 13 1020 82 10000 5.1 180 08:28 02.04.2020
358 Clouds 14 1020 82 10000 4.6 170 07:59 02.04.2020
359 Clouds 14 1020 82 10000 4.6 170 07:40 02.04.2020
360 Clouds 15 1020 77 10000 4.6 180 07:19 02.04.2020
361 Clouds 15 1020 82 10000 3.6 160 06:25 02.04.2020
362 Clouds 15 1020 82 10000 5.7 160 05:46 02.04.2020
363 Clouds 15 1020 77 10000 4.1 190 05:18 02.04.2020
364 Rain 15 1021 87 10000 6.2 190 02:26 02.04.2020
365 Rain 15 1021 87 10000 5.1 200 01:27 02.04.2020
366 Rain 14 1021 87 10000 5.1 180 00:42 02.04.2020
367 Rain 14 1021 82 10000 5.7 180 00:22 02.04.2020
368 Clouds 13 1021 82 10000 5.7 180 23:40 01.04.2020
369 Clouds 13 1021 87 10000 5.7 180 23:19 01.04.2020
370 Clouds 13 1021 87 10000 5.7 190 22:57 01.04.2020
371 Clouds 13 1021 87 10000 5.7 190 22:57 01.04.2020
372 Clouds 13 1021 87 10000 5.7 190 22:57 01.04.2020
373 Clouds 12 1021 87 10000 5.7 190 22:38 01.04.2020
374 Clouds 12 1021 87 10000 5.1 180 22:19 01.04.2020
375 Clouds 12 1020 93 10000 5.1 200 21:41 01.04.2020
376 Clouds 12 1020 93 10000 5.1 190 21:19 01.04.2020
377 Clouds 12 1020 93 10000 6.2 200 20:57 01.04.2020
378 Clouds 12 1020 93 10000 6.2 200 20:38 01.04.2020
379 Clouds 12 1020 100 10000 5.7 190 20:20 01.04.2020
380 Clouds 12 1020 100 10000 6.2 190 19:58 01.04.2020
381 Clouds 12 1020 100 10000 6.2 190 19:39 01.04.2020
382 Clouds 12 1020 100 10000 5.7 190 19:19 01.04.2020
383 Clouds 12 1020 100 9000 5.7 200 18:42 01.04.2020
384 Clouds 12 1020 87 10000 5.1 190 18:24 01.04.2020
385 Clouds 12 1019 87 10000 4.6 170 17:57 01.04.2020
386 Clouds 12 1019 87 10000 4.6 170 17:38 01.04.2020
387 Clouds 12 1020 87 10000 5.1 190 17:19 01.04.2020
388 Clouds 12 1020 87 10000 5.1 190 17:19 01.04.2020
389 Clouds 12 1020 87 10000 4.6 160 16:58 01.04.2020
390 Clouds 12 1020 87 10000 4.6 160 16:39 01.04.2020
391 Clouds 12 1020 87 10000 5.1 160 16:21 01.04.2020
392 Clouds 13 1020 87 10000 4.6 190 15:57 01.04.2020
393 Clouds 12 1020 87 10000 4.6 190 15:37 01.04.2020
394 Clouds 12 1020 82 10000 4.6 190 15:18 01.04.2020
395 Clouds 12 1020 87 10000 5.1 210 14:41 01.04.2020
396 Clouds 12 1020 87 10000 5.1 190 14:23 01.04.2020
397 Clouds 13 1020 87 10000 5.1 200 13:59 01.04.2020
398 Clouds 13 1020 87 10000 5.1 200 13:40 01.04.2020
399 Clouds 12 1020 87 10000 5.1 170 13:20 01.04.2020
400 Clouds 12 1020 87 10000 5.1 170 13:20 01.04.2020
401 Clouds 13 1020 87 10000 5.1 180 12:59 01.04.2020
402 Clouds 13 1020 87 10000 5.1 180 12:41 01.04.2020
403 Clouds 13 1020 87 10000 5.1 190 12:22 01.04.2020
404 Clouds 13 1020 87 10000 5.1 200 11:57 01.04.2020
405 Clouds 13 1020 87 10000 5.1 200 11:38 01.04.2020
406 Clouds 13 1020 87 10000 5.7 180 11:20 01.04.2020
407 Clouds 13 1020 87 10000 5.1 200 10:40 01.04.2020
408 Clouds 13 1020 87 10000 5.7 190 10:21 01.04.2020
409 Clouds 13 1019 87 10000 5.1 190 09:59 01.04.2020
410 Clouds 13 1019 87 10000 5.1 190 09:40 01.04.2020
411 Clouds 13 1019 87 10000 5.1 190 09:20 01.04.2020
412 Clouds 14 1019 87 10000 4.1 210 08:56 01.04.2020
413 Clouds 14 1019 87 10000 4.1 210 08:37 01.04.2020
414 Clouds 14 1019 93 10000 4.6 210 08:18 01.04.2020
415 Clouds 15 1018 93 10000 4.1 220 07:41 01.04.2020
416 Clouds 15 1018 93 10000 4.1 220 07:19 01.04.2020
417 Clouds 16 1018 87 10000 4.6 200 06:43 01.04.2020
418 Clouds 16 1018 82 10000 4.6 190 06:21 01.04.2020
419 Clear 17 1018 93 10000 4.6 210 05:41 01.04.2020
420 Clear 16 1019 87 10000 4.1 170 03:57 01.04.2020
421 Clear 16 1019 87 10000 4.6 170 03:20 01.04.2020
422 Clear 16 1020 87 10000 4.6 190 02:37 01.04.2020
423 Clear 16 1020 87 10000 3.6 190 01:53 01.04.2020
424 Clear 16 1020 77 10000 3.1 200 01:27 01.04.2020
425 Clear 16 1020 77 10000 3.1 360 00:47 01.04.2020
426 Clear 15 1020 82 10000 3.1 360 00:23 01.04.2020
427 Clear 15 1020 87 10000 2.6 350 23:59 31.03.2020
428 Clear 15 1020 87 10000 2.6 350 23:40 31.03.2020
429 Clear 14 1020 93 10000 3.1 350 23:21 31.03.2020
430 Clear 12 1020 100 10000 3.1 10 22:41 31.03.2020
431 Clear 12 1020 100 10000 3.1 10 22:21 31.03.2020
432 Clear 11 1020 100 10000 2.1 10 21:58 31.03.2020
433 Fog 11 1020 100 550 2.6 30 21:40 31.03.2020
434 Fog 11 1020 100 550 2.6 30 21:40 31.03.2020
435 Fog 11 1020 100 550 2.6 30 21:21 31.03.2020
436 Fog 10 1019 100 250 2.6 50 20:57 31.03.2020
437 Fog 10 1019 100 250 2.6 50 20:57 31.03.2020
438 Fog 10 1019 100 250 2.6 50 20:57 31.03.2020
439 Fog 11 1019 100 250 2.6 50 20:37 31.03.2020
440 Fog 11 1019 100 250 2.6 50 20:19 31.03.2020
441 Clouds 11 1019 100 10000 1.5 50 19:56 31.03.2020
442 Clouds 11 1019 100 10000 2.6 20 19:37 31.03.2020
443 Clouds 11 1019 100 10000 2.6 20 19:19 31.03.2020
444 Clouds 12 1019 93 10000 3.1 10 18:44 31.03.2020
445 Clouds 12 1019 93 10000 2.6 10 18:20 31.03.2020
446 Clouds 12 1019 93 10000 2.1 40 17:57 31.03.2020
447 Clouds 12 1019 93 10000 2.1 40 17:39 31.03.2020
448 Clouds 12 1019 93 10000 2.1 40 17:39 31.03.2020
449 Clouds 12 1019 93 10000 1 30 17:21 31.03.2020
450 Clouds 12 1019 93 10000 1.5 50 16:56 31.03.2020
451 Clouds 12 1019 93 10000 1.5 50 16:36 31.03.2020
452 Clouds 12 1020 93 10000 1.5 60 16:18 31.03.2020
453 Clouds 12 1020 93 10000 1.5 60 15:55 31.03.2020
454 Clouds 12 1020 93 10000 1.5 60 15:36 31.03.2020
455 Clouds 13 1020 100 10000 1.5 240 15:18 31.03.2020
456 Clouds 13 1020 100 10000 2.1 220 14:42 31.03.2020
457 Clouds 12 1020 100 10000 2.6 220 14:22 31.03.2020
458 Clouds 13 1020 100 10000 3.1 220 13:58 31.03.2020
459 Clouds 12 1020 100 10000 3.1 220 13:40 31.03.2020
460 Clouds 13 1020 100 10000 3.6 230 13:19 31.03.2020
461 Clouds 13 1020 100 10000 3.1 230 12:45 31.03.2020
462 Clouds 13 1020 87 10000 3.6 220 12:20 31.03.2020
463 Clouds 13 1020 93 10000 3.6 210 11:56 31.03.2020
464 Clouds 13 1020 93 10000 3.6 210 11:37 31.03.2020
465 Clouds 13 1020 93 10000 3.6 200 11:19 31.03.2020
466 Clouds 13 1020 93 10000 4.1 220 10:55 31.03.2020
467 Clouds 13 1020 93 10000 4.1 220 10:55 31.03.2020
468 Clouds 13 1020 93 10000 4.1 220 10:37 31.03.2020
469 Clouds 13 1020 87 10000 3.6 210 10:18 31.03.2020
470 Clouds 14 1019 87 10000 4.6 210 09:43 31.03.2020
471 Clouds 14 1019 87 10000 5.1 220 09:25 31.03.2020
472 Clouds 14 1019 87 10000 5.1 210 08:58 31.03.2020
473 Clouds 14 1019 87 10000 5.1 210 08:40 31.03.2020
474 Clouds 15 1019 93 10000 4.6 220 08:20 31.03.2020
475 Clouds 15 1019 87 10000 4.1 200 07:57 31.03.2020
476 Clouds 16 1019 87 10000 4.1 200 07:38 31.03.2020
477 Clouds 16 1019 87 10000 5.1 220 07:20 31.03.2020
478 Clouds 16 1019 87 10000 5.1 220 06:51 31.03.2020
479 Clouds 16 1019 87 10000 5.1 200 06:31 31.03.2020
480 Clouds 17 1019 87 10000 5.1 200 05:41 31.03.2020
481 Clouds 17 1020 87 10000 6.2 210 03:57 31.03.2020
482 Rain 17 1021 87 10000 5.7 220 02:26 31.03.2020
483 Clouds 18 1021 93 10000 6.2 230 01:46 31.03.2020
484 Clouds 17 1021 87 10000 4.6 220 00:52 31.03.2020
485 Clouds 16 1021 87 10000 4.1 190 00:25 31.03.2020
486 Clouds 16 1021 87 10000 4.6 220 23:59 30.03.2020
487 Clouds 15 1021 87 10000 4.6 220 23:38 30.03.2020
488 Clouds 15 1021 93 10000 3.6 170 23:19 30.03.2020
489 Clouds 15 1021 93 10000 3.6 190 22:56 30.03.2020
490 Clouds 15 1021 93 10000 3.6 190 22:37 30.03.2020
491 Clouds 15 1021 93 10000 3.6 190 22:37 30.03.2020
492 Clouds 14 1021 100 10000 5.1 170 22:18 30.03.2020
493 Clouds 14 1021 93 10000 4.6 170 21:55 30.03.2020
494 Clouds 14 1021 93 10000 4.6 170 21:37 30.03.2020
495 Rain 14 1021 93 10000 5.7 170 21:18 30.03.2020
496 Clouds 13 1021 93 10000 5.7 170 20:42 30.03.2020
497 Clouds 13 1021 93 10000 5.7 170 20:42 30.03.2020
498 Clouds 13 1021 93 10000 4.6 150 20:24 30.03.2020
499 Clouds 13 1021 87 10000 1.5 160 19:59 30.03.2020
500 Clouds 13 1021 87 10000 1.5 160 19:40 30.03.2020
501 Clouds 13 1021 93 10000 2.1 180 19:22 30.03.2020
502 Clouds 14 1021 87 10000 3.1 230 18:57 30.03.2020
503 Rain 14 1021 87 10000 3.1 230 18:38 30.03.2020
504 Drizzle 14 1021 87 10000 3.1 220 18:20 30.03.2020
505 Rain 14 1021 87 10000 3.1 190 17:57 30.03.2020
506 Rain 14 1021 82 10000 1 170 17:38 30.03.2020
507 Rain 14 1021 82 10000 1 170 17:19 30.03.2020
508 Rain 14 1021 82 10000 1 180 16:55 30.03.2020
509 Rain 14 1021 82 10000 1 180 16:37 30.03.2020
510 Rain 14 1021 82 10000 0.5 310 16:18 30.03.2020
511 Clouds 14 1021 82 10000 0.5 290 15:54 30.03.2020
512 Clouds 14 1021 82 10000 0.5 290 15:36 30.03.2020
513 Rain 14 1021 82 10000 0.5 330 15:18 30.03.2020
514 Rain 14 1021 82 10000 0.5 350 14:39 30.03.2020
515 Drizzle 14 1021 77 10000 1.5 130 14:19 30.03.2020
516 Rain 14 1022 82 10000 0.5 90 13:59 30.03.2020
517 Rain 14 1022 82 10000 0.5 90 13:40 30.03.2020
518 Rain 14 1022 82 10000 0.5 100 13:20 30.03.2020
519 Rain 14 1022 87 7000 1 280 12:55 30.03.2020
520 Rain 15 1022 87 7000 1 280 12:36 30.03.2020
521 Rain 15 1022 82 10000 0.5 40 12:18 30.03.2020
522 Rain 15 1022 82 10000 0.5 40 12:18 30.03.2020
523 Rain 15 1022 82 10000 1 360 11:43 30.03.2020
524 Rain 15 1022 82 10000 1.5 270 11:24 30.03.2020
525 Rain 15 1022 77 10000 0.5 200 10:59 30.03.2020
526 Rain 15 1022 77 10000 0.5 200 10:39 30.03.2020
527 Rain 16 1022 72 10000 1 280 10:21 30.03.2020
528 Rain 16 1022 72 10000 1 130 09:54 30.03.2020
529 Rain 16 1022 72 10000 1 130 09:36 30.03.2020
530 Rain 16 1022 67 10000 1.5 100 09:18 30.03.2020
531 Rain 16 1022 63 10000 2.6 60 08:40 30.03.2020
532 Rain 17 1021 63 10000 3.1 120 08:21 30.03.2020
533 Rain 17 1021 59 10000 2.6 120 07:48 30.03.2020
534 Rain 18 1021 63 10000 3.1 90 07:25 30.03.2020
535 Rain 17 1021 68 10000 3.1 110 06:47 30.03.2020
536 Rain 18 1021 63 10000 2.6 100 06:29 30.03.2020
537 Rain 18 1021 63 10000 3.1 70 05:47 30.03.2020
538 Rain 18 1022 63 10000 3.6 60 05:18 30.03.2020
539 Rain 19 1022 64 10000 1.5 350 04:21 30.03.2020
540 Rain 17 1022 82 10000 3.6 200 03:19 30.03.2020
541 Rain 17 1023 88 10000 3.6 170 01:59 30.03.2020
542 Rain 17 1023 87 10000 2.6 190 01:24 30.03.2020
543 Rain 15 1024 87 10000 2.6 190 00:30 30.03.2020
544 Rain 15 1024 93 10000 2.6 190 23:59 29.03.2020
545 Rain 14 1024 93 10000 2.6 190 23:41 29.03.2020
546 Rain 14 1024 93 10000 1.5 180 23:22 29.03.2020
547 Rain 13 1024 93 10000 1.5 260 22:57 29.03.2020
548 Rain 13 1024 93 10000 1.5 260 22:37 29.03.2020
549 Rain 12 1023 100 10000 1 170 22:18 29.03.2020
550 Rain 12 1023 100 10000 0.5 90 21:40 29.03.2020
551 Rain 11 1023 100 10000 2.1 30 21:21 29.03.2020
552 Clouds 11 1023 100 10000 1.5 60 20:56 29.03.2020
553 Clouds 11 1023 100 10000 1.5 60 20:56 29.03.2020
554 Clouds 11 1023 100 10000 1.5 60 20:38 29.03.2020
555 Clouds 11 1023 93 10000 1 110 20:19 29.03.2020
556 Clouds 11 1023 93 10000 2.6 190 19:59 29.03.2020
557 Clouds 11 1023 93 10000 2.6 190 19:41 29.03.2020
558 Clouds 12 1023 93 10000 2.6 200 19:23 29.03.2020
559 Clouds 11 1023 93 10000 2.1 200 18:57 29.03.2020
560 Clouds 12 1023 93 10000 2.6 180 18:39 29.03.2020
561 Clouds 11 1023 93 10000 2.6 180 18:20 29.03.2020
562 Clouds 12 1023 93 10000 3.1 190 17:56 29.03.2020
563 Clouds 12 1023 93 10000 3.1 190 17:56 29.03.2020
564 Clouds 12 1023 93 10000 3.1 190 17:38 29.03.2020
565 Clouds 11 1024 93 10000 3.1 180 17:19 29.03.2020
566 Clouds 11 1024 93 10000 2.1 140 16:57 29.03.2020
567 Clouds 11 1024 93 10000 2.1 140 16:38 29.03.2020
568 Clouds 11 1024 93 10000 2.1 140 16:38 29.03.2020
569 Clouds 12 1024 87 10000 2.1 190 16:19 29.03.2020
570 Clouds 12 1024 87 10000 2.6 150 15:43 29.03.2020
571 Clouds 11 1024 87 10000 1.5 120 15:25 29.03.2020
572 Clouds 11 1024 87 10000 3.1 150 14:59 29.03.2020
573 Clouds 12 1024 87 10000 3.1 150 14:40 29.03.2020
574 -273 0 0 0 0 0 14:20 29.03.2020
575 Clouds 12 1025 93 10000 2.1 190 13:58 29.03.2020
576 Clouds 12 1025 93 10000 2.1 190 13:40 29.03.2020
577 Clouds 12 1025 93 7000 2.1 200 13:20 29.03.2020
578 Clouds 11 1020 94 0 4.29 156 12:57 29.03.2020
579 Clouds 12 1023 95 0 4.29 156 12:38 29.03.2020
580 Rain 12 1021 94 0 5.67 166 12:19 29.03.2020
581 Rain 13 1025 87 10000 3.1 200 11:55 29.03.2020
582 Rain 12 1023 94 0 5.67 166 11:37 29.03.2020
583 Rain 13 1025 93 10000 3.6 200 11:18 29.03.2020
584 Rain 13 1025 93 10000 3.6 200 11:18 29.03.2020
585 Rain 13 1023 94 0 5.67 166 10:38 29.03.2020
586 Rain 13 1025 93 5000 1 180 10:19 29.03.2020
587 Rain 13 1025 93 7000 1.5 260 09:41 29.03.2020
588 Rain 13 1024 93 7000 3.6 210 09:22 29.03.2020
589 Rain 13 1024 93 10000 2.6 180 08:57 29.03.2020
590 Rain 14 1024 93 10000 2.6 180 08:39 29.03.2020
591 Rain 14 1024 93 10000 5.7 190 08:20 29.03.2020
592 Rain 14 1024 93 10000 8.7 200 07:44 29.03.2020
593 Rain 14 1024 87 10000 7.7 200 07:21 29.03.2020
594 Rain 15 1023 82 10000 4.6 210 05:58 29.03.2020
595 Rain 14 1023 82 10000 2.1 230 04:55 29.03.2020
596 Rain 13 1022 87 10000 5.1 80 03:33 29.03.2020
597 Drizzle 12 1021 93 5000 14.9 200 01:52 29.03.2020
598 Rain 11 1022 93 1400 13.4 250 01:24 29.03.2020
599 Rain 11 1024 100 900 14.9 230 00:58 29.03.2020
600 Rain 11 1024 100 1400 17 210 00:33 29.03.2020
601 Rain 12 1024 100 1400 15.9 210 23:57 28.03.2020
602 Rain 11 1024 100 1800 18 200 23:39 28.03.2020
603 Rain 11 1024 100 1800 18 200 23:20 28.03.2020
604 Rain 11 1025 100 1900 17.5 200 22:41 28.03.2020
605 Rain 11 1024 100 1800 18 200 22:22 28.03.2020
606 Drizzle 11 1024 87 5000 18.5 200 21:56 28.03.2020
607 Drizzle 11 1024 87 5000 18.5 200 21:38 28.03.2020
608 Rain 11 1024 93 5000 17.5 200 21:19 28.03.2020
609 Rain 11 1024 93 6000 16.5 200 20:54 28.03.2020
610 Rain 11 1024 93 6000 16.5 200 20:36 28.03.2020
611 Rain 11 1024 93 2600 15.9 200 20:18 28.03.2020
612 Rain 10 1024 100 2600 18 200 19:54 28.03.2020
613 Rain 10 1024 100 2600 18 200 19:36 28.03.2020
614 Rain 11 1024 93 3000 17.5 200 19:18 28.03.2020
615 Rain 11 1024 93 4300 17.5 200 18:39 28.03.2020
616 Rain 11 1024 87 5000 17.5 200 18:20 28.03.2020
617 Rain 10 1023 91 0 3.58 30 17:40 28.03.2020
618 Drizzle 10 1024 81 8000 17 190 17:22 28.03.2020
619 Rain 10 1024 87 7000 17 200 16:57 28.03.2020
620 Rain 11 1024 87 7000 17 200 16:38 28.03.2020
621 Rain 11 1025 87 6000 15.9 200 16:18 28.03.2020
622 Rain 11 1025 87 5000 15.4 200 15:40 28.03.2020
623 Drizzle 11 1025 87 8000 15.4 190 15:19 28.03.2020
624 Drizzle 11 1025 87 8000 15.4 190 15:19 28.03.2020
625 Drizzle 11 1025 82 8000 13.4 190 14:57 28.03.2020
626 Drizzle 11 1025 82 8000 13.4 190 14:39 28.03.2020
627 Drizzle 11 1025 81 10000 13.4 180 14:21 28.03.2020
628 Drizzle 11 1025 81 10000 13.4 180 14:20 28.03.2020
629 Drizzle 11 1025 81 10000 13.4 180 14:20 28.03.2020
630 Rain 11 1025 81 10000 13.9 190 13:42 28.03.2020
631 Rain 11 1026 87 6000 13.4 190 13:23 28.03.2020
632 Rain 11 1026 87 6000 13.4 180 12:41 28.03.2020
633 Rain 11 1026 87 6000 12.9 190 12:22 28.03.2020
634 Rain 11 1026 82 10000 13.9 190 11:43 28.03.2020
635 Rain 11 1025 76 10000 14.4 190 11:24 28.03.2020
636 Rain 11 1025 81 10000 13.9 180 10:58 28.03.2020
637 Rain 11 1025 81 10000 13.9 180 10:38 28.03.2020
638 Rain 11 1025 81 9000 13.9 190 10:19 28.03.2020
639 Rain 11 1025 87 10000 13.4 180 09:43 28.03.2020
640 Rain 12 1025 76 10000 14.4 190 09:24 28.03.2020
641 Rain 12 1025 82 10000 12.3 180 08:57 28.03.2020
642 Rain 12 1025 82 10000 12.3 180 08:39 28.03.2020
643 Rain 12 1024 76 10000 13.4 180 08:20 28.03.2020
644 Rain 12 1024 76 10000 13.9 190 07:44 28.03.2020
645 Rain 12 1024 71 10000 13.4 180 06:59 28.03.2020
646 Rain 12 1024 76 10000 12.9 180 06:35 28.03.2020
647 Rain 12 1023 71 10000 13.9 190 05:43 28.03.2020
648 Rain 12 1023 82 10000 14.9 190 05:21 28.03.2020
649 Rain 12 1023 76 10000 14.9 190 04:41 28.03.2020
650 Rain 11 1023 87 10000 13.9 180 03:54 28.03.2020
651 Rain 11 1023 87 5000 12.9 180 02:21 28.03.2020
652 Rain 11 1023 93 3400 12.9 180 01:30 28.03.2020
653 Rain 12 1023 87 3000 14.4 180 00:59 28.03.2020
654 Rain 12 1023 87 7000 13.4 180 00:36 28.03.2020
655 Rain 11 1022 87 4700 15.4 190 23:57 27.03.2020
656 Rain 11 1022 87 4700 15.4 190 23:39 27.03.2020
657 Drizzle 11 1022 93 6000 15.9 190 23:21 27.03.2020
658 Rain 11 1022 87 5000 16.5 190 22:56 27.03.2020
659 Rain 11 1022 87 5000 16.5 190 22:37 27.03.2020
660 Rain 10 1021 93 5000 17 200 22:19 27.03.2020
661 Rain 11 1021 87 5000 18.5 190 21:44 27.03.2020
662 Haze 11 1020 87 5000 19.5 200 21:25 27.03.2020
663 Haze 11 1020 87 5000 19.5 200 21:25 27.03.2020
664 Rain 11 1020 87 6000 18.5 200 20:59 27.03.2020
665 Rain 11 1020 87 6000 18.5 200 20:41 27.03.2020
666 Haze 11 1020 87 5000 18.5 200 20:21 27.03.2020
667 Drizzle 11 1020 87 5000 19 200 19:58 27.03.2020
668 Rain 10 1015 93 0 1.34 191 19:40 27.03.2020
669 Rain 10 1014 93 0 1.34 145 19:21 27.03.2020
670 Rain 11 1019 87 4300 18.5 200 18:45 27.03.2020
671 Rain 10 1019 100 2900 17.5 210 18:25 27.03.2020
672 Rain 10 1019 93 2100 19.5 200 17:59 27.03.2020
673 Rain 10 1018 93 2700 18 200 17:39 27.03.2020
674 Rain 10 1018 93 2700 18 200 17:20 27.03.2020
675 Rain 10 1018 100 2900 18.5 200 16:44 27.03.2020
676 Rain 10 1018 93 3000 18.5 200 16:26 27.03.2020
677 Rain 11 1018 93 2800 18.5 200 15:56 27.03.2020
678 Rain 11 1018 93 2800 18.5 200 15:38 27.03.2020
679 Rain 10 1018 93 2100 19 200 15:20 27.03.2020
680 Rain 10 1018 87 3300 20.1 200 14:45 27.03.2020
681 Rain 10 1018 93 3400 18 200 14:24 27.03.2020
682 Rain 11 1018 93 2400 18.5 200 13:56 27.03.2020
683 Rain 11 1018 93 2400 18.5 200 13:37 27.03.2020
684 Rain 11 1017 93 3600 19 200 13:18 27.03.2020
685 Rain 11 1018 100 1500 18 200 12:45 27.03.2020
686 Rain 11 1017 100 1900 17.5 190 12:20 27.03.2020
687 Rain 11 1017 100 1400 17 200 11:59 27.03.2020
688 Rain 11 1017 100 1400 17 200 11:59 27.03.2020
689 Rain 11 1017 100 1400 17 200 11:59 27.03.2020
690 Rain 12 1017 93 2100 15.9 200 11:40 27.03.2020
691 Rain 11 1017 93 2100 15.9 200 11:22 27.03.2020
692 Rain 12 1017 93 3400 14.9 190 10:54 27.03.2020
693 Rain 12 1017 93 3600 14.9 190 10:36 27.03.2020
694 Rain 12 1017 93 3600 14.9 190 10:18 27.03.2020
695 Rain 12 1017 93 9000 7.2 150 09:54 27.03.2020
696 Rain 12 1017 93 9000 7.2 150 09:36 27.03.2020
697 Rain 13 1016 93 6000 8.2 180 09:18 27.03.2020
698 Rain 12 1016 93 4400 11.8 190 08:54 27.03.2020
699 Rain 13 1016 93 4400 11.8 190 08:36 27.03.2020
700 Rain 13 1016 93 8000 10.3 170 08:18 27.03.2020
701 Rain 13 1016 93 7000 11.8 170 07:41 27.03.2020
702 Rain 13 1016 87 10000 9.3 140 07:21 27.03.2020
703 Rain 13 1015 87 10000 7.7 150 06:41 27.03.2020
704 Rain 13 1015 93 7000 7.7 150 06:18 27.03.2020
705 Rain 14 1015 93 10000 9.3 200 03:42 27.03.2020
706 Rain 17 1015 68 10000 2.1 320 02:19 27.03.2020
707 Rain 18 1015 59 10000 7.7 10 01:19 27.03.2020
708 Rain 17 1015 63 10000 6.2 10 00:45 27.03.2020
709 Rain 17 1015 63 10000 5.7 20 00:20 27.03.2020
710 Rain 17 1015 72 10000 5.7 40 23:42 26.03.2020
711 Rain 16 1015 72 10000 5.7 40 23:19 26.03.2020
712 Rain 15 1015 82 10000 4.6 20 22:57 26.03.2020
713 Rain 15 1015 82 10000 4.6 20 22:36 26.03.2020
714 Rain 14 1015 82 10000 4.1 30 22:18 26.03.2020
715 Rain 13 1014 87 10000 5.1 60 21:40 26.03.2020
716 Rain 13 1014 87 10000 4.6 30 21:22 26.03.2020
717 Rain 13 1013 93 10000 5.1 10 20:59 26.03.2020
718 Rain 13 1013 93 10000 5.1 10 20:39 26.03.2020
719 Rain 13 1013 93 10000 5.7 20 20:21 26.03.2020
720 Rain 14 1013 93 10000 5.7 10 19:58 26.03.2020
721 Rain 14 1013 93 10000 5.7 10 19:40 26.03.2020
722 Rain 14 1013 93 10000 5.7 10 19:21 26.03.2020
723 Rain 14 1013 93 10000 6.2 10 18:58 26.03.2020
724 Rain 14 1013 87 10000 6.7 10 18:40 26.03.2020
725 Rain 14 1013 87 10000 6.7 10 18:21 26.03.2020
726 Rain 15 1013 82 10000 6.2 20 17:45 26.03.2020
727 Rain 15 1013 82 10000 6.2 20 17:20 26.03.2020
728 Rain 15 1013 82 10000 7.2 360 16:57 26.03.2020
729 Rain 15 1013 82 10000 7.2 10 16:38 26.03.2020
730 Rain 15 1013 82 10000 7.2 10 16:38 26.03.2020
731 Rain 15 1013 82 10000 7.2 10 16:19 26.03.2020
732 Rain 15 1013 82 10000 7.7 10 15:55 26.03.2020
733 Rain 15 1013 82 10000 7.7 10 15:55 26.03.2020
734 Rain 15 1013 82 10000 7.7 10 15:37 26.03.2020
735 Rain 15 1013 82 10000 7.2 360 15:18 26.03.2020
736 Rain 15 1013 82 10000 7.2 360 14:43 26.03.2020
737 Rain 15 1014 77 10000 6.7 360 14:24 26.03.2020
738 Clouds 15 1014 82 10000 7.7 350 13:56 26.03.2020
739 Rain 15 1014 82 10000 7.7 350 13:38 26.03.2020
740 Drizzle 14 1014 87 10000 7.2 350 13:19 26.03.2020
741 Rain 15 1014 82 10000 6.7 350 12:39 26.03.2020
742 Rain 15 1014 77 10000 7.2 350 12:20 26.03.2020
743 Rain 15 1013 72 10000 8.2 10 11:46 26.03.2020
744 Rain 15 1013 77 10000 8.7 360 11:23 26.03.2020
745 Clouds 15 1013 77 10000 9.3 350 10:59 26.03.2020
746 Clouds 15 1013 77 10000 9.3 350 10:41 26.03.2020
747 Clouds 15 1013 77 10000 8.7 350 10:20 26.03.2020
748 Clouds 15 1013 77 10000 11.3 350 09:45 26.03.2020
749 Clouds 15 1013 77 10000 9.3 350 09:21 26.03.2020
750 Clouds 15 1013 77 10000 10.3 360 08:57 26.03.2020
751 Clouds 15 1013 77 10000 10.3 360 08:39 26.03.2020
752 Clouds 15 1013 72 10000 9.8 350 08:20 26.03.2020
753 Clouds 15 1013 72 10000 9.8 350 07:46 26.03.2020
754 Clouds 16 1013 67 10000 9.3 340 07:24 26.03.2020
755 Clouds 16 1012 67 10000 10.8 340 06:57 26.03.2020
756 Clouds 16 1013 67 10000 9.8 330 06:32 26.03.2020
757 Clouds 17 1013 59 10000 9.3 350 05:29 26.03.2020
758 Clouds 18 1013 52 10000 9.3 350 03:45 26.03.2020
759 Clouds 17 1014 55 10000 10.3 360 02:57 26.03.2020
760 Clouds 17 1014 52 10000 11.3 360 01:51 26.03.2020
761 Clouds 17 1014 59 10000 10.3 350 01:18 26.03.2020
762 Clouds 17 1014 55 10000 9.8 360 00:23 26.03.2020
763 Clouds 17 1014 72 10000 10.3 360 23:42 25.03.2020
764 Clouds 17 1014 72 10000 10.3 360 23:22 25.03.2020
765 Clouds 16 1014 67 10000 10.8 360 22:42 25.03.2020
766 Clouds 16 1014 63 10000 10.8 360 22:22 25.03.2020
767 Clouds 16 1014 63 10000 11.3 360 21:59 25.03.2020
768 Clouds 16 1014 63 10000 11.3 360 21:40 25.03.2020
769 Clouds 16 1014 67 10000 10.8 360 21:22 25.03.2020
770 Clouds 15 1015 72 10000 10.3 360 20:57 25.03.2020
771 Clouds 15 1015 72 10000 10.3 360 20:37 25.03.2020
772 Clouds 14 1014 72 10000 11.3 360 20:18 25.03.2020
773 Clouds 14 1014 72 10000 10.3 360 19:43 25.03.2020
774 Clouds 14 1014 77 10000 9.8 20 19:24 25.03.2020
775 Clouds 14 1015 77 10000 8.7 360 18:59 25.03.2020
776 Clouds 14 1015 77 10000 8.2 10 18:40 25.03.2020
777 Clouds 14 1015 77 10000 8.2 10 18:22 25.03.2020
778 Clouds 15 1015 77 10000 8.7 360 17:57 25.03.2020
779 Clouds 14 1015 77 10000 8.2 10 17:39 25.03.2020
780 Clouds 14 1015 77 10000 8.2 10 17:21 25.03.2020
781 Clouds 14 1015 77 10000 9.3 10 16:55 25.03.2020
782 Clouds 14 1015 82 10000 7.7 30 16:36 25.03.2020
783 Clouds 14 1015 82 10000 7.7 30 16:18 25.03.2020
784 Clouds 14 1015 82 10000 7.7 30 15:41 25.03.2020
785 Clouds 14 1016 82 10000 7.2 20 15:20 25.03.2020
786 Clouds 14 1016 77 10000 8.7 10 14:56 25.03.2020
787 Clouds 14 1016 77 10000 8.7 10 14:37 25.03.2020
788 Clouds 15 1016 77 10000 8.2 20 14:18 25.03.2020
789 Clouds 15 1016 77 10000 8.7 20 13:42 25.03.2020
790 Clouds 15 1016 77 10000 8.7 20 13:22 25.03.2020
791 Clouds 15 1016 72 10000 9.8 10 12:38 25.03.2020
792 Clouds 15 1016 72 10000 9.8 10 12:20 25.03.2020
793 Clouds 15 1016 77 10000 9.3 10 11:56 25.03.2020
794 Clouds 15 1016 77 10000 9.3 10 11:38 25.03.2020
795 Clouds 15 1016 77 10000 8.7 20 11:20 25.03.2020
796 Clouds 15 1016 77 10000 7.2 20 10:57 25.03.2020
797 Clouds 15 1016 77 10000 7.2 20 10:39 25.03.2020
798 Clouds 15 1016 77 10000 6.7 20 10:18 25.03.2020
799 Clouds 15 1016 77 10000 6.7 20 09:43 25.03.2020
800 Clouds 15 1016 72 10000 6.7 20 09:24 25.03.2020
801 Clouds 15 1015 77 10000 7.7 10 08:57 25.03.2020
802 Clouds 15 1015 77 10000 7.7 10 08:39 25.03.2020
803 Clouds 15 1015 77 10000 7.7 360 08:19 25.03.2020
804 Clouds 15 1015 72 10000 7.7 360 07:41 25.03.2020
805 Clouds 15 1015 67 10000 7.2 10 07:22 25.03.2020
806 Clouds 16 1015 55 10000 6.7 10 06:50 25.03.2020
807 Clouds 17 1015 48 10000 7.2 360 06:28 25.03.2020
808 Clouds 18 1015 48 10000 6.7 360 05:57 25.03.2020
809 Clouds 18 1015 48 10000 6.7 360 05:37 25.03.2020
810 Clear 18 1015 45 10000 7.2 350 04:40 25.03.2020
811 Clear 19 1015 49 10000 6.2 350 03:49 25.03.2020
812 Clear 18 1015 49 10000 7.2 360 03:29 25.03.2020
813 Clear 18 1015 48 10000 6.2 360 01:25 25.03.2020
814 Clear 18 1015 52 10000 6.2 360 00:49 25.03.2020
815 Clear 17 1015 55 10000 6.7 10 00:25 25.03.2020
816 Clear 17 1015 59 10000 5.7 10 23:50 24.03.2020
817 Clear 16 1015 63 10000 5.7 10 23:28 24.03.2020
818 Clear 16 1015 67 10000 5.7 10 22:57 24.03.2020
819 Clear 16 1015 67 10000 5.7 10 22:38 24.03.2020
820 Clear 14 1014 67 10000 6.2 30 22:19 24.03.2020
821 Clear 14 1014 67 10000 6.2 30 22:19 24.03.2020
822 Clear 14 1014 67 10000 6.2 30 22:19 24.03.2020
823 Clear 13 1014 76 10000 5.7 360 21:56 24.03.2020
824 Clear 13 1014 76 10000 5.7 360 21:38 24.03.2020
825 Clear 12 1014 81 10000 5.1 360 21:18 24.03.2020
826 Clear 12 1014 81 10000 5.1 360 21:18 24.03.2020
827 Clear 11 1014 81 10000 4.1 10 20:57 24.03.2020
828 Clear 10 1014 81 10000 4.1 10 20:39 24.03.2020
829 Clear 10 1014 81 10000 3.6 10 20:21 24.03.2020
830 Clear 10 1014 81 10000 4.1 360 19:45 24.03.2020
831 Clear 10 1013 81 10000 3.6 10 19:19 24.03.2020
832 Clear 10 1013 87 10000 4.6 360 18:56 24.03.2020
833 Clear 10 1013 87 10000 4.6 360 18:56 24.03.2020
834 Clear 10 1013 87 10000 3.6 360 18:37 24.03.2020
835 Clear 10 1013 87 10000 3.6 360 18:18 24.03.2020
836 Clear 9 1013 87 10000 3.1 20 17:42 24.03.2020
837 Clear 9 1013 87 10000 3.1 20 17:42 24.03.2020
838 Clear 9 1013 93 10000 2.6 30 17:24 24.03.2020
839 Clear 8 1013 87 10000 3.6 20 16:59 24.03.2020
840 Clear 8 1013 87 10000 3.6 20 16:41 24.03.2020
841 Clear 8 1012 87 10000 3.1 30 16:23 24.03.2020
842 Clear 8 1012 87 10000 3.1 30 16:23 24.03.2020
843 Clear 8 1012 87 10000 2.1 30 15:59 24.03.2020
844 Clear 8 1012 87 10000 2.1 30 15:39 24.03.2020
845 Clear 8 1012 81 10000 2.6 30 15:21 24.03.2020
846 Clear 8 1012 81 10000 2.6 30 15:21 24.03.2020
847 -273 0 0 0 0 0 15:21 24.03.2020
848 Clear 9 1012 87 10000 2.6 40 14:43 24.03.2020
849 Clear 10 1012 81 10000 2.6 20 14:21 24.03.2020
850 Clear 10 1012 81 10000 1.5 20 13:55 24.03.2020
851 Clear 10 1012 81 10000 1.5 20 13:36 24.03.2020
852 Clear 10 1011 81 10000 2.1 10 13:18 24.03.2020
853 Clear 10 1011 81 10000 1.5 100 12:41 24.03.2020
854 Clear 10 1011 81 10000 1.5 100 12:41 24.03.2020
855 Clear 10 1011 76 10000 1.5 30 12:22 24.03.2020
856 Clear 11 1011 71 10000 1 40 11:41 24.03.2020
857 Clouds 11 1010 71 10000 0.5 240 11:20 24.03.2020
858 Clouds 11 1010 62 10000 2.6 120 10:55 24.03.2020
859 Clouds 11 1010 62 10000 2.6 120 10:36 24.03.2020
860 Clouds 12 1010 62 10000 3.1 140 10:18 24.03.2020
861 Clouds 12 1009 67 0 3.21 159 09:43 24.03.2020
862 Clouds 13 1008 58 10000 1 60 09:24 24.03.2020
863 Clouds 13 1004 74 0 3.21 159 08:40 24.03.2020
864 Clear 13 1008 61 0 5.09 172 08:21 24.03.2020
865 Clouds 14 1007 51 10000 1.5 190 07:52 24.03.2020
866 Clouds 14 1006 67 0 0.5 181 07:25 24.03.2020
867 Clouds 15 1006 51 10000 5.1 320 06:59 24.03.2020
868 Clouds 15 1006 48 10000 3.6 310 06:34 24.03.2020
869 Clouds 15 1006 48 10000 5.7 330 05:36 24.03.2020
870 Clouds 16 1006 33 10000 5.1 340 04:50 24.03.2020
871 Clouds 16 1005 31 10000 5.7 320 03:19 24.03.2020
872 Clouds 16 1005 59 10000 6.2 310 02:37 24.03.2020
873 Clouds 15 1006 38 10000 3.6 290 00:54 24.03.2020
874 Clouds 15 1006 30 10000 2.1 280 00:27 24.03.2020
875 Clouds 14 1006 35 10000 3.1 190 23:55 23.03.2020
876 Clouds 14 1006 53 10000 3.6 210 23:37 23.03.2020
877 Clouds 13 1006 49 10000 3.6 210 23:19 23.03.2020
878 Clouds 13 1006 49 10000 4.6 210 22:43 23.03.2020
879 Clouds 12 1006 49 10000 5.7 210 22:22 23.03.2020
880 Clouds 12 1006 49 10000 5.7 210 22:22 23.03.2020
881 Clouds 12 1006 49 10000 6.2 210 21:55 23.03.2020
882 Clouds 11 1006 49 10000 6.2 210 21:37 23.03.2020
883 Clouds 11 1006 46 10000 8.7 200 21:18 23.03.2020
884 Clouds 10 1005 58 10000 11.8 200 20:42 23.03.2020
885 Clouds 10 1005 54 10000 12.9 200 20:24 23.03.2020
886 Rain 10 1004 50 10000 12.9 210 19:55 23.03.2020
887 Rain 10 1004 50 10000 12.9 210 19:37 23.03.2020
888 Rain 9 1004 54 10000 14.4 210 19:19 23.03.2020
889 Rain 9 1003 66 6000 9.8 200 18:43 23.03.2020
890 Rain 9 1003 66 6000 9.8 200 18:24 23.03.2020
891 Rain 9 1003 71 8000 12.9 190 17:59 23.03.2020
892 Rain 8 1003 71 9000 13.4 190 17:40 23.03.2020
893 Rain 9 1003 71 9000 13.4 190 17:19 23.03.2020
894 Rain 9 1002 71 10000 13.4 190 16:43 23.03.2020
895 Rain 9 1002 76 9000 14.4 190 16:25 23.03.2020
896 Rain 9 1002 76 9000 14.4 190 16:25 23.03.2020
897 Rain 9 1001 81 10000 14.4 180 15:58 23.03.2020
898 Rain 9 1001 81 10000 14.4 180 15:39 23.03.2020
899 Rain 10 1001 76 10000 14.4 180 15:18 23.03.2020
900 Rain 10 1000 76 10000 14.9 190 14:37 23.03.2020
901 Rain 10 1000 76 10000 14.9 190 14:37 23.03.2020
902 Rain 12 999 81 10000 14.9 180 14:19 23.03.2020
903 Rain 12 999 81 10000 14.9 180 14:19 23.03.2020
904 Rain 11 999 93 3700 15.9 190 13:57 23.03.2020
905 Rain 13 997 82 8000 5.1 260 13:38 23.03.2020
906 Rain 14 997 82 8000 5.1 260 13:20 23.03.2020
907 Rain 14 996 87 10000 4.1 310 12:43 23.03.2020
908 Rain 14 995 87 10000 4.6 350 12:23 23.03.2020
909 Rain 15 995 82 10000 5.7 330 11:56 23.03.2020
910 Rain 15 995 82 10000 5.1 330 11:37 23.03.2020
911 Rain 15 995 82 10000 5.1 330 11:19 23.03.2020
912 Rain 15 994 87 10000 6.2 360 10:56 23.03.2020
913 Rain 15 994 87 10000 6.2 360 10:36 23.03.2020
914 Rain 15 994 82 10000 7.2 10 10:18 23.03.2020
915 Rain 15 995 82 10000 6.7 350 09:42 23.03.2020
916 Rain 15 995 87 10000 7.2 350 09:20 23.03.2020
917 Rain 16 996 77 10000 6.7 340 08:38 23.03.2020
918 Rain 16 996 77 10000 5.1 20 08:20 23.03.2020
919 Drizzle 16 996 77 10000 6.2 360 07:54 23.03.2020
920 Rain 16 997 72 10000 5.1 340 07:34 23.03.2020
921 Rain 16 997 68 10000 6.7 360 06:58 23.03.2020
922 Rain 17 997 68 10000 8.7 350 06:40 23.03.2020
923 Rain 17 998 77 10000 8.7 340 05:44 23.03.2020
924 Rain 17 999 72 10000 6.2 350 04:41 23.03.2020
925 Clouds 18 1001 63 10000 8.7 340 02:59 23.03.2020
926 Clouds 18 1003 68 10000 8.2 350 01:50 23.03.2020
927 Clouds 17 1003 72 10000 8.7 350 00:50 23.03.2020
928 Clouds 18 1004 68 10000 10.8 360 00:29 23.03.2020
929 Clouds 18 1004 63 10000 9.3 350 23:44 22.03.2020
930 Clouds 18 1005 68 10000 9.8 350 23:24 22.03.2020
931 Clouds 17 1005 68 10000 9.8 360 22:42 22.03.2020
932 Clouds 17 1005 68 10000 7.2 350 22:22 22.03.2020
933 Clouds 16 1006 72 10000 7.2 350 21:54 22.03.2020
934 Clouds 16 1006 72 10000 7.2 350 21:36 22.03.2020
935 Clouds 16 1006 72 10000 6.2 350 21:18 22.03.2020
936 Clouds 16 1006 77 10000 6.2 350 20:42 22.03.2020
937 Clouds 16 1006 77 10000 7.2 350 20:24 22.03.2020
938 Clouds 15 1006 77 10000 7.2 350 19:57 22.03.2020
939 Clouds 15 1006 77 10000 7.2 350 19:38 22.03.2020
940 Clouds 15 1006 77 10000 6.2 350 19:19 22.03.2020
941 Clouds 15 1007 77 10000 6.7 340 18:58 22.03.2020
942 Clouds 15 1007 77 10000 6.7 340 18:40 22.03.2020
943 Clouds 15 1007 77 10000 6.7 340 18:21 22.03.2020
944 Clouds 15 1007 77 10000 7.7 350 17:57 22.03.2020
945 Clouds 15 1007 77 10000 7.7 350 17:38 22.03.2020
946 Clouds 15 1007 77 10000 5.7 340 17:20 22.03.2020
947 Clouds 15 1008 77 10000 7.2 350 16:57 22.03.2020
948 Clouds 15 1008 77 10000 7.2 350 16:39 22.03.2020
949 Clouds 15 1008 77 10000 6.2 340 16:20 22.03.2020
950 Clouds 15 1008 77 10000 6.2 340 15:40 22.03.2020
951 Clouds 15 1008 77 10000 6.2 340 15:40 22.03.2020
952 Clouds 15 1009 77 10000 6.2 340 15:21 22.03.2020
953 Clouds 15 1009 77 9000 6.2 340 14:46 22.03.2020
954 Clouds 15 1009 77 10000 7.2 340 14:19 22.03.2020
955 Clouds 15 1009 77 10000 7.2 340 13:44 22.03.2020
956 Clouds 15 1009 77 10000 6.2 340 13:20 22.03.2020
957 Clouds 15 1009 77 10000 6.2 340 12:59 22.03.2020
958 Clouds 15 1009 77 10000 6.2 340 12:41 22.03.2020
959 Clouds 16 1009 82 10000 6.7 340 12:19 22.03.2020
960 Clouds 16 1009 82 10000 7.2 340 11:43 22.03.2020
961 Clouds 16 1009 82 10000 7.2 330 11:25 22.03.2020
962 Clouds 16 1009 82 10000 8.2 350 10:58 22.03.2020
963 Clouds 16 1009 82 10000 8.2 350 10:40 22.03.2020
964 Clouds 16 1009 82 10000 6.7 350 10:22 22.03.2020
965 Clouds 16 1009 82 10000 8.2 340 09:46 22.03.2020
966 Clouds 16 1009 82 10000 8.2 340 09:46 22.03.2020
967 Clouds 17 1008 72 10000 8.2 340 09:27 22.03.2020
968 Clouds 17 1008 77 10000 8.2 340 08:48 22.03.2020
969 Clouds 17 1008 77 10000 8.2 340 08:48 22.03.2020
970 Clouds 17 1008 77 10000 9.3 340 08:30 22.03.2020
971 Clouds 17 1009 72 10000 7.7 340 07:55 22.03.2020
972 Clouds 17 1009 72 10000 7.7 340 07:37 22.03.2020
973 Clouds 18 1008 72 10000 8.7 350 06:41 22.03.2020
974 Clouds 19 1008 68 10000 8.7 340 05:47 22.03.2020
975 Clouds 20 1008 64 10000 8.7 350 04:39 22.03.2020
976 Clear 21 1009 64 10000 8.7 350 01:45 22.03.2020
977 Clear 20 1009 60 8000 5.1 330 00:50 22.03.2020
978 Clear 20 1009 64 10000 7.7 350 00:31 22.03.2020
979 Clear 19 1009 64 10000 8.7 340 23:46 21.03.2020
980 Clear 19 1009 68 9000 7.7 330 23:22 21.03.2020
981 Clouds 18 1009 68 10000 7.7 340 22:58 21.03.2020
982 Clouds 18 1009 68 10000 7.7 340 22:38 21.03.2020
983 Clouds 18 1009 68 10000 7.2 340 22:19 21.03.2020
984 Clouds 18 1010 72 10000 5.7 340 21:57 21.03.2020
985 Clouds 18 1010 72 10000 5.7 340 21:38 21.03.2020
986 Clouds 17 1010 77 10000 6.2 350 21:19 21.03.2020
987 Clouds 17 1010 77 8000 4.6 330 20:42 21.03.2020
988 Clouds 17 1009 82 10000 7.7 330 20:22 21.03.2020
989 Rain 16 1009 82 10000 7.2 330 19:55 21.03.2020
990 Rain 17 1009 82 10000 7.2 330 19:36 21.03.2020
991 Rain 16 1008 88 10000 8.2 350 19:18 21.03.2020
992 Rain 16 1008 77 10000 9.3 330 18:41 21.03.2020
993 Rain 17 1008 88 10000 12.3 350 18:21 21.03.2020
994 Rain 17 1009 93 9000 11.8 350 17:59 21.03.2020
995 Rain 17 1009 88 10000 11.3 350 17:41 21.03.2020
996 Rain 17 1009 88 10000 11.3 350 17:22 21.03.2020
997 Rain 17 1009 88 10000 11.8 350 16:42 21.03.2020
998 Rain 17 1009 88 10000 11.8 350 16:42 21.03.2020
999 Rain 17 1010 93 6000 11.3 350 16:24 21.03.2020
1000 Rain 17 1010 88 6000 12.3 350 15:59 21.03.2020
1001 Rain 17 1010 88 6000 12.3 350 15:40 21.03.2020
1002 Rain 17 1010 93 10000 12.9 360 15:22 21.03.2020
1003 Rain 17 1011 88 10000 11.8 10 14:57 21.03.2020
1004 Rain 17 1011 88 10000 11.8 10 14:38 21.03.2020
1005 Rain 17 1011 82 10000 13.9 360 14:19 21.03.2020
1006 Rain 17 1011 82 10000 11.8 360 13:58 21.03.2020
1007 Rain 17 1011 82 10000 11.8 360 13:39 21.03.2020
1008 Rain 17 1011 82 10000 12.9 360 13:21 21.03.2020
1009 Clouds 17 1012 82 10000 11.3 10 12:55 21.03.2020
1010 Clouds 17 1012 82 10000 11.8 360 12:36 21.03.2020
1011 Clouds 17 1012 82 10000 11.8 360 12:18 21.03.2020
1012 Clouds 17 1012 82 10000 11.8 350 11:55 21.03.2020
1013 Rain 17 1012 77 10000 10.8 350 11:37 21.03.2020
1014 Rain 17 1012 77 10000 10.8 350 11:18 21.03.2020
1015 Clouds 18 1012 72 10000 12.3 360 10:55 21.03.2020
1016 Clouds 18 1012 72 10000 12.3 360 10:37 21.03.2020
1017 Clouds 17 1013 77 10000 10.8 10 10:18 21.03.2020
1018 Clouds 17 1013 88 10000 9.3 10 09:40 21.03.2020
1019 Clouds 16 1014 88 10000 8.7 360 09:21 21.03.2020
1020 Clouds 16 1013 88 10000 8.2 20 08:56 21.03.2020
1021 Clouds 17 1013 88 10000 8.2 20 08:38 21.03.2020
1022 Clouds 17 1014 88 10000 6.7 20 08:20 21.03.2020
1023 Rain 16 1014 87 9000 9.8 10 07:39 21.03.2020
1024 Clouds 17 1014 77 10000 8.2 10 07:20 21.03.2020
1025 Clouds 17 1014 77 10000 8.2 10 07:20 21.03.2020
1026 Clouds 16 1014 77 10000 8.2 360 06:45 21.03.2020
1027 Clouds 17 1015 68 10000 8.7 360 06:25 21.03.2020
1028 Clouds 17 1014 63 10000 8.2 360 05:41 21.03.2020
1029 Clouds 17 1015 68 10000 9.3 360 04:34 21.03.2020
1030 Clouds 18 1016 60 10000 7.2 350 02:39 21.03.2020
1031 Clouds 19 1016 56 10000 6.2 340 01:54 21.03.2020
1032 Clouds 19 1016 60 10000 5.1 350 01:28 21.03.2020
1033 Clouds 18 1017 63 10000 4.6 10 00:43 21.03.2020
1034 Clouds 18 1017 63 10000 4.6 10 00:43 21.03.2020
1035 Clouds 17 1017 77 10000 4.1 10 00:24 21.03.2020
1036 Clouds 16 1017 77 10000 3.1 10 23:45 20.03.2020
1037 Clouds 16 1018 82 10000 3.1 350 23:23 20.03.2020
1038 Rain 15 1018 77 10000 2.6 360 22:44 20.03.2020
1039 Rain 14 1018 87 10000 2.6 10 22:25 20.03.2020
1040 Rain 14 1018 82 10000 1.5 10 21:59 20.03.2020
1041 Rain 13 1018 82 10000 1.5 10 21:41 20.03.2020
1042 Rain 13 1018 82 10000 1.5 360 21:20 20.03.2020
1043 Rain 13 1018 87 10000 2.1 20 20:59 20.03.2020
1044 Rain 13 1018 87 10000 2.1 20 20:41 20.03.2020
1045 Rain 12 1017 87 10000 2.6 30 20:21 20.03.2020
1046 Clouds 12 1017 87 10000 2.6 50 19:58 20.03.2020
1047 Clouds 12 1017 87 10000 2.6 50 19:39 20.03.2020
1048 Clouds 12 1017 82 10000 0.5 120 19:18 20.03.2020
1049 Clouds 13 1017 87 10000 0.5 240 18:39 20.03.2020
1050 Clouds 13 1017 87 10000 0.5 240 18:39 20.03.2020
1051 Clouds 13 1017 87 10000 2.6 220 18:20 20.03.2020
1052 Clouds 13 1017 82 10000 1.5 230 17:57 20.03.2020
1053 Clouds 13 1017 82 10000 1.5 220 17:39 20.03.2020
1054 Rain 13 1017 82 10000 1.5 220 17:20 20.03.2020
1055 Rain 13 1017 87 10000 1.5 190 16:43 20.03.2020
1056 Rain 13 1017 76 9000 2.1 180 16:21 20.03.2020
1057 Rain 13 1017 71 10000 1.5 160 15:59 20.03.2020
1058 Rain 13 1017 71 10000 1.5 160 15:41 20.03.2020
1059 Rain 13 1017 76 10000 2.1 120 15:20 20.03.2020
1060 Rain 13 1017 71 10000 2.6 120 14:42 20.03.2020
1061 Rain 13 1017 76 10000 2.6 140 14:21 20.03.2020
1062 Rain 13 1017 82 10000 3.1 140 13:55 20.03.2020
1063 Rain 13 1017 82 10000 3.1 140 13:36 20.03.2020
1064 Clouds 13 1017 82 10000 3.1 160 13:18 20.03.2020
1065 Rain 13 1017 82 10000 4.6 160 12:39 20.03.2020
1066 Rain 13 1017 82 10000 5.7 150 12:20 20.03.2020
1067 Rain 13 1017 82 10000 6.7 150 11:42 20.03.2020
1068 Rain 13 1017 82 10000 6.7 150 11:22 20.03.2020
1069 Rain 13 1017 71 10000 4.6 150 10:59 20.03.2020
1070 Rain 13 1017 71 10000 4.6 150 10:41 20.03.2020
1071 Rain 13 1017 71 10000 6.2 140 10:20 20.03.2020
1072 Rain 13 1017 71 10000 7.7 150 09:47 20.03.2020
1073 Rain 14 1016 67 10000 6.2 160 09:21 20.03.2020
1074 Rain 14 1016 71 10000 6.2 160 08:59 20.03.2020
1075 Rain 14 1016 71 10000 6.2 160 08:40 20.03.2020
1076 Clouds 14 1015 71 10000 6.7 150 08:20 20.03.2020
1077 Clouds 14 1015 72 10000 7.2 160 07:46 20.03.2020
1078 Clouds 14 1015 72 10000 6.7 160 07:26 20.03.2020
1079 Clouds 15 1014 72 10000 7.2 160 06:49 20.03.2020
1080 Clouds 15 1014 72 10000 7.7 160 06:31 20.03.2020
1081 Clouds 17 1013 72 10000 8.2 160 04:49 20.03.2020
1082 Clouds 18 1013 68 10000 8.2 160 03:20 20.03.2020
1083 Clear 17 1013 72 10000 7.7 160 01:51 20.03.2020
1084 Clear 18 1012 82 10000 5.1 190 00:46 20.03.2020
1085 Clear 18 1012 87 10000 6.2 220 00:26 20.03.2020
1086 Clear 19 1011 56 10000 4.6 10 23:45 19.03.2020
1087 Clear 20 1011 56 10000 4.6 10 23:26 19.03.2020
1088 Clear 20 1011 56 10000 4.6 10 23:26 19.03.2020
1089 Clear 20 1011 60 10000 6.7 10 22:56 19.03.2020
1090 Clear 19 1011 60 10000 6.7 10 22:38 19.03.2020
1091 Clear 18 1010 63 10000 6.7 10 22:18 19.03.2020
1092 Clear 17 1010 68 10000 6.7 10 21:41 19.03.2020
1093 Clear 17 1010 68 10000 5.7 20 21:20 19.03.2020
1094 Clear 17 1009 67 10000 5.7 20 20:58 19.03.2020
1095 Clear 16 1009 67 10000 5.7 20 20:39 19.03.2020
1096 Clear 16 1009 72 10000 6.7 360 20:20 19.03.2020
1097 Clear 15 1009 67 10000 6.7 10 19:55 19.03.2020
1098 Clear 15 1009 67 10000 6.7 10 19:37 19.03.2020
1099 Clear 15 1008 67 10000 5.1 350 19:18 19.03.2020
1100 Clear 15 1008 67 10000 5.7 340 18:42 19.03.2020
1101 Clear 16 1008 67 10000 5.7 340 18:22 19.03.2020
1102 Clear 15 1008 72 10000 7.7 350 17:58 19.03.2020
1103 Clear 16 1008 72 10000 7.7 350 17:39 19.03.2020
1104 Clear 15 1008 72 10000 7.7 350 17:19 19.03.2020
1105 Clear 16 1008 63 10000 8.7 350 16:43 19.03.2020
1106 Clear 16 1009 63 10000 6.2 350 16:23 19.03.2020
1107 Clear 16 1009 63 10000 7.2 350 15:45 19.03.2020
1108 Clear 16 1009 63 10000 8.2 350 15:26 19.03.2020
1109 Clear 16 1009 63 10000 7.2 350 14:55 19.03.2020
1110 Clear 16 1009 63 10000 7.2 350 14:37 19.03.2020
1111 Clear 16 1009 63 10000 9.3 350 14:19 19.03.2020
1112 Clear 16 1009 59 10000 9.3 350 13:39 19.03.2020
1113 Clear 16 1009 63 10000 8.7 350 13:19 19.03.2020
1114 Clear 16 1010 59 10000 10.8 340 12:55 19.03.2020
1115 Clear 15 1010 63 10000 12.3 360 12:37 19.03.2020
1116 Clear 16 1010 63 10000 12.3 360 12:18 19.03.2020
1117 Clear 16 1009 77 10000 11.3 20 11:41 19.03.2020
1118 Clear 16 1009 77 10000 11.3 20 11:23 19.03.2020
1119 Clear 16 1010 77 10000 11.3 20 10:56 19.03.2020
1120 Clear 16 1010 77 10000 11.8 20 10:36 19.03.2020
1121 Clear 16 1010 77 10000 11.8 20 10:18 19.03.2020
1122 Clear 16 1010 77 10000 12.3 10 09:42 19.03.2020
1123 Clear 16 1010 77 10000 12.3 10 09:24 19.03.2020
1124 Clear 16 1010 72 10000 11.3 20 08:48 19.03.2020
1125 Clear 17 1010 72 10000 10.3 20 08:23 19.03.2020
1126 Clouds 17 1010 72 10000 10.8 20 07:57 19.03.2020
1127 Clouds 17 1010 72 10000 10.8 20 07:38 19.03.2020
1128 Clouds 17 1010 67 10000 9.8 20 07:18 19.03.2020
1129 Clouds 17 1011 63 10000 9.8 20 06:23 19.03.2020
1130 Clouds 18 1011 63 10000 12.9 10 05:24 19.03.2020
1131 Clouds 18 1011 63 10000 12.3 10 04:47 19.03.2020
1132 Clouds 18 1012 59 10000 12.3 10 03:55 19.03.2020
1133 Clouds 19 1013 56 10000 12.3 10 01:46 19.03.2020
1134 Clouds 19 1013 63 10000 11.3 360 00:42 19.03.2020
1135 Clouds 18 1013 63 10000 11.3 360 00:19 19.03.2020
1136 Clouds 18 1014 72 10000 8.2 360 23:42 18.03.2020
1137 Clouds 17 1014 72 10000 8.2 360 23:22 18.03.2020
1138 Clouds 17 1014 68 10000 8.2 360 22:43 18.03.2020
1139 Clouds 17 1014 77 10000 9.3 360 22:23 18.03.2020
1140 Clouds 16 1014 72 10000 7.2 340 21:55 18.03.2020
1141 Clouds 16 1014 72 10000 7.2 340 21:55 18.03.2020
1142 Clouds 16 1014 72 10000 7.2 340 21:37 18.03.2020
1143 Clouds 16 1014 77 10000 6.7 350 21:19 18.03.2020
1144 Clouds 15 1014 77 10000 7.7 360 20:55 18.03.2020
1145 Clouds 15 1014 77 10000 7.7 360 20:37 18.03.2020
1146 Clouds 15 1014 72 10000 8.2 350 20:19 18.03.2020
1147 Clouds 15 1014 72 10000 6.7 350 19:41 18.03.2020
1148 Clouds 15 1014 77 10000 6.7 360 19:21 18.03.2020
1149 Clouds 15 1014 77 10000 6.7 360 19:21 18.03.2020
1150 Clouds 15 1014 77 10000 8.2 360 18:57 18.03.2020
1151 Clouds 15 1014 82 10000 6.7 360 18:38 18.03.2020
1152 Clouds 15 1014 82 10000 6.7 360 18:19 18.03.2020
1153 Clouds 15 1014 82 10000 8.2 360 17:55 18.03.2020
1154 Clouds 15 1015 82 10000 7.7 360 17:37 18.03.2020
1155 Clouds 15 1015 82 10000 7.7 360 17:18 18.03.2020
1156 Clouds 15 1015 82 10000 8.2 360 16:42 18.03.2020
1157 Clouds 15 1016 82 10000 7.7 360 16:20 18.03.2020
1158 Clouds 15 1016 82 10000 7.7 360 16:20 18.03.2020
1159 Clouds 15 1016 82 10000 7.7 360 16:20 18.03.2020
1160 Clouds 15 1016 82 10000 8.2 10 15:57 18.03.2020
1161 Clouds 15 1016 82 10000 8.2 10 15:38 18.03.2020
1162 Clouds 15 1017 82 10000 7.7 10 15:19 18.03.2020
1163 Clouds 15 1017 82 10000 7.2 10 14:42 18.03.2020
1164 Clouds 15 1017 82 10000 7.7 10 14:21 18.03.2020
1165 Clouds 15 1017 82 10000 7.7 10 14:21 18.03.2020
1166 Clear 14 1017 82 10000 9.3 360 13:41 18.03.2020
1167 Clear 14 1018 77 10000 8.7 10 13:19 18.03.2020
1168 Clouds 14 1018 77 10000 8.2 10 12:54 18.03.2020
1169 Clouds 14 1018 77 10000 8.2 10 12:36 18.03.2020
1170 Clouds 14 1018 77 10000 8.2 10 12:18 18.03.2020
1171 Clouds 14 1018 76 10000 7.2 20 11:38 18.03.2020
1172 Clear 13 1018 76 10000 7.2 20 11:19 18.03.2020
1173 Clear 13 1019 71 10000 6.2 30 10:56 18.03.2020
1174 Clear 13 1019 71 10000 6.2 30 10:37 18.03.2020
1175 Clear 13 1019 71 10000 6.2 30 10:18 18.03.2020
1176 Clear 13 1019 71 10000 6.7 30 09:42 18.03.2020
1177 Clear 13 1019 67 10000 7.2 20 09:23 18.03.2020
1178 Clear 13 1019 71 10000 7.7 10 08:55 18.03.2020
1179 Clear 13 1019 71 10000 7.7 10 08:37 18.03.2020
1180 Clear 14 1018 67 10000 8.2 360 08:19 18.03.2020
1181 Clear 14 1018 62 10000 7.7 350 07:41 18.03.2020
1182 Clear 14 1018 58 10000 6.7 350 07:23 18.03.2020
1183 Clear 15 1019 55 10000 5.1 340 06:43 18.03.2020
1184 Clear 16 1019 48 10000 7.2 350 05:53 18.03.2020
1185 Clear 16 1019 45 10000 6.2 340 05:19 18.03.2020
1186 Clear 16 1020 58 10000 3.1 200 03:53 18.03.2020
1187 Clear 16 1021 62 10000 5.1 200 02:40 18.03.2020
1188 Clouds 16 1022 62 10000 4.1 200 01:46 18.03.2020
1189 Clouds 16 1022 62 10000 4.1 200 01:21 18.03.2020
1190 Clouds 16 1022 67 10000 4.1 210 00:23 18.03.2020
1191 Clouds 16 1023 50 10000 1.5 180 23:43 17.03.2020
1192 Clouds 15 1023 50 10000 1.5 180 23:23 17.03.2020
1193 Clouds 14 1023 50 10000 1.5 220 22:47 17.03.2020
1194 Clouds 14 1023 47 10000 2.1 100 22:28 17.03.2020
1195 Clouds 14 1023 47 10000 2.1 110 21:57 17.03.2020
1196 Clouds 13 1023 47 10000 2.1 110 21:37 17.03.2020
1197 Clouds 13 1023 54 10000 2.1 130 21:19 17.03.2020
1198 Clouds 12 1022 54 10000 3.6 140 20:38 17.03.2020
1199 Rain 12 1022 54 10000 4.1 150 20:20 17.03.2020
1200 Rain 12 1022 54 10000 4.6 170 19:54 17.03.2020
1201 Rain 12 1022 54 10000 4.6 170 19:36 17.03.2020
1202 Rain 12 1022 54 10000 5.7 170 19:18 17.03.2020
1203 Rain 12 1022 54 10000 5.7 160 18:54 17.03.2020
1204 Rain 12 1022 54 10000 7.2 180 18:36 17.03.2020
1205 Rain 12 1022 54 10000 7.2 180 18:36 17.03.2020
1206 Rain 12 1022 54 10000 7.2 180 18:18 17.03.2020
1207 Rain 12 1022 54 10000 7.2 180 18:18 17.03.2020
1208 Rain 12 1022 54 10000 7.2 170 17:39 17.03.2020
1209 Clouds 12 1022 54 10000 7.2 170 17:20 17.03.2020
1210 Clouds 12 1022 54 10000 8.2 170 16:44 17.03.2020
1211 Clouds 12 1022 58 10000 7.7 170 16:20 17.03.2020
1212 Clouds 12 1022 58 10000 8.2 150 15:56 17.03.2020
1213 Clouds 12 1022 58 10000 8.2 150 15:38 17.03.2020
1214 Clouds 12 1022 62 10000 8.7 160 15:18 17.03.2020
1215 Clouds 12 1022 62 10000 9.3 170 14:41 17.03.2020
1216 Rain 12 1022 62 10000 10.3 170 14:18 17.03.2020
1217 Rain 12 1022 66 10000 8.7 160 13:41 17.03.2020
1218 Rain 12 1022 66 10000 8.7 160 13:22 17.03.2020
1219 Rain 12 1021 62 10000 9.3 180 12:48 17.03.2020
1220 Rain 12 1021 62 10000 10.8 170 12:26 17.03.2020
1221 Rain 12 1022 66 10000 9.8 160 11:59 17.03.2020
1222 Rain 12 1021 66 10000 10.3 150 11:39 17.03.2020
1223 Rain 12 1021 66 10000 10.3 150 11:21 17.03.2020
1224 Rain 12 1021 62 10000 9.3 170 10:54 17.03.2020
1225 Rain 12 1021 62 10000 9.3 170 10:36 17.03.2020
1226 Rain 12 1021 66 10000 10.3 170 10:18 17.03.2020
1227 Rain 12 1021 71 10000 11.3 170 09:45 17.03.2020
1228 Rain 12 1021 71 10000 11.8 170 09:20 17.03.2020
1229 Rain 12 1021 71 10000 10.8 190 08:58 17.03.2020
1230 Rain 12 1021 71 10000 10.8 190 08:40 17.03.2020
1231 Rain 12 1021 71 10000 11.3 180 08:18 17.03.2020
1232 Rain 12 1021 71 10000 12.9 170 07:49 17.03.2020
1233 Rain 12 1020 71 10000 12.3 180 07:20 17.03.2020
1234 Rain 13 1020 66 10000 12.3 170 06:45 17.03.2020
1235 Rain 13 1020 66 10000 12.3 170 06:25 17.03.2020
1236 Rain 13 1020 71 10000 12.3 170 05:20 17.03.2020
1237 Rain 13 1020 71 10000 13.4 180 03:27 17.03.2020
1238 Rain 14 1020 66 10000 13.9 180 01:50 17.03.2020
1239 Rain 14 1020 58 10000 13.9 170 01:31 17.03.2020
1240 Rain 14 1020 58 10000 14.4 180 00:52 17.03.2020
1241 Rain 13 1019 71 10000 13.4 180 23:53 16.03.2020
1242 Rain 13 1019 76 9000 13.4 180 23:34 16.03.2020
1243 Rain 12 1019 66 10000 14.4 170 22:55 16.03.2020
1244 Rain 13 1019 66 10000 14.4 170 22:37 16.03.2020
1245 Rain 13 1019 50 10000 13.9 170 22:19 16.03.2020
1246 Rain 13 1019 62 10000 14.4 180 21:44 16.03.2020
1247 Rain 13 1019 58 10000 13.9 180 21:25 16.03.2020
1248 Rain 13 1019 62 10000 14.9 180 20:58 16.03.2020
1249 Rain 12 1019 62 10000 14.9 180 20:38 16.03.2020
1250 Rain 12 1019 62 10000 14.9 180 20:38 16.03.2020
1251 Rain 12 1018 62 9000 14.4 180 20:20 16.03.2020
1252 Rain 12 1018 58 10000 14.4 170 19:44 16.03.2020
1253 Rain 12 1018 66 10000 12.3 180 19:23 16.03.2020
1254 Rain 13 1018 58 10000 14.9 170 18:57 16.03.2020
1255 Rain 13 1018 62 10000 13.4 180 18:38 16.03.2020
1256 Rain 13 1018 62 10000 13.4 180 18:18 16.03.2020
1257 Rain 12 1018 62 10000 13.4 180 17:45 16.03.2020
1258 Rain 13 1018 66 10000 13.4 170 17:24 16.03.2020
1259 Rain 13 1018 62 10000 14.4 170 16:49 16.03.2020
1260 Rain 13 1017 71 10000 13.4 180 16:31 16.03.2020
1261 Rain 13 1017 67 10000 13.9 180 15:58 16.03.2020
1262 Rain 13 1017 67 10000 13.9 180 15:40 16.03.2020
1263 Rain 13 1017 67 10000 13.4 170 15:20 16.03.2020
1264 Rain 13 1018 71 10000 12.3 180 14:44 16.03.2020
1265 Rain 13 1017 76 10000 13.4 180 14:20 16.03.2020
1266 Rain 13 1017 76 10000 13.4 180 14:20 16.03.2020
1267 Rain 13 1017 76 10000 11.8 180 13:44 16.03.2020
1268 Rain 14 1017 82 10000 11.8 160 13:25 16.03.2020
1269 Rain 14 1017 82 10000 11.3 170 12:56 16.03.2020
1270 Rain 14 1017 82 10000 11.3 170 12:37 16.03.2020
1271 Rain 14 1017 82 10000 11.3 180 12:19 16.03.2020
1272 Rain 14 1017 72 10000 11.3 180 11:42 16.03.2020
1273 Clouds 14 1017 77 10000 9.3 180 11:20 16.03.2020
1274 Clouds 15 1016 77 10000 8.7 170 10:43 16.03.2020
1275 Clouds 15 1016 82 10000 8.2 170 10:24 16.03.2020
1276 Clouds 15 1016 82 10000 8.7 170 09:47 16.03.2020
1277 Clouds 15 1015 77 10000 8.2 170 09:28 16.03.2020
1278 Clouds 15 1015 77 10000 8.2 180 08:59 16.03.2020
1279 Clouds 15 1014 77 10000 7.7 180 08:27 16.03.2020
1280 Clouds 16 1014 77 10000 7.2 180 07:56 16.03.2020
1281 Clouds 16 1014 77 10000 7.2 180 07:38 16.03.2020
1282 Clouds 16 1014 77 10000 6.7 180 07:18 16.03.2020
1283 Clouds 17 1013 77 10000 6.2 190 06:27 16.03.2020
1284 Clouds 18 1012 72 10000 8.7 180 05:54 16.03.2020
1285 Clouds 22 1010 38 10000 2.6 180 03:36 16.03.2020
1286 Clear 22 1010 43 10000 6.2 10 01:29 16.03.2020
1287 Clear 22 1010 46 10000 7.2 360 00:43 16.03.2020
1288 Clear 20 1011 56 10000 7.7 360 23:49 15.03.2020
1289 Clear 20 1011 64 10000 8.2 360 23:23 15.03.2020
1290 Clear 19 1010 72 10000 6.7 10 22:58 15.03.2020
1291 Clear 19 1010 72 10000 6.7 10 22:38 15.03.2020
1292 Clear 18 1010 72 10000 8.2 340 22:20 15.03.2020
1293 Clear 17 1010 72 10000 8.2 360 21:39 15.03.2020
1294 Clear 17 1009 68 10000 9.8 350 21:20 15.03.2020
1295 Clear 16 1009 77 10000 9.8 350 20:44 15.03.2020
1296 Clear 16 1009 82 10000 8.2 360 20:22 15.03.2020
1297 Clouds 16 1009 82 10000 7.7 350 19:59 15.03.2020
1298 Clouds 16 1009 82 10000 7.7 350 19:59 15.03.2020
1299 Clouds 16 1009 82 10000 7.7 350 19:41 15.03.2020
1300 Clouds 16 1009 82 10000 9.3 360 19:23 15.03.2020
1301 Clouds 16 1009 77 10000 9.8 360 18:59 15.03.2020
1302 Clouds 15 1009 77 10000 9.8 360 18:39 15.03.2020
1303 Clouds 15 1009 82 10000 9.3 10 18:21 15.03.2020
1304 Clouds 16 1009 77 10000 9.8 10 17:54 15.03.2020
1305 Clouds 16 1009 77 10000 9.3 10 17:36 15.03.2020
1306 Clouds 16 1009 77 10000 9.3 10 17:18 15.03.2020
1307 Clouds 16 1010 72 10000 8.2 20 16:42 15.03.2020
1308 Clouds 16 1010 77 10000 10.3 360 16:24 15.03.2020
1309 Clouds 16 1010 72 10000 10.3 360 15:57 15.03.2020
1310 Clouds 16 1010 72 10000 10.3 360 15:38 15.03.2020
1311 Clouds 16 1010 72 10000 11.3 10 15:19 15.03.2020
1312 Clouds 16 1011 72 10000 8.7 360 14:46 15.03.2020
1313 Clouds 16 1011 77 10000 10.3 360 14:24 15.03.2020
1314 Clouds 16 1011 77 10000 9.8 20 13:57 15.03.2020
1315 Clouds 16 1011 77 10000 9.8 20 13:38 15.03.2020
1316 Clouds 16 1011 77 10000 9.8 20 13:38 15.03.2020
1317 Clouds 16 1011 82 10000 8.2 20 13:19 15.03.2020
1318 Clouds 15 1011 82 10000 8.7 10 12:43 15.03.2020
1319 Clouds 15 1012 82 10000 8.2 10 12:25 15.03.2020
1320 Clouds 15 1012 87 10000 8.2 360 11:54 15.03.2020
1321 Clouds 15 1012 82 10000 7.7 10 11:36 15.03.2020
1322 Clouds 15 1012 82 10000 7.7 10 11:18 15.03.2020
1323 Clouds 15 1012 87 10000 6.2 10 10:41 15.03.2020
1324 Clouds 15 1012 82 10000 6.2 20 10:23 15.03.2020
1325 Clouds 15 1012 77 10000 6.2 10 09:59 15.03.2020
1326 Clouds 15 1012 77 10000 6.2 10 09:39 15.03.2020
1327 Clouds 16 1012 72 10000 5.1 10 09:20 15.03.2020
1328 Clouds 16 1011 72 10000 4.1 20 08:41 15.03.2020
1329 Clouds 16 1009 74 0 2.01 14 08:20 15.03.2020
1330 Clouds 17 1012 63 10000 3.1 360 07:50 15.03.2020
1331 Clouds 18 1012 63 10000 4.1 360 07:23 15.03.2020
1332 Clouds 19 1012 60 10000 3.6 10 06:45 15.03.2020
1333 Clouds 19 1012 72 10000 1.5 210 05:50 15.03.2020
1334 Clear 19 1013 72 10000 4.6 170 04:58 15.03.2020
1335 Clear 19 1013 72 10000 4.6 170 04:40 15.03.2020
1336 Clear 20 1013 72 10000 4.6 160 04:21 15.03.2020
1337 Clear 19 1014 72 10000 4.1 180 03:25 15.03.2020
1338 Clear 19 1014 72 10000 4.1 170 02:37 15.03.2020
1339 Clear 19 1015 72 10000 4.1 180 01:20 15.03.2020
1340 Clear 19 1016 77 10000 3.6 190 00:42 15.03.2020
1341 Clear 19 1016 72 10000 2.6 190 00:21 15.03.2020
1342 Clear 19 1016 60 10000 2.1 20 23:41 14.03.2020
1343 Clear 19 1016 63 10000 1.5 10 23:21 14.03.2020
1344 Clear 17 1016 67 10000 2.1 350 22:57 14.03.2020
1345 Clear 17 1016 67 10000 2.1 350 22:38 14.03.2020
1346 Clear 16 1016 72 10000 2.1 350 22:20 14.03.2020
1347 Clear 15 1016 77 10000 2.1 360 21:56 14.03.2020
1348 Clear 15 1016 77 10000 2.1 360 21:36 14.03.2020
1349 Clear 14 1016 76 10000 2.6 350 21:18 14.03.2020
1350 Clear 13 1016 87 10000 1.5 360 20:58 14.03.2020
1351 Clear 12 1016 87 10000 1.5 360 20:39 14.03.2020
1352 Clear 11 1016 87 10000 2.1 40 20:18 14.03.2020
1353 Clear 11 1016 87 10000 1.5 70 19:42 14.03.2020
1354 Clear 11 1016 87 10000 2.1 20 19:24 14.03.2020
1355 Clear 11 1015 93 10000 2.1 340 18:41 14.03.2020
1356 Rain 11 1015 93 10000 2.1 340 18:22 14.03.2020
1357 Rain 11 1015 93 10000 2.1 20 17:56 14.03.2020
1358 Rain 11 1015 87 10000 3.6 30 17:37 14.03.2020
1359 Clear 11 1015 87 10000 3.6 30 17:19 14.03.2020
1360 Clear 11 1015 82 10000 5.1 10 16:40 14.03.2020
1361 Clear 12 1015 93 10000 4.1 30 16:22 14.03.2020
1362 Clear 12 1015 87 10000 4.6 20 15:56 14.03.2020
1363 Clear 12 1015 87 10000 5.7 10 15:26 14.03.2020
1364 Clear 12 1016 87 10000 4.6 10 14:55 14.03.2020
1365 Clear 12 1016 87 10000 4.6 10 14:36 14.03.2020
1366 Clear 12 1016 87 10000 4.6 10 14:18 14.03.2020
1367 Clear 13 1016 82 10000 4.6 20 13:42 14.03.2020
1368 Clear 13 1016 87 10000 4.6 20 13:23 14.03.2020
1369 Clear 13 1016 87 10000 4.6 20 12:47 14.03.2020
1370 Clear 13 1015 87 10000 5.1 20 12:27 14.03.2020
1371 Clear 14 1015 87 10000 5.1 20 11:57 14.03.2020
1372 Clear 14 1015 87 10000 5.1 20 11:38 14.03.2020
1373 Clear 14 1015 87 10000 5.1 20 11:20 14.03.2020
1374 Clear 14 1015 87 10000 5.1 20 11:20 14.03.2020
1375 Clear 14 1016 82 10000 5.1 20 10:45 14.03.2020
1376 Clear 14 1016 77 10000 5.1 20 10:27 14.03.2020
1377 Clear 14 1015 72 10000 5.7 20 09:57 14.03.2020
1378 Clear 15 1015 72 10000 5.7 20 09:39 14.03.2020
1379 Clear 15 1015 67 10000 5.1 10 09:19 14.03.2020
1380 Clear 16 1015 59 10000 5.7 10 08:45 14.03.2020
1381 Clear 16 1015 63 10000 5.7 10 08:22 14.03.2020
1382 Clear 17 1014 63 10000 6.2 360 07:39 14.03.2020
1383 Clear 18 1014 52 10000 6.2 350 07:20 14.03.2020
1384 Clear 18 1014 45 10000 6.2 350 06:41 14.03.2020
1385 Clear 19 1015 43 10000 6.7 350 05:49 14.03.2020
1386 Clear 20 1015 43 10000 6.7 360 04:43 14.03.2020
1387 Clear 20 1016 49 10000 6.2 350 03:24 14.03.2020
1388 Clear 20 1016 49 10000 6.2 350 02:25 14.03.2020
1389 Clear 20 1017 49 10000 5.7 360 01:19 14.03.2020
1390 Clear 19 1018 60 10000 5.7 10 23:56 13.03.2020
1391 Clear 19 1018 63 10000 5.1 10 23:31 13.03.2020
1392 Clear 18 1018 63 10000 4.6 10 22:52 13.03.2020
1393 Clear 17 1018 72 10000 5.1 360 22:27 13.03.2020
1394 Clear 16 1019 77 10000 5.1 360 21:54 13.03.2020
1395 Clear 15 1019 77 10000 5.1 360 21:36 13.03.2020
1396 Clear 14 1019 87 10000 4.1 360 21:18 13.03.2020
1397 Clear 12 1019 87 10000 3.6 10 20:41 13.03.2020
1398 Clear 11 1019 87 10000 3.6 10 20:22 13.03.2020
1399 Clouds 10 1019 93 10000 3.1 20 19:49 13.03.2020
1400 Clouds 10 1019 87 10000 2.6 30 19:31 13.03.2020
1401 Clouds 10 1019 93 10000 3.1 20 18:55 13.03.2020
1402 Clouds 10 1019 93 10000 3.1 20 18:36 13.03.2020
1403 Clouds 10 1019 93 10000 3.1 20 18:18 13.03.2020
1404 Clouds 10 1019 93 10000 1.5 30 17:41 13.03.2020
1405 Clouds 10 1019 93 10000 1.5 30 17:21 13.03.2020
1406 Clouds 10 1020 93 10000 1.5 30 16:55 13.03.2020
1407 Clouds 10 1020 93 10000 1.5 30 16:36 13.03.2020
1408 Clouds 10 1020 87 10000 1.5 30 16:18 13.03.2020
1409 Clouds 10 1020 93 10000 1 30 15:41 13.03.2020
1410 Clouds 10 1020 87 10000 1.5 30 15:20 13.03.2020
1411 Clouds 10 1021 87 10000 1 50 14:44 13.03.2020
1412 Clouds 10 1021 87 10000 1 50 14:44 13.03.2020
1413 Clouds 11 1021 93 10000 0.5 110 14:23 13.03.2020
1414 Clear 11 1021 93 10000 1 40 13:58 13.03.2020
1415 Clear 11 1021 93 10000 1 40 13:40 13.03.2020
1416 Clear 11 1022 87 10000 0.5 120 13:20 13.03.2020
1417 Clear 12 1022 87 9000 0.5 30 12:55 13.03.2020
1418 Clear 12 1022 87 9000 0.5 30 12:55 13.03.2020
1419 Clear 12 1022 87 10000 1 30 12:37 13.03.2020
1420 Clear 12 1022 87 10000 1 30 12:18 13.03.2020
1421 Clear 12 1022 87 10000 1.5 40 11:43 13.03.2020
1422 Clear 13 1022 87 10000 1.5 40 11:25 13.03.2020
1423 Clear 13 1022 76 10000 1.5 30 10:57 13.03.2020
1424 Clear 13 1022 76 10000 1.5 30 10:39 13.03.2020
1425 Clear 13 1022 76 10000 1 10 10:21 13.03.2020
1426 Clear 14 1022 82 10000 1 340 09:44 13.03.2020
1427 Clear 14 1022 77 10000 1.5 190 09:25 13.03.2020
1428 Clear 14 1022 82 10000 2.6 220 08:48 13.03.2020
1429 Clear 15 1022 82 10000 3.6 220 08:23 13.03.2020
1430 Clear 16 1022 77 10000 4.1 220 07:58 13.03.2020
1431 Clear 16 1022 77 10000 4.1 220 07:38 13.03.2020
1432 Clear 17 1022 77 10000 4.6 220 07:19 13.03.2020
1433 Clear 18 1022 77 10000 4.6 220 06:44 13.03.2020
1434 Clear 18 1022 77 10000 4.6 220 06:44 13.03.2020
1435 Clear 19 1022 72 10000 5.1 180 05:56 13.03.2020
1436 Clear 19 1022 72 10000 6.2 170 05:37 13.03.2020
1437 Clear 19 1023 72 10000 5.7 190 04:38 13.03.2020
1438 Clear 19 1024 63 10000 5.7 190 03:46 13.03.2020
1439 Clear 18 1025 63 10000 4.1 190 01:48 13.03.2020
1440 Clear 18 1025 63 10000 3.1 200 01:19 13.03.2020
1441 Clear 18 1026 63 10000 3.1 190 00:56 13.03.2020
1442 Clear 18 1026 63 10000 3.1 200 00:29 13.03.2020
1443 Clear 18 1026 59 10000 3.1 200 23:59 12.03.2020
1444 Clear 17 1026 63 10000 2.6 200 23:29 12.03.2020
1445 Clear 16 1026 62 10000 3.1 170 22:58 12.03.2020
1446 Clear 16 1026 62 10000 3.1 170 22:40 12.03.2020
1447 Clear 15 1026 72 10000 3.6 170 22:22 12.03.2020
1448 Clear 14 1026 76 10000 2.6 200 21:46 12.03.2020
1449 Clear 14 1026 71 10000 3.1 170 21:28 12.03.2020
1450 Clear 13 1026 71 10000 3.1 150 20:59 12.03.2020
1451 Clear 12 1026 71 10000 3.1 150 20:40 12.03.2020
1452 Clouds 10 1022 87 0 3.28 72 20:19 12.03.2020
1453 Clouds 9 1026 80 0 3.08 69 19:42 12.03.2020
1454 Clouds 9 1022 87 0 3.08 69 19:20 12.03.2020
1455 Clouds 9 1026 79 0 3.08 69 18:45 12.03.2020
1456 Clouds 9 1026 79 0 3.08 69 18:45 12.03.2020
1457 Clouds 9 1024 91 0 3.08 69 18:25 12.03.2020
1458 Clouds 10 1021 86 0 3.08 69 17:57 12.03.2020
1459 Clouds 10 1026 81 10000 3.1 150 17:39 12.03.2020
1460 Clouds 10 1026 81 10000 3.1 150 17:20 12.03.2020
1461 Clouds 11 1026 76 10000 5.1 190 16:56 12.03.2020
1462 Clouds 10 1024 89 0 2.56 70 16:38 12.03.2020
1463 Clouds 10 1021 83 0 2.56 70 16:19 12.03.2020
1464 Clouds 10 1026 76 0 2.56 70 15:45 12.03.2020
1465 Clouds 11 1021 83 0 2.56 70 15:27 12.03.2020
1466 Clouds 12 1026 67 10000 1 160 14:41 12.03.2020
1467 Clouds 12 1027 67 10000 1 130 14:23 12.03.2020
1468 Clouds 13 1027 67 10000 1.5 150 13:57 12.03.2020
1469 Clouds 13 1027 67 10000 1.5 150 13:36 12.03.2020
1470 Clear 13 1027 67 10000 2.1 140 13:18 12.03.2020
1471 Clear 13 1027 67 10000 1.5 140 12:41 12.03.2020
1472 Clear 13 1027 67 10000 2.1 140 12:22 12.03.2020
1473 Clear 13 1027 67 10000 3.1 150 11:57 12.03.2020
1474 Clear 13 1026 67 10000 3.1 150 11:38 12.03.2020
1475 Clear 13 1026 67 10000 3.1 150 11:20 12.03.2020
1476 Clear 13 1026 76 10000 4.6 170 10:58 12.03.2020
1477 Clear 13 1026 76 10000 4.6 170 10:58 12.03.2020
1478 Clear 13 1026 76 10000 4.6 170 10:40 12.03.2020
1479 Clear 13 1026 76 10000 4.6 180 10:22 12.03.2020
1480 Clear 13 1026 82 10000 5.1 180 09:46 12.03.2020
1481 Clear 13 1026 71 10000 5.1 170 09:27 12.03.2020
1482 Clear 13 1025 71 10000 5.7 170 08:45 12.03.2020
1483 Clouds 14 1025 71 10000 6.2 170 08:20 12.03.2020
1484 Clouds 14 1025 71 10000 7.2 170 07:59 12.03.2020
1485 Clouds 14 1025 71 10000 7.2 170 07:40 12.03.2020
1486 Clouds 14 1024 67 10000 7.7 170 07:21 12.03.2020
1487 Clouds 15 1024 62 10000 7.7 170 05:51 12.03.2020
1488 Clouds 16 1024 55 10000 8.2 170 05:26 12.03.2020
1489 Clouds 16 1024 63 10000 6.7 160 02:43 12.03.2020
1490 Rain 16 1024 67 10000 5.7 160 01:36 12.03.2020
1491 Clouds 16 1024 67 10000 6.7 170 01:18 12.03.2020
1492 Clouds 16 1024 62 10000 6.7 170 00:40 12.03.2020
1493 Clouds 16 1024 62 10000 7.7 170 23:51 11.03.2020
1494 Clouds 15 1024 62 10000 6.7 160 23:26 11.03.2020
1495 Rain 15 1024 62 10000 6.7 160 22:55 11.03.2020
1496 Rain 15 1023 58 10000 6.7 150 22:37 11.03.2020
1497 Rain 14 1023 58 10000 6.7 150 22:18 11.03.2020
1498 Rain 14 1023 67 10000 6.7 160 21:41 11.03.2020
1499 Rain 14 1023 67 10000 6.2 160 21:23 11.03.2020
1500 Rain 14 1023 67 10000 7.7 170 20:58 11.03.2020
1501 Rain 13 1023 67 10000 7.7 170 20:40 11.03.2020
1502 Clouds 13 1022 62 10000 6.7 180 20:20 11.03.2020
1503 Clouds 13 1022 62 10000 7.7 170 19:57 11.03.2020
1504 Clouds 12 1022 62 10000 7.7 170 19:38 11.03.2020
1505 Clouds 13 1022 62 10000 7.7 160 19:20 11.03.2020
1506 Clouds 12 1022 62 10000 7.2 180 18:43 11.03.2020
1507 Clouds 12 1021 67 10000 8.2 180 18:24 11.03.2020
1508 Clouds 12 1021 62 10000 7.7 180 17:59 11.03.2020
1509 Clouds 12 1021 62 10000 8.2 180 17:39 11.03.2020
1510 Clouds 12 1021 62 10000 8.2 180 17:21 11.03.2020
1511 Clouds 13 1021 62 10000 8.2 180 16:47 11.03.2020
1512 Clouds 13 1021 58 10000 8.7 170 16:23 11.03.2020
1513 Clouds 13 1021 67 10000 7.7 170 15:59 11.03.2020
1514 Clouds 13 1021 67 10000 7.7 170 15:40 11.03.2020
1515 Clouds 12 1021 71 10000 8.7 170 15:22 11.03.2020
1516 Clouds 13 1021 62 10000 8.2 180 14:42 11.03.2020
1517 Clouds 13 1021 62 10000 9.3 170 14:23 11.03.2020
1518 Clouds 13 1021 62 10000 9.3 170 14:23 11.03.2020
1519 Clouds 13 1020 58 10000 9.8 170 13:56 11.03.2020
1520 Clouds 13 1020 58 10000 9.8 170 13:37 11.03.2020
1521 Clear 13 1020 62 10000 9.3 170 13:19 11.03.2020
1522 Clear 13 1020 62 10000 8.7 170 12:40 11.03.2020
1523 Clear 13 1020 66 10000 9.8 170 12:20 11.03.2020
1524 Clear 13 1020 62 10000 9.3 170 11:56 11.03.2020
1525 Clear 13 1020 62 10000 9.3 170 11:37 11.03.2020
1526 Clouds 13 1019 62 10000 9.8 170 11:18 11.03.2020
1527 Clouds 13 1019 67 10000 9.8 170 10:42 11.03.2020
1528 Clouds 13 1019 67 10000 9.8 170 10:42 11.03.2020
1529 Clouds 13 1019 62 10000 10.3 170 10:18 11.03.2020
1530 Clouds 13 1019 62 10000 9.8 170 09:43 11.03.2020
1531 Clouds 13 1018 62 10000 10.3 170 09:25 11.03.2020
1532 Clouds 13 1018 67 10000 9.3 170 08:58 11.03.2020
1533 Clouds 13 1018 67 10000 9.3 170 08:39 11.03.2020
1534 Clouds 13 1017 67 10000 9.3 170 08:18 11.03.2020
1535 Clouds 13 1017 67 10000 9.3 170 07:42 11.03.2020
1536 Clouds 13 1017 67 10000 9.3 160 07:19 11.03.2020
1537 Clouds 14 1017 67 10000 9.3 160 06:43 11.03.2020
1538 Clouds 14 1016 71 10000 7.7 160 05:36 11.03.2020
1539 Rain 15 1016 67 10000 8.7 160 04:31 11.03.2020
1540 Rain 15 1016 67 10000 8.2 170 02:24 11.03.2020
1541 Rain 15 1015 67 10000 7.7 180 01:27 11.03.2020
1542 Rain 15 1015 72 10000 8.7 170 00:46 11.03.2020
1543 Rain 15 1015 72 10000 8.7 170 23:58 10.03.2020
1544 Rain 15 1015 72 10000 8.2 170 23:40 10.03.2020
1545 Rain 15 1015 72 10000 8.2 170 23:21 10.03.2020
1546 Rain 14 1015 67 10000 7.7 170 22:39 10.03.2020
1547 Rain 14 1014 76 10000 8.7 170 22:20 10.03.2020
1548 Rain 14 1014 72 10000 8.7 170 21:57 10.03.2020
1549 Rain 15 1014 72 10000 8.7 170 21:38 10.03.2020
1550 Rain 15 1014 77 10000 7.7 170 21:20 10.03.2020
1551 Rain 14 1013 82 10000 8.2 170 20:59 10.03.2020
1552 Rain 14 1013 82 10000 8.2 170 20:41 10.03.2020
1553 Rain 14 1013 82 10000 8.2 180 20:18 10.03.2020
1554 Rain 14 1013 82 10000 8.2 170 19:56 10.03.2020
1555 Rain 14 1013 82 10000 8.2 170 19:56 10.03.2020
1556 Rain 14 1013 82 10000 8.2 170 19:37 10.03.2020
1557 Rain 14 1012 87 10000 7.7 170 19:19 10.03.2020
1558 Rain 14 1012 87 10000 8.7 170 18:44 10.03.2020
1559 Rain 14 1012 87 10000 9.8 170 18:26 10.03.2020
1560 Rain 14 1011 87 10000 8.2 170 17:57 10.03.2020
1561 Rain 14 1012 82 10000 8.7 180 17:39 10.03.2020
1562 Rain 14 1012 82 10000 8.7 180 17:21 10.03.2020
1563 Rain 14 1012 82 10000 8.2 170 16:39 10.03.2020
1564 Rain 14 1012 82 10000 8.2 170 16:19 10.03.2020
1565 Rain 14 1012 82 10000 8.2 170 16:19 10.03.2020
1566 Rain 14 1011 82 10000 5.1 170 15:56 10.03.2020
1567 Rain 15 1011 82 10000 5.1 170 15:37 10.03.2020
1568 Rain 15 1011 82 10000 6.2 160 15:19 10.03.2020
1569 Rain 15 1011 82 10000 7.2 170 14:41 10.03.2020
1570 Rain 14 1011 82 10000 7.7 180 14:20 10.03.2020
1571 Rain 14 1011 87 10000 5.7 180 13:58 10.03.2020
1572 Rain 15 1011 87 10000 5.7 180 13:38 10.03.2020
1573 Rain 14 1010 87 10000 6.2 180 13:20 10.03.2020
1574 Rain 14 1010 87 10000 7.2 170 12:42 10.03.2020
1575 Rain 14 1009 87 10000 6.2 170 12:19 10.03.2020
1576 Rain 14 1009 93 10000 5.1 180 11:58 10.03.2020
1577 Rain 14 1009 93 10000 5.1 180 11:58 10.03.2020
1578 Rain 14 1009 93 10000 5.1 180 11:40 10.03.2020
1579 Rain 14 1009 93 10000 5.1 180 11:40 10.03.2020
1580 Rain 15 1009 87 10000 6.2 170 11:22 10.03.2020
1581 Rain 15 1008 87 10000 5.1 180 10:43 10.03.2020
1582 Rain 15 1008 87 10000 4.1 170 10:23 10.03.2020
1583 Rain 15 1008 82 10000 4.1 170 09:57 10.03.2020
1584 Rain 15 1008 82 10000 4.1 170 09:39 10.03.2020
1585 Rain 15 1008 82 10000 3.6 170 09:19 10.03.2020
1586 Rain 16 1008 82 10000 2.1 200 08:51 10.03.2020
1587 Clouds 16 1008 82 10000 2.1 200 08:32 10.03.2020
1588 Rain 16 1007 87 10000 2.6 200 07:50 10.03.2020
1589 Rain 16 1007 82 10000 2.1 200 07:31 10.03.2020
1590 Rain 17 1006 82 10000 3.1 180 06:47 10.03.2020
1591 Rain 17 1006 82 10000 3.6 180 06:28 10.03.2020
1592 Rain 17 1006 87 10000 4.1 190 05:41 10.03.2020
1593 Rain 17 1006 82 10000 5.1 190 04:48 10.03.2020
1594 Rain 18 1005 82 10000 4.6 190 03:55 10.03.2020
1595 Rain 19 1005 77 10000 5.1 200 02:27 10.03.2020
1596 Clear 19 1004 77 10000 5.1 190 01:30 10.03.2020
1597 Clouds 19 1004 82 10000 4.6 200 00:44 10.03.2020
1598 Clouds 19 1004 77 10000 3.6 200 00:26 10.03.2020
1599 Clouds 21 1004 56 10000 3.6 330 23:41 09.03.2020
1600 Clouds 20 1004 64 10000 4.6 340 23:21 09.03.2020
1601 Clear 20 1004 64 10000 5.1 350 22:43 09.03.2020
1602 Clear 19 1003 64 10000 4.1 340 22:22 09.03.2020
1603 Clear 19 1003 64 10000 5.7 10 21:59 09.03.2020
1604 Clear 19 1002 80 0 1.34 275 21:40 09.03.2020
1605 Clear 18 1003 68 10000 5.7 10 21:21 09.03.2020
1606 Clear 18 1003 77 10000 5.1 350 20:56 09.03.2020
1607 Clear 17 1003 77 10000 5.1 350 20:38 09.03.2020
1608 Clouds 17 1003 72 10000 6.2 350 20:20 09.03.2020
1609 Clouds 17 1003 82 10000 4.1 330 19:45 09.03.2020
1610 Clouds 17 1002 82 10000 7.2 340 19:25 09.03.2020
1611 Clouds 17 1002 82 10000 7.2 340 19:25 09.03.2020
1612 Clouds 17 1002 88 10000 7.7 10 18:58 09.03.2020
1613 Clouds 17 1002 88 10000 7.7 10 18:58 09.03.2020
1614 Clouds 17 1002 88 10000 7.7 10 18:38 09.03.2020
1615 Clouds 17 1002 82 10000 6.2 360 18:20 09.03.2020
1616 Clouds 17 1002 82 10000 8.2 350 17:58 09.03.2020
1617 Clouds 17 1002 77 10000 5.1 340 17:38 09.03.2020
1618 Clouds 17 1002 77 10000 5.1 340 17:20 09.03.2020
1619 Clouds 17 1003 82 10000 5.1 350 16:58 09.03.2020
1620 Clouds 17 1003 82 10000 5.1 350 16:40 09.03.2020
1621 Clouds 17 1003 82 10000 7.7 350 16:22 09.03.2020
1622 Clouds 17 1003 82 10000 7.7 350 15:58 09.03.2020
1623 Clouds 17 1003 82 10000 6.7 340 15:38 09.03.2020
1624 Clouds 17 1003 82 10000 6.7 340 15:20 09.03.2020
1625 Clouds 17 1003 82 10000 6.7 340 15:20 09.03.2020
1626 Clouds 17 1003 82 10000 8.2 340 14:55 09.03.2020
1627 Clouds 17 1003 82 10000 10.8 350 14:37 09.03.2020
1628 Clouds 17 1003 82 10000 10.8 350 14:18 09.03.2020
1629 Clouds 17 1003 77 10000 10.3 360 13:55 09.03.2020
1630 Clouds 17 1003 77 10000 10.3 350 13:37 09.03.2020
1631 Clouds 17 1003 77 10000 10.3 350 13:18 09.03.2020
1632 Clouds 17 1003 77 10000 10.3 350 13:18 09.03.2020
1633 Clouds 17 1004 77 10000 9.3 360 12:42 09.03.2020
1634 Clouds 17 1004 77 10000 11.3 360 12:22 09.03.2020
1635 Clouds 17 1004 77 10000 11.3 360 12:22 09.03.2020
1636 Clouds 17 1004 82 10000 9.3 20 11:54 09.03.2020
1637 Clouds 17 1004 82 10000 8.7 20 11:36 09.03.2020
1638 Clouds 17 1004 82 10000 8.7 20 11:18 09.03.2020
1639 Clouds 17 1004 82 10000 9.8 10 10:54 09.03.2020
1640 Clouds 17 1004 82 10000 9.3 20 10:36 09.03.2020
1641 Clouds 17 1004 82 10000 9.3 20 10:18 09.03.2020
1642 Clouds 17 1004 82 10000 11.3 10 09:38 09.03.2020
1643 Clouds 17 1004 82 10000 11.3 10 09:19 09.03.2020
1644 Clouds 17 1004 82 10000 10.8 10 08:44 09.03.2020
1645 Clouds 17 1004 82 10000 10.8 360 08:25 09.03.2020
1646 Clouds 17 1004 82 10000 11.3 360 07:41 09.03.2020
1647 Clouds 17 1004 88 10000 10.8 360 07:22 09.03.2020
1648 Clouds 18 1004 88 10000 11.3 360 06:46 09.03.2020
1649 Rain 17 1005 88 10000 11.3 360 06:25 09.03.2020
1650 Drizzle 17 1005 88 4900 9.3 350 05:52 09.03.2020
1651 Drizzle 18 1005 93 4200 9.8 350 05:34 09.03.2020
1652 Rain 19 1005 82 9000 11.3 360 04:43 09.03.2020
1653 Rain 19 1006 73 10000 10.8 350 04:22 09.03.2020
1654 Clouds 19 1006 68 10000 12.3 350 03:21 09.03.2020
1655 Rain 20 1007 68 10000 12.3 360 01:49 09.03.2020
1656 Clouds 19 1008 88 10000 9.8 20 00:39 09.03.2020
1657 Clouds 18 1008 88 10000 9.8 20 00:21 09.03.2020
1658 Clouds 18 1008 82 10000 9.3 20 23:52 08.03.2020
1659 Clouds 17 1009 88 10000 10.8 20 23:25 08.03.2020
1660 Rain 17 1009 93 10000 8.2 20 22:58 08.03.2020
1661 Rain 17 1009 88 10000 9.3 10 22:39 08.03.2020
1662 Rain 17 1009 88 10000 9.3 10 22:20 08.03.2020
1663 Rain 17 1009 93 6000 9.3 20 21:56 08.03.2020
1664 Rain 17 1009 88 10000 8.7 360 21:38 08.03.2020
1665 Rain 16 1009 88 10000 8.7 360 21:19 08.03.2020
1666 Rain 16 1009 88 10000 7.2 350 20:40 08.03.2020
1667 Rain 16 1009 88 10000 7.2 350 20:40 08.03.2020
1668 Rain 16 1009 88 10000 7.2 350 20:21 08.03.2020
1669 Rain 16 1009 88 10000 7.2 350 20:21 08.03.2020
1670 Rain 16 1009 88 10000 7.2 350 20:21 08.03.2020
1671 Rain 17 1009 68 10000 8.7 10 19:57 08.03.2020
1672 Rain 17 1009 63 10000 8.2 10 19:37 08.03.2020
1673 Rain 18 1009 63 10000 8.7 10 19:19 08.03.2020
1674 Rain 18 1009 63 10000 8.7 10 18:42 08.03.2020
1675 Rain 18 1009 63 10000 9.3 10 18:24 08.03.2020
1676 Rain 17 1010 72 10000 5.7 10 17:56 08.03.2020
1677 Rain 17 1010 72 10000 5.7 10 17:38 08.03.2020
1678 Clouds 17 1010 72 10000 5.7 10 17:19 08.03.2020
1679 Clouds 17 1010 72 10000 5.7 10 16:46 08.03.2020
1680 Clouds 17 1010 77 10000 5.7 20 16:28 08.03.2020
1681 Clouds 17 1010 77 10000 5.7 20 15:58 08.03.2020
1682 Clouds 17 1011 77 10000 5.7 20 15:39 08.03.2020
1683 Clouds 17 1011 77 10000 5.7 20 15:20 08.03.2020
1684 Clouds 17 1011 77 10000 5.7 20 14:41 08.03.2020
1685 Clouds 17 1011 77 10000 5.7 20 14:21 08.03.2020
1686 Clouds 17 1011 77 10000 5.7 20 14:21 08.03.2020
1687 Clouds 17 1012 72 10000 6.2 30 13:58 08.03.2020
1688 Clouds 17 1012 72 10000 6.2 30 13:39 08.03.2020
1689 Clouds 17 1012 72 10000 6.2 30 13:19 08.03.2020
1690 Clouds 17 1012 77 10000 6.2 30 12:41 08.03.2020
1691 Clouds 17 1012 77 10000 7.2 30 12:22 08.03.2020
1692 Clouds 17 1012 77 10000 6.7 30 11:55 08.03.2020
1693 Clouds 17 1012 77 10000 6.7 30 11:37 08.03.2020
1694 Clouds 17 1012 77 10000 5.7 30 11:19 08.03.2020
1695 Clouds 17 1012 77 10000 5.7 30 10:41 08.03.2020
1696 Clouds 17 1012 77 10000 5.7 30 10:23 08.03.2020
1697 Clouds 17 1012 72 10000 6.7 20 09:43 08.03.2020
1698 Clouds 17 1012 72 10000 6.7 20 09:25 08.03.2020
1699 Clouds 17 1012 72 10000 6.7 10 08:54 08.03.2020
1700 Clouds 17 1012 68 10000 7.2 10 08:36 08.03.2020
1701 Clouds 18 1012 68 10000 7.2 10 08:18 08.03.2020
1702 Clouds 19 1012 60 10000 7.2 360 07:41 08.03.2020
1703 Clouds 19 1012 60 10000 7.2 360 07:22 08.03.2020
1704 Clouds 19 1012 64 10000 7.7 360 06:42 08.03.2020
1705 Clouds 20 1012 53 10000 8.2 360 06:22 08.03.2020
1706 Clouds 20 1013 60 10000 9.3 360 05:28 08.03.2020
1707 Clouds 22 1013 53 10000 8.7 350 03:51 08.03.2020
1708 Clouds 22 1014 43 10000 9.8 360 02:29 08.03.2020
1709 Clouds 21 1015 49 10000 8.7 360 01:23 08.03.2020
1710 Clouds 21 1015 49 10000 8.7 360 01:23 08.03.2020
1711 Clouds 21 1015 49 10000 8.7 360 01:23 08.03.2020
1712 Clouds 21 1015 49 10000 8.7 360 01:23 08.03.2020
1713 Clouds 21 1015 49 10000 8.7 360 01:23 08.03.2020
1714 Clouds 21 1015 49 10000 9.8 360 00:44 08.03.2020
1715 Clouds 21 1015 49 10000 9.8 360 00:25 08.03.2020
1716 Clouds 20 1015 49 10000 9.8 360 23:44 07.03.2020
1717 Clouds 20 1015 49 10000 8.2 10 23:23 07.03.2020
1718 Clouds 19 1015 56 10000 5.7 20 22:41 07.03.2020
1719 Clouds 19 1015 56 10000 5.7 20 22:22 07.03.2020
1720 Clouds 17 1015 63 10000 5.7 20 21:49 07.03.2020
1721 Clouds 17 1015 67 10000 5.7 20 21:26 07.03.2020
1722 Clouds 16 1015 77 10000 5.1 20 20:57 07.03.2020
1723 Clouds 15 1015 77 10000 6.7 10 20:38 07.03.2020
1724 Clouds 15 1015 77 10000 6.7 10 20:19 07.03.2020
1725 Clouds 14 1015 87 10000 7.2 10 19:41 07.03.2020
1726 Clouds 14 1015 82 10000 6.2 20 19:21 07.03.2020
1727 Clouds 14 1015 82 10000 6.2 30 18:44 07.03.2020
1728 Clouds 14 1015 82 10000 5.7 30 18:25 07.03.2020
1729 Clouds 14 1015 82 10000 6.7 20 17:57 07.03.2020
1730 Clouds 14 1015 82 10000 6.7 30 17:39 07.03.2020
1731 Clouds 14 1015 82 10000 6.7 30 17:18 07.03.2020
1732 Clouds 15 1015 82 10000 6.7 30 16:43 07.03.2020
1733 Clouds 15 1016 77 10000 6.7 20 16:23 07.03.2020
1734 Clouds 15 1016 77 10000 6.2 20 15:59 07.03.2020
1735 Clouds 15 1016 77 10000 6.2 20 15:40 07.03.2020
1736 Clouds 15 1016 77 10000 6.2 20 15:40 07.03.2020
1737 Clouds 15 1016 77 10000 7.2 20 15:21 07.03.2020
1738 Clouds 15 1016 77 10000 6.7 20 14:58 07.03.2020
1739 Clouds 15 1016 72 10000 6.2 30 14:39 07.03.2020
1740 Clouds 15 1016 72 10000 6.2 30 14:21 07.03.2020
1741 Clouds 15 1016 72 10000 6.2 30 13:40 07.03.2020
1742 Clouds 15 1017 72 10000 6.2 30 13:21 07.03.2020
1743 Clouds 15 1017 77 10000 6.2 30 12:45 07.03.2020
1744 Clouds 15 1017 72 10000 6.2 30 12:23 07.03.2020
1745 Clouds 16 1017 72 10000 6.2 20 11:59 07.03.2020
1746 Clouds 16 1017 72 10000 6.2 20 11:40 07.03.2020
1747 Clouds 16 1017 72 10000 5.7 20 11:22 07.03.2020
1748 Clouds 16 1017 72 10000 5.7 30 10:44 07.03.2020
1749 Clouds 16 1017 67 10000 6.2 20 10:22 07.03.2020
1750 Clouds 16 1017 67 10000 5.7 30 09:59 07.03.2020
1751 Clouds 16 1017 67 10000 6.2 30 09:40 07.03.2020
1752 Clouds 16 1017 67 10000 6.2 30 09:19 07.03.2020
1753 Clouds 16 1017 67 10000 5.7 20 08:56 07.03.2020
1754 Clouds 16 1017 63 10000 5.7 20 08:38 07.03.2020
1755 Clouds 17 1017 63 10000 5.7 20 08:19 07.03.2020
1756 Clouds 17 1017 63 10000 7.7 10 07:44 07.03.2020
1757 Clouds 17 1017 64 0 2.24 90 07:21 07.03.2020
1758 Clouds 18 1016 72 0 0.45 9 06:38 07.03.2020
1759 Clouds 19 1018 56 10000 8.7 360 05:57 07.03.2020
1760 Clouds 19 1018 56 10000 8.7 360 05:38 07.03.2020
1761 Clouds 20 1019 55 0 2.68 356 03:35 07.03.2020
1762 Clouds 20 1021 52 10000 8.2 360 02:42 07.03.2020
1763 Clouds 20 1021 52 10000 8.2 360 01:51 07.03.2020
1764 Clouds 20 1022 52 10000 8.7 360 00:43 07.03.2020
1765 Clouds 19 1022 56 10000 8.7 360 00:23 07.03.2020
1766 Clouds 19 1022 52 10000 8.2 360 23:56 06.03.2020
1767 Clouds 19 1023 52 10000 7.7 360 23:38 06.03.2020
1768 Clouds 20 1023 52 10000 7.7 360 23:20 06.03.2020
1769 Clouds 18 1023 52 10000 6.2 10 22:42 06.03.2020
1770 Clouds 18 1023 52 10000 6.2 10 22:19 06.03.2020
1771 Clouds 16 1023 55 10000 6.2 10 21:46 06.03.2020
1772 Clouds 15 1023 67 10000 5.1 360 21:20 06.03.2020
1773 Clouds 13 1023 71 10000 6.2 360 20:43 06.03.2020
1774 Clouds 12 1023 71 10000 5.7 10 20:22 06.03.2020
1775 Clouds 11 1023 81 10000 4.6 10 19:55 06.03.2020
1776 Clouds 10 1023 81 10000 4.1 20 19:36 06.03.2020
1777 Clouds 10 1023 81 10000 4.1 20 19:18 06.03.2020
1778 Clouds 10 1024 76 10000 2.6 10 18:42 06.03.2020
1779 Clouds 10 1024 76 10000 1.5 10 18:20 06.03.2020
1780 Clouds 11 1024 76 10000 1.5 40 17:56 06.03.2020
1781 Clouds 11 1024 76 10000 2.6 50 17:38 06.03.2020
1782 Clouds 11 1025 76 10000 1.5 10 17:20 06.03.2020
1783 Clouds 10 1025 76 10000 1.5 10 16:43 06.03.2020
1784 Clouds 10 1025 76 10000 1.5 10 16:22 06.03.2020
1785 Clouds 11 1025 76 10000 2.1 30 15:59 06.03.2020
1786 Clouds 11 1025 76 10000 2.1 30 15:40 06.03.2020
1787 Clouds 11 1025 71 10000 3.6 20 15:21 06.03.2020
1788 Clouds 11 1025 71 10000 4.1 20 14:40 06.03.2020
1789 Clouds 11 1025 71 10000 4.1 10 14:22 06.03.2020
1790 Clear 11 1026 71 10000 4.6 10 13:55 06.03.2020
1791 Clear 11 1026 76 10000 4.1 360 13:36 06.03.2020
1792 Clear 12 1026 76 10000 4.1 360 13:18 06.03.2020
1793 Clear 12 1026 72 10000 3.6 350 12:40 06.03.2020
1794 Clear 13 1026 76 10000 3.6 350 12:20 06.03.2020
1795 Clear 12 1027 71 10000 3.1 350 11:59 06.03.2020
1796 Clear 12 1027 71 10000 3.1 350 11:40 06.03.2020
1797 Clear 13 1027 67 10000 4.6 10 11:20 06.03.2020
1798 Clear 14 1027 67 10000 3.6 20 10:42 06.03.2020
1799 Clear 14 1027 67 10000 2.1 10 10:21 06.03.2020
1800 Clear 15 1026 59 10000 3.1 30 09:58 06.03.2020
1801 Clear 15 1026 59 10000 2.6 30 09:39 06.03.2020
1802 Clear 15 1026 59 10000 2.6 30 09:21 06.03.2020
1803 Clear 16 1026 59 10000 3.1 50 08:46 06.03.2020
1804 Clear 17 1026 55 10000 3.6 50 08:27 06.03.2020
1805 Clear 17 1026 52 10000 4.6 60 07:59 06.03.2020
1806 Clear 18 1026 52 10000 4.6 60 07:39 06.03.2020
1807 Clear 18 1026 52 10000 4.6 60 07:20 06.03.2020
1808 Clear 19 1025 45 10000 5.1 50 06:41 06.03.2020
1809 Clear 20 1026 68 10000 4.6 220 05:52 06.03.2020
1810 Clear 20 1026 59 10000 4.6 210 05:31 06.03.2020
1811 Clear 20 1026 52 10000 2.1 190 04:59 06.03.2020
1812 Clear 20 1027 59 10000 5.1 170 03:46 06.03.2020
1813 Clouds 19 1028 52 10000 3.6 50 01:42 06.03.2020
1814 Clouds 19 1029 55 10000 4.1 50 01:24 06.03.2020
1815 Clouds 18 1029 55 10000 3.6 40 00:47 06.03.2020
1816 Clouds 18 1029 55 10000 4.1 50 00:20 06.03.2020
1817 Clouds 18 1030 59 10000 4.1 60 23:43 05.03.2020
1818 Clouds 16 1030 59 10000 2.1 10 23:23 05.03.2020
1819 Clouds 16 1029 55 10000 1.5 70 22:41 05.03.2020
1820 Clouds 16 1029 59 10000 2.1 200 22:23 05.03.2020
1821 Clouds 16 1029 63 10000 1.5 190 21:58 05.03.2020
1822 Clouds 16 1029 63 10000 1.5 110 21:39 05.03.2020
1823 Clouds 15 1029 63 10000 1.5 110 21:21 05.03.2020
1824 Clouds 15 1029 63 10000 1.5 110 21:21 05.03.2020
1825 Clouds 15 1029 67 10000 1.5 110 20:59 05.03.2020
1826 Clouds 14 1029 67 10000 1.5 110 20:41 05.03.2020
1827 Clouds 14 1029 67 10000 3.6 140 20:20 05.03.2020
1828 Clouds 13 1029 67 10000 2.6 140 19:58 05.03.2020
1829 Clouds 13 1029 67 10000 3.6 150 19:39 05.03.2020
1830 Clouds 13 1029 67 10000 3.6 150 19:20 05.03.2020
1831 Clouds 13 1029 67 10000 3.6 160 18:58 05.03.2020
1832 Clouds 13 1029 67 10000 3.1 150 18:37 05.03.2020
1833 Clouds 13 1029 67 10000 3.1 150 18:18 05.03.2020
1834 Clouds 13 1029 62 10000 2.6 150 17:55 05.03.2020
1835 Clouds 13 1029 67 10000 3.6 150 17:37 05.03.2020
1836 Clear 13 1029 67 10000 3.6 150 17:18 05.03.2020
1837 Clear 13 1029 67 10000 4.1 150 16:41 05.03.2020
1838 Clear 13 1029 67 10000 3.6 140 16:22 05.03.2020
1839 Clear 13 1029 62 10000 2.6 160 15:54 05.03.2020
1840 Clear 13 1029 58 10000 3.1 130 15:36 05.03.2020
1841 Clear 14 1029 58 10000 3.1 130 15:18 05.03.2020
1842 Clear 14 1030 62 10000 2.6 140 14:41 05.03.2020
1843 Clear 14 1030 58 10000 2.6 140 14:22 05.03.2020
1844 Clouds 14 1030 58 10000 3.1 150 13:58 05.03.2020
1845 Clouds 14 1030 58 10000 3.1 150 13:39 05.03.2020
1846 Clouds 14 1030 54 10000 2.6 140 13:20 05.03.2020
1847 Clouds 14 1030 58 10000 4.1 150 12:55 05.03.2020
1848 Clouds 14 1030 58 10000 4.6 140 12:36 05.03.2020
1849 Clouds 14 1030 58 10000 4.6 140 12:18 05.03.2020
1850 Clouds 14 1030 58 10000 4.6 150 11:55 05.03.2020
1851 Clouds 14 1030 58 10000 5.1 150 11:36 05.03.2020
1852 Clouds 14 1030 58 10000 5.1 150 11:18 05.03.2020
1853 Clouds 14 1030 58 10000 4.1 160 10:55 05.03.2020
1854 Clouds 14 1029 54 10000 3.6 150 10:37 05.03.2020
1855 Clouds 14 1029 54 10000 3.6 150 10:19 05.03.2020
1856 Clouds 14 1029 58 10000 3.1 140 09:40 05.03.2020
1857 Clouds 14 1029 58 10000 3.6 130 09:22 05.03.2020
1858 Clouds 14 1028 58 10000 6.2 150 08:43 05.03.2020
1859 Clouds 14 1028 62 10000 6.2 140 08:24 05.03.2020
1860 Clouds 15 1028 67 10000 7.7 150 07:45 05.03.2020
1861 Clouds 15 1028 62 10000 7.2 140 07:22 05.03.2020
1862 Clouds 16 1027 55 10000 8.7 150 06:46 05.03.2020
1863 Clouds 16 1027 55 10000 8.7 150 06:45 05.03.2020
1864 Clouds 16 1027 55 10000 9.3 150 06:21 05.03.2020
1865 Clouds 17 1027 55 10000 9.8 150 05:38 05.03.2020
1866 Clouds 18 1027 51 10000 9.8 150 04:25 05.03.2020
1867 Clouds 18 1027 52 10000 9.8 150 03:59 05.03.2020
1868 Clouds 18 1027 45 10000 8.7 160 03:18 05.03.2020
1869 Clouds 16 1028 59 10000 8.7 150 01:28 05.03.2020
1870 Clouds 16 1028 62 10000 8.7 150 00:58 05.03.2020
1871 Clouds 16 1028 54 10000 7.7 150 23:59 04.03.2020
1872 Clouds 16 1028 54 10000 7.7 150 23:40 04.03.2020
1873 Clouds 15 1028 51 10000 7.2 140 23:22 04.03.2020
1874 Clouds 15 1028 54 10000 8.2 150 22:56 04.03.2020
1875 Clouds 15 1028 54 10000 7.2 150 22:37 04.03.2020
1876 Clouds 15 1028 54 10000 7.2 150 22:19 04.03.2020
1877 Clouds 15 1027 51 10000 6.7 160 21:56 04.03.2020
1878 Clouds 14 1027 54 10000 6.2 160 21:38 04.03.2020
1879 Clouds 14 1027 54 10000 6.2 160 21:18 04.03.2020
1880 Clouds 13 1027 54 10000 6.7 160 20:40 04.03.2020
1881 Clouds 13 1027 58 10000 7.7 160 20:22 04.03.2020
1882 Clouds 13 1026 54 10000 7.2 150 19:58 04.03.2020
1883 Clouds 13 1026 54 10000 7.2 150 19:58 04.03.2020
1884 Clouds 13 1026 54 10000 7.2 140 19:39 04.03.2020
1885 Clouds 13 1026 54 10000 7.2 140 19:21 04.03.2020
1886 Clouds 12 1026 54 10000 6.7 140 18:42 04.03.2020
1887 Clouds 12 1026 54 10000 6.7 140 18:42 04.03.2020
1888 Clouds 12 1025 62 10000 7.2 150 18:24 04.03.2020
1889 Clouds 12 1025 54 10000 7.2 150 17:59 04.03.2020
1890 Clouds 12 1025 54 10000 6.7 150 17:39 04.03.2020
1891 Clouds 13 1025 54 10000 6.7 150 17:20 04.03.2020
1892 Clouds 12 1025 50 10000 7.2 150 16:56 04.03.2020
1893 Clouds 12 1025 54 10000 7.2 160 16:37 04.03.2020
1894 Clouds 12 1025 54 10000 7.2 160 16:19 04.03.2020
1895 Clouds 13 1025 54 10000 7.7 140 15:44 04.03.2020
1896 Clouds 13 1025 54 10000 7.2 140 15:26 04.03.2020
1897 Clouds 13 1025 62 10000 7.7 160 14:59 04.03.2020
1898 Clouds 12 1025 62 10000 7.7 160 14:40 04.03.2020
1899 Clouds 13 1025 62 10000 7.7 170 14:20 04.03.2020
1900 Clouds 13 1025 62 10000 7.7 160 13:58 04.03.2020
1901 Clouds 13 1025 62 10000 8.7 160 13:39 04.03.2020
1902 Clouds 13 1025 62 10000 8.7 160 13:20 04.03.2020
1903 Clear 13 1025 62 10000 8.2 160 12:55 04.03.2020
1904 Clear 13 1025 62 10000 8.7 150 12:37 04.03.2020
1905 Clear 13 1025 62 10000 8.7 150 12:19 04.03.2020
1906 Clear 13 1025 62 10000 9.8 150 11:42 04.03.2020
1907 Clear 13 1025 62 10000 9.8 150 11:42 04.03.2020
1908 Clear 13 1025 62 10000 9.8 150 11:42 04.03.2020
1909 Clear 13 1025 67 10000 8.7 160 11:23 04.03.2020
1910 Clear 13 1021 70 0 0.89 195 10:58 04.03.2020
1911 Clear 13 1024 58 10000 9.3 150 10:40 04.03.2020
1912 Clear 13 1021 68 0 0.45 5 10:21 04.03.2020
1913 Clear 13 1024 62 10000 9.8 160 09:43 04.03.2020
1914 Clear 13 1024 67 10000 10.3 170 09:21 04.03.2020
1915 Clear 13 1020 72 0 1.34 237 08:49 04.03.2020
1916 Clear 14 1022 58 10000 9.8 160 08:28 04.03.2020
1917 Clouds 14 1022 58 10000 10.8 170 07:57 04.03.2020
1918 Clouds 14 1021 62 10000 10.3 160 07:39 04.03.2020
1919 Clouds 14 1021 62 10000 10.3 160 07:20 04.03.2020
1920 Clouds 15 1021 58 10000 11.3 160 06:44 04.03.2020
1921 Clouds 15 1021 48 10000 11.8 170 06:23 04.03.2020
1922 Clouds 15 1020 55 10000 11.3 170 05:50 04.03.2020
1923 Clouds 15 1019 63 10000 10.8 160 04:34 04.03.2020
1924 Clouds 15 1019 67 10000 11.8 170 03:44 04.03.2020
1925 Clouds 15 1019 67 10000 11.8 170 03:25 04.03.2020
1926 Clouds 16 1019 63 10000 10.8 170 02:55 04.03.2020
1927 Clouds 16 1018 63 10000 10.8 160 02:21 04.03.2020
1928 Rain 15 1018 82 6000 10.8 160 01:55 04.03.2020
1929 Rain 15 1017 93 5000 12.3 160 00:53 04.03.2020
1930 Rain 15 1016 77 10000 11.3 160 00:27 04.03.2020
1931 Rain 15 1016 82 10000 11.8 160 23:48 03.03.2020
1932 Rain 15 1015 93 7000 10.8 160 23:28 03.03.2020
1933 Rain 15 1015 87 10000 11.8 160 22:59 03.03.2020
1934 Rain 15 1015 87 10000 11.8 160 22:40 03.03.2020
1935 Rain 15 1014 93 7000 11.3 160 22:20 03.03.2020
1936 Rain 15 1013 93 10000 11.3 160 21:58 03.03.2020
1937 Rain 15 1013 93 9000 11.8 170 21:39 03.03.2020
1938 Rain 15 1013 93 9000 11.8 170 21:20 03.03.2020
1939 Rain 15 1012 87 9000 11.8 160 20:55 03.03.2020
1940 Rain 15 1012 87 9000 11.8 160 20:55 03.03.2020
1941 Rain 16 1012 93 8000 10.3 170 20:36 03.03.2020
1942 Rain 15 1012 93 8000 10.3 170 20:18 03.03.2020
1943 Rain 15 1012 93 8000 10.3 170 20:18 03.03.2020
1944 Rain 16 1011 93 7000 9.8 170 19:54 03.03.2020
1945 Rain 15 1010 93 8000 9.3 180 19:36 03.03.2020
1946 Rain 16 1010 93 8000 9.3 180 19:18 03.03.2020
1947 Rain 17 1009 88 8000 9.8 210 18:42 03.03.2020
1948 Drizzle 17 1009 93 8000 10.3 190 18:22 03.03.2020
1949 Rain 19 1007 94 10000 6.2 10 18:00 03.03.2020
1950 Rain 19 1007 94 10000 6.2 10 17:40 03.03.2020
1951 Rain 19 1006 94 10000 8.2 350 17:21 03.03.2020
1952 Rain 20 1006 94 10000 6.7 350 16:58 03.03.2020
1953 Haze 20 1006 94 5000 8.2 340 16:38 03.03.2020
1954 Haze 20 1006 94 5000 8.2 340 16:19 03.03.2020
1955 Rain 20 1006 100 10000 10.3 350 15:57 03.03.2020
1956 Rain 20 1006 100 10000 10.3 350 15:57 03.03.2020
1957 Rain 20 1006 94 10000 9.3 350 15:38 03.03.2020
1958 Rain 20 1006 94 10000 9.3 350 15:18 03.03.2020
1959 Rain 20 1006 94 7000 8.7 360 14:41 03.03.2020
1960 Rain 20 1006 94 7000 8.7 360 14:41 03.03.2020
1961 Rain 19 1006 94 3500 9.3 20 14:19 03.03.2020
1962 Rain 19 1006 94 3500 9.3 20 14:19 03.03.2020
1963 Rain 19 1007 94 6000 9.8 360 13:57 03.03.2020
1964 Rain 19 1007 94 3900 9.3 10 13:39 03.03.2020
1965 Rain 19 1007 94 3900 9.3 10 13:19 03.03.2020
1966 Rain 20 1008 88 6000 9.3 350 12:47 03.03.2020
1967 Rain 20 1007 83 10000 9.8 20 12:25 03.03.2020
1968 Clouds 20 1007 83 10000 10.3 360 11:57 03.03.2020
1969 Clouds 20 1008 83 10000 10.3 360 11:37 03.03.2020
1970 Clouds 20 1008 83 10000 10.3 360 11:18 03.03.2020
1971 Clouds 20 1008 83 10000 9.3 360 10:55 03.03.2020
1972 Clouds 20 1008 88 10000 9.8 360 10:37 03.03.2020
1973 Clouds 20 1008 88 10000 9.8 360 10:18 03.03.2020
1974 Clouds 20 1008 83 10000 9.3 350 09:43 03.03.2020
1975 Clouds 20 1008 83 10000 9.3 350 09:43 03.03.2020
1976 Clouds 20 1008 88 10000 10.8 360 09:22 03.03.2020
1977 Clouds 20 1007 88 10000 10.8 360 08:56 03.03.2020
1978 Clouds 20 1008 77 10000 9.8 360 08:37 03.03.2020
1979 Clouds 20 1008 77 10000 9.8 360 08:19 03.03.2020
1980 Clouds 20 1008 77 10000 9.8 360 07:42 03.03.2020
1981 Clouds 20 1008 77 10000 9.3 340 07:19 03.03.2020
1982 Clouds 21 1009 78 10000 6.7 340 06:41 03.03.2020
1983 Clouds 21 1008 78 10000 5.1 350 06:22 03.03.2020
1984 Clouds 21 1008 78 10000 5.1 350 06:22 03.03.2020
1985 Clouds 21 1009 77 10000 7.2 350 05:46 03.03.2020
1986 Clear 20 1009 77 10000 7.7 360 04:57 03.03.2020
1987 Clear 21 1010 68 10000 8.7 350 03:32 03.03.2020
1988 Clouds 21 1011 68 10000 11.8 360 01:40 03.03.2020
1989 Clouds 20 1012 73 10000 10.8 360 00:48 03.03.2020
1990 Clouds 20 1012 77 10000 9.3 350 00:26 03.03.2020
1991 Clouds 20 1012 77 10000 8.7 360 23:51 02.03.2020
1992 Clouds 20 1013 73 10000 9.3 360 23:23 02.03.2020
1993 Clouds 20 1013 73 10000 8.7 350 22:58 02.03.2020
1994 Clouds 20 1013 77 10000 8.2 350 22:39 02.03.2020
1995 Clouds 20 1013 77 10000 8.2 350 22:20 02.03.2020
1996 Clouds 20 1013 82 10000 8.7 350 21:59 02.03.2020
1997 Clouds 20 1013 77 10000 10.3 360 21:39 02.03.2020
1998 Clouds 20 1013 77 10000 10.3 360 21:21 02.03.2020
1999 Clouds 19 1013 82 10000 8.7 360 20:58 02.03.2020
2000 Clouds 19 1014 77 10000 7.2 360 20:38 02.03.2020
2001 Clouds 19 1014 77 10000 7.2 360 20:20 02.03.2020
2002 Clouds 19 1014 77 10000 10.3 360 19:55 02.03.2020
2003 Clouds 19 1014 77 10000 9.3 360 19:37 02.03.2020
2004 Clouds 19 1014 77 10000 9.3 360 19:18 02.03.2020
2005 Clouds 19 1014 77 10000 9.3 360 19:18 02.03.2020
2006 Clouds 19 1014 82 10000 8.2 10 18:44 02.03.2020
2007 Clouds 18 1014 82 10000 8.2 10 18:20 02.03.2020
2008 Clouds 18 1015 82 10000 7.7 10 17:59 02.03.2020
2009 Clouds 19 1015 82 10000 7.7 10 17:40 02.03.2020
2010 Clouds 18 1015 82 10000 7.2 10 17:21 02.03.2020
2011 Clouds 18 1015 82 10000 7.2 10 16:55 02.03.2020
2012 Clouds 18 1015 88 10000 7.2 360 16:36 02.03.2020
2013 Clouds 18 1015 88 10000 7.2 360 16:18 02.03.2020
2014 Clouds 18 1016 82 10000 7.7 10 15:43 02.03.2020
2015 Clouds 19 1016 82 10000 7.7 360 15:20 02.03.2020
2016 Clouds 18 1016 82 10000 7.7 10 14:42 02.03.2020
2017 Clouds 18 1017 82 10000 7.2 360 14:20 02.03.2020
2018 Clouds 19 1017 82 10000 8.2 10 13:59 02.03.2020
2019 Clouds 19 1017 72 10000 6.7 10 13:39 02.03.2020
2020 Clouds 19 1017 72 10000 6.7 10 13:18 02.03.2020
2021 Clouds 19 1017 77 10000 7.7 10 12:44 02.03.2020
2022 Clouds 19 1018 72 10000 7.7 10 12:20 02.03.2020
2023 Clouds 19 1018 77 10000 5.7 20 11:56 02.03.2020
2024 Clouds 19 1018 77 10000 5.1 20 11:37 02.03.2020
2025 Clouds 19 1018 77 10000 5.1 20 11:18 02.03.2020
2026 Clouds 19 1019 77 10000 4.6 40 10:42 02.03.2020
2027 Clouds 19 1019 77 10000 4.6 20 10:21 02.03.2020
2028 Clouds 19 1019 77 10000 5.1 20 09:59 02.03.2020
2029 Clouds 19 1019 77 10000 5.1 20 09:59 02.03.2020
2030 Clouds 19 1019 77 10000 5.1 20 09:40 02.03.2020
2031 Clouds 19 1019 77 10000 5.1 30 09:22 02.03.2020
2032 Clouds 19 1019 77 10000 5.1 40 08:43 02.03.2020
2033 Clouds 19 1019 82 10000 5.7 20 08:22 02.03.2020
2034 Clouds 19 1019 82 10000 7.7 10 07:42 02.03.2020
2035 Clouds 19 1019 82 10000 7.7 10 07:19 02.03.2020
2036 Clouds 19 1019 82 10000 8.7 360 06:45 02.03.2020
2037 Clouds 20 1019 73 10000 9.3 20 05:53 02.03.2020
2038 Clouds 21 1020 73 10000 10.8 360 04:25 02.03.2020
2039 Clouds 21 1021 73 10000 8.2 10 03:22 02.03.2020
2040 Clouds 21 1021 77 10000 7.7 360 02:46 02.03.2020
2041 Clouds 20 1021 88 10000 6.7 10 01:47 02.03.2020
2042 Rain 20 1022 93 2300 7.2 10 01:28 02.03.2020
2043 Clouds 20 1022 64 10000 6.7 350 00:23 02.03.2020
2044 Clouds 21 1022 60 10000 7.2 360 23:57 01.03.2020
2045 Clouds 21 1022 60 10000 6.2 360 23:39 01.03.2020
2046 Clouds 21 1022 60 10000 6.2 360 23:19 01.03.2020
2047 Clouds 20 1022 64 10000 3.6 360 22:43 01.03.2020
2048 Clouds 20 1022 68 10000 4.6 360 22:20 01.03.2020
2049 Clouds 19 1022 72 10000 3.6 360 21:56 01.03.2020
2050 Clouds 18 1023 77 10000 4.1 10 21:38 01.03.2020
2051 Clouds 17 1023 77 10000 4.1 10 21:18 01.03.2020
2052 Clouds 16 1023 77 10000 4.6 10 20:43 01.03.2020
2053 Clouds 15 1023 77 10000 3.1 40 20:25 01.03.2020
2054 Clouds 14 1023 82 10000 2.1 40 19:55 01.03.2020
2055 Clouds 13 1023 82 10000 2.1 10 19:36 01.03.2020
2056 Clouds 14 1023 82 10000 2.1 10 19:18 01.03.2020
2057 Clouds 14 1023 87 10000 1.5 340 18:40 01.03.2020
2058 Clouds 14 1023 82 10000 0.5 100 18:20 01.03.2020
2059 Clouds 14 1023 82 10000 0.5 220 17:58 01.03.2020
2060 Clouds 14 1023 77 10000 1.5 40 17:40 01.03.2020
2061 Clouds 14 1023 77 10000 1.5 40 17:20 01.03.2020
2062 Clouds 14 1023 77 10000 1 80 16:57 01.03.2020
2063 Clouds 14 1023 77 10000 1 20 16:38 01.03.2020
2064 Clouds 14 1023 77 10000 1 20 16:18 01.03.2020
2065 Clouds 14 1023 82 10000 2.1 20 15:56 01.03.2020
2066 Clouds 14 1023 77 10000 1.5 30 15:38 01.03.2020
2067 Clouds 15 1023 77 10000 1.5 30 15:19 01.03.2020
2068 Clouds 15 1024 72 10000 2.1 340 14:56 01.03.2020
2069 Clouds 15 1023 82 10000 2.1 350 14:38 01.03.2020
2070 Clouds 15 1023 82 10000 2.1 350 14:20 01.03.2020
2071 Clouds 15 1024 82 10000 3.1 350 13:55 01.03.2020
2072 Clouds 16 1024 72 10000 3.1 10 13:37 01.03.2020
2073 Clouds 16 1024 72 10000 3.1 10 13:18 01.03.2020
2074 Clouds 15 1024 72 10000 3.1 10 12:42 01.03.2020
2075 Clouds 15 1024 72 10000 3.1 10 12:42 01.03.2020
2076 Clouds 16 1024 77 10000 1 50 12:21 01.03.2020
2077 Clouds 16 1024 77 10000 1 50 12:21 01.03.2020
2078 Clouds 16 1024 72 10000 2.1 10 11:43 01.03.2020
2079 Clouds 16 1024 77 10000 1 30 11:25 01.03.2020
2080 Clouds 17 1024 77 10000 0.5 180 10:57 01.03.2020
2081 Clouds 17 1024 82 10000 1.5 170 10:38 01.03.2020
2082 Clouds 17 1024 82 10000 1.5 170 10:20 01.03.2020
2083 Clouds 18 1024 63 10000 2.1 30 09:59 01.03.2020
2084 Clouds 18 1024 63 10000 2.1 30 09:41 01.03.2020
2085 Clouds 18 1024 63 10000 3.1 40 09:21 01.03.2020
2086 Clouds 18 1023 68 10000 1.5 160 08:43 01.03.2020
2087 Clouds 18 1023 72 10000 2.1 180 08:25 01.03.2020
2088 Clouds 20 1023 64 10000 2.1 190 07:43 01.03.2020
2089 Clouds 21 1023 60 10000 3.1 220 07:24 01.03.2020
2090 Clouds 21 1023 64 10000 3.6 210 06:58 01.03.2020
2091 Clouds 21 1023 64 10000 4.1 210 06:39 01.03.2020
2092 Clouds 21 1023 68 10000 5.1 210 04:39 01.03.2020
2093 Clouds 20 1023 68 10000 5.7 200 02:58 01.03.2020
2094 Clear 21 1023 72 10000 5.7 190 01:54 01.03.2020
2095 Clear 22 1023 72 10000 5.1 190 01:33 01.03.2020
2096 Clouds 20 1023 77 10000 5.1 200 00:46 01.03.2020
2097 Clouds 19 1023 77 10000 5.1 190 00:23 01.03.2020
2098 Clouds 20 1023 77 10000 4.1 190 23:54 29.02.2020
2099 Clouds 19 1023 72 10000 2.6 180 23:34 29.02.2020
2100 Clear 18 1023 77 10000 2.6 200 22:45 29.02.2020
2101 Clear 18 1023 67 10000 1 140 22:26 29.02.2020
2102 Clear 16 1023 72 10000 1 150 21:47 29.02.2020
2103 Clear 16 1023 77 10000 1 270 21:26 29.02.2020
2104 Clear 15 1023 82 10000 3.1 20 20:58 29.02.2020
2105 Clear 14 1023 82 10000 3.1 20 20:40 29.02.2020
2106 Clear 12 1023 82 10000 3.1 30 20:19 29.02.2020
2107 Clear 11 1022 87 10000 2.6 30 19:41 29.02.2020
2108 Clear 11 1022 87 10000 3.1 20 19:22 29.02.2020
2109 Clear 11 1022 87 10000 3.1 30 18:57 29.02.2020
2110 Clear 11 1022 93 10000 3.6 20 18:39 29.02.2020
2111 Clear 11 1022 93 10000 3.6 20 18:19 29.02.2020
2112 Clear 11 1022 87 10000 2.1 30 17:55 29.02.2020
2113 Clear 11 1022 87 10000 1.5 10 17:36 29.02.2020
2114 Clear 11 1022 87 10000 1.5 10 17:36 29.02.2020
2115 Clear 11 1022 87 10000 1.5 10 17:18 29.02.2020
2116 Clear 11 1022 87 10000 1.5 30 16:42 29.02.2020
2117 Clear 11 1022 87 10000 0.5 10 16:19 29.02.2020
2118 Clear 12 1022 82 10000 0.5 60 15:43 29.02.2020
2119 Clear 12 1022 76 10000 1 100 15:24 29.02.2020
2120 Clear 12 1022 76 10000 1.5 140 14:57 29.02.2020
2121 Clear 12 1022 82 10000 2.6 160 14:38 29.02.2020
2122 Clear 13 1022 82 10000 2.6 160 14:20 29.02.2020
2123 Clear 13 1021 82 10000 3.6 170 13:43 29.02.2020
2124 Clear 14 1021 82 10000 4.6 200 13:25 29.02.2020
2125 Clear 13 1021 82 10000 4.6 200 12:54 29.02.2020
2126 Clear 13 1021 77 10000 4.1 190 12:36 29.02.2020
2127 Clear 13 1021 77 10000 4.1 190 12:18 29.02.2020
2128 Clear 13 1021 77 10000 4.6 190 11:43 29.02.2020
2129 Clear 13 1021 77 10000 4.6 180 11:24 29.02.2020
2130 Clear 14 1021 72 10000 5.1 190 10:50 29.02.2020
2131 Clear 14 1020 72 10000 5.1 190 10:29 29.02.2020
2132 Clear 14 1020 77 10000 5.1 180 09:51 29.02.2020
2133 Clear 14 1020 77 10000 5.1 170 09:27 29.02.2020
2134 Clear 14 1019 72 10000 5.7 180 08:58 29.02.2020
2135 Clear 14 1019 72 10000 5.7 180 08:38 29.02.2020
2136 Clouds 15 1019 72 10000 5.7 180 08:19 29.02.2020
2137 Clouds 15 1019 72 10000 5.7 180 07:45 29.02.2020
2138 Clouds 16 1019 77 10000 5.7 190 07:19 29.02.2020
2139 Clouds 16 1018 72 10000 6.2 190 06:53 29.02.2020
2140 Clouds 17 1018 72 10000 7.2 190 06:27 29.02.2020
2141 Clouds 17 1018 77 10000 6.7 190 05:49 29.02.2020
2142 Rain 18 1018 72 10000 5.1 190 05:21 29.02.2020
2143 Rain 18 1017 68 10000 6.2 190 03:44 29.02.2020
2144 Rain 18 1017 68 10000 6.2 180 03:23 29.02.2020
2145 Rain 18 1016 68 10000 6.7 190 02:42 29.02.2020
2146 Rain 18 1015 72 10000 8.7 190 01:32 29.02.2020
2147 Rain 18 1015 77 10000 7.7 200 00:44 29.02.2020
2148 Rain 18 1014 77 10000 10.3 200 00:25 29.02.2020
2149 Rain 18 1012 77 10000 7.2 240 23:38 28.02.2020
2150 Rain 18 1012 77 10000 7.2 240 23:38 28.02.2020
2151 Rain 19 1012 77 10000 7.2 240 23:20 28.02.2020
2152 Rain 19 1011 82 10000 4.6 350 22:42 28.02.2020
2153 Rain 18 1010 88 10000 8.7 360 22:22 28.02.2020
2154 Rain 18 1010 93 10000 6.2 350 21:42 28.02.2020
2155 Rain 18 1010 88 10000 7.7 340 21:21 28.02.2020
2156 Rain 18 1009 88 10000 7.7 340 20:56 28.02.2020
2157 Rain 18 1008 93 5000 8.2 350 20:38 28.02.2020
2158 Rain 18 1008 93 5000 8.2 350 20:38 28.02.2020
2159 Rain 18 1008 93 5000 8.2 350 20:19 28.02.2020
2160 Rain 19 1009 88 10000 8.7 340 19:56 28.02.2020
2161 Drizzle 18 1008 88 9000 9.8 340 19:37 28.02.2020
2162 Drizzle 19 1008 88 9000 9.8 340 19:19 28.02.2020
2163 Rain 19 1008 88 10000 9.8 350 18:46 28.02.2020
2164 Rain 19 1008 88 10000 10.8 350 18:23 28.02.2020
2165 Rain 19 1008 82 10000 11.3 350 17:41 28.02.2020
2166 Rain 19 1008 82 10000 11.8 350 17:23 28.02.2020
2167 Clouds 19 1008 82 10000 11.3 350 16:56 28.02.2020
2168 Clouds 19 1008 88 10000 11.3 340 16:37 28.02.2020
2169 Clouds 19 1008 88 10000 11.3 340 16:19 28.02.2020
2170 Clouds 19 1008 77 10000 12.9 340 15:55 28.02.2020
2171 Clouds 19 1008 77 10000 12.9 340 15:55 28.02.2020
2172 Clouds 19 1008 77 10000 12.9 340 15:36 28.02.2020
2173 Clouds 19 1008 77 10000 12.9 340 15:18 28.02.2020
2174 Clouds 19 1008 77 10000 11.8 350 14:42 28.02.2020
2175 Clear 19 1009 82 10000 9.8 350 14:19 28.02.2020
2176 Clear 19 1009 82 10000 10.3 360 13:58 28.02.2020
2177 Clear 19 1009 82 10000 10.8 350 13:40 28.02.2020
2178 Clear 19 1009 82 10000 10.8 350 13:19 28.02.2020
2179 Clouds 19 1009 82 10000 11.8 350 12:43 28.02.2020
2180 Clouds 19 1009 82 10000 10.8 350 12:25 28.02.2020
2181 Clouds 19 1009 82 10000 10.3 350 11:55 28.02.2020
2182 Clouds 19 1009 82 10000 9.3 340 11:37 28.02.2020
2183 Clouds 19 1009 82 10000 9.3 340 11:18 28.02.2020
2184 Clouds 19 1009 82 10000 10.3 350 10:43 28.02.2020
2185 Clouds 19 1010 82 10000 10.8 340 10:23 28.02.2020
2186 Clouds 19 1010 82 10000 8.2 350 09:47 28.02.2020
2187 Clouds 19 1010 82 10000 7.7 10 09:22 28.02.2020
2188 Clouds 19 1010 77 10000 6.7 360 08:57 28.02.2020
2189 Clouds 19 1010 82 10000 8.2 10 08:39 28.02.2020
2190 Clouds 19 1010 82 10000 8.2 10 08:20 28.02.2020
2191 Clouds 19 1010 82 10000 8.2 10 08:20 28.02.2020
2192 Clouds 19 1010 77 10000 7.7 360 07:41 28.02.2020
2193 Clouds 19 1010 77 10000 9.3 360 07:22 28.02.2020
2194 Clouds 19 1010 73 10000 10.3 360 06:45 28.02.2020
2195 Clouds 19 1010 72 10000 10.3 360 06:24 28.02.2020
2196 Clouds 21 1010 64 10000 11.3 360 04:47 28.02.2020
2197 Clouds 21 1011 60 10000 10.3 360 04:19 28.02.2020
2198 Clouds 21 1012 56 10000 10.8 350 02:46 28.02.2020
2199 Clouds 21 1012 53 10000 10.3 350 02:27 28.02.2020
2200 Clouds 21 1013 64 10000 9.8 360 01:26 28.02.2020
2201 Clouds 21 1013 68 10000 10.8 360 00:30 28.02.2020
2202 Clouds 20 1013 68 10000 10.3 360 23:42 27.02.2020
2203 Clouds 20 1013 68 10000 10.3 360 23:21 27.02.2020
2204 Clouds 19 1013 72 10000 8.7 350 22:46 27.02.2020
2205 Clouds 19 1013 72 10000 10.3 360 22:27 27.02.2020
2206 Clouds 19 1013 77 10000 9.8 360 21:59 27.02.2020
2207 Clouds 19 1013 77 10000 9.8 360 21:41 27.02.2020
2208 Clouds 19 1013 82 10000 10.3 360 21:19 27.02.2020
2209 Clouds 18 1013 82 10000 9.8 360 20:57 27.02.2020
2210 Clouds 18 1013 82 10000 9.8 360 20:39 27.02.2020
2211 Clear 18 1013 82 10000 9.8 360 20:20 27.02.2020
2212 Clear 18 1013 82 10000 9.8 360 20:20 27.02.2020
2213 Clear 17 1013 82 10000 10.3 360 19:56 27.02.2020
2214 Clear 17 1013 82 10000 10.3 360 19:37 27.02.2020
2215 Clear 17 1013 82 10000 10.3 360 19:18 27.02.2020
2216 Clear 16 1013 82 10000 8.7 360 18:40 27.02.2020
2217 Clear 16 1013 82 10000 9.3 10 18:22 27.02.2020
2218 Clear 16 1013 82 10000 9.3 360 17:58 27.02.2020
2219 Clear 16 1013 82 10000 10.3 360 17:40 27.02.2020
2220 Clear 16 1013 82 10000 10.3 360 17:19 27.02.2020
2221 Clear 16 1013 82 10000 9.8 360 16:56 27.02.2020
2222 Clear 16 1013 82 10000 9.8 360 16:38 27.02.2020
2223 Clear 16 1013 82 10000 9.8 360 16:18 27.02.2020
2224 Clear 17 1013 82 10000 8.7 10 15:56 27.02.2020
2225 Clear 17 1013 82 10000 9.3 360 15:36 27.02.2020
2226 Clear 17 1013 82 10000 9.3 360 15:18 27.02.2020
2227 Clear 17 1013 82 10000 9.8 360 14:42 27.02.2020
2228 Clear 17 1013 82 10000 9.3 360 14:23 27.02.2020
2229 Clear 17 1013 82 10000 9.3 360 14:23 27.02.2020
2230 Clouds 17 1013 82 10000 9.3 360 13:57 27.02.2020
2231 Clouds 17 1013 82 10000 8.2 360 13:39 27.02.2020
2232 Clouds 17 1013 82 10000 8.2 360 13:39 27.02.2020
2233 Clouds 17 1013 82 10000 8.2 360 13:20 27.02.2020
2234 Clear 18 1013 82 10000 9.3 360 12:45 27.02.2020
2235 Clear 18 1013 82 10000 9.3 360 12:45 27.02.2020
2236 Clear 18 1013 77 10000 8.7 350 12:23 27.02.2020
2237 Clear 18 1014 77 10000 8.7 350 11:57 27.02.2020
2238 Clear 17 1013 82 10000 11.3 360 11:38 27.02.2020
2239 Clouds 17 1013 82 10000 11.3 360 11:20 27.02.2020
2240 Clouds 17 1013 82 10000 10.3 350 10:42 27.02.2020
2241 Clouds 17 1013 82 10000 11.3 350 10:20 27.02.2020
2242 Clouds 17 1013 77 10000 11.8 10 09:46 27.02.2020
2243 Clouds 17 1013 77 10000 11.3 360 09:28 27.02.2020
2244 Clouds 18 1013 77 10000 10.8 360 08:56 27.02.2020
2245 Clouds 18 1012 68 10000 11.3 10 08:38 27.02.2020
2246 Clouds 18 1012 68 10000 11.3 10 08:18 27.02.2020
2247 Clouds 19 1013 64 10000 11.3 10 07:42 27.02.2020
2248 Clouds 19 1013 64 10000 10.8 10 07:24 27.02.2020
2249 Clouds 19 1013 64 10000 10.8 10 07:24 27.02.2020
2250 Clouds 19 1013 60 10000 9.8 10 06:30 27.02.2020
2251 Clouds 20 1012 68 10000 11.3 10 05:23 27.02.2020
2252 Clouds 21 1013 56 10000 12.3 360 03:21 27.02.2020
2253 Clouds 21 1014 64 10000 13.4 360 01:39 27.02.2020
2254 Clouds 21 1014 64 10000 13.4 10 00:42 27.02.2020
2255 Clouds 21 1014 64 10000 11.8 360 00:19 27.02.2020
2256 Clouds 21 1014 64 10000 11.3 360 23:38 26.02.2020
2257 Clouds 20 1014 64 10000 11.3 360 23:18 26.02.2020
2258 Clouds 20 1014 64 10000 11.3 10 22:55 26.02.2020
2259 Clouds 20 1014 68 10000 10.3 360 22:37 26.02.2020
2260 Clouds 20 1014 68 10000 10.3 360 22:18 26.02.2020
2261 Clouds 19 1015 77 10000 10.3 360 21:39 26.02.2020
2262 Clouds 19 1015 77 10000 10.3 360 21:20 26.02.2020
2263 Clouds 18 1015 82 10000 10.3 360 20:56 26.02.2020
2264 Clouds 18 1015 82 10000 8.2 10 20:38 26.02.2020
2265 Clouds 17 1015 82 10000 8.2 10 20:19 26.02.2020
2266 Clouds 17 1015 82 10000 8.2 360 19:56 26.02.2020
2267 Clouds 17 1015 82 10000 8.7 360 19:37 26.02.2020
2268 Clouds 17 1015 82 10000 8.7 360 19:19 26.02.2020
2269 Clouds 17 1015 82 10000 8.2 360 18:56 26.02.2020
2270 Clouds 16 1014 88 10000 6.2 350 18:37 26.02.2020
2271 Clouds 16 1014 88 10000 6.2 350 18:19 26.02.2020
2272 Clouds 17 1014 88 10000 7.2 350 17:41 26.02.2020
2273 Clouds 16 1014 88 10000 7.2 10 17:19 26.02.2020
2274 Clouds 17 1014 88 10000 7.2 360 16:56 26.02.2020
2275 Clouds 17 1014 82 10000 6.7 360 16:38 26.02.2020
2276 Clouds 17 1014 82 10000 6.7 360 16:20 26.02.2020
2277 Clouds 16 1014 82 10000 6.2 360 15:45 26.02.2020
2278 Clouds 16 1014 88 10000 4.6 360 15:27 26.02.2020
2279 Clouds 15 1014 88 10000 5.1 10 14:43 26.02.2020
2280 Clouds 15 1014 77 10000 5.1 20 14:24 26.02.2020
2281 Clouds 16 1015 77 10000 5.7 10 13:58 26.02.2020
2282 Clouds 16 1015 77 10000 5.7 20 13:39 26.02.2020
2283 Clouds 16 1015 77 10000 5.7 20 13:18 26.02.2020
2284 Clouds 17 1015 77 10000 4.1 360 12:39 26.02.2020
2285 Clouds 17 1015 77 10000 4.1 360 12:19 26.02.2020
2286 Clouds 17 1015 77 10000 6.2 360 11:55 26.02.2020
2287 Clouds 17 1015 77 10000 6.2 360 11:55 26.02.2020
2288 Clouds 17 1015 77 10000 5.1 350 11:37 26.02.2020
2289 Clouds 17 1015 77 10000 5.1 350 11:18 26.02.2020
2290 Clouds 17 1015 82 10000 6.7 360 10:41 26.02.2020
2291 Clouds 17 1015 82 10000 5.7 10 10:22 26.02.2020
2292 Clouds 17 1015 72 10000 4.6 20 09:55 26.02.2020
2293 Clouds 17 1014 72 10000 5.1 10 09:37 26.02.2020
2294 Clouds 18 1014 72 10000 5.1 10 09:18 26.02.2020
2295 Clouds 18 1014 60 10000 3.6 330 08:38 26.02.2020
2296 Clouds 19 1014 60 10000 3.6 330 08:19 26.02.2020
2297 Clouds 21 1014 56 10000 5.1 330 07:48 26.02.2020
2298 Clouds 21 1014 49 10000 5.1 340 07:29 26.02.2020
2299 Clouds 23 1014 47 10000 5.1 340 06:53 26.02.2020
2300 Clouds 24 1014 47 10000 5.7 340 06:35 26.02.2020
2301 Clouds 24 1014 44 10000 6.2 360 05:54 26.02.2020
2302 Clouds 25 1014 39 10000 5.7 360 05:28 26.02.2020
2303 Clouds 23 1015 60 10000 1.5 240 04:36 26.02.2020
2304 Clouds 21 1016 72 10000 3.6 180 02:33 26.02.2020
2305 Clouds 21 1016 77 10000 4.1 190 01:48 26.02.2020
2306 Clouds 21 1017 77 10000 4.6 190 00:50 26.02.2020
2307 Clouds 22 1017 77 10000 4.6 200 00:25 26.02.2020
2308 Clouds 22 1017 77 10000 4.6 200 00:25 26.02.2020
2309 Clouds 22 1017 77 10000 3.6 190 23:56 25.02.2020
2310 Clouds 22 1017 77 10000 3.6 190 23:37 25.02.2020
2311 Clouds 20 1017 77 10000 3.6 190 23:19 25.02.2020
2312 Clouds 20 1018 77 10000 2.1 240 22:42 25.02.2020
2313 Clouds 19 1018 72 10000 2.1 60 22:19 25.02.2020
2314 Clouds 18 1018 77 10000 2.1 350 21:56 25.02.2020
2315 Clouds 18 1018 87 10000 3.1 10 21:36 25.02.2020
2316 Clouds 18 1018 87 10000 3.1 10 21:18 25.02.2020
2317 Clouds 16 1018 82 10000 3.1 30 20:55 25.02.2020
2318 Clouds 15 1018 87 10000 2.6 30 20:36 25.02.2020
2319 Clouds 14 1018 87 10000 2.6 30 20:18 25.02.2020
2320 Clouds 13 1018 87 10000 1 20 19:42 25.02.2020
2321 Clouds 13 1018 87 10000 1.5 20 19:19 25.02.2020
2322 Clouds 13 1017 93 10000 1 290 18:58 25.02.2020
2323 Clouds 12 1017 93 10000 0.5 230 18:38 25.02.2020
2324 Clouds 13 1017 93 10000 0.5 230 18:19 25.02.2020
2325 Clouds 13 1017 87 10000 0.5 160 17:39 25.02.2020
2326 Clouds 13 1017 87 10000 0.5 160 17:20 25.02.2020
2327 Clouds 14 1018 87 10000 1 30 16:59 25.02.2020
2328 Clouds 14 1018 87 10000 1 30 16:41 25.02.2020
2329 Clouds 13 1018 87 10000 2.1 20 16:22 25.02.2020
2330 Clouds 13 1018 82 10000 1.5 10 15:59 25.02.2020
2331 Clouds 13 1018 82 10000 1.5 10 15:41 25.02.2020
2332 Clouds 14 1018 87 10000 2.1 20 15:19 25.02.2020
2333 Clouds 14 1018 87 10000 2.1 30 14:58 25.02.2020
2334 Clouds 14 1018 82 10000 2.6 30 14:38 25.02.2020
2335 Clouds 14 1018 82 10000 2.6 30 14:18 25.02.2020
2336 Clouds 14 1019 82 10000 1.5 20 13:55 25.02.2020
2337 Clouds 14 1019 87 10000 0.5 50 13:37 25.02.2020
2338 Clouds 14 1019 87 10000 0.5 50 13:19 25.02.2020
2339 Clouds 15 1019 87 10000 1 210 12:42 25.02.2020
2340 Clouds 15 1019 87 10000 1.5 170 12:22 25.02.2020
2341 Clouds 15 1018 77 10000 1 50 11:58 25.02.2020
2342 Clouds 15 1018 77 10000 2.1 30 11:39 25.02.2020
2343 Clear 16 1018 77 10000 2.1 30 11:19 25.02.2020
2344 Clear 16 1018 82 10000 2.1 360 10:59 25.02.2020
2345 Clear 16 1018 82 10000 2.1 360 10:40 25.02.2020
2346 Clear 16 1018 82 10000 2.1 40 10:21 25.02.2020
2347 Clear 17 1018 72 10000 1 20 09:42 25.02.2020
2348 Clear 17 1017 68 10000 1 170 09:22 25.02.2020
2349 Clear 18 1017 77 10000 2.1 170 08:54 25.02.2020
2350 Clear 18 1017 72 10000 3.1 200 08:36 25.02.2020
2351 Clear 19 1017 72 10000 3.1 200 08:18 25.02.2020
2352 Clear 20 1017 68 10000 4.1 210 07:39 25.02.2020
2353 Clear 20 1017 68 10000 4.1 210 07:19 25.02.2020
2354 Clear 21 1017 68 10000 4.6 210 06:32 25.02.2020
2355 Clear 21 1018 68 10000 5.1 210 05:29 25.02.2020
2356 Clear 21 1019 68 10000 7.2 210 03:30 25.02.2020
2357 Clear 20 1019 68 10000 5.1 210 01:32 25.02.2020
2358 Clear 21 1020 68 10000 5.1 200 00:48 25.02.2020
2359 Clear 20 1020 68 10000 5.1 210 00:29 25.02.2020
2360 Clear 20 1020 60 0 1.34 236 23:42 24.02.2020
2361 Clear 20 1020 60 0 1.34 227 23:20 24.02.2020
2362 Clear 18 1020 72 10000 3.1 180 22:42 24.02.2020
2363 Clear 18 1020 72 10000 1.5 210 22:20 24.02.2020
2364 Clear 17 1020 72 10000 1 340 21:57 24.02.2020
2365 Clear 17 1020 72 10000 1.5 340 21:39 24.02.2020
2366 Clear 16 1020 72 10000 1.5 340 21:20 24.02.2020
2367 Clear 15 1020 77 10000 2.1 40 20:58 24.02.2020
2368 Clear 14 1020 77 10000 2.1 40 20:40 24.02.2020
2369 Clouds 13 1020 82 10000 2.1 40 20:19 24.02.2020
2370 Clouds 12 1020 87 10000 1.5 30 19:56 24.02.2020
2371 Clouds 12 1020 87 10000 2.1 30 19:38 24.02.2020
2372 Clouds 12 1020 87 10000 2.1 30 19:20 24.02.2020
2373 Clouds 12 1019 87 10000 2.6 20 18:54 24.02.2020
2374 Clouds 11 1019 87 10000 3.1 20 18:36 24.02.2020
2375 Clouds 12 1019 87 10000 3.1 20 18:18 24.02.2020
2376 Clouds 12 1020 82 10000 2.1 30 17:40 24.02.2020
2377 Clouds 12 1020 82 10000 2.1 30 17:20 24.02.2020
2378 Clouds 12 1019 87 10000 2.6 20 16:58 24.02.2020
2379 Clouds 12 1019 82 10000 2.6 40 16:39 24.02.2020
2380 Clouds 12 1019 82 10000 2.6 40 16:20 24.02.2020
2381 Clouds 12 1020 82 10000 3.1 40 15:58 24.02.2020
2382 Clouds 12 1020 82 10000 2.6 30 15:39 24.02.2020
2383 Clouds 12 1020 82 10000 2.6 30 15:21 24.02.2020
2384 Clouds 12 1020 82 10000 3.1 40 14:57 24.02.2020
2385 Clouds 12 1020 82 10000 2.6 30 14:38 24.02.2020
2386 Clouds 12 1020 82 10000 2.6 30 14:18 24.02.2020
2387 Clouds 12 1020 76 10000 2.1 20 13:56 24.02.2020
2388 Clouds 12 1020 77 10000 1 50 13:36 24.02.2020
2389 Clouds 12 1020 77 10000 1 50 13:18 24.02.2020
2390 Clouds 13 1020 82 10000 2.6 10 12:42 24.02.2020
2391 Clouds 13 1020 82 10000 2.6 20 12:24 24.02.2020
2392 Clouds 13 1020 82 10000 1 10 11:51 24.02.2020
2393 Clouds 13 1020 77 10000 1.5 10 11:32 24.02.2020
2394 Clouds 14 1021 77 10000 1.5 20 10:59 24.02.2020
2395 Clouds 14 1021 77 10000 1.5 20 10:40 24.02.2020
2396 Clouds 14 1020 77 10000 2.1 40 10:22 24.02.2020
2397 Clouds 15 1020 72 10000 0.5 130 09:40 24.02.2020
2398 Clouds 16 1020 72 10000 2.1 240 09:19 24.02.2020
2399 Clouds 16 1019 79 0 6.99 51 08:53 24.02.2020
2400 Clouds 17 1020 72 10000 3.1 220 08:29 24.02.2020
2401 Clouds 18 1020 72 10000 3.1 210 07:56 24.02.2020
2402 Clouds 19 1020 72 10000 3.1 200 07:33 24.02.2020
2403 Clouds 19 1020 63 10000 3.6 180 06:55 24.02.2020
2404 Clouds 20 1020 68 10000 4.6 170 06:28 24.02.2020
2405 Clouds 20 1021 68 10000 4.6 180 05:46 24.02.2020
2406 Clouds 20 1021 63 10000 5.1 170 05:27 24.02.2020
2407 Clouds 20 1024 72 10000 6.2 200 02:58 24.02.2020
2408 Clouds 20 1024 72 10000 6.2 220 02:31 24.02.2020
2409 Clouds 20 1024 72 10000 5.7 220 01:39 24.02.2020
2410 Clouds 19 1025 72 10000 5.7 220 00:50 24.02.2020
2411 Clouds 19 1025 63 0 0.89 228 00:21 24.02.2020
2412 Clouds 20 1023 66 0 0.45 174 23:55 23.02.2020
2413 Clouds 19 1025 72 10000 4.1 200 23:36 23.02.2020
2414 Clouds 18 1025 72 10000 4.1 200 23:18 23.02.2020
2415 Clouds 17 1025 77 10000 3.6 190 22:43 23.02.2020
2416 Clouds 16 1025 72 10000 3.1 200 22:22 23.02.2020
2417 Clouds 16 1025 82 10000 3.1 210 21:55 23.02.2020
2418 Clouds 15 1026 77 10000 2.1 180 21:37 23.02.2020
2419 Clouds 15 1026 77 10000 2.1 180 21:18 23.02.2020
2420 Clouds 15 1026 77 10000 2.1 180 21:18 23.02.2020
2421 Clouds 14 1025 82 10000 2.1 180 20:55 23.02.2020
2422 Clouds 13 1025 82 10000 2.1 170 20:37 23.02.2020
2423 Clouds 13 1025 82 10000 2.1 170 20:37 23.02.2020
2424 Clouds 12 1025 82 10000 2.1 170 20:18 23.02.2020
2425 Clouds 11 1025 87 10000 0.5 40 19:42 23.02.2020
2426 Clouds 10 1025 87 10000 1 70 19:20 23.02.2020
2427 Clouds 10 1025 81 10000 1.5 140 19:00 23.02.2020
2428 Clouds 10 1025 81 10000 1.5 140 18:41 23.02.2020
2429 Clouds 10 1024 81 10000 1 120 18:21 23.02.2020
2430 Clouds 11 1024 76 10000 1.5 150 17:58 23.02.2020
2431 Clouds 11 1024 76 10000 1.5 150 17:40 23.02.2020
2432 Clouds 11 1024 76 10000 1.5 150 17:21 23.02.2020
2433 Clouds 11 1024 76 10000 1.5 160 16:56 23.02.2020
2434 Clouds 11 1025 76 10000 1.5 140 16:38 23.02.2020
2435 Clouds 12 1025 76 10000 1.5 140 16:19 23.02.2020
2436 Clouds 12 1025 71 10000 2.1 160 15:54 23.02.2020
2437 Clouds 11 1025 76 10000 2.1 150 15:36 23.02.2020
2438 Clouds 11 1025 76 10000 2.1 150 15:18 23.02.2020
2439 Clouds 11 1025 76 10000 1.5 170 14:55 23.02.2020
2440 Clouds 11 1025 71 10000 1.5 160 14:37 23.02.2020
2441 Clouds 11 1025 71 10000 1.5 160 14:37 23.02.2020
2442 Clear 11 1025 71 10000 1.5 160 14:18 23.02.2020
2443 Clear 12 1025 71 10000 1.5 120 13:54 23.02.2020
2444 Clear 11 1025 71 10000 1.5 130 13:36 23.02.2020
2445 Clear 12 1025 71 10000 1.5 130 13:18 23.02.2020
2446 Clear 12 1025 67 10000 2.1 150 12:39 23.02.2020
2447 Clear 12 1025 67 10000 2.1 150 12:20 23.02.2020
2448 Clear 12 1025 71 10000 2.6 140 11:39 23.02.2020
2449 Clear 13 1025 71 10000 2.6 140 11:20 23.02.2020
2450 Clear 13 1025 71 10000 3.6 130 10:58 23.02.2020
2451 Clear 13 1023 80 0 4.57 118 10:39 23.02.2020
2452 Clear 13 1024 67 10000 5.7 140 10:21 23.02.2020
2453 Clear 14 1024 67 10000 5.7 140 09:56 23.02.2020
2454 Clear 14 1024 67 10000 5.1 150 09:37 23.02.2020
2455 Clear 14 1024 67 10000 5.1 150 09:18 23.02.2020
2456 Clear 14 1023 67 10000 5.7 150 08:44 23.02.2020
2457 Clear 14 1023 67 10000 7.2 160 08:25 23.02.2020
2458 Clouds 15 1022 63 10000 7.2 150 07:44 23.02.2020
2459 Clouds 16 1022 63 10000 7.2 150 07:26 23.02.2020
2460 Clouds 17 1022 59 10000 7.7 150 06:20 23.02.2020
2461 Clouds 17 1022 63 10000 7.7 160 05:19 23.02.2020
2462 Clouds 18 1022 59 10000 7.2 150 04:23 23.02.2020
2463 Clouds 18 1022 63 10000 7.7 170 02:44 23.02.2020
2464 Clouds 17 1022 59 10000 8.2 160 01:39 23.02.2020
2465 Rain 17 1022 59 10000 8.2 160 01:20 23.02.2020
2466 Rain 17 1022 59 10000 8.2 170 00:43 23.02.2020
2467 Rain 16 1022 67 10000 8.7 170 00:20 23.02.2020
2468 Rain 15 1022 67 10000 8.7 170 23:43 22.02.2020
2469 Rain 15 1022 67 10000 8.7 170 23:43 22.02.2020
2470 Rain 15 1021 72 10000 8.7 180 23:22 22.02.2020
2471 Rain 15 1021 72 10000 9.3 180 22:45 22.02.2020
2472 Rain 15 1021 67 10000 10.3 180 22:20 22.02.2020
2473 Drizzle 15 1020 72 10000 9.8 180 21:46 22.02.2020
2474 Rain 14 1020 76 10000 10.3 170 21:28 22.02.2020
2475 Rain 13 1019 87 7000 10.8 170 20:59 22.02.2020
2476 Rain 13 1019 87 7000 10.8 170 20:40 22.02.2020
2477 -273 0 0 0 0 0 20:21 22.02.2020
2478 Rain 13 1018 82 10000 10.8 180 19:43 22.02.2020
2479 Rain 13 1018 82 9000 10.3 180 19:24 22.02.2020
2480 Drizzle 13 1017 82 10000 9.8 170 18:57 22.02.2020
2481 Rain 12 1017 82 10000 10.8 170 18:37 22.02.2020
2482 Rain 12 1017 82 10000 10.8 170 18:19 22.02.2020
2483 Rain 12 1017 87 9000 11.8 180 17:44 22.02.2020
2484 Drizzle 12 1016 87 10000 13.4 170 17:26 22.02.2020
2485 Rain 13 1016 93 2600 15.4 200 16:59 22.02.2020
2486 Rain 13 1016 93 2600 15.4 200 16:40 22.02.2020
2487 Rain 13 1016 100 2800 13.4 190 16:20 22.02.2020
2488 Drizzle 13 1015 87 9000 11.3 190 15:56 22.02.2020
2489 Rain 13 1014 95 0 2.24 203 15:38 22.02.2020
2490 Rain 13 1015 87 7000 12.3 190 15:20 22.02.2020
2491 Rain 13 1015 93 4600 12.3 190 14:42 22.02.2020
2492 Rain 13 1015 93 4600 12.3 190 14:21 22.02.2020
2493 Rain 13 1014 93 5000 11.3 180 13:44 22.02.2020
2494 Rain 13 1014 93 2800 11.8 190 13:20 22.02.2020
2495 Rain 13 1014 93 2800 11.8 190 13:20 22.02.2020
2496 Rain 14 1014 87 7000 12.3 190 12:59 22.02.2020
2497 Rain 13 1013 100 5000 12.3 180 12:40 22.02.2020
2498 Rain 14 1013 100 5000 12.3 180 12:21 22.02.2020
2499 Rain 14 1013 100 4200 12.3 190 11:44 22.02.2020
2500 Rain 15 1012 93 6000 10.8 190 11:26 22.02.2020
2501 Clouds 16 1012 88 10000 8.7 200 10:55 22.02.2020
2502 Drizzle 17 1011 93 10000 4.6 190 10:37 22.02.2020
2503 Drizzle 16 1011 93 10000 4.6 190 10:18 22.02.2020
2504 Drizzle 17 1011 93 6000 4.6 190 09:55 22.02.2020
2505 Rain 17 1011 88 10000 4.1 210 09:37 22.02.2020
2506 Rain 17 1011 88 10000 4.1 210 09:18 22.02.2020
2507 Clouds 17 1010 88 10000 3.1 180 08:44 22.02.2020
2508 Clouds 18 1010 88 10000 4.1 190 08:25 22.02.2020
2509 Clouds 18 1009 82 10000 4.6 210 07:39 22.02.2020
2510 Clouds 19 1009 82 10000 4.6 210 07:18 22.02.2020
2511 Clouds 19 1009 64 10000 7.2 10 06:45 22.02.2020
2512 Clouds 20 1009 60 10000 8.2 330 04:54 22.02.2020
2513 Clouds 20 1008 56 10000 10.3 350 04:28 22.02.2020
2514 Clouds 21 1009 60 10000 9.8 360 02:42 22.02.2020
2515 Clouds 21 1009 56 10000 9.3 350 01:51 22.02.2020
2516 Clouds 21 1009 56 10000 8.7 350 01:30 22.02.2020
2517 Clouds 21 1009 56 10000 8.7 350 00:50 22.02.2020
2518 Clouds 21 1009 60 10000 8.7 350 00:32 22.02.2020
2519 Clouds 21 1009 64 10000 8.7 350 23:56 21.02.2020
2520 Clouds 21 1009 72 10000 8.2 360 23:37 21.02.2020
2521 Clouds 20 1009 72 10000 8.2 360 23:18 21.02.2020
2522 Clouds 20 1009 72 10000 8.2 360 22:42 21.02.2020
2523 Clouds 19 1009 77 10000 8.2 350 22:24 21.02.2020
2524 Clouds 19 1008 82 10000 9.3 360 21:56 21.02.2020
2525 Clouds 19 1008 82 10000 8.7 10 21:37 21.02.2020
2526 Clouds 19 1008 82 10000 8.7 10 21:19 21.02.2020
2527 Clouds 18 1008 82 10000 7.7 10 20:43 21.02.2020
2528 Clouds 18 1007 82 10000 7.7 10 20:25 21.02.2020
2529 Clouds 18 1007 82 10000 8.7 10 19:40 21.02.2020
2530 Clouds 18 1007 82 10000 8.2 360 19:21 21.02.2020
2531 Clouds 18 1007 88 10000 8.2 360 18:44 21.02.2020
2532 Clouds 18 1007 88 10000 7.2 360 18:24 21.02.2020
2533 Clouds 18 1007 88 10000 6.7 360 17:57 21.02.2020
2534 Clouds 19 1008 82 10000 5.7 350 17:38 21.02.2020
2535 Clouds 19 1008 82 10000 5.7 350 17:19 21.02.2020
2536 Clouds 19 1008 77 10000 6.7 360 16:55 21.02.2020
2537 Clouds 19 1008 82 10000 6.7 340 16:37 21.02.2020
2538 Clouds 19 1008 82 10000 6.7 340 16:19 21.02.2020
2539 Clouds 19 1008 82 10000 6.7 350 15:40 21.02.2020
2540 Clouds 19 1008 82 10000 6.7 350 15:19 21.02.2020
2541 Clouds 19 1008 88 10000 6.7 360 14:43 21.02.2020
2542 Clouds 19 1008 88 10000 7.2 350 14:22 21.02.2020
2543 Clouds 19 1008 88 10000 5.1 340 13:59 21.02.2020
2544 Clouds 19 1008 88 10000 5.1 340 13:40 21.02.2020
2545 Clouds 19 1008 88 10000 7.2 360 13:21 21.02.2020
2546 Clouds 19 1008 88 10000 7.2 350 12:46 21.02.2020
2547 Clouds 19 1008 88 10000 9.3 340 12:27 21.02.2020
2548 Clouds 19 1008 88 10000 9.8 340 11:58 21.02.2020
2549 Drizzle 19 1008 94 4300 9.8 340 11:38 21.02.2020
2550 Drizzle 20 1008 94 4300 9.8 340 11:20 21.02.2020
2551 Rain 20 1008 94 5000 8.7 350 10:42 21.02.2020
2552 Rain 20 1007 94 4200 11.3 350 10:22 21.02.2020
2553 Rain 20 1007 94 7000 11.8 350 09:58 21.02.2020
2554 Rain 19 1007 88 6000 11.3 340 09:39 21.02.2020
2555 Rain 19 1007 88 6000 11.3 340 09:20 21.02.2020
2556 Drizzle 20 1006 83 10000 11.8 350 08:56 21.02.2020
2557 Rain 20 1006 83 10000 12.3 360 08:36 21.02.2020
2558 Rain 20 1006 83 10000 12.3 360 08:18 21.02.2020
2559 Clouds 21 1006 78 10000 11.3 340 07:42 21.02.2020
2560 Clouds 21 1006 78 10000 11.3 340 07:21 21.02.2020
2561 Clouds 21 1006 78 10000 12.9 340 06:56 21.02.2020
2562 Clouds 21 1006 78 10000 11.8 340 06:33 21.02.2020
2563 Clouds 20 1007 88 10000 12.3 340 05:56 21.02.2020
2564 Rain 20 1007 88 10000 11.3 340 05:30 21.02.2020
2565 Rain 20 1007 88 10000 11.3 340 05:30 21.02.2020
2566 Rain 21 1007 69 10000 11.8 350 04:26 21.02.2020
2567 Clouds 22 1007 69 10000 11.3 350 03:47 21.02.2020
2568 Clouds 22 1008 73 10000 11.8 360 02:59 21.02.2020
2569 Clouds 21 1008 73 10000 11.3 360 01:34 21.02.2020
2570 Clouds 20 1008 73 10000 11.8 360 00:54 21.02.2020
2571 Rain 20 1009 73 10000 10.8 360 00:36 21.02.2020
2572 Rain 20 1009 73 10000 10.8 360 00:18 21.02.2020
2573 Rain 20 1009 82 10000 9.8 360 23:41 20.02.2020
2574 Clouds 20 1009 82 10000 9.3 360 23:22 20.02.2020
2575 Clouds 19 1009 88 10000 10.8 10 22:40 20.02.2020
2576 Clouds 19 1009 88 10000 10.8 10 22:21 20.02.2020
2577 Clouds 19 1009 93 10000 9.3 10 21:57 20.02.2020
2578 Clouds 18 1009 88 10000 9.3 10 21:39 20.02.2020
2579 Rain 19 1009 88 10000 9.3 10 21:19 20.02.2020
2580 Rain 18 1009 93 10000 9.3 10 20:56 20.02.2020
2581 Rain 18 1009 93 10000 8.7 360 20:38 20.02.2020
2582 Clouds 18 1009 93 10000 8.7 360 20:19 20.02.2020
2583 Clouds 18 1009 93 10000 8.7 360 20:19 20.02.2020
2584 Clouds 18 1009 93 10000 8.7 360 20:19 20.02.2020
2585 Rain 18 1009 93 10000 6.7 10 19:58 20.02.2020
2586 Rain 18 1009 93 10000 6.7 10 19:40 20.02.2020
2587 Rain 17 1009 93 8000 8.2 360 19:22 20.02.2020
2588 Rain 18 1009 82 10000 9.3 360 18:55 20.02.2020
2589 Clouds 18 1009 88 10000 9.3 360 18:37 20.02.2020
2590 Clouds 18 1009 88 10000 9.3 360 18:18 20.02.2020
2591 Clouds 18 1009 82 10000 8.7 10 17:39 20.02.2020
2592 Clouds 17 1009 82 10000 8.7 10 17:19 20.02.2020
2593 Clouds 17 1009 82 10000 8.7 10 16:56 20.02.2020
2594 Clouds 17 1010 82 10000 8.7 20 16:38 20.02.2020
2595 Clouds 17 1010 82 10000 8.7 20 16:19 20.02.2020
2596 Clouds 17 1010 82 10000 8.7 20 15:43 20.02.2020
2597 Clouds 17 1010 82 10000 7.2 20 15:24 20.02.2020
2598 Clouds 17 1010 82 10000 8.7 10 14:58 20.02.2020
2599 Clouds 17 1010 82 10000 6.7 10 14:40 20.02.2020
2600 Clouds 17 1010 82 10000 6.7 10 14:21 20.02.2020
2601 Clouds 17 1011 82 10000 8.7 20 13:55 20.02.2020
2602 Clouds 17 1011 82 10000 9.3 10 13:37 20.02.2020
2603 Clouds 17 1011 82 10000 9.3 10 13:18 20.02.2020
2604 Clouds 17 1011 82 10000 9.3 10 13:18 20.02.2020
2605 Clouds 17 1011 82 10000 8.7 10 12:42 20.02.2020
2606 Clouds 17 1011 82 10000 9.3 360 12:21 20.02.2020
2607 Clouds 17 1011 82 10000 8.2 10 11:58 20.02.2020
2608 Clouds 17 1011 82 10000 7.2 360 11:39 20.02.2020
2609 Clouds 17 1011 82 10000 7.2 360 11:20 20.02.2020
2610 Clouds 17 1011 82 10000 6.2 350 10:55 20.02.2020
2611 Clouds 17 1011 82 10000 5.1 360 10:37 20.02.2020
2612 Clouds 17 1011 82 10000 5.1 360 10:19 20.02.2020
2613 Clouds 18 1010 82 10000 5.1 360 09:38 20.02.2020
2614 Clouds 18 1010 82 10000 5.1 360 09:19 20.02.2020
2615 Clouds 18 1010 72 10000 6.2 360 08:42 20.02.2020
2616 Clouds 19 1010 68 10000 4.6 350 08:24 20.02.2020
2617 Clouds 19 1010 77 10000 1.5 180 07:47 20.02.2020
2618 Clouds 20 1010 77 10000 2.6 190 07:27 20.02.2020
2619 Clouds 20 1010 77 10000 3.1 190 06:57 20.02.2020
2620 Clouds 20 1010 77 10000 3.6 190 06:38 20.02.2020
2621 Clouds 21 1010 72 10000 3.6 190 05:47 20.02.2020
2622 Clouds 21 1010 72 10000 3.1 190 05:24 20.02.2020
2623 Clouds 21 1011 77 10000 3.1 180 04:47 20.02.2020
2624 Clouds 21 1012 77 10000 4.6 190 03:46 20.02.2020
2625 Clouds 20 1012 77 10000 4.1 190 02:46 20.02.2020
2626 Clouds 20 1013 72 10000 3.6 180 01:24 20.02.2020
2627 Clouds 20 1013 82 10000 3.6 190 00:42 20.02.2020
2628 Clouds 19 1013 82 10000 3.6 200 00:19 20.02.2020
2629 Clouds 19 1013 82 10000 3.1 190 23:42 19.02.2020
2630 Clouds 19 1013 82 10000 3.1 200 23:18 19.02.2020
2631 Clouds 18 1013 82 10000 3.1 190 22:41 19.02.2020
2632 Clouds 18 1013 88 10000 3.1 200 22:22 19.02.2020
2633 Clouds 18 1013 88 10000 2.1 170 21:57 19.02.2020
2634 Clouds 17 1013 88 10000 2.6 160 21:39 19.02.2020
2635 Clouds 17 1013 88 10000 2.6 160 21:19 19.02.2020
2636 Clouds 17 1013 88 10000 2.6 190 20:56 19.02.2020
2637 Clouds 16 1013 93 10000 2.1 200 20:37 19.02.2020
2638 Rain 16 1013 93 10000 2.1 200 20:19 19.02.2020
2639 Rain 16 1012 93 10000 1.5 190 19:56 19.02.2020
2640 Rain 16 1012 93 10000 2.6 140 19:37 19.02.2020
2641 Rain 16 1012 93 10000 2.6 140 19:18 19.02.2020
2642 Rain 16 1012 93 10000 3.1 150 18:57 19.02.2020
2643 Rain 16 1012 93 10000 2.1 150 18:39 19.02.2020
2644 Rain 16 1012 93 10000 2.1 150 18:20 19.02.2020
2645 Rain 16 1012 93 9000 3.1 190 17:43 19.02.2020
2646 Drizzle 16 1012 93 6000 4.6 190 17:20 19.02.2020
2647 Clouds 16 1012 93 10000 5.7 200 16:56 19.02.2020
2648 Clouds 16 1012 93 10000 4.6 170 16:37 19.02.2020
2649 Clouds 16 1012 93 10000 4.6 170 16:18 19.02.2020
2650 Clouds 16 1012 93 10000 5.7 180 15:41 19.02.2020
2651 Clouds 16 1012 93 10000 5.7 190 15:23 19.02.2020
2652 Clouds 16 1012 93 10000 5.1 180 14:56 19.02.2020
2653 Clouds 16 1012 88 10000 5.1 180 14:37 19.02.2020
2654 Clear 17 1012 88 10000 5.1 180 14:19 19.02.2020
2655 Clear 17 1012 88 10000 5.7 190 13:41 19.02.2020
2656 Clear 17 1012 93 10000 6.7 190 13:21 19.02.2020
2657 Clear 17 1012 93 10000 6.7 200 12:42 19.02.2020
2658 Clear 17 1012 93 10000 7.7 210 12:19 19.02.2020
2659 Clear 17 1011 93 10000 7.7 240 11:59 19.02.2020
2660 Clear 17 1011 82 10000 3.1 320 11:38 19.02.2020
2661 Clear 17 1011 82 10000 3.1 320 11:20 19.02.2020
2662 Clear 18 1011 82 10000 4.1 340 10:58 19.02.2020
2663 Clear 18 1010 82 10000 4.6 340 10:38 19.02.2020
2664 Clear 18 1010 82 10000 4.6 340 10:38 19.02.2020
2665 Clear 18 1010 82 10000 4.6 340 10:19 19.02.2020
2666 Clear 17 1010 82 10000 4.1 350 09:58 19.02.2020
2667 Clear 18 1010 82 10000 5.1 350 09:37 19.02.2020
2668 Clear 18 1010 82 10000 5.1 350 09:19 19.02.2020
2669 Clear 18 1009 82 10000 6.2 360 08:45 19.02.2020
2670 Clear 19 1009 77 10000 6.7 360 08:24 19.02.2020
2671 Clouds 20 1009 73 10000 7.2 10 07:43 19.02.2020
2672 Clouds 20 1009 73 10000 7.2 10 07:25 19.02.2020
2673 Clouds 21 1009 68 10000 7.2 10 06:53 19.02.2020
2674 Clouds 21 1009 73 10000 8.2 10 06:27 19.02.2020
2675 Clouds 20 1009 73 10000 9.8 10 04:24 19.02.2020
2676 Clouds 22 1009 69 10000 10.3 10 02:56 19.02.2020
2677 Clouds 22 1009 78 10000 10.3 360 02:31 19.02.2020
2678 Clouds 20 1010 83 10000 8.7 350 01:24 19.02.2020
2679 Clear 20 1011 83 10000 7.2 350 00:50 19.02.2020
2680 Clear 20 1010 83 10000 8.7 360 00:30 19.02.2020
2681 Clear 21 1011 83 10000 9.3 360 23:44 18.02.2020
2682 Clouds 20 1011 83 10000 7.7 340 23:21 18.02.2020
2683 Clouds 20 1011 83 10000 8.2 350 22:59 18.02.2020
2684 Clouds 20 1011 83 10000 8.2 350 22:41 18.02.2020
2685 Clouds 20 1011 83 10000 8.7 360 22:19 18.02.2020
2686 Clouds 20 1011 88 10000 7.2 360 21:56 18.02.2020
2687 Clouds 20 1011 88 10000 6.7 10 21:37 18.02.2020
2688 Clouds 19 1011 88 10000 6.7 10 21:19 18.02.2020
2689 Clouds 19 1011 88 10000 7.7 10 20:56 18.02.2020
2690 Clouds 19 1011 88 10000 7.2 10 20:38 18.02.2020
2691 Clouds 19 1011 88 10000 7.2 10 20:38 18.02.2020
2692 Clouds 19 1011 88 10000 7.2 10 20:20 18.02.2020
2693 Clouds 19 1010 93 10000 7.2 10 19:43 18.02.2020
2694 Clouds 18 1010 93 10000 8.2 360 19:20 18.02.2020
2695 Clouds 18 1010 93 10000 7.2 10 18:59 18.02.2020
2696 Clouds 18 1010 93 10000 7.2 10 18:41 18.02.2020
2697 Clouds 18 1010 93 10000 7.2 20 18:20 18.02.2020
2698 Clouds 18 1010 93 10000 7.7 10 17:56 18.02.2020
2699 Rain 18 1011 100 6000 8.2 360 17:37 18.02.2020
2700 Rain 18 1011 100 6000 8.2 360 17:37 18.02.2020
2701 Rain 18 1011 100 6000 8.2 360 17:18 18.02.2020
2702 Rain 18 1011 93 10000 8.2 360 16:39 18.02.2020
2703 Rain 18 1011 93 10000 8.2 360 16:19 18.02.2020
2704 Rain 19 1011 93 5000 8.7 360 15:41 18.02.2020
2705 Rain 18 1011 93 8000 8.2 20 15:20 18.02.2020
2706 Clouds 18 1011 93 10000 7.2 20 14:57 18.02.2020
2707 Clouds 18 1012 93 10000 7.7 360 14:39 18.02.2020
2708 Clouds 19 1012 93 10000 7.7 360 14:20 18.02.2020
2709 Clouds 19 1012 88 10000 8.2 350 13:42 18.02.2020
2710 Clouds 19 1012 88 10000 9.3 10 13:23 18.02.2020
2711 Clouds 19 1012 82 10000 7.7 20 12:59 18.02.2020
2712 Clouds 19 1012 82 10000 7.7 20 12:59 18.02.2020
2713 Clouds 19 1012 82 10000 7.7 20 12:40 18.02.2020
2714 Clouds 18 1012 88 10000 8.7 20 12:22 18.02.2020
2715 Clouds 18 1013 88 10000 8.2 20 11:46 18.02.2020
2716 Clouds 18 1013 88 10000 9.8 10 11:26 18.02.2020
2717 Clouds 18 1013 88 10000 9.3 10 10:58 18.02.2020
2718 Clouds 19 1013 82 10000 8.7 20 10:39 18.02.2020
2719 Clouds 19 1013 82 10000 8.7 20 10:18 18.02.2020
2720 Clouds 18 1013 82 10000 8.7 10 09:56 18.02.2020
2721 Clouds 19 1013 88 10000 6.7 10 09:37 18.02.2020
2722 Clouds 18 1013 88 10000 6.7 10 09:19 18.02.2020
2723 Clouds 18 1014 88 10000 6.2 30 08:43 18.02.2020
2724 Clouds 18 1014 93 10000 8.2 20 08:21 18.02.2020
2725 Rain 19 1013 88 10000 8.7 20 07:58 18.02.2020
2726 Rain 19 1014 88 10000 7.2 20 07:36 18.02.2020
2727 Rain 18 1014 88 10000 7.2 20 07:18 18.02.2020
2728 Rain 19 1014 77 10000 8.7 10 06:41 18.02.2020
2729 Rain 19 1014 82 10000 8.2 10 06:21 18.02.2020
2730 Rain 19 1014 82 10000 8.7 10 05:46 18.02.2020
2731 Clouds 19 1014 88 10000 8.2 20 04:40 18.02.2020
2732 Clouds 19 1015 93 10000 8.7 360 03:36 18.02.2020
2733 Rain 18 1016 93 10000 8.2 10 02:49 18.02.2020
2734 Rain 19 1016 93 10000 7.7 360 01:21 18.02.2020
2735 Drizzle 19 1016 100 6000 8.7 10 00:22 18.02.2020
2736 Drizzle 19 1016 94 7000 8.2 360 23:57 17.02.2020
2737 Rain 19 1016 94 6000 8.2 360 23:38 17.02.2020
2738 Rain 19 1016 94 6000 8.2 360 23:19 17.02.2020
2739 Rain 19 1016 94 7000 7.7 10 22:42 17.02.2020
2740 Rain 19 1016 94 8000 7.7 10 22:21 17.02.2020
2741 Rain 19 1016 94 10000 8.7 10 21:59 17.02.2020
2742 Drizzle 19 1016 94 6000 8.2 10 21:38 17.02.2020
2743 Drizzle 19 1016 94 6000 8.2 10 21:18 17.02.2020
2744 Rain 20 1016 94 10000 8.2 10 20:42 17.02.2020
2745 Drizzle 19 1015 100 10000 7.2 20 20:21 17.02.2020
2746 Rain 19 1015 100 2100 8.7 10 19:59 17.02.2020
2747 Rain 19 1015 100 2100 8.7 10 19:41 17.02.2020
2748 Drizzle 19 1015 100 2500 8.2 10 19:20 17.02.2020
2749 Clouds 19 1015 100 8000 8.2 10 18:39 17.02.2020
2750 Clouds 19 1015 100 8000 8.2 10 18:20 17.02.2020
2751 Clouds 19 1015 100 8000 8.2 10 18:20 17.02.2020
2752 Rain 19 1015 100 9000 8.2 10 17:59 17.02.2020
2753 Rain 19 1015 94 10000 8.7 360 17:38 17.02.2020
2754 Rain 19 1015 94 10000 8.7 360 17:19 17.02.2020
2755 Clouds 19 1015 88 10000 8.2 360 16:58 17.02.2020
2756 Clouds 19 1015 94 10000 8.2 360 16:40 17.02.2020
2757 Clouds 19 1015 94 10000 8.2 360 16:21 17.02.2020
2758 Clouds 19 1016 94 10000 8.2 10 15:45 17.02.2020
2759 Clouds 19 1016 94 10000 8.2 10 15:45 17.02.2020
2760 Clouds 19 1016 93 10000 8.7 360 15:26 17.02.2020
2761 Clouds 19 1016 88 10000 8.7 10 14:57 17.02.2020
2762 Clouds 19 1016 88 10000 9.3 10 14:39 17.02.2020
2763 Clouds 19 1016 88 10000 9.3 10 14:20 17.02.2020
2764 Clouds 19 1016 88 10000 8.7 10 13:41 17.02.2020
2765 Clouds 19 1016 88 10000 8.2 20 13:22 17.02.2020
2766 Clouds 19 1016 88 10000 8.2 10 12:59 17.02.2020
2767 Clouds 19 1016 88 10000 8.2 10 12:41 17.02.2020
2768 Clouds 19 1016 88 10000 8.2 10 12:22 17.02.2020
2769 Clouds 19 1016 88 10000 8.7 360 11:47 17.02.2020
2770 Clouds 19 1016 94 10000 8.7 360 11:29 17.02.2020
2771 Clouds 19 1016 88 10000 8.2 360 10:58 17.02.2020
2772 Clouds 19 1016 88 10000 8.2 360 10:40 17.02.2020
2773 Clouds 19 1016 88 10000 8.2 360 10:21 17.02.2020
2774 Clouds 19 1016 88 10000 8.2 360 10:21 17.02.2020
2775 Clouds 19 1016 88 10000 8.2 360 10:21 17.02.2020
2776 Clouds 19 1016 88 10000 7.2 350 09:58 17.02.2020
2777 Clouds 19 1016 88 10000 8.7 360 09:40 17.02.2020
2778 Clouds 19 1016 88 10000 8.7 360 09:19 17.02.2020
2779 Clouds 19 1016 88 10000 8.2 360 08:56 17.02.2020
2780 Clouds 19 1015 88 10000 9.8 10 08:38 17.02.2020
2781 Clouds 20 1015 88 10000 9.8 10 08:19 17.02.2020
2782 Clouds 20 1015 88 10000 9.8 20 07:40 17.02.2020
2783 Clouds 20 1015 83 10000 8.7 10 07:22 17.02.2020
2784 Clouds 20 1015 88 10000 9.8 10 06:49 17.02.2020
2785 Rain 20 1015 88 10000 10.8 10 06:30 17.02.2020
2786 Rain 20 1015 94 7000 9.8 20 05:40 17.02.2020
2787 Rain 20 1016 83 6000 11.3 10 04:40 17.02.2020
2788 Clouds 21 1016 78 10000 9.3 350 03:18 17.02.2020
2789 Clouds 20 1016 83 10000 10.3 350 01:25 17.02.2020
2790 Clouds 20 1016 88 10000 12.3 10 00:39 17.02.2020
2791 Clouds 20 1016 88 10000 12.3 10 00:19 17.02.2020
2792 Clouds 19 1016 88 10000 9.8 350 23:52 16.02.2020
2793 Clouds 19 1017 88 10000 9.3 350 23:28 16.02.2020
2794 Clouds 19 1017 88 10000 11.3 350 22:56 16.02.2020
2795 Clouds 19 1017 82 10000 9.8 360 22:38 16.02.2020
2796 -273 0 0 0 0 0 22:20 16.02.2020
2797 Clouds 19 1016 88 10000 10.3 360 21:55 16.02.2020
2798 Clouds 19 1016 88 10000 10.8 340 21:37 16.02.2020
2799 Clouds 19 1016 88 10000 10.8 340 21:18 16.02.2020
2800 Clouds 19 1016 88 10000 10.8 360 20:56 16.02.2020
2801 Clouds 19 1016 88 10000 11.8 350 20:38 16.02.2020
2802 Rain 19 1016 88 10000 11.8 350 20:19 16.02.2020
2803 Rain 19 1015 88 7000 10.3 350 19:56 16.02.2020
2804 Rain 19 1015 93 9000 10.3 360 19:36 16.02.2020
2805 Rain 19 1015 93 9000 10.3 360 19:18 16.02.2020
2806 Rain 19 1016 88 10000 9.8 360 18:41 16.02.2020
2807 Rain 19 1016 88 10000 10.3 360 18:23 16.02.2020
2808 Rain 19 1015 82 10000 8.2 350 17:45 16.02.2020
2809 Rain 19 1014 89 0 12.98 336 17:21 16.02.2020
2810 Rain 19 1015 82 10000 9.3 340 16:58 16.02.2020
2811 Rain 19 1015 82 10000 9.3 340 16:39 16.02.2020
2812 Rain 19 1015 82 10000 9.3 340 16:39 16.02.2020
2813 Rain 19 1015 82 10000 9.3 340 16:21 16.02.2020
2814 Rain 19 1015 82 10000 9.3 340 16:21 16.02.2020
2815 Rain 19 1015 77 10000 10.8 350 15:57 16.02.2020
2816 Rain 19 1015 77 10000 9.8 340 15:38 16.02.2020
2817 Rain 19 1013 86 0 12.98 336 15:18 16.02.2020
2818 Rain 19 1015 88 10000 9.8 350 14:40 16.02.2020
2819 Rain 19 1015 73 10000 10.3 340 14:22 16.02.2020
2820 Clouds 19 1015 73 10000 10.8 350 13:48 16.02.2020
2821 Clouds 19 1016 77 10000 9.8 340 13:25 16.02.2020
2822 Clouds 19 1016 82 10000 10.3 340 12:56 16.02.2020
2823 Clouds 19 1015 88 10000 8.2 10 12:38 16.02.2020
2824 Clouds 19 1015 88 10000 8.2 10 12:19 16.02.2020
2825 Drizzle 19 1016 88 7000 10.3 330 11:40 16.02.2020
2826 Drizzle 18 1016 88 7000 10.3 330 11:19 16.02.2020
2827 Rain 19 1015 77 10000 10.8 330 10:58 16.02.2020
2828 Rain 19 1015 77 10000 10.8 330 10:58 16.02.2020
2829 Clouds 19 1015 73 10000 11.8 330 10:39 16.02.2020
2830 Clouds 20 1015 73 10000 11.8 330 10:21 16.02.2020
2831 Clouds 21 1014 60 10000 12.3 340 09:57 16.02.2020
2832 Clouds 21 1014 56 10000 10.8 340 09:37 16.02.2020
2833 Clouds 21 1014 56 10000 10.8 340 09:19 16.02.2020
2834 Clouds 21 1013 56 10000 12.9 340 08:47 16.02.2020
2835 Clouds 21 1013 60 10000 11.8 340 08:22 16.02.2020
2836 Clouds 21 1013 60 10000 11.8 340 08:22 16.02.2020
2837 Clear 22 1014 64 10000 11.3 340 07:56 16.02.2020
2838 Clear 22 1014 60 10000 12.3 350 07:34 16.02.2020
2839 Clear 22 1014 60 10000 10.3 350 06:36 16.02.2020
2840 Clear 22 1014 57 10000 10.3 350 05:37 16.02.2020
2841 Clear 24 1015 53 10000 10.8 350 03:58 16.02.2020
2842 Clear 24 1016 53 10000 10.8 350 02:35 16.02.2020
2843 Clouds 24 1016 53 10000 11.3 360 01:57 16.02.2020
2844 Clouds 24 1017 53 10000 12.3 360 01:37 16.02.2020
2845 Clouds 24 1017 53 10000 12.3 360 01:18 16.02.2020
2846 Clouds 24 1017 53 10000 11.8 360 00:41 16.02.2020
2847 Clouds 23 1017 57 10000 11.8 360 00:21 16.02.2020
2848 Clouds 23 1017 57 10000 10.8 360 23:42 15.02.2020
2849 Clouds 22 1017 56 10000 10.3 350 23:24 15.02.2020
2850 Clouds 21 1017 64 10000 9.8 350 22:56 15.02.2020
2851 Clouds 21 1018 68 10000 7.7 360 22:38 15.02.2020
2852 Clouds 21 1018 68 10000 7.7 360 22:19 15.02.2020
2853 Clouds 21 1018 68 10000 8.7 10 21:43 15.02.2020
2854 Rain 20 1018 72 10000 8.2 10 21:24 15.02.2020
2855 Clouds 20 1018 72 10000 7.7 10 20:56 15.02.2020
2856 Clouds 20 1018 72 10000 7.2 360 20:37 15.02.2020
2857 Clouds 20 1018 72 10000 7.2 360 20:37 15.02.2020
2858 Clouds 19 1018 72 10000 7.2 360 20:19 15.02.2020
2859 Clouds 19 1018 72 10000 7.2 10 19:41 15.02.2020
2860 Clouds 19 1018 82 10000 7.2 10 19:22 15.02.2020
2861 Clouds 18 1018 82 10000 6.7 10 18:41 15.02.2020
2862 Clouds 18 1017 77 10000 6.2 10 18:21 15.02.2020
2863 Clouds 19 1018 77 10000 6.2 10 17:56 15.02.2020
2864 Clouds 18 1018 77 10000 5.7 10 17:37 15.02.2020
2865 Clouds 19 1018 77 10000 5.7 10 17:19 15.02.2020
2866 Clouds 19 1018 77 10000 5.7 10 16:41 15.02.2020
2867 Clouds 19 1018 77 10000 5.7 10 16:23 15.02.2020
2868 Clouds 19 1018 72 10000 5.7 10 15:54 15.02.2020
2869 Clouds 19 1019 72 10000 5.7 10 15:36 15.02.2020
2870 Clouds 19 1019 72 10000 5.7 10 15:18 15.02.2020
2871 Clouds 18 1019 72 10000 5.1 20 14:39 15.02.2020
2872 Clouds 19 1019 72 10000 5.1 20 14:18 15.02.2020
2873 Clouds 19 1019 72 10000 5.1 10 13:42 15.02.2020
2874 Clouds 19 1019 77 10000 4.6 10 13:22 15.02.2020
2875 Clouds 19 1019 77 10000 4.1 30 12:57 15.02.2020
2876 Clouds 19 1019 77 10000 4.1 20 12:38 15.02.2020
2877 Clouds 19 1019 77 10000 4.1 20 12:19 15.02.2020
2878 Clouds 19 1020 72 10000 4.6 10 11:46 15.02.2020
2879 Clouds 19 1019 72 10000 5.1 20 11:27 15.02.2020
2880 Clouds 19 1020 72 10000 5.1 20 10:49 15.02.2020
2881 Clouds 19 1019 68 10000 5.7 10 10:29 15.02.2020
2882 Clouds 19 1019 72 10000 5.7 20 09:57 15.02.2020
2883 Clouds 19 1019 72 10000 6.2 360 09:38 15.02.2020
2884 Clouds 19 1019 72 10000 6.2 360 09:20 15.02.2020
2885 Clouds 20 1019 68 10000 5.1 10 08:43 15.02.2020
2886 Clouds 21 1019 64 10000 5.1 350 08:23 15.02.2020
2887 Clouds 21 1019 56 10000 5.1 360 07:50 15.02.2020
2888 Clouds 22 1019 56 10000 5.1 360 07:30 15.02.2020
2889 Clouds 23 1019 56 10000 5.7 360 06:51 15.02.2020
2890 Clouds 23 1019 53 10000 6.7 10 06:31 15.02.2020
2891 Clouds 24 1019 57 10000 6.7 10 05:41 15.02.2020
2892 Clouds 23 1020 56 10000 6.7 10 04:45 15.02.2020
2893 Clouds 21 1021 64 10000 3.1 190 03:24 15.02.2020
2894 Clouds 21 1021 68 10000 3.6 190 02:50 15.02.2020
2895 Clouds 20 1021 72 10000 4.1 190 02:21 15.02.2020
2896 Clouds 20 1022 77 10000 5.1 190 01:39 15.02.2020
2897 Clouds 21 1022 77 10000 4.6 190 00:41 15.02.2020
2898 Clouds 21 1022 77 9000 4.6 190 00:19 15.02.2020
2899 Clouds 22 1022 72 10000 2.6 180 23:39 14.02.2020
2900 Clouds 19 1022 72 10000 2.6 180 23:19 14.02.2020
2901 Clouds 20 1023 77 10000 3.1 170 22:44 14.02.2020
2902 Clouds 19 1023 82 10000 3.1 170 22:23 14.02.2020
2903 Clouds 19 1023 68 10000 1.5 30 21:52 14.02.2020
2904 Clouds 18 1022 77 10000 2.1 360 21:34 14.02.2020
2905 Clouds 18 1022 82 10000 1.5 350 20:59 14.02.2020
2906 Clouds 17 1022 82 10000 1.5 350 20:40 14.02.2020
2907 Clouds 15 1022 87 10000 0.5 320 20:19 14.02.2020
2908 Clouds 15 1022 87 10000 0.5 320 20:19 14.02.2020
2909 Clouds 14 1022 87 10000 1.5 30 19:43 14.02.2020
2910 Haze 14 1022 87 5000 1 320 19:25 14.02.2020
2911 Clouds 13 1022 87 10000 1 20 18:59 14.02.2020
2912 Clouds 13 1022 87 10000 1 20 18:41 14.02.2020
2913 Clouds 13 1022 87 10000 0.5 140 18:22 14.02.2020
2914 Clouds 13 1021 82 10000 1 10 17:59 14.02.2020
2915 Clouds 14 1022 82 10000 1 70 17:40 14.02.2020
2916 Clouds 14 1022 82 10000 1 70 17:18 14.02.2020
2917 Clouds 14 1021 82 10000 1 60 16:42 14.02.2020
2918 Clouds 14 1021 82 10000 1 60 16:42 14.02.2020
2919 Clouds 14 1021 82 10000 1 60 16:42 14.02.2020
2920 Clouds 14 1021 82 10000 1 70 16:24 14.02.2020
2921 Clouds 15 1021 82 10000 1 110 15:58 14.02.2020
2922 Clouds 15 1021 77 10000 0.5 100 15:39 14.02.2020
2923 Clouds 15 1021 77 10000 0.5 100 15:21 14.02.2020
2924 Clouds 15 1022 77 10000 1.5 330 14:59 14.02.2020
2925 Clouds 15 1022 77 10000 1.5 330 14:59 14.02.2020
2926 Clouds 15 1022 77 10000 1.5 330 14:41 14.02.2020
2927 Clouds 15 1022 72 10000 2.1 340 14:22 14.02.2020
2928 Clouds 15 1022 77 10000 2.6 360 13:56 14.02.2020
2929 Clouds 15 1022 77 10000 1.5 40 13:38 14.02.2020
2930 Clouds 16 1022 77 10000 1.5 40 13:19 14.02.2020
2931 Clouds 16 1022 82 10000 0.5 280 12:56 14.02.2020
2932 Clouds 16 1022 82 10000 1 360 12:38 14.02.2020
2933 Clouds 16 1022 82 10000 1 360 12:20 14.02.2020
2934 Clouds 16 1022 82 10000 1 10 11:55 14.02.2020
2935 Clouds 16 1022 82 10000 1 140 11:37 14.02.2020
2936 Clouds 16 1022 82 10000 1 140 11:19 14.02.2020
2937 Clouds 17 1022 77 10000 1.5 160 10:41 14.02.2020
2938 Clouds 17 1021 77 10000 2.1 170 10:22 14.02.2020
2939 Clouds 17 1021 77 10000 2.1 170 10:22 14.02.2020
2940 Clouds 18 1021 82 10000 2.6 210 09:45 14.02.2020
2941 Clouds 18 1020 77 10000 2.6 180 09:24 14.02.2020
2942 Clouds 18 1020 72 10000 0.5 250 08:58 14.02.2020
2943 Clouds 19 1020 72 10000 2.1 250 08:39 14.02.2020
2944 Clouds 19 1020 72 10000 2.1 250 08:21 14.02.2020
2945 Clouds 20 1019 82 10000 4.1 230 07:50 14.02.2020
2946 Clouds 20 1019 77 10000 6.7 200 07:29 14.02.2020
2947 Clouds 21 1020 72 10000 7.7 220 06:39 14.02.2020
2948 Clouds 20 1020 72 10000 7.7 220 06:20 14.02.2020
2949 Clouds 20 1020 82 10000 6.7 210 05:38 14.02.2020
2950 Clouds 21 1021 68 10000 8.7 170 03:49 14.02.2020
2951 Clouds 21 1021 68 10000 8.2 170 02:58 14.02.2020
2952 Clouds 21 1022 72 10000 7.7 180 01:57 14.02.2020
2953 Clouds 22 1022 72 10000 7.7 160 00:52 14.02.2020
2954 Clouds 22 1022 72 10000 7.7 160 00:31 14.02.2020
2955 Clouds 22 1022 72 10000 6.2 170 23:57 13.02.2020
2956 Clouds 20 1022 77 10000 5.7 160 23:38 13.02.2020
2957 Clouds 18 1022 77 10000 5.7 160 23:18 13.02.2020
2958 Clouds 18 1022 82 10000 4.6 170 22:40 13.02.2020
2959 Clouds 18 1022 82 10000 4.6 170 22:19 13.02.2020
2960 Clouds 18 1022 87 10000 3.6 220 21:58 13.02.2020
2961 Clouds 18 1022 93 10000 4.6 200 21:40 13.02.2020
2962 Clouds 18 1022 93 10000 4.6 200 21:40 13.02.2020
2963 Clouds 17 1022 93 10000 4.6 200 21:20 13.02.2020
2964 Clouds 17 1022 87 10000 4.6 160 20:42 13.02.2020
2965 Clouds 16 1021 82 10000 5.1 160 20:22 13.02.2020
2966 Clouds 15 1021 87 10000 5.7 150 19:58 13.02.2020
2967 Clouds 15 1021 82 10000 6.7 150 19:39 13.02.2020
2968 Clouds 15 1021 82 10000 6.7 150 19:20 13.02.2020
2969 Clouds 15 1021 87 10000 6.7 150 18:58 13.02.2020
2970 Clouds 15 1021 93 10000 5.1 170 18:39 13.02.2020
2971 Clouds 15 1021 93 10000 5.1 170 18:21 13.02.2020
2972 Clouds 15 1021 87 10000 5.1 180 17:57 13.02.2020
2973 Clouds 15 1021 82 10000 6.2 160 17:37 13.02.2020
2974 Clouds 15 1021 82 10000 6.2 160 17:19 13.02.2020
2975 Clouds 16 1020 82 10000 5.7 180 16:42 13.02.2020
2976 Clouds 15 1021 87 10000 6.2 210 16:21 13.02.2020
2977 Clouds 15 1021 87 10000 6.2 220 15:58 13.02.2020
2978 Clouds 15 1021 87 10000 5.7 200 15:39 13.02.2020
2979 Clouds 15 1021 87 10000 5.7 200 15:20 13.02.2020
2980 Clouds 16 1021 93 10000 5.7 200 14:59 13.02.2020
2981 Clouds 15 1021 93 10000 5.1 220 14:40 13.02.2020
2982 Clouds 15 1021 93 10000 5.1 220 14:22 13.02.2020
2983 Clouds 15 1021 87 10000 4.6 200 13:54 13.02.2020
2984 Clouds 15 1021 87 10000 4.6 190 13:36 13.02.2020
2985 Clouds 15 1021 87 10000 4.6 190 13:18 13.02.2020
2986 Clouds 15 1021 87 10000 4.6 170 12:48 13.02.2020
2987 Clouds 15 1021 87 10000 3.6 190 12:30 13.02.2020
2988 Clouds 15 1021 82 10000 1.5 180 11:57 13.02.2020
2989 Clouds 16 1021 82 10000 1.5 40 11:39 13.02.2020
2990 Clouds 16 1021 82 10000 1.5 40 11:18 13.02.2020
2991 Clouds 16 1020 82 10000 2.1 10 10:43 13.02.2020
2992 Clouds 17 1020 77 10000 3.1 330 10:23 13.02.2020
2993 Clouds 17 1019 82 10000 3.6 360 09:46 13.02.2020
2994 Clouds 17 1019 77 10000 4.1 350 09:24 13.02.2020
2995 Clouds 17 1018 77 10000 5.1 360 08:47 13.02.2020
2996 Clouds 18 1018 72 10000 5.1 350 08:20 13.02.2020
2997 Clouds 19 1017 68 10000 4.6 340 07:44 13.02.2020
2998 Clouds 19 1017 68 10000 4.6 340 07:44 13.02.2020
2999 Clouds 19 1017 64 10000 5.7 350 07:24 13.02.2020
3000 Clouds 19 1017 64 10000 5.1 340 06:56 13.02.2020
3001 Clouds 19 1017 64 10000 6.2 340 06:38 13.02.2020
3002 Clouds 19 1017 64 10000 6.2 350 05:56 13.02.2020
3003 Clouds 20 1017 64 10000 9.8 360 04:50 13.02.2020
3004 Clouds 21 1018 60 10000 9.8 10 04:24 13.02.2020
3005 Clouds 20 1018 64 10000 10.3 360 03:41 13.02.2020
3006 Clouds 20 1018 64 10000 10.8 10 02:59 13.02.2020
3007 Clouds 20 1018 64 10000 10.3 360 02:20 13.02.2020
3008 Clouds 20 1018 60 10000 9.8 360 01:54 13.02.2020
3009 Clouds 19 1018 64 10000 10.3 360 01:25 13.02.2020
3010 Clouds 20 1018 64 10000 10.8 360 00:32 13.02.2020
3011 Clouds 20 1018 64 10000 10.3 360 23:57 12.02.2020
3012 Clouds 20 1018 64 10000 9.8 360 23:37 12.02.2020
3013 Clouds 19 1018 64 10000 9.8 360 23:18 12.02.2020
3014 Clouds 19 1017 68 10000 10.3 360 22:43 12.02.2020
3015 Clouds 19 1017 68 10000 10.3 360 22:23 12.02.2020
3016 Clouds 18 1017 72 10000 10.3 360 21:56 12.02.2020
3017 Clouds 18 1016 72 10000 12.3 360 21:37 12.02.2020
3018 Clouds 18 1016 72 10000 12.3 360 21:37 12.02.2020
3019 Clouds 18 1016 72 10000 12.3 360 21:18 12.02.2020
3020 Clouds 18 1016 77 10000 12.3 350 20:54 12.02.2020
3021 Clouds 18 1016 77 10000 11.8 360 20:36 12.02.2020
3022 Clouds 17 1016 77 10000 11.8 360 20:18 12.02.2020
3023 Clouds 17 1016 77 10000 10.8 20 19:43 12.02.2020
3024 Clouds 16 1016 77 10000 10.8 10 19:22 12.02.2020
3025 Clouds 16 1016 82 10000 10.3 360 18:54 12.02.2020
3026 Clouds 16 1015 82 10000 11.3 360 18:36 12.02.2020
3027 Clouds 16 1015 82 10000 11.3 360 18:18 12.02.2020
3028 Clouds 16 1015 82 10000 11.8 360 17:40 12.02.2020
3029 Clouds 17 1015 82 10000 10.3 360 17:19 12.02.2020
3030 Clouds 17 1016 82 10000 9.8 360 16:57 12.02.2020
3031 Clouds 16 1016 82 10000 10.3 10 16:37 12.02.2020
3032 Clouds 16 1016 82 10000 10.3 10 16:18 12.02.2020
3033 Clouds 16 1016 77 10000 10.3 10 15:39 12.02.2020
3034 Clouds 16 1016 77 10000 10.3 10 15:20 12.02.2020
3035 Clouds 16 1016 82 10000 11.3 10 14:54 12.02.2020
3036 Clouds 16 1017 77 10000 11.8 360 14:36 12.02.2020
3037 Clouds 16 1017 77 10000 11.8 360 14:18 12.02.2020
3038 Clouds 16 1017 77 10000 12.3 360 13:55 12.02.2020
3039 Clouds 16 1017 77 10000 11.8 360 13:36 12.02.2020
3040 Clouds 16 1017 77 10000 11.8 360 13:18 12.02.2020
3041 Clouds 16 1017 77 10000 11.3 10 12:55 12.02.2020
3042 Clouds 16 1017 77 10000 10.8 10 12:36 12.02.2020
3043 Clouds 17 1017 77 10000 10.8 10 12:18 12.02.2020
3044 Clouds 17 1017 77 10000 11.3 10 11:41 12.02.2020
3045 Clouds 17 1017 82 10000 10.8 360 11:21 12.02.2020
3046 Clouds 17 1017 82 10000 10.3 360 10:58 12.02.2020
3047 Clouds 17 1017 82 10000 10.3 360 10:58 12.02.2020
3048 Clouds 17 1017 82 10000 10.3 360 10:40 12.02.2020
3049 Clouds 17 1017 82 10000 9.3 360 10:20 12.02.2020
3050 Clouds 17 1017 82 10000 9.3 360 10:20 12.02.2020
3051 Clouds 17 1016 82 10000 10.3 360 09:54 12.02.2020
3052 Clouds 17 1016 88 10000 9.8 360 09:36 12.02.2020
3053 Clouds 17 1016 88 10000 9.8 360 09:18 12.02.2020
3054 Clouds 17 1016 88 10000 9.8 360 09:18 12.02.2020
3055 Clouds 17 1016 77 10000 9.8 360 08:55 12.02.2020
3056 Clouds 17 1016 82 10000 9.8 10 08:36 12.02.2020
3057 Clouds 18 1016 82 10000 9.8 10 08:18 12.02.2020
3058 Clouds 18 1016 82 10000 9.8 10 08:18 12.02.2020
3059 Clouds 19 1016 72 10000 9.8 360 07:41 12.02.2020
3060 Clouds 19 1016 72 10000 8.7 10 07:20 12.02.2020
3061 Clouds 20 1016 64 10000 8.7 360 06:47 12.02.2020
3062 Clouds 20 1016 60 10000 8.7 360 06:20 12.02.2020
3063 Clouds 22 1017 56 10000 6.7 360 05:32 12.02.2020
3064 Clouds 22 1017 56 10000 6.2 350 04:43 12.02.2020
3065 Clouds 22 1018 56 10000 5.7 320 03:59 12.02.2020
3066 Clouds 23 1018 53 10000 5.1 330 03:30 12.02.2020
3067 Clouds 21 1018 64 10000 2.1 330 02:46 12.02.2020
3068 Clouds 20 1019 72 10000 4.1 190 02:27 12.02.2020
3069 Clouds 20 1019 72 10000 4.6 190 01:34 12.02.2020
3070 Clouds 20 1020 72 10000 4.1 190 00:41 12.02.2020
3071 Clouds 20 1020 72 10000 4.1 190 00:23 12.02.2020
3072 Clouds 19 1020 77 10000 3.6 200 23:52 11.02.2020
3073 Clouds 19 1020 77 10000 2.6 200 23:33 11.02.2020
3074 Clouds 19 1021 77 10000 2.1 200 22:58 11.02.2020
3075 Clouds 18 1021 82 10000 3.1 220 22:40 11.02.2020
3076 Clouds 17 1021 82 10000 3.1 220 22:20 11.02.2020
3077 Clouds 17 1021 77 10000 2.6 210 21:57 11.02.2020
3078 Clouds 17 1021 87 10000 2.1 200 21:39 11.02.2020
3079 Clouds 16 1021 87 10000 2.1 200 21:19 11.02.2020
3080 Clouds 16 1021 82 10000 2.6 180 20:59 11.02.2020
3081 Clouds 16 1021 82 10000 1.5 180 20:39 11.02.2020
3082 Clouds 15 1021 82 10000 1.5 180 20:19 11.02.2020
3083 Clouds 14 1021 82 10000 2.1 170 19:58 11.02.2020
3084 Clouds 14 1021 87 10000 2.6 170 19:39 11.02.2020
3085 Clouds 14 1021 87 10000 2.6 170 19:39 11.02.2020
3086 Clouds 14 1021 87 10000 2.6 170 19:21 11.02.2020
3087 Clouds 14 1021 82 10000 2.6 170 18:45 11.02.2020
3088 Clouds 14 1021 82 9000 1.5 180 18:27 11.02.2020
3089 Clouds 14 1021 82 10000 1.5 130 17:57 11.02.2020
3090 Clouds 14 1021 82 10000 1.5 130 17:39 11.02.2020
3091 Clouds 15 1021 82 10000 1.5 130 17:19 11.02.2020
3092 Clouds 15 1021 82 10000 2.1 140 16:58 11.02.2020
3093 Clouds 15 1021 82 10000 2.6 160 16:39 11.02.2020
3094 Clouds 15 1021 82 10000 2.6 160 16:21 11.02.2020
3095 Clouds 15 1021 82 10000 2.6 170 15:58 11.02.2020
3096 Clouds 15 1021 87 10000 2.6 180 15:39 11.02.2020
3097 Clouds 15 1021 87 10000 2.6 180 15:21 11.02.2020
3098 Clouds 15 1021 82 10000 3.6 160 14:42 11.02.2020
3099 Clear 15 1021 82 10000 3.6 150 14:19 11.02.2020
3100 Clear 15 1021 87 6000 3.6 160 13:56 11.02.2020
3101 Clear 15 1021 87 8000 4.1 150 13:38 11.02.2020
3102 Clear 15 1021 87 8000 4.1 150 13:19 11.02.2020
3103 Clear 15 1021 87 10000 4.1 160 12:41 11.02.2020
3104 Clear 15 1021 87 10000 4.6 160 12:22 11.02.2020
3105 Clear 15 1021 87 10000 4.6 160 12:22 11.02.2020
3106 Clear 15 1021 93 10000 4.1 160 11:59 11.02.2020
3107 Clear 15 1021 93 10000 4.1 160 11:40 11.02.2020
3108 Clear 15 1021 93 10000 3.6 180 11:19 11.02.2020
3109 Clear 16 1021 87 10000 4.1 200 10:54 11.02.2020
3110 Haze 16 1020 87 4000 4.6 200 10:36 11.02.2020
3111 Haze 16 1020 87 4000 4.6 200 10:18 11.02.2020
3112 Clear 16 1019 77 10000 0.5 300 09:42 11.02.2020
3113 Clear 16 1019 77 10000 2.6 300 09:22 11.02.2020
3114 Clear 17 1018 72 10000 3.6 310 08:55 11.02.2020
3115 Clear 17 1018 68 10000 3.6 320 08:37 11.02.2020
3116 Clear 18 1018 68 10000 3.6 320 08:18 11.02.2020
3117 Clear 19 1018 68 10000 3.6 320 07:41 11.02.2020
3118 Clear 19 1017 64 10000 3.6 320 07:19 11.02.2020
3119 Clear 19 1017 64 10000 3.6 320 07:19 11.02.2020
3120 Clear 20 1017 64 10000 5.1 310 06:40 11.02.2020
3121 Clear 20 1017 56 10000 5.1 360 06:20 11.02.2020
3122 Clear 21 1017 56 10000 5.7 350 05:47 11.02.2020
3123 Clear 21 1017 56 10000 5.1 350 05:21 11.02.2020
3124 Clear 21 1018 56 10000 6.7 340 04:35 11.02.2020
3125 Clear 21 1018 56 10000 8.2 350 02:40 11.02.2020
3126 Clear 21 1018 60 10000 7.2 350 02:22 11.02.2020
3127 Clouds 21 1019 56 10000 8.2 360 01:32 11.02.2020
3128 Clear 20 1019 56 10000 9.3 360 00:28 11.02.2020
3129 Clear 20 1019 56 10000 8.7 360 23:52 10.02.2020
3130 Clear 20 1019 60 10000 9.3 10 23:31 10.02.2020
3131 Clear 19 1019 63 10000 9.3 350 22:58 10.02.2020
3132 Clear 18 1019 63 10000 10.3 10 22:38 10.02.2020
3133 Clear 18 1019 63 10000 10.3 10 22:20 10.02.2020
3134 Clear 17 1019 72 10000 7.7 360 21:43 10.02.2020
3135 Clear 17 1019 72 10000 8.2 360 21:25 10.02.2020
3136 Clear 17 1019 72 10000 9.3 360 20:57 10.02.2020
3137 Clear 17 1019 72 10000 9.3 360 20:57 10.02.2020
3138 Clear 16 1019 77 10000 9.3 360 20:38 10.02.2020
3139 Clear 16 1019 77 10000 9.3 360 20:20 10.02.2020
3140 Clear 15 1019 82 10000 8.7 360 19:58 10.02.2020
3141 Clear 15 1018 82 10000 8.2 360 19:38 10.02.2020
3142 Clear 15 1018 82 10000 8.2 360 19:18 10.02.2020
3143 Clear 15 1018 82 10000 8.7 350 18:58 10.02.2020
3144 Clear 15 1018 82 10000 9.8 360 18:39 10.02.2020
3145 Clear 15 1018 82 10000 9.8 360 18:20 10.02.2020
3146 Clear 15 1018 82 10000 8.7 360 17:56 10.02.2020
3147 Clear 14 1018 82 10000 8.7 360 17:37 10.02.2020
3148 Clear 14 1018 82 10000 8.7 360 17:19 10.02.2020
3149 Clear 14 1018 77 10000 8.2 360 16:58 10.02.2020
3150 Clear 14 1018 77 10000 8.2 10 16:38 10.02.2020
3151 Clear 14 1018 77 10000 8.2 10 16:19 10.02.2020
3152 Clear 14 1018 87 10000 6.2 20 15:55 10.02.2020
3153 Clear 14 1018 87 10000 7.7 10 15:37 10.02.2020
3154 Clear 14 1018 87 10000 7.7 10 15:18 10.02.2020
3155 Clear 15 1018 87 10000 7.2 10 14:41 10.02.2020
3156 Clear 14 1019 87 10000 7.2 10 14:20 10.02.2020
3157 Clear 14 1019 87 10000 7.2 10 14:20 10.02.2020
3158 Clear 15 1019 87 10000 8.2 360 13:57 10.02.2020
3159 Clear 15 1019 87 10000 7.2 10 13:39 10.02.2020
3160 Clear 15 1019 87 10000 7.2 10 13:21 10.02.2020
3161 Clear 15 1019 87 10000 7.2 360 12:48 10.02.2020
3162 Clear 15 1019 82 10000 7.7 10 12:26 10.02.2020
3163 Clear 15 1019 82 10000 6.7 10 11:56 10.02.2020
3164 Clear 15 1020 82 10000 5.7 360 11:38 10.02.2020
3165 Clear 15 1020 82 10000 5.7 360 11:19 10.02.2020
3166 Clear 15 1020 87 10000 4.1 10 10:46 10.02.2020
3167 Clear 15 1020 82 9000 1.5 360 10:27 10.02.2020
3168 Clear 16 1019 87 8000 0.5 230 09:47 10.02.2020
3169 Clear 16 1019 87 8000 0.5 230 09:47 10.02.2020
3170 Clear 16 1019 82 9000 2.6 190 09:26 10.02.2020
3171 Clear 16 1019 82 9000 2.6 190 09:26 10.02.2020
3172 Clear 16 1019 82 9000 2.6 190 09:26 10.02.2020
3173 Clear 17 1019 82 8000 3.6 220 08:57 10.02.2020
3174 Clear 17 1019 77 9000 4.1 190 08:37 10.02.2020
3175 Clear 18 1019 77 9000 4.1 190 08:18 10.02.2020
3176 Clear 18 1018 72 9000 4.6 230 07:49 10.02.2020
3177 Clear 20 1018 60 10000 4.1 360 07:27 10.02.2020
3178 Clear 20 1018 53 10000 4.6 360 06:20 10.02.2020
3179 Clear 21 1019 53 10000 5.1 350 04:28 10.02.2020
3180 Clear 21 1020 53 10000 5.7 360 03:34 10.02.2020
3181 Clear 21 1020 53 10000 5.7 10 02:54 10.02.2020
3182 Clear 21 1020 53 10000 4.6 360 01:55 10.02.2020
3183 Clouds 20 1020 56 10000 5.1 350 00:49 10.02.2020
3184 Clouds 20 1021 52 10000 5.1 10 00:31 10.02.2020
3185 Clouds 20 1021 52 10000 4.1 360 23:56 09.02.2020
3186 Clouds 20 1021 60 10000 5.1 10 23:38 09.02.2020
3187 Clear 20 1021 60 10000 5.1 10 23:19 09.02.2020
3188 Clear 19 1021 63 10000 5.1 360 22:39 09.02.2020
3189 Clear 18 1021 63 10000 5.1 360 22:21 09.02.2020
3190 Clear 18 1021 68 10000 4.6 10 21:43 09.02.2020
3191 Clear 17 1021 67 10000 5.1 30 21:24 09.02.2020
3192 Clear 16 1020 72 10000 5.1 40 20:56 09.02.2020
3193 Clear 15 1020 77 10000 4.6 30 20:38 09.02.2020
3194 Clear 15 1020 77 10000 4.6 30 20:18 09.02.2020
3195 Clear 13 1020 77 10000 5.1 20 19:39 09.02.2020
3196 Clear 13 1020 77 10000 5.1 20 19:21 09.02.2020
3197 Clear 13 1020 77 10000 4.6 30 18:57 09.02.2020
3198 Clear 13 1020 77 10000 4.6 30 18:38 09.02.2020
3199 Clear 13 1020 77 10000 4.6 30 18:20 09.02.2020
3200 Clear 13 1019 77 10000 6.2 30 17:42 09.02.2020
3201 Clear 13 1019 77 10000 5.7 30 17:22 09.02.2020
3202 Clear 13 1019 77 10000 6.7 30 16:56 09.02.2020
3203 Clear 13 1019 77 10000 6.7 30 16:56 09.02.2020
3204 Clear 13 1019 77 10000 7.2 20 16:37 09.02.2020
3205 Clear 13 1019 77 10000 7.2 20 16:18 09.02.2020
3206 Clear 13 1019 77 10000 6.7 20 15:54 09.02.2020
3207 Clear 13 1019 77 10000 6.7 20 15:36 09.02.2020
3208 Clear 13 1019 77 10000 6.7 20 15:18 09.02.2020
3209 Clear 13 1019 77 10000 6.7 20 14:41 09.02.2020
3210 Clear 14 1019 77 10000 7.2 20 14:23 09.02.2020
3211 Clear 13 1019 77 10000 7.2 20 13:47 09.02.2020
3212 Clear 13 1019 77 10000 6.7 20 13:28 09.02.2020
3213 Clear 13 1019 72 10000 6.2 20 12:57 09.02.2020
3214 Clear 14 1019 67 10000 6.2 20 12:39 09.02.2020
3215 Clear 14 1019 67 10000 6.2 20 12:19 09.02.2020
3216 Clear 13 1019 77 10000 6.2 10 11:55 09.02.2020
3217 Clear 14 1019 72 10000 5.7 20 11:36 09.02.2020
3218 Clear 14 1019 72 10000 5.7 20 11:18 09.02.2020
3219 Clear 14 1019 72 10000 6.2 10 10:42 09.02.2020
3220 Clear 14 1019 77 10000 5.1 360 10:22 09.02.2020
3221 Clear 15 1018 72 10000 4.1 350 09:48 09.02.2020
3222 Clear 15 1018 72 10000 3.6 330 09:28 09.02.2020
3223 Clear 15 1018 72 10000 3.6 330 09:28 09.02.2020
3224 Clear 15 1018 72 10000 3.6 330 09:28 09.02.2020
3225 Clear 16 1018 67 10000 3.1 320 08:57 09.02.2020
3226 Clear 16 1018 63 10000 3.6 360 08:39 09.02.2020
3227 Clear 17 1018 63 10000 3.6 360 08:20 09.02.2020
3228 Clear 17 1018 55 10000 1 250 07:49 09.02.2020
3229 Clear 18 1019 45 10000 1.5 200 06:54 09.02.2020
3230 Clear 19 1019 45 10000 2.6 190 06:36 09.02.2020
3231 Clear 18 1019 42 10000 3.6 180 05:49 09.02.2020
3232 Clear 19 1019 42 10000 3.1 190 05:31 09.02.2020
3233 Clear 20 1020 40 10000 4.1 210 04:23 09.02.2020
3234 Clear 19 1020 45 10000 3.1 200 02:49 09.02.2020
3235 Clear 19 1020 45 10000 2.6 160 02:30 09.02.2020
3236 Clouds 18 1021 48 10000 3.6 330 01:36 09.02.2020
3237 Clouds 19 1021 52 10000 3.1 330 00:55 09.02.2020
3238 Clouds 19 1021 55 10000 3.1 320 00:29 09.02.2020
3239 Clouds 18 1021 55 10000 4.1 320 23:48 08.02.2020
3240 Clouds 16 1021 55 10000 4.6 360 23:23 08.02.2020
3241 Clouds 16 1021 55 10000 4.1 10 22:56 08.02.2020
3242 Clouds 16 1021 59 10000 3.6 10 22:38 08.02.2020
3243 Clouds 16 1021 59 10000 3.6 10 22:20 08.02.2020
3244 Clouds 15 1021 62 10000 2.6 40 21:44 08.02.2020
3245 Clouds 15 1020 67 10000 3.1 50 21:25 08.02.2020
3246 Clouds 14 1020 71 10000 3.1 60 20:59 08.02.2020
3247 Clouds 13 1020 76 10000 1.5 20 20:39 08.02.2020
3248 Clouds 12 1020 76 10000 1.5 20 20:19 08.02.2020
3249 Clouds 11 1020 81 10000 2.6 20 19:56 08.02.2020
3250 Clouds 10 1020 81 10000 2.6 70 19:38 08.02.2020
3251 Clouds 10 1020 81 10000 2.6 70 19:19 08.02.2020
3252 Clouds 10 1020 76 10000 1.5 60 18:44 08.02.2020
3253 Clouds 11 1020 71 10000 1.5 130 18:26 08.02.2020
3254 Clouds 11 1020 76 10000 3.6 170 17:59 08.02.2020
3255 Clouds 11 1020 76 10000 3.6 170 17:41 08.02.2020
3256 Clouds 11 1020 71 10000 4.1 150 17:18 08.02.2020
3257 Clouds 11 1020 71 10000 4.6 170 16:40 08.02.2020
3258 Clouds 12 1020 71 10000 4.6 150 16:22 08.02.2020
3259 Clouds 12 1020 71 10000 5.1 160 15:57 08.02.2020
3260 Clouds 12 1020 71 10000 5.1 170 15:39 08.02.2020
3261 Clouds 12 1020 71 10000 5.1 170 15:18 08.02.2020
3262 Clouds 12 1020 71 10000 4.6 170 14:44 08.02.2020
3263 Clouds 12 1021 66 10000 5.7 170 14:20 08.02.2020
3264 Clouds 12 1021 66 10000 4.1 170 13:56 08.02.2020
3265 Clouds 12 1021 66 10000 5.7 170 13:38 08.02.2020
3266 Clouds 12 1021 66 10000 5.7 170 13:19 08.02.2020
3267 Clouds 12 1021 66 10000 6.7 160 12:40 08.02.2020
3268 Clouds 12 1021 66 10000 6.7 160 12:21 08.02.2020
3269 Clouds 12 1021 71 10000 5.7 150 11:55 08.02.2020
3270 Clouds 12 1021 71 10000 7.2 140 11:37 08.02.2020
3271 Rain 12 1021 71 10000 7.2 140 11:18 08.02.2020
3272 Rain 12 1021 71 10000 6.7 150 10:42 08.02.2020
3273 Rain 12 1021 71 10000 8.7 160 10:21 08.02.2020
3274 Rain 12 1020 76 10000 8.7 160 09:51 08.02.2020
3275 Rain 12 1020 81 10000 10.3 160 09:27 08.02.2020
3276 Rain 12 1019 87 8000 11.8 170 08:54 08.02.2020
3277 Drizzle 13 1019 87 10000 10.8 170 08:36 08.02.2020
3278 Drizzle 13 1019 87 10000 10.8 170 08:36 08.02.2020
3279 Drizzle 13 1019 87 10000 10.8 170 08:18 08.02.2020
3280 Rain 13 1018 87 10000 10.8 170 07:43 08.02.2020
3281 Rain 14 1018 72 10000 10.3 170 07:18 08.02.2020
3282 Rain 16 1017 72 10000 8.7 160 06:24 08.02.2020
3283 Rain 17 1016 72 10000 9.3 170 05:48 08.02.2020
3284 Rain 20 1016 68 10000 8.2 160 05:29 08.02.2020
3285 Rain 18 1016 77 10000 6.2 170 04:48 08.02.2020
3286 Rain 20 1015 56 10000 6.7 10 03:48 08.02.2020
3287 Rain 21 1015 49 10000 7.2 360 02:51 08.02.2020
3288 Clear 20 1015 46 10000 7.2 350 01:41 08.02.2020
3289 Clear 21 1015 49 10000 10.8 360 01:22 08.02.2020
3290 Clear 20 1014 56 10000 11.8 10 00:39 08.02.2020
3291 Clear 20 1014 56 10000 11.8 10 00:20 08.02.2020
3292 Clear 19 1015 64 10000 12.9 360 23:43 07.02.2020
3293 Clear 18 1015 68 10000 11.8 350 23:20 07.02.2020
3294 Clear 18 1015 68 10000 12.9 360 22:58 07.02.2020
3295 Clear 18 1015 68 10000 11.8 360 22:39 07.02.2020
3296 Clear 18 1015 68 10000 11.8 360 22:19 07.02.2020
3297 Clear 17 1015 72 10000 11.3 360 21:43 07.02.2020
3298 Clear 17 1016 72 10000 11.3 360 21:22 07.02.2020
3299 Clear 17 1016 82 10000 12.3 360 20:55 07.02.2020
3300 Clear 17 1016 77 10000 12.9 360 20:37 07.02.2020
3301 Clouds 17 1016 77 10000 12.9 360 20:18 07.02.2020
3302 Clouds 16 1016 77 10000 12.9 360 19:40 07.02.2020
3303 Clouds 16 1016 82 10000 11.3 360 19:21 07.02.2020
3304 Clouds 16 1017 82 10000 10.3 10 18:56 07.02.2020
3305 Clouds 15 1017 77 10000 11.8 360 18:38 07.02.2020
3306 Clouds 16 1017 77 10000 11.8 360 18:19 07.02.2020
3307 Clouds 16 1017 82 10000 10.8 360 17:43 07.02.2020
3308 Clouds 16 1017 77 10000 9.3 10 17:22 07.02.2020
3309 Clouds 16 1017 72 10000 8.7 20 16:55 07.02.2020
3310 Clouds 16 1018 72 10000 7.7 20 16:37 07.02.2020
3311 Clouds 16 1018 72 10000 7.7 20 16:19 07.02.2020
3312 Clouds 15 1018 72 10000 7.7 20 15:44 07.02.2020
3313 Clouds 15 1019 72 10000 8.2 10 15:21 07.02.2020
3314 Clouds 15 1019 72 10000 8.2 10 14:43 07.02.2020
3315 Clouds 15 1019 67 10000 7.2 20 14:24 07.02.2020
3316 Clear 16 1020 72 10000 6.7 20 13:58 07.02.2020
3317 Clear 16 1020 72 10000 5.1 20 13:39 07.02.2020
3318 Clear 16 1020 72 10000 5.1 20 13:39 07.02.2020
3319 Clear 16 1020 72 10000 5.1 20 13:20 07.02.2020
3320 Clear 16 1021 72 10000 5.1 20 12:54 07.02.2020
3321 Clear 16 1021 77 10000 6.2 10 12:36 07.02.2020
3322 Clear 16 1021 77 10000 6.2 10 12:18 07.02.2020
3323 Clear 16 1021 63 10000 6.2 350 11:41 07.02.2020
3324 Clear 16 1022 63 10000 6.7 10 11:19 07.02.2020
3325 Clear 17 1022 59 10000 5.7 10 10:41 07.02.2020
3326 Clear 17 1022 63 10000 5.7 340 10:22 07.02.2020
3327 Clear 17 1021 55 10000 5.7 360 09:56 07.02.2020
3328 Clear 18 1021 55 10000 4.1 350 09:37 07.02.2020
3329 Clear 18 1021 55 10000 4.1 350 09:19 07.02.2020
3330 Clear 18 1021 46 10000 5.1 350 08:42 07.02.2020
3331 Clouds 19 1021 46 10000 5.1 350 08:20 07.02.2020
3332 Clouds 21 1022 43 10000 4.6 330 07:44 07.02.2020
3333 Clouds 21 1022 46 10000 3.6 10 07:26 07.02.2020
3334 Clouds 21 1022 46 10000 4.1 10 06:45 07.02.2020
3335 Clouds 21 1023 46 10000 4.1 360 06:25 07.02.2020
3336 Clouds 21 1023 48 0 1.16 232 05:45 07.02.2020
3337 Clouds 21 1024 59 10000 3.6 180 04:42 07.02.2020
3338 Clouds 21 1026 63 10000 4.6 190 02:50 07.02.2020
3339 Clouds 20 1027 63 10000 6.2 170 01:42 07.02.2020
3340 Clouds 21 1027 59 10000 7.2 160 00:48 07.02.2020
3341 Clouds 21 1027 63 10000 6.7 170 00:20 07.02.2020
3342 Clouds 21 1027 63 10000 6.7 170 00:19 07.02.2020
3343 Clouds 20 1027 63 10000 7.2 150 23:37 06.02.2020
3344 Clouds 18 1027 63 10000 7.2 150 23:19 06.02.2020
3345 Clouds 18 1027 63 10000 7.2 150 22:44 06.02.2020
3346 Clouds 17 1027 59 10000 7.2 160 22:25 06.02.2020
3347 Clouds 18 1027 63 10000 7.2 150 21:38 06.02.2020
3348 Clouds 18 1027 63 10000 7.2 150 21:20 06.02.2020
3349 Clouds 17 1026 67 10000 7.2 150 20:58 06.02.2020
3350 Clouds 16 1026 72 10000 7.7 160 20:39 06.02.2020
3351 Clouds 15 1026 72 10000 7.7 160 20:19 06.02.2020
3352 Clouds 15 1026 77 10000 7.7 160 19:59 06.02.2020
3353 Clouds 15 1026 77 10000 7.7 160 19:41 06.02.2020
3354 Clouds 14 1026 77 10000 8.2 170 19:22 06.02.2020
3355 Clouds 15 1026 77 10000 8.7 170 18:58 06.02.2020
3356 Clouds 14 1025 82 10000 8.2 170 18:40 06.02.2020
3357 Clouds 14 1025 82 10000 8.2 170 18:20 06.02.2020
3358 Clouds 14 1025 82 10000 7.7 170 17:44 06.02.2020
3359 Clouds 14 1025 82 10000 7.7 170 17:44 06.02.2020
3360 Clouds 15 1025 77 10000 8.2 170 17:21 06.02.2020
3361 Clouds 15 1024 77 10000 8.2 170 16:59 06.02.2020
3362 Clouds 15 1024 77 10000 8.2 160 16:40 06.02.2020
3363 Clouds 15 1024 77 10000 8.2 160 16:22 06.02.2020
3364 Clouds 15 1024 77 10000 8.2 160 15:42 06.02.2020
3365 Clouds 15 1024 77 10000 9.3 160 15:22 06.02.2020
3366 Clouds 15 1024 82 10000 9.3 160 14:49 06.02.2020
3367 Clouds 15 1024 87 10000 8.7 160 14:28 06.02.2020
3368 Rain 16 1024 88 10000 8.7 160 13:57 06.02.2020
3369 Rain 16 1023 88 10000 8.2 150 13:39 06.02.2020
3370 Rain 16 1023 88 10000 8.2 150 13:19 06.02.2020
3371 Rain 16 1023 82 10000 7.2 150 12:43 06.02.2020
3372 Rain 17 1023 82 10000 6.7 150 12:19 06.02.2020
3373 Rain 17 1022 82 10000 7.2 150 11:57 06.02.2020
3374 Rain 16 1022 82 10000 8.2 160 11:39 06.02.2020
3375 Clouds 17 1022 82 10000 8.2 160 11:18 06.02.2020
3376 Rain 16 1021 59 10000 2.1 160 10:56 06.02.2020
3377 Drizzle 17 1021 45 10000 1 180 10:38 06.02.2020
3378 Drizzle 17 1021 45 10000 1 180 10:18 06.02.2020
3379 Clouds 18 1020 49 10000 3.1 50 09:44 06.02.2020
3380 Clouds 19 1019 45 10000 4.1 30 09:20 06.02.2020
3381 Clouds 19 1019 45 10000 5.1 30 08:47 06.02.2020
3382 Clouds 19 1019 42 10000 6.2 30 08:27 06.02.2020
3383 Clear 20 1018 43 10000 7.2 10 07:59 06.02.2020
3384 Clear 20 1018 43 10000 7.7 10 07:39 06.02.2020
3385 Clear 20 1018 43 10000 7.7 10 07:21 06.02.2020
3386 Clear 21 1018 40 10000 8.2 360 06:21 06.02.2020
3387 Clear 21 1018 43 10000 7.7 360 05:44 06.02.2020
3388 Clear 21 1018 46 10000 7.2 350 04:18 06.02.2020
3389 Clear 21 1018 49 10000 6.2 340 03:18 06.02.2020
3390 Clear 21 1019 53 10000 7.2 340 02:25 06.02.2020
3391 Clear 21 1018 56 10000 8.7 360 01:25 06.02.2020
3392 Clear 21 1018 52 10000 7.7 350 00:42 06.02.2020
3393 Clear 21 1018 56 10000 8.2 360 00:21 06.02.2020
3394 Clear 20 1018 56 10000 7.7 360 23:43 05.02.2020
3395 Clear 20 1018 52 10000 7.7 360 23:24 05.02.2020
3396 Clear 19 1018 56 10000 7.7 10 22:56 05.02.2020
3397 Clear 19 1018 59 10000 7.2 20 22:37 05.02.2020
3398 Clear 19 1018 59 10000 7.2 20 22:19 05.02.2020
3399 Clear 18 1018 59 10000 7.7 10 21:41 05.02.2020
3400 Clear 18 1018 63 10000 8.2 20 21:22 05.02.2020
3401 Clear 17 1017 67 10000 6.7 30 20:55 05.02.2020
3402 Clear 16 1017 67 10000 6.2 20 20:37 05.02.2020
3403 Clear 15 1017 67 10000 6.2 20 20:18 05.02.2020
3404 Clear 15 1017 72 10000 7.2 20 19:55 05.02.2020
3405 Clear 15 1016 82 10000 6.7 20 19:36 05.02.2020
3406 Clear 15 1016 82 10000 6.7 20 19:18 05.02.2020
3407 Clear 15 1016 77 10000 7.2 10 18:43 05.02.2020
3408 Clear 15 1016 72 10000 9.3 10 18:21 05.02.2020
3409 Clear 15 1015 72 10000 9.8 10 17:58 05.02.2020
3410 Clear 15 1015 77 10000 9.8 10 17:37 05.02.2020
3411 Clear 15 1015 77 10000 9.8 10 17:18 05.02.2020
3412 Clear 15 1016 77 10000 7.2 20 16:43 05.02.2020
3413 Clear 15 1016 77 10000 7.2 20 16:25 05.02.2020
3414 Clear 15 1016 77 10000 7.2 20 15:58 05.02.2020
3415 Clear 15 1016 77 10000 6.7 30 15:38 05.02.2020
3416 Clear 15 1016 77 10000 6.7 30 15:18 05.02.2020
3417 Clear 15 1016 77 10000 6.7 30 14:42 05.02.2020
3418 Clear 15 1017 77 10000 5.7 30 14:23 05.02.2020
3419 Clear 15 1017 77 10000 5.7 10 13:57 05.02.2020
3420 Clear 15 1017 77 10000 6.2 20 13:38 05.02.2020
3421 Clear 14 1017 77 10000 6.2 20 13:19 05.02.2020
3422 Clear 14 1017 77 10000 5.7 20 12:42 05.02.2020
3423 Clear 14 1017 77 10000 5.7 20 12:22 05.02.2020
3424 Clear 15 1017 72 10000 6.2 20 11:54 05.02.2020
3425 Clear 14 1017 72 10000 6.2 20 11:36 05.02.2020
3426 Clear 15 1017 72 10000 6.2 20 11:18 05.02.2020
3427 Clear 15 1017 72 10000 5.1 10 10:42 05.02.2020
3428 Clear 15 1017 72 10000 5.1 10 10:23 05.02.2020
3429 Clear 15 1017 72 10000 5.1 10 10:23 05.02.2020
3430 Clear 15 1017 72 10000 6.2 10 09:44 05.02.2020
3431 Clear 16 1016 77 10000 5.1 350 09:23 05.02.2020
3432 Clear 16 1014 77 0 4.91 20 08:59 05.02.2020
3433 Clear 16 1015 81 0 0.45 17 08:41 05.02.2020
3434 Clear 17 1016 68 10000 4.6 340 08:22 05.02.2020
3435 Clouds 18 1016 63 10000 5.1 350 07:44 05.02.2020
3436 Clouds 18 1016 68 9000 1.5 210 07:26 05.02.2020
3437 Clouds 18 1016 68 10000 3.1 210 06:42 05.02.2020
3438 Clouds 19 1016 68 10000 3.1 200 06:22 05.02.2020
3439 Clouds 19 1015 63 10000 3.1 210 05:48 05.02.2020
3440 Clouds 19 1015 59 10000 5.1 170 05:18 05.02.2020
3441 Clouds 19 1015 63 10000 5.1 170 04:41 05.02.2020
3442 Clouds 18 1016 63 10000 6.7 170 03:20 05.02.2020
3443 Clouds 18 1016 63 10000 6.2 170 02:23 05.02.2020
3444 Clouds 17 1016 67 10000 5.1 170 01:35 05.02.2020
3445 Rain 16 1015 82 10000 5.1 170 00:33 05.02.2020
3446 Rain 15 1015 87 10000 5.7 180 23:42 04.02.2020
3447 Rain 15 1015 93 9000 6.7 190 23:23 04.02.2020
3448 Rain 15 1015 93 9000 6.7 190 23:23 04.02.2020
3449 Rain 15 1015 87 10000 6.2 180 22:58 04.02.2020
3450 Rain 15 1014 87 10000 6.2 180 22:40 04.02.2020
3451 Rain 14 1014 87 10000 6.2 180 22:21 04.02.2020
3452 Rain 15 1014 87 10000 7.7 180 21:57 04.02.2020
3453 Rain 15 1013 87 10000 7.2 160 21:39 04.02.2020
3454 Rain 15 1013 87 10000 7.2 160 21:19 04.02.2020
3455 Rain 15 1012 87 10000 8.2 180 20:57 04.02.2020
3456 Rain 15 1011 82 10000 7.2 180 20:38 04.02.2020
3457 Rain 15 1011 82 10000 7.2 180 20:19 04.02.2020
3458 Rain 15 1011 82 10000 7.2 170 19:55 04.02.2020
3459 Rain 15 1010 82 10000 5.7 180 19:36 04.02.2020
3460 Rain 15 1010 82 10000 5.7 180 19:18 04.02.2020
3461 Rain 15 1009 82 10000 6.2 180 18:41 04.02.2020
3462 Rain 15 1009 82 10000 6.2 180 18:21 04.02.2020
3463 Rain 15 1008 87 10000 5.7 180 17:58 04.02.2020
3464 Rain 16 1007 82 10000 6.7 190 17:40 04.02.2020
3465 Clear 16 1007 82 10000 6.7 190 17:19 04.02.2020
3466 Clear 16 1004 68 9000 7.7 330 16:39 04.02.2020
3467 Clear 16 1004 68 9000 7.7 330 16:21 04.02.2020
3468 Clear 16 1004 68 9000 7.7 330 16:21 04.02.2020
3469 Clear 17 1004 68 9000 6.2 330 15:57 04.02.2020
3470 Clear 17 1004 68 10000 5.7 320 15:39 04.02.2020
3471 Clear 17 1004 68 10000 5.7 320 15:20 04.02.2020
3472 Clear 17 1003 72 10000 6.7 340 14:55 04.02.2020
3473 Clear 17 1003 72 10000 6.2 330 14:37 04.02.2020
3474 Clouds 17 1003 72 10000 6.2 330 14:18 04.02.2020
3475 Clouds 18 1003 63 10000 8.2 320 13:41 04.02.2020
3476 Clouds 18 1002 68 10000 8.7 320 13:23 04.02.2020
3477 Clouds 18 1001 68 10000 10.8 340 12:57 04.02.2020
3478 Clouds 18 1001 72 10000 10.8 330 12:37 04.02.2020
3479 Clouds 18 1001 72 10000 10.8 330 12:19 04.02.2020
3480 Clouds 18 1000 77 10000 12.3 320 11:55 04.02.2020
3481 Clouds 18 1000 77 10000 12.3 320 11:55 04.02.2020
3482 Clouds 18 1000 77 10000 12.9 340 11:36 04.02.2020
3483 Rain 19 1000 77 10000 12.9 340 11:18 04.02.2020
3484 Rain 19 999 77 10000 12.3 340 10:44 04.02.2020
3485 Rain 19 999 72 10000 12.3 340 10:24 04.02.2020
3486 Rain 19 999 68 10000 10.3 340 09:56 04.02.2020
3487 Rain 19 998 88 10000 13.4 340 09:37 04.02.2020
3488 Rain 19 998 88 10000 13.4 340 09:18 04.02.2020
3489 Rain 20 998 88 7000 14.9 350 08:43 04.02.2020
3490 Rain 20 998 88 10000 14.4 350 08:24 04.02.2020
3491 Rain 20 999 88 7000 15.4 350 07:49 04.02.2020
3492 Drizzle 21 999 88 3000 15.4 350 07:24 04.02.2020
3493 Clear 23 998 64 10000 17.5 350 06:45 04.02.2020
3494 Clear 23 998 64 10000 17.5 350 06:45 04.02.2020
3495 Clear 22 999 73 10000 14.4 340 06:26 04.02.2020
3496 Clear 22 1001 69 10000 13.9 340 05:29 04.02.2020
3497 Clear 22 1002 69 10000 13.9 350 03:56 04.02.2020
3498 Clear 22 1002 73 10000 11.3 350 03:37 04.02.2020
3499 Clear 22 1002 73 10000 11.3 350 03:19 04.02.2020
3500 Clear 22 1003 69 10000 10.8 350 02:34 04.02.2020
3501 Clouds 22 1003 69 10000 11.8 350 01:55 04.02.2020
3502 Clouds 22 1003 69 10000 11.3 350 01:35 04.02.2020
3503 Clouds 22 1004 73 10000 10.8 350 00:49 04.02.2020
3504 Clouds 22 1004 73 10000 12.9 340 00:22 04.02.2020
3505 Clouds 22 1004 73 10000 11.8 350 23:41 03.02.2020
3506 Clouds 22 1005 73 10000 12.3 340 23:22 03.02.2020
3507 Clouds 21 1006 78 10000 8.2 340 22:40 03.02.2020
3508 Clouds 21 1006 78 10000 8.2 340 22:21 03.02.2020
3509 Clouds 20 1006 83 10000 10.8 350 21:59 03.02.2020
3510 Clouds 20 1006 83 10000 8.7 340 21:39 03.02.2020
3511 Clouds 20 1006 83 10000 8.7 340 21:19 03.02.2020
3512 Clouds 20 1006 83 10000 10.8 350 20:42 03.02.2020
3513 Clouds 19 1007 88 10000 10.3 350 20:19 03.02.2020
3514 Clouds 20 1007 88 10000 8.7 340 19:58 03.02.2020
3515 Clouds 20 1007 88 10000 8.7 340 19:58 03.02.2020
3516 Clouds 19 1006 88 10000 9.3 350 19:40 03.02.2020
3517 Clouds 19 1006 88 10000 9.3 350 19:20 03.02.2020
3518 Clouds 20 1006 88 10000 10.3 350 18:56 03.02.2020
3519 Clouds 20 1006 88 10000 8.7 350 18:37 03.02.2020
3520 Clouds 20 1006 88 10000 8.7 350 18:18 03.02.2020
3521 Clouds 20 1006 94 10000 8.7 10 17:40 03.02.2020
3522 Clouds 20 1006 94 10000 8.7 10 17:20 03.02.2020
3523 Clouds 20 1006 94 10000 9.8 20 16:59 03.02.2020
3524 Clouds 20 1006 94 10000 11.3 20 16:39 03.02.2020
3525 Clouds 20 1006 94 10000 11.3 20 16:20 03.02.2020
3526 Clouds 20 1006 94 10000 9.3 10 15:56 03.02.2020
3527 Clouds 20 1007 94 10000 10.3 20 15:37 03.02.2020
3528 Clouds 20 1007 94 10000 10.3 20 15:18 03.02.2020
3529 Clouds 20 1007 88 10000 11.8 360 14:42 03.02.2020
3530 Clouds 20 1007 88 10000 11.3 360 14:23 03.02.2020
3531 Clouds 20 1008 88 10000 10.8 360 13:57 03.02.2020
3532 Clouds 20 1008 88 10000 10.8 10 13:39 03.02.2020
3533 Clouds 20 1008 88 10000 10.8 10 13:19 03.02.2020
3534 Clouds 20 1008 88 10000 11.3 360 12:55 03.02.2020
3535 Clouds 19 1008 88 10000 11.8 10 12:36 03.02.2020
3536 Clouds 20 1008 88 10000 11.8 10 12:18 03.02.2020
3537 Clouds 19 1008 88 10000 12.3 360 11:38 03.02.2020
3538 Clouds 19 1008 88 10000 12.3 360 11:19 03.02.2020
3539 Clouds 20 1008 88 10000 11.3 350 10:57 03.02.2020
3540 Clouds 20 1009 88 10000 10.8 350 10:38 03.02.2020
3541 Clouds 20 1009 88 10000 10.8 350 10:38 03.02.2020
3542 Clouds 20 1009 88 10000 10.8 350 10:19 03.02.2020
3543 Clouds 20 1008 88 10000 11.8 340 09:39 03.02.2020
3544 Clouds 20 1008 88 10000 11.8 340 09:19 03.02.2020
3545 Clouds 20 1008 83 10000 12.3 340 08:41 03.02.2020
3546 Clouds 20 1008 83 10000 11.3 340 08:23 03.02.2020
3547 Clouds 20 1008 83 10000 9.8 350 07:43 03.02.2020
3548 Clouds 20 1007 83 10000 12.3 350 07:23 03.02.2020
3549 Clouds 20 1008 83 10000 12.9 360 06:57 03.02.2020
3550 Clouds 20 1008 78 10000 11.8 350 06:31 03.02.2020
3551 Clouds 21 1008 78 10000 12.3 350 05:58 03.02.2020
3552 Clouds 21 1008 78 10000 12.3 350 05:34 03.02.2020
3553 Clouds 21 1009 78 10000 11.3 350 04:50 03.02.2020
3554 Clouds 22 1009 73 10000 12.3 340 02:53 03.02.2020
3555 Clouds 22 1009 73 10000 12.3 350 02:32 03.02.2020
3556 Clear 22 1010 78 10000 14.9 360 00:50 03.02.2020
3557 Clear 22 1011 83 10000 12.3 360 00:30 03.02.2020
3558 Clear 22 1011 83 10000 13.4 10 23:59 02.02.2020
3559 Clear 21 1011 88 10000 12.3 360 23:37 02.02.2020
3560 Clear 19 1011 88 10000 12.3 360 23:18 02.02.2020
3561 Clear 19 1011 88 10000 12.3 360 23:18 02.02.2020
3562 Clear 20 1011 88 10000 11.8 360 22:40 02.02.2020
3563 Clear 20 1011 88 10000 11.8 360 22:22 02.02.2020
3564 Clear 20 1011 88 10000 11.8 360 21:58 02.02.2020
3565 Clear 19 1011 88 10000 11.8 10 21:39 02.02.2020
3566 Clear 19 1011 88 10000 11.8 10 21:20 02.02.2020
3567 Clear 19 1011 93 10000 12.3 10 20:57 02.02.2020
3568 Clear 19 1011 93 10000 11.8 360 20:39 02.02.2020
3569 Clouds 19 1011 93 10000 11.8 360 20:20 02.02.2020
3570 Clouds 18 1010 93 10000 12.3 360 19:58 02.02.2020
3571 Clouds 18 1010 93 10000 12.3 360 19:39 02.02.2020
3572 Clouds 18 1010 93 10000 12.3 360 19:21 02.02.2020
3573 Clouds 19 1010 93 10000 13.4 360 18:56 02.02.2020
3574 Clouds 18 1010 88 10000 13.4 10 18:37 02.02.2020
3575 Clouds 18 1010 88 10000 13.4 10 18:37 02.02.2020
3576 Clouds 18 1010 88 10000 13.4 10 18:19 02.02.2020
3577 Clouds 18 1010 88 10000 13.4 360 17:57 02.02.2020
3578 Clouds 19 1010 88 10000 12.9 360 17:37 02.02.2020
3579 Clouds 19 1010 88 10000 12.9 360 17:18 02.02.2020
3580 Clouds 18 1010 88 10000 12.3 10 16:57 02.02.2020
3581 Clouds 18 1010 88 10000 12.3 10 16:38 02.02.2020
3582 Clouds 18 1010 88 10000 12.3 10 16:18 02.02.2020
3583 Clouds 19 1010 88 10000 12.3 10 15:55 02.02.2020
3584 Clouds 19 1011 88 10000 11.3 10 15:36 02.02.2020
3585 Clouds 19 1011 88 10000 11.3 10 15:18 02.02.2020
3586 Clouds 19 1011 88 10000 12.3 360 14:43 02.02.2020
3587 Clouds 19 1010 88 10000 11.3 360 14:19 02.02.2020
3588 Clouds 19 1010 88 10000 11.3 360 14:19 02.02.2020
3589 Clouds 18 1010 88 10000 11.8 20 13:58 02.02.2020
3590 Clouds 19 1010 88 10000 12.9 10 13:39 02.02.2020
3591 Clouds 19 1010 88 10000 12.9 10 13:20 02.02.2020
3592 Clouds 19 1010 88 10000 12.9 10 12:56 02.02.2020
3593 Clouds 19 1010 88 10000 12.3 10 12:37 02.02.2020
3594 Clouds 19 1010 88 10000 12.3 10 12:18 02.02.2020
3595 Clouds 19 1010 88 10000 12.9 360 11:42 02.02.2020
3596 Clouds 19 1010 88 10000 10.8 20 11:19 02.02.2020
3597 Clouds 19 1010 88 10000 13.4 10 10:57 02.02.2020
3598 Clouds 19 1010 88 10000 11.8 10 10:38 02.02.2020
3599 Clouds 19 1010 88 10000 11.8 10 10:20 02.02.2020
3600 Clouds 19 1009 93 10000 10.8 20 09:57 02.02.2020
3601 Clouds 19 1009 93 10000 11.3 10 09:39 02.02.2020
3602 Clouds 19 1009 93 10000 11.3 10 09:20 02.02.2020
3603 Clouds 19 1009 88 10000 9.8 30 08:44 02.02.2020
3604 Clouds 19 1009 88 10000 10.8 10 08:25 02.02.2020
3605 Clouds 19 1010 88 10000 9.8 10 07:47 02.02.2020
3606 Clouds 19 1009 88 10000 10.3 10 07:28 02.02.2020
3607 Clouds 19 1009 88 10000 11.3 10 06:45 02.02.2020
3608 Clouds 20 1009 88 10000 12.3 10 06:27 02.02.2020
3609 Clouds 20 1009 83 10000 10.8 20 05:49 02.02.2020
3610 Clouds 20 1010 83 10000 11.3 10 04:52 02.02.2020
3611 Clouds 20 1009 83 10000 14.4 360 03:30 02.02.2020
3612 Clouds 20 1010 77 10000 13.9 350 02:39 02.02.2020
3613 Clouds 20 1010 77 10000 14.9 350 01:56 02.02.2020
3614 Clouds 21 1009 77 10000 17.5 360 01:26 02.02.2020
3615 Clouds 20 1010 82 10000 17 360 00:44 02.02.2020
3616 Clouds 20 1010 82 10000 15.9 360 00:23 02.02.2020
3617 Clouds 20 1010 82 10000 15.9 350 23:54 01.02.2020
3618 Clouds 20 1010 82 10000 15.9 350 23:36 01.02.2020
3619 Clear 19 1010 82 10000 15.9 350 23:18 01.02.2020
3620 Clear 20 1011 73 10000 12.9 350 22:42 01.02.2020
3621 Clear 20 1011 82 10000 14.4 360 22:18 01.02.2020
3622 Clear 19 1011 77 10000 12.9 360 21:39 01.02.2020
3623 Clear 19 1011 77 10000 12.9 360 21:19 01.02.2020
3624 Clear 19 1010 88 10000 14.9 360 20:42 01.02.2020
3625 Clouds 18 1011 82 10000 14.9 10 20:21 01.02.2020
3626 Clouds 18 1011 82 10000 13.9 360 19:58 01.02.2020
3627 Clouds 18 1011 88 10000 14.4 360 19:39 01.02.2020
3628 Clouds 18 1011 88 10000 14.4 360 19:20 01.02.2020
3629 Clouds 18 1011 88 10000 13.4 360 18:59 01.02.2020
3630 Clouds 18 1011 82 10000 12.3 10 18:40 01.02.2020
3631 Clouds 18 1011 88 10000 13.4 360 18:40 01.02.2020
3632 Clouds 18 1011 82 10000 12.3 10 18:22 01.02.2020
3633 Clouds 18 1011 88 10000 12.3 10 17:58 01.02.2020
3634 Clouds 18 1011 88 10000 11.3 360 17:39 01.02.2020
3635 Clouds 18 1011 88 10000 11.3 360 17:20 01.02.2020
3636 Clouds 18 1011 88 10000 14.9 360 16:56 01.02.2020
3637 Clouds 18 1011 82 10000 12.3 10 16:38 01.02.2020
3638 Clouds 18 1011 82 10000 12.3 10 16:38 01.02.2020
3639 Clouds 18 1011 82 10000 12.3 10 16:19 01.02.2020
3640 Clouds 18 1011 82 10000 11.3 20 15:41 01.02.2020
3641 Clouds 18 1012 88 10000 11.8 20 15:22 01.02.2020
3642 Clouds 18 1011 82 10000 11.8 20 14:54 01.02.2020
3643 Clouds 18 1012 88 10000 12.9 10 14:36 01.02.2020
3644 Clouds 18 1012 88 10000 12.9 10 14:18 01.02.2020
3645 Clouds 18 1012 82 10000 12.9 10 13:42 01.02.2020
3646 Clouds 18 1012 77 10000 12.3 20 13:18 01.02.2020
3647 Clouds 18 1012 82 10000 12.9 10 12:43 01.02.2020
3648 Clouds 18 1012 77 10000 12.9 10 12:24 01.02.2020
3649 Clouds 18 1012 77 10000 14.4 10 11:45 01.02.2020
3650 Clouds 18 1013 77 10000 12.3 10 11:24 01.02.2020
3651 Clouds 19 1013 82 10000 11.3 10 10:59 01.02.2020
3652 Clouds 19 1013 82 10000 11.3 10 10:41 01.02.2020
3653 Clouds 19 1013 77 10000 9.8 20 10:23 01.02.2020
3654 Clouds 18 1013 77 10000 6.7 20 09:59 01.02.2020
3655 Clouds 18 1013 77 10000 8.7 10 09:41 01.02.2020
3656 Clouds 18 1013 77 10000 8.7 10 09:21 01.02.2020
3657 Clouds 18 1013 77 10000 10.8 10 08:58 01.02.2020
3658 Clouds 19 1013 77 10000 9.8 10 08:22 01.02.2020
3659 Clouds 19 1013 72 10000 11.8 10 07:43 01.02.2020
3660 Clouds 19 1013 72 10000 11.8 10 07:24 01.02.2020
3661 Clouds 19 1013 72 10000 11.3 10 06:44 01.02.2020
3662 Clouds 20 1013 68 10000 12.3 10 05:54 01.02.2020
3663 Clouds 21 1014 68 10000 12.3 360 04:32 01.02.2020
3664 Clouds 22 1014 60 10000 13.9 360 03:26 01.02.2020
3665 Clouds 22 1015 56 10000 12.3 360 02:58 01.02.2020
3666 Clouds 23 1015 60 10000 10.8 10 02:39 01.02.2020
3667 Clouds 22 1015 60 10000 10.8 10 02:19 01.02.2020
3668 Clouds 22 1016 60 10000 9.8 360 01:40 01.02.2020
3669 Clouds 23 1016 60 10000 9.8 360 01:19 01.02.2020
3670 Clouds 22 1016 60 10000 8.7 360 00:23 01.02.2020
3671 Clouds 21 1017 64 10000 9.3 10 23:41 31.01.2020
3672 Clouds 21 1017 60 10000 9.3 10 23:18 31.01.2020
3673 Clouds 21 1017 64 10000 7.2 360 22:56 31.01.2020
3674 Clouds 21 1017 68 10000 3.1 360 22:38 31.01.2020
3675 Clouds 20 1017 68 10000 3.1 360 22:20 31.01.2020
3676 Clouds 19 1017 82 8000 1 210 21:40 31.01.2020
3677 Clouds 19 1017 88 9000 1.5 170 21:21 31.01.2020
3678 Clouds 18 1016 88 7000 2.1 200 20:58 31.01.2020
3679 Clouds 18 1017 88 7000 2.6 180 20:40 31.01.2020
3680 Clouds 17 1017 88 7000 2.6 180 20:22 31.01.2020
3681 Clouds 17 1016 88 7000 3.6 210 20:00 31.01.2020
3682 Clouds 17 1016 88 7000 3.6 210 19:40 31.01.2020
3683 Clouds 17 1016 88 8000 3.1 190 19:22 31.01.2020
3684 Clouds 17 1016 88 8000 3.1 190 19:22 31.01.2020
3685 Clouds 17 1015 82 10000 1.5 360 18:58 31.01.2020
3686 Clouds 16 1015 82 10000 3.1 360 18:36 31.01.2020
3687 Clouds 16 1015 82 10000 3.1 360 18:18 31.01.2020
3688 Clouds 16 1015 77 10000 3.6 10 17:43 31.01.2020
3689 Clouds 17 1015 82 10000 5.1 10 17:25 31.01.2020
3690 Clouds 17 1015 82 10000 5.1 360 16:57 31.01.2020
3691 Clouds 17 1015 77 10000 6.2 360 16:38 31.01.2020
3692 Clouds 17 1015 77 10000 6.2 360 16:19 31.01.2020
3693 Clouds 17 1015 77 10000 6.2 360 16:19 31.01.2020
3694 Clouds 17 1014 82 10000 6.7 360 15:57 31.01.2020
3695 Clouds 17 1014 77 10000 7.7 20 15:39 31.01.2020
3696 Clouds 17 1014 77 10000 7.7 20 15:20 31.01.2020
3697 Clouds 18 1014 82 10000 7.2 20 14:43 31.01.2020
3698 Clouds 18 1014 82 10000 8.2 20 14:24 31.01.2020
3699 Clear 18 1014 82 10000 7.7 20 13:55 31.01.2020
3700 Clear 17 1014 82 10000 8.2 20 13:36 31.01.2020
3701 Clear 18 1014 82 10000 8.2 20 12:59 31.01.2020
3702 Clear 18 1014 82 10000 8.2 20 12:41 31.01.2020
3703 Clear 18 1014 88 10000 9.8 10 12:22 31.01.2020
3704 Clear 18 1014 82 10000 9.8 20 11:46 31.01.2020
3705 Clear 18 1013 88 10000 10.8 10 11:26 31.01.2020
3706 Clear 18 1013 82 10000 9.8 20 10:59 31.01.2020
3707 Clear 18 1013 82 10000 9.8 20 10:41 31.01.2020
3708 Clear 18 1013 82 10000 10.8 20 10:21 31.01.2020
3709 Clear 18 1013 82 10000 10.8 10 09:57 31.01.2020
3710 Clear 19 1013 82 10000 10.3 10 09:39 31.01.2020
3711 Clear 18 1013 82 10000 10.3 10 09:19 31.01.2020
3712 Clear 18 1013 82 10000 9.8 10 08:52 31.01.2020
3713 Clear 18 1013 82 10000 10.8 10 08:27 31.01.2020
3714 Clouds 19 1013 77 10000 11.3 360 07:53 31.01.2020
3715 Clouds 19 1013 77 10000 11.3 360 07:53 31.01.2020
3716 Clouds 19 1013 77 10000 10.8 10 07:25 31.01.2020
3717 Clouds 20 1013 73 10000 10.8 10 06:49 31.01.2020
3718 Clouds 20 1012 68 10000 10.3 30 06:19 31.01.2020
3719 Clouds 21 1012 64 10000 10.8 20 05:48 31.01.2020
3720 Clouds 22 1012 64 10000 10.8 20 04:56 31.01.2020
3721 Clouds 22 1012 56 10000 9.8 360 02:58 31.01.2020
3722 Clouds 22 1012 53 10000 7.2 350 01:39 31.01.2020
3723 Clouds 21 1012 56 10000 8.7 330 00:46 31.01.2020
3724 Clouds 21 1012 60 10000 8.7 330 00:27 31.01.2020
3725 Clouds 20 1011 68 10000 12.3 330 23:57 30.01.2020
3726 Clouds 20 1012 53 10000 10.8 330 23:25 30.01.2020
3727 Clouds 20 1011 49 10000 12.3 330 22:57 30.01.2020
3728 Clouds 20 1010 52 10000 14.4 330 22:37 30.01.2020
3729 Clouds 20 1010 52 10000 14.4 330 22:37 30.01.2020
3730 Clouds 20 1010 52 10000 14.4 330 22:18 30.01.2020
3731 Clouds 20 1010 52 10000 12.9 330 21:57 30.01.2020
3732 Clouds 20 1010 52 10000 10.8 340 21:38 30.01.2020
3733 Clouds 20 1010 52 10000 10.8 340 21:18 30.01.2020
3734 Clouds 19 1010 56 10000 14.4 330 20:41 30.01.2020
3735 Clouds 18 1010 56 10000 14.4 330 20:22 30.01.2020
3736 Clouds 18 1009 59 10000 10.3 350 19:57 30.01.2020
3737 Clouds 18 1009 63 10000 7.7 20 19:39 30.01.2020
3738 Clouds 18 1009 63 10000 7.7 20 19:19 30.01.2020
3739 Clouds 18 1008 59 10000 14.4 350 18:42 30.01.2020
3740 Clouds 17 1008 63 10000 12.9 360 18:22 30.01.2020
3741 Clouds 17 1008 68 10000 17 360 17:58 30.01.2020
3742 Clouds 17 1008 77 10000 15.4 10 17:39 30.01.2020
3743 Clear 17 1008 77 10000 15.4 10 17:19 30.01.2020
3744 Clear 17 1008 77 10000 15.4 10 17:19 30.01.2020
3745 Clear 17 1010 77 10000 10.8 20 16:56 30.01.2020
3746 Clear 17 1009 72 10000 11.3 30 16:38 30.01.2020
3747 Clear 17 1009 72 10000 11.3 30 16:20 30.01.2020
3748 Clear 17 1009 68 10000 12.3 20 15:43 30.01.2020
3749 Clear 17 1009 68 10000 12.3 10 15:20 30.01.2020
3750 Clear 17 1009 68 10000 10.8 20 14:50 30.01.2020
3751 Clear 17 1009 68 10000 10.3 20 14:27 30.01.2020
3752 Clear 17 1010 72 10000 9.3 20 13:58 30.01.2020
3753 Clear 17 1010 72 10000 9.3 20 13:38 30.01.2020
3754 Clear 17 1010 72 10000 9.3 20 13:20 30.01.2020
3755 Clear 17 1010 72 10000 11.3 10 12:43 30.01.2020
3756 Clear 17 1010 68 10000 10.3 10 12:24 30.01.2020
3757 Clear 17 1010 72 10000 11.3 20 11:58 30.01.2020
3758 Clear 17 1010 72 10000 11.8 20 11:40 30.01.2020
3759 Clear 17 1010 72 10000 11.8 20 11:21 30.01.2020
3760 Clear 17 1010 72 10000 12.9 10 10:43 30.01.2020
3761 Clear 17 1009 72 10000 11.8 20 10:24 30.01.2020
3762 Clear 17 1010 72 10000 9.8 20 09:56 30.01.2020
3763 Clear 17 1010 72 10000 8.7 20 09:37 30.01.2020
3764 Clear 17 1010 72 10000 8.7 20 09:19 30.01.2020
3765 Clear 18 1009 72 10000 11.8 350 08:42 30.01.2020
3766 Clear 18 1009 72 10000 11.8 360 08:22 30.01.2020
3767 Clouds 19 1009 72 10000 12.3 360 07:52 30.01.2020
3768 Clouds 20 1009 68 10000 11.8 360 07:32 30.01.2020
3769 Clouds 20 1009 68 10000 11.8 10 06:47 30.01.2020
3770 Clouds 20 1009 64 10000 11.8 10 06:29 30.01.2020
3771 Clouds 22 1009 60 10000 9.8 360 05:47 30.01.2020
3772 Clouds 22 1009 60 10000 10.3 360 05:25 30.01.2020
3773 Clouds 23 1009 53 10000 8.7 350 03:56 30.01.2020
3774 Clouds 23 1010 50 10000 8.2 350 03:37 30.01.2020
3775 Clouds 23 1010 50 10000 6.7 360 02:52 30.01.2020
3776 Clouds 21 1011 77 10000 3.6 210 00:54 30.01.2020
3777 Clouds 21 1011 77 10000 4.6 190 00:23 30.01.2020
3778 Clouds 21 1011 68 10000 5.1 180 23:49 29.01.2020
3779 Clouds 21 1011 60 0 1.34 215 23:22 29.01.2020
3780 Clouds 20 1011 72 10000 5.1 200 22:59 29.01.2020
3781 Clouds 20 1010 72 10000 5.1 180 22:39 29.01.2020
3782 Clouds 19 1010 72 10000 5.1 180 22:19 29.01.2020
3783 Clouds 19 1010 77 10000 5.7 190 21:58 29.01.2020
3784 Clouds 19 1010 77 10000 5.7 190 21:40 29.01.2020
3785 Clouds 18 1010 77 10000 6.2 180 21:19 29.01.2020
3786 Clouds 18 1010 82 10000 6.7 170 20:58 29.01.2020
3787 Clouds 17 1009 82 10000 5.7 180 20:39 29.01.2020
3788 Rain 17 1009 82 10000 5.7 180 20:21 29.01.2020
3789 Rain 17 1009 93 9000 5.1 190 19:57 29.01.2020
3790 Rain 17 1009 93 7000 5.7 170 19:37 29.01.2020
3791 Rain 17 1009 93 7000 5.7 170 19:19 29.01.2020
3792 Drizzle 18 1008 93 8000 5.1 190 18:55 29.01.2020
3793 Rain 18 1007 88 10000 3.1 320 18:37 29.01.2020
3794 Rain 19 1007 88 10000 3.1 320 18:18 29.01.2020
3795 Rain 18 1006 88 10000 6.7 320 17:40 29.01.2020
3796 Rain 18 1006 88 10000 6.7 320 17:22 29.01.2020
3797 Clear 19 1006 88 10000 9.3 320 16:43 29.01.2020
3798 Clear 19 1005 88 10000 11.3 330 16:23 29.01.2020
3799 Clear 19 1006 88 10000 10.3 330 15:59 29.01.2020
3800 Clear 19 1006 77 10000 7.2 330 15:38 29.01.2020
3801 Clear 19 1006 77 10000 7.2 330 15:20 29.01.2020
3802 Clear 19 1006 77 10000 8.7 330 14:45 29.01.2020
3803 Clear 19 1006 82 10000 7.7 330 14:22 29.01.2020
3804 Rain 19 1006 77 10000 6.2 340 13:57 29.01.2020
3805 Rain 19 1006 88 10000 7.7 330 13:38 29.01.2020
3806 Rain 19 1006 88 10000 7.7 330 13:20 29.01.2020
3807 Rain 19 1006 77 10000 6.2 340 12:56 29.01.2020
3808 Rain 19 1006 72 10000 2.1 360 12:37 29.01.2020
3809 Rain 19 1006 72 10000 2.1 360 12:19 29.01.2020
3810 Rain 19 1005 77 10000 6.2 20 11:45 29.01.2020
3811 Rain 19 1006 77 10000 6.7 350 11:22 29.01.2020
3812 Clear 19 1006 77 10000 8.7 330 10:47 29.01.2020
3813 Clouds 19 1006 77 10000 8.2 340 10:28 29.01.2020
3814 Clear 19 1004 84 0 0.45 196 09:59 29.01.2020
3815 Clear 19 1004 84 0 0.45 196 09:40 29.01.2020
3816 Clear 19 1004 83 0 0.89 12 09:21 29.01.2020
3817 Clouds 19 1005 68 10000 7.2 10 08:56 29.01.2020
3818 Clouds 19 1005 68 10000 7.2 10 08:56 29.01.2020
3819 Clear 19 1004 84 0 0.89 13 08:38 29.01.2020
3820 Clouds 20 1005 68 10000 6.7 350 08:18 29.01.2020
3821 Clouds 21 1005 60 10000 8.2 330 07:43 29.01.2020
3822 Clouds 21 1005 56 10000 8.7 320 07:23 29.01.2020
3823 Clouds 22 1005 53 10000 8.7 360 06:39 29.01.2020
3824 Clouds 23 1005 53 10000 8.7 360 06:21 29.01.2020
3825 Clouds 23 1005 53 10000 6.2 350 05:55 29.01.2020
3826 Clouds 22 1005 60 10000 6.7 350 05:36 29.01.2020
3827 Clouds 22 1006 60 10000 6.7 10 04:49 29.01.2020
3828 Clouds 22 1006 60 10000 6.7 10 04:49 29.01.2020
3829 Clouds 21 1006 73 10000 6.7 20 04:25 29.01.2020
3830 Clouds 20 1007 73 10000 10.3 10 02:41 29.01.2020
3831 Clouds 21 1008 83 10000 8.2 350 01:49 29.01.2020
3832 Clouds 21 1009 77 10000 10.3 10 00:41 29.01.2020
3833 Clouds 20 1009 77 10000 9.8 10 00:23 29.01.2020
3834 Clouds 20 1009 77 10000 9.8 10 23:44 28.01.2020
3835 Clouds 20 1010 77 10000 8.7 360 23:21 28.01.2020
3836 Clouds 20 1010 88 10000 8.7 350 22:58 28.01.2020
3837 Clouds 18 1010 93 10000 9.3 360 22:40 28.01.2020
3838 Clouds 19 1010 93 10000 9.3 360 22:20 28.01.2020
3839 Drizzle 17 1010 93 8000 9.3 360 21:42 28.01.2020
3840 Clouds 18 1010 88 10000 11.3 360 21:20 28.01.2020
3841 Clouds 18 1010 88 10000 10.3 10 20:57 28.01.2020
3842 Clouds 18 1010 88 10000 9.8 360 20:39 28.01.2020
3843 Clouds 19 1010 88 10000 9.8 360 20:21 28.01.2020
3844 Clouds 18 1010 88 10000 10.3 10 19:39 28.01.2020
3845 Clouds 18 1010 88 10000 10.3 10 19:39 28.01.2020
3846 Clouds 18 1010 88 10000 10.3 10 19:20 28.01.2020
3847 Clouds 18 1010 82 10000 9.3 10 18:58 28.01.2020
3848 Clouds 18 1010 88 10000 8.2 20 18:39 28.01.2020
3849 Clouds 18 1010 88 10000 8.2 20 18:21 28.01.2020
3850 Clouds 18 1010 88 10000 8.2 10 17:57 28.01.2020
3851 Clouds 18 1010 88 10000 10.3 360 17:37 28.01.2020
3852 Clouds 18 1010 88 10000 10.3 360 17:19 28.01.2020
3853 Clouds 18 1010 88 10000 10.3 360 17:19 28.01.2020
3854 Clouds 18 1010 88 10000 10.3 360 17:19 28.01.2020
3855 Clouds 18 1011 88 10000 9.3 360 16:46 28.01.2020
3856 Clouds 19 1011 88 10000 8.7 10 16:27 28.01.2020
3857 Clouds 19 1011 93 10000 8.2 10 15:59 28.01.2020
3858 Clouds 18 1011 93 10000 8.2 10 15:41 28.01.2020
3859 Clouds 19 1011 93 10000 8.7 10 15:18 28.01.2020
3860 Clouds 19 1012 93 10000 7.7 10 14:45 28.01.2020
3861 Clouds 18 1012 93 10000 7.2 10 14:20 28.01.2020
3862 Clouds 19 1012 93 10000 7.2 10 13:57 28.01.2020
3863 Clouds 19 1013 100 10000 6.2 20 13:38 28.01.2020
3864 Clouds 19 1013 100 10000 6.2 20 13:19 28.01.2020
3865 Rain 19 1013 100 10000 6.2 20 12:42 28.01.2020
3866 Rain 19 1013 100 5000 5.7 10 12:22 28.01.2020
3867 Rain 19 1013 100 3300 5.1 10 11:48 28.01.2020
3868 Rain 19 1014 100 2300 2.6 20 11:23 28.01.2020
3869 Rain 19 1014 93 3200 1 340 10:58 28.01.2020
3870 Rain 19 1014 100 2200 0.5 310 10:39 28.01.2020
3871 Rain 19 1014 100 2200 0.5 310 10:20 28.01.2020
3872 Drizzle 18 1014 100 2500 1 220 09:42 28.01.2020
3873 Mist 19 1014 93 4400 3.6 220 09:21 28.01.2020
3874 Drizzle 18 1013 93 5000 2.1 220 08:56 28.01.2020
3875 Clouds 19 1014 88 9000 3.1 210 08:38 28.01.2020
3876 Clouds 19 1014 88 9000 3.1 210 08:18 28.01.2020
3877 Clouds 19 1014 88 10000 3.6 210 07:36 28.01.2020
3878 Clouds 20 1014 88 10000 3.6 210 06:49 28.01.2020
3879 Clouds 20 1014 88 10000 4.1 200 06:26 28.01.2020
3880 Clouds 21 1014 82 10000 5.1 180 05:54 28.01.2020
3881 Clouds 20 1014 88 10000 5.1 170 05:26 28.01.2020
3882 Clouds 23 1013 65 10000 7.7 360 03:59 28.01.2020
3883 Clouds 23 1013 65 10000 8.2 360 02:58 28.01.2020
3884 Clouds 23 1013 65 10000 7.2 360 02:25 28.01.2020
3885 Clouds 23 1013 69 10000 8.2 360 01:57 28.01.2020
3886 Clouds 23 1013 69 10000 8.7 360 01:23 28.01.2020
3887 Clouds 23 1014 69 10000 8.7 360 00:45 28.01.2020
3888 Clouds 24 1014 64 10000 9.8 360 00:24 28.01.2020
3889 Clouds 23 1014 69 10000 9.3 360 23:48 27.01.2020
3890 Clouds 23 1014 69 10000 9.3 10 23:29 27.01.2020
3891 Clouds 21 1014 68 10000 8.7 360 22:54 27.01.2020
3892 Clouds 21 1014 73 10000 8.7 10 22:36 27.01.2020
3893 Clouds 21 1014 73 10000 8.7 10 22:18 27.01.2020
3894 Clouds 20 1014 77 10000 10.3 10 21:40 27.01.2020
3895 Clouds 20 1014 77 10000 10.3 10 21:19 27.01.2020
3896 Clouds 19 1014 77 10000 9.8 10 20:59 27.01.2020
3897 Clouds 19 1014 82 10000 9.3 10 20:40 27.01.2020
3898 Clouds 19 1014 82 10000 9.3 10 20:21 27.01.2020
3899 Clouds 18 1014 82 10000 8.7 10 19:59 27.01.2020
3900 Clouds 18 1014 82 10000 8.7 10 19:40 27.01.2020
3901 Clouds 18 1014 82 10000 8.7 10 19:21 27.01.2020
3902 Clouds 18 1014 82 10000 8.7 10 18:56 27.01.2020
3903 Clouds 18 1013 82 10000 7.7 10 18:37 27.01.2020
3904 Clouds 18 1013 82 10000 7.7 10 18:37 27.01.2020
3905 Clouds 18 1013 82 10000 7.7 10 18:19 27.01.2020
3906 Clouds 18 1013 82 10000 10.3 10 17:39 27.01.2020
3907 Clouds 18 1013 82 10000 10.3 10 17:39 27.01.2020
3908 Clouds 18 1013 82 10000 10.3 10 17:19 27.01.2020
3909 Clouds 18 1013 82 10000 10.3 10 16:58 27.01.2020
3910 Clouds 18 1013 82 10000 9.8 10 16:40 27.01.2020
3911 Clouds 18 1013 82 10000 9.8 10 16:22 27.01.2020
3912 Clouds 18 1014 82 10000 10.8 10 15:55 27.01.2020
3913 Clouds 18 1014 82 10000 9.8 10 15:36 27.01.2020
3914 Clouds 18 1014 82 10000 9.8 10 15:18 27.01.2020
3915 Clouds 18 1014 82 10000 8.7 10 14:41 27.01.2020
3916 Clouds 18 1014 82 10000 9.3 360 14:22 27.01.2020
3917 Clouds 18 1014 82 10000 8.7 10 13:54 27.01.2020
3918 Clouds 18 1015 82 10000 9.3 360 13:36 27.01.2020
3919 Clouds 18 1015 82 10000 9.3 360 13:18 27.01.2020
3920 Clouds 18 1015 82 10000 10.3 360 12:42 27.01.2020
3921 Clouds 18 1014 82 10000 9.8 350 12:22 27.01.2020
3922 Clouds 18 1015 82 10000 8.2 10 11:55 27.01.2020
3923 Clouds 19 1014 88 10000 11.3 360 11:36 27.01.2020
3924 Clouds 19 1014 88 10000 11.3 360 11:18 27.01.2020
3925 Clouds 19 1014 88 10000 11.3 360 10:42 27.01.2020
3926 Clouds 19 1014 88 10000 11.8 360 10:23 27.01.2020
3927 Clouds 19 1014 88 10000 12.9 360 09:40 27.01.2020
3928 Clouds 19 1014 88 10000 12.9 360 09:19 27.01.2020
3929 Clouds 19 1014 88 10000 12.9 360 09:19 27.01.2020
3930 Clouds 19 1014 82 10000 10.8 360 08:58 27.01.2020
3931 Clouds 19 1014 82 10000 10.8 360 08:40 27.01.2020
3932 Clouds 19 1014 82 10000 10.8 360 08:19 27.01.2020
3933 Clouds 19 1014 82 10000 11.8 360 07:50 27.01.2020
3934 Clouds 19 1014 88 10000 11.3 360 07:32 27.01.2020
3935 Clouds 19 1014 88 10000 10.8 10 06:39 27.01.2020
3936 Clouds 19 1014 88 10000 11.3 360 05:51 27.01.2020
3937 Clouds 19 1014 88 10000 11.3 360 05:18 27.01.2020
3938 Clouds 21 1015 77 10000 11.8 10 03:35 27.01.2020
3939 Clouds 21 1016 77 10000 12.3 360 01:57 27.01.2020
3940 Clouds 20 1016 77 10000 12.9 10 01:28 27.01.2020
3941 Clouds 20 1016 77 10000 11.8 360 00:42 27.01.2020
3942 Clouds 20 1016 83 10000 10.8 10 00:22 27.01.2020
3943 Clouds 19 1016 82 10000 10.8 360 23:46 26.01.2020
3944 Clouds 19 1016 88 10000 11.3 360 23:27 26.01.2020
3945 Clouds 19 1016 93 10000 12.9 360 22:59 26.01.2020
3946 Drizzle 18 1016 93 6000 12.9 360 22:39 26.01.2020
3947 Drizzle 18 1016 93 6000 12.9 360 22:20 26.01.2020
3948 Rain 18 1016 93 7000 12.3 360 21:58 26.01.2020
3949 Drizzle 19 1016 93 6000 12.3 360 21:40 26.01.2020
3950 Drizzle 19 1016 93 6000 12.3 360 21:21 26.01.2020
3951 Rain 19 1015 93 7000 11.8 360 20:58 26.01.2020
3952 Drizzle 18 1015 93 8000 11.3 360 20:39 26.01.2020
3953 Drizzle 19 1015 93 8000 11.3 360 20:19 26.01.2020
3954 Clouds 19 1015 93 7000 11.3 10 19:59 26.01.2020
3955 Clouds 19 1015 93 7000 11.3 10 19:59 26.01.2020
3956 Clouds 19 1015 93 7000 11.3 10 19:59 26.01.2020
3957 Clouds 18 1015 93 10000 10.8 360 19:39 26.01.2020
3958 Rain 18 1015 93 10000 10.8 360 19:21 26.01.2020
3959 Rain 18 1015 93 10000 10.3 360 18:58 26.01.2020
3960 Rain 18 1015 93 10000 10.3 360 18:39 26.01.2020
3961 Rain 18 1015 93 10000 10.3 360 18:39 26.01.2020
3962 Rain 18 1015 93 10000 10.3 360 18:21 26.01.2020
3963 Rain 18 1015 88 10000 9.3 10 17:55 26.01.2020
3964 Rain 18 1016 88 10000 8.7 10 17:37 26.01.2020
3965 Rain 18 1016 88 10000 8.7 10 17:18 26.01.2020
3966 Rain 18 1016 88 10000 8.7 10 16:56 26.01.2020
3967 Rain 18 1016 93 10000 8.7 10 16:38 26.01.2020
3968 Clouds 18 1016 93 10000 8.7 10 16:19 26.01.2020
3969 Clouds 18 1016 93 10000 8.7 10 16:19 26.01.2020
3970 Clouds 18 1016 88 0 2.68 47 15:43 26.01.2020
3971 Clouds 18 1014 92 0 0.89 148 15:22 26.01.2020
3972 Rain 18 1014 92 0 0.89 4 14:58 26.01.2020
3973 Rain 18 1016 89 0 3.13 350 14:38 26.01.2020
3974 Rain 18 1014 91 0 0.89 351 14:19 26.01.2020
3975 Clear 18 1015 95 0 2.24 359 13:40 26.01.2020
3976 Clouds 18 1015 91 0 0.45 322 13:19 26.01.2020
3977 Clouds 18 1016 95 0 2.68 3 12:56 26.01.2020
3978 Clouds 18 1015 90 0 0.89 243 12:37 26.01.2020
3979 Clouds 19 1015 89 0 0.89 214 12:19 26.01.2020
3980 Clouds 19 1016 93 0 1.34 50 11:57 26.01.2020
3981 Clouds 19 1017 82 0 1.79 31 11:37 26.01.2020
3982 Clear 19 1017 82 10000 10.3 10 11:18 26.01.2020
3983 Clear 19 1017 82 10000 10.3 10 10:55 26.01.2020
3984 Clear 19 1017 82 10000 10.3 10 10:37 26.01.2020
3985 Clear 19 1017 82 10000 10.3 10 10:19 26.01.2020
3986 Clear 19 1017 82 10000 10.3 10 10:19 26.01.2020
3987 Clear 19 1017 82 10000 9.8 10 09:42 26.01.2020
3988 Clear 19 1017 82 10000 8.7 20 09:23 26.01.2020
3989 Clear 19 1016 88 10000 8.7 20 08:59 26.01.2020
3990 Clear 19 1016 88 10000 8.7 20 08:41 26.01.2020
3991 Clear 19 1016 88 10000 10.3 10 08:21 26.01.2020
3992 Clear 19 1016 88 10000 10.8 360 07:50 26.01.2020
3993 Clear 19 1016 82 10000 10.8 10 07:26 26.01.2020
3994 Clear 20 1016 82 10000 11.8 360 06:40 26.01.2020
3995 Clear 20 1016 73 10000 10.8 360 06:22 26.01.2020
3996 Clear 22 1016 64 10000 9.8 350 05:27 26.01.2020
3997 Clear 23 1017 61 10000 10.3 360 03:23 26.01.2020
3998 Clear 24 1017 61 10000 9.8 360 02:38 26.01.2020
3999 Clear 24 1017 61 10000 9.3 360 01:43 26.01.2020
4000 Clear 23 1018 64 10000 9.3 350 01:22 26.01.2020
4001 Clear 23 1018 64 10000 9.3 350 00:42 26.01.2020
4002 Clear 23 1018 64 10000 8.2 350 00:23 26.01.2020
4003 Clear 22 1016 77 0 2.24 338 23:39 25.01.2020
4004 Clear 21 1016 76 0 3.72 274 23:20 25.01.2020
4005 Clear 21 1017 79 0 1.34 345 22:56 25.01.2020
4006 Clear 21 1016 84 0 3.72 274 22:36 25.01.2020
4007 Clear 21 1016 85 0 3.72 274 22:18 25.01.2020
4008 Clear 20 1017 84 0 0.45 33 21:41 25.01.2020
4009 Clear 20 1017 86 0 0.45 7 21:23 25.01.2020
4010 Clear 20 1017 86 0 0.45 7 21:23 25.01.2020
4011 Clear 19 1017 88 0 3.72 274 20:56 25.01.2020
4012 Clear 19 1017 88 0 0.45 356 20:38 25.01.2020
4013 Clear 18 1016 92 0 3.02 301 20:19 25.01.2020
4014 Clear 17 1017 91 0 3.32 291 19:43 25.01.2020
4015 Clear 18 1018 83 0 0.45 353 19:20 25.01.2020
4016 Clear 17 1016 90 0 0.89 20 18:57 25.01.2020
4017 Clear 17 1016 90 0 0.89 20 18:57 25.01.2020
4018 Clear 17 1016 90 0 3.02 301 18:38 25.01.2020
4019 Clear 17 1015 97 0 3.32 291 18:20 25.01.2020
4020 Clear 18 1016 91 0 3.32 291 17:40 25.01.2020
4021 Clear 17 1015 96 0 4.21 285 17:20 25.01.2020
4022 Clear 18 1015 97 0 4.21 285 16:58 25.01.2020
4023 Clear 18 1016 92 0 4.21 285 16:38 25.01.2020
4024 Clear 18 1014 98 0 4.21 285 16:19 25.01.2020
4025 Clear 18 1017 84 0 0.45 13 15:47 25.01.2020
4026 Clear 18 1016 92 0 4.21 285 15:25 25.01.2020
4027 Clear 17 1014 98 0 4.21 285 14:57 25.01.2020
4028 Clear 18 1015 91 0 0.89 277 14:39 25.01.2020
4029 Clouds 18 1014 98 0 2.22 6 14:18 25.01.2020
4030 Clouds 17 1017 85 0 1.79 347 13:42 25.01.2020
4031 Clouds 17 1015 92 0 0.45 8 13:23 25.01.2020
4032 Clouds 18 1016 88 10000 6.7 350 12:45 25.01.2020
4033 Clouds 18 1016 88 10000 6.7 350 12:25 25.01.2020
4034 Clouds 18 1016 88 10000 6.7 350 11:45 25.01.2020
4035 Clouds 18 1016 88 10000 7.2 350 11:22 25.01.2020
4036 Clouds 18 1016 88 10000 7.7 360 10:59 25.01.2020
4037 Clouds 18 1016 88 10000 7.2 360 10:40 25.01.2020
4038 Clouds 18 1016 88 10000 7.2 360 10:20 25.01.2020
4039 Clouds 19 1015 88 10000 7.2 360 09:41 25.01.2020
4040 Clouds 19 1015 82 10000 6.2 360 09:22 25.01.2020
4041 Clouds 19 1015 82 10000 7.2 360 08:47 25.01.2020
4042 Clouds 19 1015 82 10000 8.7 360 08:28 25.01.2020
4043 Clouds 19 1015 82 10000 8.7 360 07:50 25.01.2020
4044 Clouds 20 1014 73 10000 8.2 20 06:54 25.01.2020
4045 Clouds 20 1014 73 10000 8.7 20 06:29 25.01.2020
4046 Clouds 21 1014 68 10000 8.2 20 05:48 25.01.2020
4047 Clouds 21 1014 64 10000 7.7 360 05:23 25.01.2020
4048 Clouds 23 1014 60 10000 8.7 360 03:53 25.01.2020
4049 Clouds 23 1015 60 10000 8.7 360 03:22 25.01.2020
4050 Clouds 23 1015 60 10000 9.8 360 02:22 25.01.2020
4051 Clouds 22 1015 60 10000 10.8 360 01:53 25.01.2020
4052 Clouds 21 1015 64 10000 11.3 360 00:44 25.01.2020
4053 Clouds 21 1015 72 10000 10.8 10 00:26 25.01.2020
4054 Clouds 20 1015 68 10000 10.3 10 23:59 24.01.2020
4055 Clouds 20 1015 68 10000 10.3 10 23:59 24.01.2020
4056 Clouds 20 1015 68 10000 10.3 10 23:40 24.01.2020
4057 Clouds 19 1016 72 10000 9.3 360 23:22 24.01.2020
4058 Clouds 19 1015 77 10000 9.3 10 22:45 24.01.2020
4059 Clouds 18 1016 82 10000 9.8 10 22:25 24.01.2020
4060 Clouds 18 1015 77 10000 9.3 10 21:56 24.01.2020
4061 Clouds 18 1015 77 10000 9.8 10 21:37 24.01.2020
4062 Clouds 18 1015 77 10000 9.8 10 21:18 24.01.2020
4063 Clouds 17 1015 77 10000 9.8 10 20:42 24.01.2020
4064 Clouds 17 1014 77 10000 9.3 10 20:21 24.01.2020
4065 Clouds 17 1015 77 10000 9.3 10 19:57 24.01.2020
4066 Clouds 17 1015 82 10000 8.7 10 19:39 24.01.2020
4067 Clouds 17 1015 82 10000 8.7 10 19:21 24.01.2020
4068 Clouds 17 1015 82 10000 8.7 10 18:43 24.01.2020
4069 Clouds 17 1014 77 10000 8.7 20 18:24 24.01.2020
4070 Clouds 17 1014 77 10000 11.8 10 17:56 24.01.2020
4071 Clouds 17 1014 77 10000 9.8 10 17:38 24.01.2020
4072 Clear 17 1014 77 10000 9.8 10 17:18 24.01.2020
4073 Clear 16 1015 77 10000 9.3 10 16:39 24.01.2020
4074 Clear 16 1015 77 10000 9.3 10 16:20 24.01.2020
4075 Clear 16 1015 77 10000 9.3 20 15:43 24.01.2020
4076 Clear 16 1015 77 10000 9.3 20 15:23 24.01.2020
4077 Clear 16 1015 77 10000 9.3 20 14:58 24.01.2020
4078 Clear 16 1015 77 10000 9.3 10 14:40 24.01.2020
4079 Clear 16 1015 77 10000 9.3 10 14:21 24.01.2020
4080 Clear 17 1015 82 10000 8.2 20 13:43 24.01.2020
4081 Clear 17 1015 77 10000 8.7 20 13:23 24.01.2020
4082 Clear 16 1015 77 10000 9.3 10 12:45 24.01.2020
4083 Clear 16 1015 77 10000 9.3 10 12:45 24.01.2020
4084 Clear 16 1016 77 10000 9.3 30 12:23 24.01.2020
4085 Clear 16 1016 77 10000 8.2 20 11:57 24.01.2020
4086 Clear 16 1016 82 10000 7.7 20 11:39 24.01.2020
4087 Clear 16 1016 82 10000 7.7 20 11:18 24.01.2020
4088 Clear 16 1016 82 10000 8.2 20 10:42 24.01.2020
4089 Clear 16 1016 82 10000 8.2 20 10:42 24.01.2020
4090 Clear 16 1016 82 10000 8.2 20 10:42 24.01.2020
4091 Clear 16 1016 82 10000 8.7 20 10:21 24.01.2020
4092 Clear 17 1016 77 10000 8.7 20 09:55 24.01.2020
4093 Clear 17 1015 77 10000 10.3 360 09:37 24.01.2020
4094 Clear 17 1015 77 10000 10.3 360 09:18 24.01.2020
4095 Clear 17 1015 77 10000 10.3 10 08:39 24.01.2020
4096 Clear 18 1015 77 10000 10.3 10 08:19 24.01.2020
4097 Clear 19 1014 77 10000 10.3 10 07:48 24.01.2020
4098 Clear 19 1014 77 10000 9.8 360 07:22 24.01.2020
4099 Clear 19 1015 77 10000 10.3 360 06:45 24.01.2020
4100 Clear 19 1015 77 10000 10.3 360 06:24 24.01.2020
4101 Clear 20 1014 60 10000 11.3 360 05:33 24.01.2020
4102 Clear 22 1016 60 10000 8.2 360 03:36 24.01.2020
4103 Clear 21 1016 68 10000 8.2 350 02:40 24.01.2020
4104 Clouds 21 1016 68 10000 8.2 350 02:21 24.01.2020
4105 Clouds 21 1016 73 10000 9.8 10 01:39 24.01.2020
4106 Clouds 21 1017 77 10000 8.7 10 00:52 24.01.2020
4107 Clouds 20 1017 77 10000 7.2 10 00:19 24.01.2020
4108 Clouds 20 1017 73 10000 6.2 360 23:42 23.01.2020
4109 Rain 19 1017 77 10000 5.7 350 23:23 23.01.2020
4110 Rain 18 1017 82 10000 4.6 350 22:58 23.01.2020
4111 Rain 18 1017 82 10000 5.7 360 22:37 23.01.2020
4112 Rain 18 1017 82 10000 5.7 360 22:37 23.01.2020
4113 Rain 18 1017 82 10000 5.7 360 22:37 23.01.2020
4114 Clouds 18 1017 82 10000 5.7 360 22:18 23.01.2020
4115 Clouds 18 1018 93 10000 3.6 10 21:55 23.01.2020
4116 Clouds 17 1017 93 10000 3.1 10 21:37 23.01.2020
4117 Clouds 17 1017 93 10000 3.1 10 21:19 23.01.2020
4118 Clouds 17 1017 93 10000 3.1 10 21:19 23.01.2020
4119 Clouds 17 1017 93 10000 1 350 20:55 23.01.2020
4120 Clouds 17 1017 100 10000 1 320 20:37 23.01.2020
4121 Clouds 17 1017 100 10000 1 320 20:18 23.01.2020
4122 Clouds 17 1017 93 10000 1.5 10 19:42 23.01.2020
4123 Clouds 16 1017 100 10000 1 160 19:23 23.01.2020
4124 Clouds 16 1017 100 10000 0.5 220 18:58 23.01.2020
4125 Clouds 16 1017 100 10000 1.5 200 18:38 23.01.2020
4126 Clouds 16 1017 100 10000 1.5 200 18:20 23.01.2020
4127 Clouds 16 1017 100 10000 1.5 230 17:55 23.01.2020
4128 Clouds 16 1017 100 10000 1 220 17:37 23.01.2020
4129 Rain 16 1017 100 10000 1 220 17:18 23.01.2020
4130 Rain 16 1017 100 3000 1.5 250 16:39 23.01.2020
4131 Rain 16 1017 100 3000 1.5 250 16:20 23.01.2020
4132 Drizzle 16 1017 100 3700 2.1 230 15:58 23.01.2020
4133 Drizzle 16 1017 100 3600 1.5 210 15:39 23.01.2020
4134 Drizzle 17 1017 100 3600 1.5 210 15:19 23.01.2020
4135 Drizzle 17 1017 100 2900 1.5 210 14:59 23.01.2020
4136 Drizzle 17 1017 100 2900 1.5 210 14:41 23.01.2020
4137 Drizzle 17 1017 100 2700 2.6 200 14:22 23.01.2020
4138 Drizzle 17 1017 100 2500 3.1 200 13:56 23.01.2020
4139 Rain 17 1017 100 2400 3.1 190 13:37 23.01.2020
4140 Rain 17 1017 100 2400 3.1 190 13:18 23.01.2020
4141 Rain 17 1017 93 2700 3.6 190 12:43 23.01.2020
4142 Rain 17 1017 93 4000 5.1 200 12:24 23.01.2020
4143 Rain 18 1017 100 8000 4.6 220 11:56 23.01.2020
4144 Rain 18 1017 93 6000 1 320 11:37 23.01.2020
4145 Rain 18 1017 93 6000 1 320 11:37 23.01.2020
4146 Rain 18 1017 93 6000 1 320 11:18 23.01.2020
4147 Clear 18 1017 100 10000 3.1 360 10:43 23.01.2020
4148 Clear 19 1016 88 10000 4.6 360 10:19 23.01.2020
4149 Clear 19 1015 88 10000 5.1 360 09:43 23.01.2020
4150 Clear 19 1015 82 10000 6.7 360 09:25 23.01.2020
4151 Clear 19 1014 82 10000 7.2 360 08:58 23.01.2020
4152 Clear 19 1014 82 10000 7.2 360 08:40 23.01.2020
4153 Clear 19 1014 82 10000 7.7 360 08:21 23.01.2020
4154 Clear 19 1014 82 10000 8.7 10 07:44 23.01.2020
4155 Clear 20 1014 82 10000 8.2 10 07:24 23.01.2020
4156 Clear 20 1013 77 10000 8.7 10 06:51 23.01.2020
4157 Clear 20 1013 83 10000 8.7 360 06:22 23.01.2020
4158 Clear 20 1014 82 10000 9.3 360 05:44 23.01.2020
4159 Clear 20 1014 77 10000 9.3 10 04:24 23.01.2020
4160 Clear 22 1014 64 10000 10.3 10 02:34 23.01.2020
4161 Clear 22 1014 64 10000 10.3 10 01:19 23.01.2020
4162 Clear 20 1014 73 10000 10.8 10 00:27 23.01.2020
4163 Clear 21 1014 73 10000 10.8 10 23:48 22.01.2020
4164 Clear 20 1014 73 10000 11.3 10 23:29 22.01.2020
4165 Clear 20 1014 73 10000 10.8 10 22:59 22.01.2020
4166 Clear 19 1014 72 10000 11.3 10 22:40 22.01.2020
4167 Clear 19 1014 72 10000 11.3 10 22:22 22.01.2020
4168 Clear 19 1014 77 10000 11.3 10 21:40 22.01.2020
4169 Clear 19 1014 77 10000 11.3 10 21:22 22.01.2020
4170 Clear 19 1014 82 10000 10.8 10 20:57 22.01.2020
4171 Clear 19 1013 82 10000 11.3 10 20:38 22.01.2020
4172 Clear 19 1013 82 10000 11.3 10 20:38 22.01.2020
4173 Clouds 18 1013 82 10000 11.3 10 20:20 22.01.2020
4174 Clouds 18 1013 82 10000 10.8 10 19:56 22.01.2020
4175 Clouds 17 1013 82 10000 10.3 10 19:38 22.01.2020
4176 Clouds 17 1013 82 10000 10.3 10 19:18 22.01.2020
4177 Clouds 17 1013 82 10000 11.3 10 18:56 22.01.2020
4178 Clouds 17 1013 82 10000 11.3 10 18:38 22.01.2020
4179 Clouds 17 1013 82 10000 11.3 10 18:19 22.01.2020
4180 Clouds 17 1013 82 10000 11.3 10 18:19 22.01.2020
4181 Clouds 17 1013 82 10000 11.8 10 17:54 22.01.2020
4182 Clouds 17 1013 82 10000 11.3 10 17:36 22.01.2020
4183 Clouds 17 1013 82 10000 11.3 10 17:18 22.01.2020
4184 Clouds 17 1013 82 10000 11.8 10 16:42 22.01.2020
4185 Clouds 17 1013 82 10000 9.3 20 16:22 22.01.2020
4186 Clouds 17 1013 82 10000 10.8 20 15:58 22.01.2020
4187 Clouds 17 1013 82 10000 11.3 10 15:38 22.01.2020
4188 Clouds 17 1013 82 10000 11.3 10 15:20 22.01.2020
4189 Clouds 17 1014 82 10000 11.3 10 14:40 22.01.2020
4190 Clouds 17 1014 82 10000 11.3 10 14:21 22.01.2020
4191 Clouds 17 1014 82 10000 12.3 10 13:59 22.01.2020
4192 Clouds 17 1014 82 10000 12.3 10 13:38 22.01.2020
4193 Clouds 17 1014 82 10000 12.3 10 13:20 22.01.2020
4194 Clouds 17 1014 82 10000 11.3 10 12:58 22.01.2020
4195 Clouds 17 1014 82 10000 11.8 360 12:40 22.01.2020
4196 Clouds 17 1014 82 10000 11.8 360 12:20 22.01.2020
4197 Clouds 17 1014 82 10000 12.3 360 11:58 22.01.2020
4198 Clouds 17 1013 82 10000 12.3 10 11:40 22.01.2020
4199 Clouds 17 1013 82 10000 12.3 10 11:19 22.01.2020
4200 Clouds 17 1013 82 10000 12.3 10 11:19 22.01.2020
4201 Clouds 17 1013 82 10000 10.3 10 10:59 22.01.2020
4202 Clouds 17 1013 82 10000 10.3 10 10:41 22.01.2020
4203 Clouds 17 1013 82 10000 11.8 10 10:18 22.01.2020
4204 Clouds 17 1013 82 10000 12.3 360 09:42 22.01.2020
4205 Clouds 17 1013 82 10000 11.8 10 09:24 22.01.2020
4206 Clouds 17 1013 82 10000 10.8 10 08:57 22.01.2020
4207 Clouds 17 1013 82 10000 11.3 10 08:38 22.01.2020
4208 Clouds 17 1013 82 10000 11.3 10 08:20 22.01.2020
4209 Rain 18 1013 82 10000 11.8 360 07:46 22.01.2020
4210 Clouds 18 1013 82 10000 13.4 360 07:27 22.01.2020
4211 Clouds 18 1013 77 10000 12.3 360 06:38 22.01.2020
4212 Clouds 19 1013 77 10000 12.3 360 06:20 22.01.2020
4213 Clouds 19 1013 77 10000 12.9 360 05:19 22.01.2020
4214 Clouds 20 1014 72 10000 12.3 10 03:29 22.01.2020
4215 Clouds 20 1014 72 10000 12.9 10 02:50 22.01.2020
4216 Clouds 19 1014 77 10000 11.8 10 01:42 22.01.2020
4217 Clouds 19 1015 72 10000 11.3 10 00:43 22.01.2020
4218 Clouds 18 1015 72 10000 12.3 10 00:25 22.01.2020
4219 Clouds 18 1015 72 10000 9.8 20 23:38 21.01.2020
4220 Clouds 18 1015 72 10000 9.8 20 23:38 21.01.2020
4221 Clouds 18 1015 72 10000 9.8 20 23:20 21.01.2020
4222 Clouds 18 1015 72 10000 11.8 10 22:55 21.01.2020
4223 Clouds 18 1015 68 10000 10.3 10 22:36 21.01.2020
4224 Clouds 18 1015 68 10000 10.3 10 22:18 21.01.2020
4225 Clouds 17 1015 68 10000 9.8 360 21:55 21.01.2020
4226 Clouds 17 1015 77 10000 10.3 10 21:36 21.01.2020
4227 Clouds 18 1015 77 10000 10.3 10 21:18 21.01.2020
4228 Clouds 17 1014 77 10000 8.7 360 20:39 21.01.2020
4229 Clouds 16 1014 77 10000 8.7 360 20:20 21.01.2020
4230 Clouds 16 1014 82 10000 8.2 10 19:59 21.01.2020
4231 Clouds 16 1014 82 10000 8.2 10 19:40 21.01.2020
4232 Clouds 16 1014 82 10000 8.2 10 19:21 21.01.2020
4233 Clouds 16 1014 87 10000 7.7 360 18:57 21.01.2020
4234 Clouds 16 1014 87 10000 7.7 360 18:39 21.01.2020
4235 Clouds 16 1014 87 10000 7.7 360 18:21 21.01.2020
4236 Clouds 16 1014 82 10000 7.7 350 17:59 21.01.2020
4237 Clouds 16 1014 82 10000 7.7 350 17:40 21.01.2020
4238 Clouds 16 1014 82 10000 7.2 350 17:18 21.01.2020
4239 Clouds 16 1014 82 10000 7.2 350 17:18 21.01.2020
4240 Clouds 16 1014 82 10000 6.7 350 16:55 21.01.2020
4241 Clouds 16 1014 88 10000 7.2 360 16:36 21.01.2020
4242 Clouds 16 1014 88 10000 7.2 360 16:18 21.01.2020
4243 Clouds 16 1014 82 10000 7.7 10 15:39 21.01.2020
4244 Clouds 16 1014 82 10000 7.7 10 15:19 21.01.2020
4245 Clouds 16 1014 82 10000 7.2 360 14:40 21.01.2020
4246 Clouds 16 1015 82 10000 7.7 360 14:22 21.01.2020
4247 Clouds 16 1015 88 10000 7.7 360 13:58 21.01.2020
4248 Clouds 16 1015 88 10000 7.2 360 13:38 21.01.2020
4249 Clouds 16 1015 88 10000 7.2 360 13:18 21.01.2020
4250 Clouds 16 1015 88 10000 7.2 10 12:42 21.01.2020
4251 Clouds 16 1015 88 10000 6.2 20 12:24 21.01.2020
4252 Clouds 16 1015 88 10000 6.7 10 11:56 21.01.2020
4253 Clouds 17 1015 82 10000 5.1 20 11:38 21.01.2020
4254 Clouds 17 1015 82 10000 5.1 20 11:19 21.01.2020
4255 Clouds 17 1015 77 10000 5.1 10 10:43 21.01.2020
4256 Clouds 17 1015 77 10000 4.1 360 10:23 21.01.2020
4257 Clouds 17 1014 68 10000 3.1 320 09:56 21.01.2020
4258 Clouds 17 1014 68 10000 3.1 320 09:56 21.01.2020
4259 Clouds 17 1014 72 10000 1.5 180 09:38 21.01.2020
4260 Clouds 18 1014 72 10000 1.5 180 09:20 21.01.2020
4261 Clouds 19 1014 68 10000 1.5 200 08:44 21.01.2020
4262 Clear 20 1013 64 10000 2.1 190 08:26 21.01.2020
4263 Clear 21 1013 68 10000 2.1 190 07:43 21.01.2020
4264 Clear 21 1013 72 10000 2.6 200 07:24 21.01.2020
4265 Clear 21 1013 72 10000 2.1 200 06:57 21.01.2020
4266 Clear 21 1013 72 10000 2.6 200 06:38 21.01.2020
4267 Clear 21 1014 72 10000 3.1 180 05:55 21.01.2020
4268 Clear 21 1014 72 10000 3.1 180 05:55 21.01.2020
4269 Clear 22 1014 77 10000 3.6 200 05:32 21.01.2020
4270 Clear 21 1015 77 10000 5.1 210 04:38 21.01.2020
4271 Clear 21 1016 77 10000 5.7 210 02:27 21.01.2020
4272 Clear 21 1016 72 10000 5.1 210 01:36 21.01.2020
4273 Clear 22 1016 77 10000 5.1 210 00:51 21.01.2020
4274 Clear 21 1016 77 10000 5.1 210 00:28 21.01.2020
4275 Clear 20 1017 82 10000 4.6 200 23:56 20.01.2020
4276 Clear 21 1017 93 10000 4.1 170 23:36 20.01.2020
4277 Clear 19 1017 93 10000 4.1 170 23:18 20.01.2020
4278 Haze 20 1016 93 3300 2.6 180 22:40 20.01.2020
4279 Haze 18 1016 93 3300 2.6 180 22:21 20.01.2020
4280 Clear 18 1017 93 10000 2.6 190 21:58 20.01.2020
4281 Mist 18 1016 100 3600 2.1 190 21:38 20.01.2020
4282 Mist 18 1016 100 3600 2.1 190 21:20 20.01.2020
4283 Fog 18 1016 100 800 1 200 20:59 20.01.2020
4284 Fog 17 1016 100 800 1 200 20:41 20.01.2020
4285 Fog 15 1016 100 400 1 240 20:20 20.01.2020
4286 Fog 15 1016 100 150 1.5 160 19:58 20.01.2020
4287 Fog 15 1016 100 150 1.5 160 19:40 20.01.2020
4288 Fog 14 1015 100 400 2.1 170 19:19 20.01.2020
4289 Clear 13 1015 93 10000 1 160 18:55 20.01.2020
4290 Clear 13 1015 93 10000 2.1 150 18:37 20.01.2020
4291 Clear 13 1015 93 10000 2.1 150 18:19 20.01.2020
4292 Clear 13 1015 93 10000 1 220 17:38 20.01.2020
4293 Clear 14 1015 93 10000 1 220 17:19 20.01.2020
4294 Clear 13 1015 100 10000 1 160 16:46 20.01.2020
4295 Clear 13 1015 93 10000 1 30 16:26 20.01.2020
4296 Clear 14 1015 93 10000 0.5 120 15:59 20.01.2020
4297 Clear 14 1015 93 10000 1 220 15:40 20.01.2020
4298 Clear 14 1015 93 10000 1 220 15:22 20.01.2020
4299 Clear 14 1015 93 10000 2.6 160 14:56 20.01.2020
4300 Clear 14 1015 93 10000 2.6 170 14:37 20.01.2020
4301 Clear 14 1015 93 10000 2.6 170 14:37 20.01.2020
4302 Clouds 14 1015 93 10000 2.6 170 14:19 20.01.2020
4303 Clouds 15 1015 93 10000 1 190 13:42 20.01.2020
4304 Clouds 15 1015 87 10000 0.5 260 13:24 20.01.2020
4305 Clouds 15 1015 87 10000 0.5 240 12:58 20.01.2020
4306 Clouds 15 1015 87 10000 0.5 220 12:40 20.01.2020
4307 Clouds 15 1015 87 10000 0.5 220 12:21 20.01.2020
4308 Clouds 16 1015 93 10000 1 250 11:43 20.01.2020
4309 Clouds 16 1015 87 10000 1.5 30 11:24 20.01.2020
4310 Clear 16 1015 93 10000 1.5 150 10:58 20.01.2020
4311 Clear 16 1015 87 10000 3.1 150 10:40 20.01.2020
4312 Clear 16 1015 87 10000 3.1 150 10:20 20.01.2020
4313 Clear 17 1014 87 10000 2.6 150 09:41 20.01.2020
4314 Clear 18 1014 77 10000 1.5 200 09:22 20.01.2020
4315 Clear 18 1014 82 10000 2.6 200 08:54 20.01.2020
4316 Clear 19 1014 82 10000 3.6 200 08:31 20.01.2020
4317 Clouds 20 1014 82 10000 3.6 210 07:55 20.01.2020
4318 Clouds 20 1014 77 10000 4.6 210 07:36 20.01.2020
4319 Clouds 20 1014 77 10000 4.6 210 07:18 20.01.2020
4320 Clouds 20 1014 77 10000 6.2 200 06:35 20.01.2020
4321 Clouds 22 1014 72 10000 6.2 190 05:56 20.01.2020
4322 Clouds 21 1014 77 10000 5.1 190 05:37 20.01.2020
4323 Clouds 21 1014 77 10000 5.1 190 05:18 20.01.2020
4324 Clouds 22 1015 82 10000 6.7 210 03:46 20.01.2020
4325 Clouds 21 1017 82 10000 6.2 180 01:58 20.01.2020
4326 Clouds 21 1017 77 10000 5.7 170 01:39 20.01.2020
4327 Clouds 23 1017 63 0 2.24 190 00:46 20.01.2020
4328 Clouds 21 1017 82 10000 4.1 200 00:27 20.01.2020
4329 Clouds 21 1017 88 10000 5.1 210 23:55 19.01.2020
4330 Clouds 20 1017 88 10000 4.6 200 23:36 19.01.2020
4331 Clouds 20 1017 88 10000 4.6 200 23:18 19.01.2020
4332 Clouds 20 1017 88 10000 4.6 210 22:54 19.01.2020
4333 Clouds 19 1017 88 10000 4.6 190 22:36 19.01.2020
4334 Clouds 19 1017 88 10000 4.6 190 22:18 19.01.2020
4335 Clouds 19 1017 93 10000 4.6 210 21:55 19.01.2020
4336 Clouds 19 1017 93 10000 4.6 210 21:55 19.01.2020
4337 Clouds 18 1017 93 10000 4.1 160 21:36 19.01.2020
4338 Clouds 18 1017 93 10000 4.1 160 21:18 19.01.2020
4339 Clouds 18 1017 93 10000 3.6 180 20:55 19.01.2020
4340 Clouds 16 1017 100 10000 4.1 200 20:37 19.01.2020
4341 Clouds 16 1017 100 10000 4.1 200 20:18 19.01.2020
4342 Clouds 16 1017 100 10000 5.7 210 19:54 19.01.2020
4343 Clouds 16 1017 100 9000 5.1 210 19:36 19.01.2020
4344 Clouds 15 1017 100 9000 5.1 210 19:18 19.01.2020
4345 Clouds 16 1017 100 10000 4.6 210 18:55 19.01.2020
4346 Clouds 15 1017 100 8000 5.1 190 18:36 19.01.2020
4347 Clouds 15 1017 100 8000 5.1 190 18:18 19.01.2020
4348 Clouds 15 1017 100 10000 5.7 200 17:56 19.01.2020
4349 Clouds 15 1017 100 6000 4.1 210 17:38 19.01.2020
4350 Clouds 15 1017 100 6000 4.1 210 17:18 19.01.2020
4351 Clouds 15 1016 93 10000 5.1 210 16:55 19.01.2020
4352 Clouds 15 1017 93 10000 4.6 200 16:36 19.01.2020
4353 Clouds 15 1017 93 10000 4.6 200 16:18 19.01.2020
4354 Clouds 16 1017 93 10000 5.7 210 15:54 19.01.2020
4355 Clouds 16 1017 93 10000 5.1 210 15:36 19.01.2020
4356 Clouds 16 1017 93 10000 5.1 210 15:18 19.01.2020
4357 Clouds 15 1017 93 10000 5.1 220 14:40 19.01.2020
4358 Clouds 16 1017 100 10000 5.1 210 14:20 19.01.2020
4359 Clouds 16 1017 100 10000 5.7 210 13:59 19.01.2020
4360 Clouds 16 1017 100 10000 5.1 210 13:40 19.01.2020
4361 Clouds 16 1017 100 10000 5.1 210 13:21 19.01.2020
4362 Clouds 15 1017 100 10000 5.1 210 12:59 19.01.2020
4363 Clouds 15 1017 100 10000 5.1 210 12:59 19.01.2020
4364 Clouds 15 1017 100 10000 5.1 210 12:40 19.01.2020
4365 Clouds 15 1017 100 10000 5.1 220 12:21 19.01.2020
4366 Clouds 15 1017 100 10000 4.6 210 11:57 19.01.2020
4367 Clouds 15 1017 100 10000 4.1 190 11:38 19.01.2020
4368 Clouds 16 1017 100 10000 4.1 190 11:18 19.01.2020
4369 Clouds 17 1017 100 10000 5.1 210 10:40 19.01.2020
4370 Clouds 17 1017 100 10000 5.1 210 10:21 19.01.2020
4371 Clouds 16 1017 100 10000 6.2 200 09:57 19.01.2020
4372 Clouds 16 1016 100 10000 7.2 190 09:38 19.01.2020
4373 Clouds 16 1016 100 10000 7.2 190 09:20 19.01.2020
4374 Clouds 16 1016 100 6000 7.2 200 08:55 19.01.2020
4375 Clear 17 1016 93 10000 6.7 210 08:33 19.01.2020
4376 Mist 18 1016 93 5000 6.2 210 07:58 19.01.2020
4377 Fog 19 1016 93 1300 7.2 210 07:29 19.01.2020
4378 Rain 19 1016 93 650 6.2 210 06:55 19.01.2020
4379 Fog 19 1016 93 1000 6.2 200 06:22 19.01.2020
4380 Mist 18 1017 93 1800 6.2 220 04:18 19.01.2020
4381 Clouds 18 1018 100 9000 5.1 210 02:34 19.01.2020
4382 Rain 18 1018 100 4800 5.7 210 01:43 19.01.2020
4383 Mist 17 1018 100 1600 6.7 210 01:20 19.01.2020
4384 Rain 17 1018 100 1900 7.2 210 00:44 19.01.2020
4385 Mist 17 1018 100 1900 6.7 210 00:24 19.01.2020
4386 Mist 17 1018 100 1900 6.7 210 23:54 18.01.2020
4387 Mist 17 1018 100 1400 6.2 210 23:36 18.01.2020
4388 Mist 17 1018 100 1400 6.2 210 23:18 18.01.2020
4389 Rain 15 1019 100 2500 6.7 210 22:41 18.01.2020
4390 Drizzle 15 1019 100 3500 6.7 200 22:23 18.01.2020
4391 Drizzle 16 1019 100 3300 6.7 210 21:58 18.01.2020
4392 Drizzle 16 1019 100 2600 5.1 200 21:39 18.01.2020
4393 Drizzle 16 1019 100 2600 5.1 200 21:20 18.01.2020
4394 Rain 16 1019 100 10000 5.1 190 20:57 18.01.2020
4395 Rain 16 1019 100 10000 5.1 190 20:57 18.01.2020
4396 Rain 15 1019 100 7000 4.1 180 20:39 18.01.2020
4397 Rain 15 1019 100 7000 4.1 180 20:39 18.01.2020
4398 Rain 14 1019 100 7000 4.1 180 20:19 18.01.2020
4399 Rain 14 1019 93 9000 5.1 200 19:43 18.01.2020
4400 Rain 14 1019 93 10000 5.7 200 19:24 18.01.2020
4401 Rain 14 1018 100 10000 5.7 190 18:43 18.01.2020
4402 Rain 13 1018 100 10000 5.7 200 18:25 18.01.2020
4403 Rain 14 1018 100 10000 4.6 200 17:59 18.01.2020
4404 Rain 14 1018 100 10000 4.6 190 17:40 18.01.2020
4405 Clouds 14 1018 100 10000 4.6 190 17:21 18.01.2020
4406 Rain 14 1018 100 5000 5.1 200 16:57 18.01.2020
4407 Rain 14 1018 100 5000 5.1 190 16:38 18.01.2020
4408 Rain 14 1018 100 5000 5.1 190 16:38 18.01.2020
4409 Rain 13 1018 100 5000 5.1 190 16:19 18.01.2020
4410 Drizzle 14 1018 100 3400 4.1 190 15:47 18.01.2020
4411 Drizzle 14 1018 100 3100 4.6 190 15:26 18.01.2020
4412 Clouds 14 1018 93 10000 5.1 180 14:59 18.01.2020
4413 Clouds 14 1018 93 10000 5.1 180 14:40 18.01.2020
4414 Clear 14 1018 87 10000 4.6 190 14:19 18.01.2020
4415 Clear 14 1018 87 10000 4.6 190 13:56 18.01.2020
4416 Clear 14 1018 87 10000 5.1 180 13:36 18.01.2020
4417 Clear 15 1018 87 10000 5.1 180 13:18 18.01.2020
4418 Clear 15 1018 87 10000 5.1 180 13:18 18.01.2020
4419 Clear 14 1018 93 10000 4.6 180 12:41 18.01.2020
4420 Clear 14 1018 87 10000 4.1 150 12:21 18.01.2020
4421 Clear 14 1018 87 10000 4.6 160 11:56 18.01.2020
4422 Clear 15 1018 87 10000 5.7 150 11:38 18.01.2020
4423 Clear 15 1018 87 10000 5.7 150 11:19 18.01.2020
4424 Clear 15 1018 93 10000 6.2 160 10:42 18.01.2020
4425 Clear 15 1018 87 10000 6.2 150 10:20 18.01.2020
4426 Clear 15 1018 87 10000 6.7 150 09:54 18.01.2020
4427 Clear 15 1017 87 10000 7.2 150 09:36 18.01.2020
4428 Clear 16 1017 82 10000 6.2 150 08:59 18.01.2020
4429 Clear 16 1017 82 10000 6.2 150 08:41 18.01.2020
4430 Clear 17 1017 82 10000 5.7 190 08:20 18.01.2020
4431 Clear 17 1017 82 10000 6.7 160 07:52 18.01.2020
4432 Clear 17 1017 82 10000 9.3 160 07:34 18.01.2020
4433 Clear 17 1017 87 10000 8.7 160 06:48 18.01.2020
4434 Clear 18 1018 77 10000 8.7 150 06:19 18.01.2020
4435 Clear 18 1018 77 10000 8.2 170 05:31 18.01.2020
4436 Clouds 19 1019 68 10000 7.2 160 03:46 18.01.2020
4437 Clouds 19 1019 72 10000 7.2 170 02:21 18.01.2020
4438 Clouds 19 1020 77 10000 6.7 170 01:36 18.01.2020
4439 Clouds 19 1020 77 10000 7.2 160 00:38 18.01.2020
4440 Clouds 19 1020 77 10000 7.2 160 00:19 18.01.2020
4441 Clouds 19 1020 77 10000 5.7 180 23:44 17.01.2020
4442 Clouds 17 1020 72 10000 6.2 160 23:21 17.01.2020
4443 Clouds 17 1020 67 10000 6.2 160 22:59 17.01.2020
4444 Clouds 18 1020 77 10000 6.7 160 22:40 17.01.2020
4445 Clouds 17 1020 77 10000 6.7 160 22:19 17.01.2020
4446 Clouds 17 1020 72 10000 4.1 180 21:42 17.01.2020
4447 Clouds 17 1020 63 10000 4.1 170 21:24 17.01.2020
4448 Clouds 16 1021 59 10000 3.6 170 20:59 17.01.2020
4449 Clouds 15 1021 59 10000 3.6 170 20:41 17.01.2020
4450 Clear 14 1021 62 10000 2.6 150 20:20 17.01.2020
4451 Clear 13 1021 62 10000 2.6 140 19:57 17.01.2020
4452 Clear 13 1021 67 10000 3.1 140 19:38 17.01.2020
4453 Clear 12 1021 67 10000 3.1 140 19:19 17.01.2020
4454 Clear 12 1020 67 10000 3.1 140 18:57 17.01.2020
4455 Clear 12 1020 66 10000 1.5 150 18:37 17.01.2020
4456 Clear 12 1020 66 10000 1.5 150 18:19 17.01.2020
4457 Clear 12 1020 76 10000 3.1 140 17:40 17.01.2020
4458 Clear 12 1020 76 10000 3.1 140 17:40 17.01.2020
4459 Clear 12 1020 76 10000 3.1 140 17:21 17.01.2020
4460 Clear 12 1020 76 10000 2.6 150 16:55 17.01.2020
4461 Clear 12 1020 82 10000 2.6 160 16:36 17.01.2020
4462 Clear 12 1020 82 10000 2.6 160 16:18 17.01.2020
4463 Clear 11 1021 81 10000 3.1 170 15:43 17.01.2020
4464 Clear 11 1021 81 10000 2.6 170 15:25 17.01.2020
4465 Clear 12 1021 71 10000 3.1 210 14:44 17.01.2020
4466 Clear 11 1021 81 10000 2.6 170 14:25 17.01.2020
4467 Clear 12 1021 71 10000 0.5 10 13:47 17.01.2020
4468 Clear 12 1021 71 10000 1 60 13:23 17.01.2020
4469 Clear 12 1021 66 10000 0.5 60 12:56 17.01.2020
4470 Clear 12 1021 66 10000 1 140 12:37 17.01.2020
4471 Clear 12 1021 66 10000 1 140 12:18 17.01.2020
4472 Clear 13 1021 62 10000 1.5 120 11:38 17.01.2020
4473 Clear 13 1021 62 10000 1.5 120 11:18 17.01.2020
4474 Clear 14 1021 58 10000 2.6 80 10:42 17.01.2020
4475 Clear 14 1021 58 10000 3.1 80 10:22 17.01.2020
4476 Clear 14 1020 55 10000 4.1 70 09:58 17.01.2020
4477 Clear 14 1020 63 10000 3.6 150 09:38 17.01.2020
4478 Clear 15 1020 63 10000 3.6 150 09:19 17.01.2020
4479 Clear 16 1020 67 10000 3.6 160 08:43 17.01.2020
4480 Clear 16 1020 67 10000 4.1 160 08:24 17.01.2020
4481 Clear 17 1020 67 10000 4.6 150 07:53 17.01.2020
4482 Clear 18 1020 59 10000 6.2 150 07:31 17.01.2020
4483 Clear 18 1020 55 10000 7.2 150 06:57 17.01.2020
4484 Clear 18 1020 52 10000 7.7 150 06:38 17.01.2020
4485 Clear 19 1021 48 10000 8.7 150 05:38 17.01.2020
4486 Clear 21 1019 59 0 2.24 217 03:39 17.01.2020
4487 Clear 20 1021 50 0 2.24 189 02:45 17.01.2020
4488 Clouds 20 1022 57 0 1.79 192 01:46 17.01.2020
4489 Clear 19 1018 59 0 0.45 185 01:27 17.01.2020
4490 Clear 19 1022 60 0 2.24 189 00:46 17.01.2020
4491 Clear 18 1022 82 10000 5.1 170 00:21 17.01.2020
4492 Clear 17 1022 82 10000 5.1 170 23:43 16.01.2020
4493 Clear 16 1022 82 10000 5.1 170 23:25 16.01.2020
4494 Clear 16 1023 82 10000 4.6 180 22:55 16.01.2020
4495 Clear 17 1023 82 10000 4.6 170 22:36 16.01.2020
4496 Clear 17 1023 82 10000 4.6 170 22:18 16.01.2020
4497 Clear 16 1023 82 10000 5.1 170 21:54 16.01.2020
4498 Clear 16 1023 82 10000 4.6 170 21:36 16.01.2020
4499 Clear 16 1023 82 10000 4.6 170 21:18 16.01.2020
4500 Clear 15 1022 82 10000 5.7 150 20:40 16.01.2020
4501 Clouds 14 1022 82 10000 5.7 150 20:20 16.01.2020
4502 Clouds 14 1022 87 10000 4.6 150 19:57 16.01.2020
4503 Clouds 13 1022 82 10000 4.1 150 19:39 16.01.2020
4504 Clouds 12 1018 99 0 2.96 103 19:20 16.01.2020
4505 Clouds 12 1022 93 10000 4.6 160 18:56 16.01.2020
4506 Clouds 12 1022 93 10000 4.1 160 18:37 16.01.2020
4507 Clouds 12 1022 93 10000 4.1 160 18:18 16.01.2020
4508 Clouds 12 1022 93 10000 4.1 160 18:18 16.01.2020
4509 Clouds 11 1020 92 0 2.96 103 17:56 16.01.2020
4510 Clouds 12 1022 87 10000 3.6 150 17:38 16.01.2020
4511 Clouds 12 1022 87 10000 3.6 150 17:20 16.01.2020
4512 Clouds 12 1022 87 10000 3.1 170 16:40 16.01.2020
4513 Clouds 12 1022 82 10000 2.6 190 16:21 16.01.2020
4514 Clouds 13 1022 82 10000 1.5 160 15:56 16.01.2020
4515 Clouds 13 1022 82 10000 1 130 15:38 16.01.2020
4516 Clouds 13 1022 82 10000 1 130 15:19 16.01.2020
4517 Clouds 13 1022 82 10000 3.1 160 14:42 16.01.2020
4518 Clouds 13 1022 87 10000 3.1 150 14:23 16.01.2020
4519 Clear 13 1023 82 10000 3.1 150 13:47 16.01.2020
4520 Clear 13 1023 87 10000 4.1 140 13:29 16.01.2020
4521 Clear 13 1023 82 10000 4.1 140 12:59 16.01.2020
4522 Clear 13 1023 82 10000 4.1 140 12:40 16.01.2020
4523 Clear 13 1023 87 10000 4.6 150 12:20 16.01.2020
4524 Clear 13 1023 87 10000 4.6 170 11:42 16.01.2020
4525 Clear 13 1023 87 10000 4.6 170 11:42 16.01.2020
4526 Clear 13 1023 87 10000 4.6 160 11:24 16.01.2020
4527 Clear 14 1023 87 10000 5.1 160 10:56 16.01.2020
4528 Clear 13 1023 87 10000 5.1 150 10:37 16.01.2020
4529 Clear 14 1023 87 10000 5.1 150 10:19 16.01.2020
4530 Clear 14 1023 82 10000 5.7 150 09:43 16.01.2020
4531 Clear 13 1023 87 10000 6.2 150 09:24 16.01.2020
4532 Clear 14 1023 87 10000 5.7 150 08:58 16.01.2020
4533 Clear 14 1023 82 10000 6.2 150 08:40 16.01.2020
4534 Clouds 15 1023 82 10000 6.2 150 08:20 16.01.2020
4535 Clouds 15 1023 82 10000 6.2 150 07:42 16.01.2020
4536 Clouds 15 1023 77 10000 6.7 160 07:24 16.01.2020
4537 Clouds 16 1023 77 10000 7.7 150 06:54 16.01.2020
4538 Clouds 16 1023 77 10000 7.7 160 06:34 16.01.2020
4539 Clouds 16 1023 72 10000 7.7 160 05:51 16.01.2020
4540 Clouds 16 1023 72 10000 8.2 160 04:51 16.01.2020
4541 Clouds 16 1023 72 10000 7.2 160 04:21 16.01.2020
4542 Clouds 17 1024 77 10000 6.7 160 03:27 16.01.2020
4543 Clouds 17 1024 77 10000 6.7 170 02:21 16.01.2020
4544 Clouds 16 1024 72 10000 6.7 170 00:43 16.01.2020
4545 Clouds 16 1024 72 10000 7.2 170 00:23 16.01.2020
4546 Clouds 16 1024 77 10000 6.7 170 23:45 15.01.2020
4547 Clouds 15 1024 72 10000 6.7 170 23:22 15.01.2020
4548 Clouds 15 1024 72 10000 6.7 170 22:57 15.01.2020
4549 Clouds 14 1024 76 10000 5.1 180 22:38 15.01.2020
4550 Clouds 15 1024 76 10000 5.1 180 22:18 15.01.2020
4551 Clouds 15 1024 76 10000 7.7 160 21:56 15.01.2020
4552 Clouds 15 1024 76 10000 6.7 160 21:37 15.01.2020
4553 Clouds 14 1024 76 10000 6.7 160 21:18 15.01.2020
4554 Clouds 14 1024 76 10000 7.7 160 20:55 15.01.2020
4555 Clouds 14 1024 71 10000 5.7 160 20:37 15.01.2020
4556 Clouds 13 1024 71 10000 5.7 160 20:18 15.01.2020
4557 Clouds 13 1024 76 10000 6.7 170 19:54 15.01.2020
4558 Clouds 13 1024 67 10000 7.2 150 19:36 15.01.2020
4559 Clouds 13 1024 67 10000 7.2 150 19:18 15.01.2020
4560 Clouds 13 1024 67 10000 7.2 150 19:18 15.01.2020
4561 Clouds 13 1023 67 10000 6.2 160 18:55 15.01.2020
4562 Clouds 13 1023 71 10000 6.2 160 18:37 15.01.2020
4563 Clouds 13 1023 71 10000 6.2 160 18:19 15.01.2020
4564 Clouds 13 1023 76 10000 6.7 170 17:42 15.01.2020
4565 Clouds 13 1023 58 10000 6.7 150 17:23 15.01.2020
4566 Clouds 13 1023 62 10000 6.7 150 16:59 15.01.2020
4567 Clouds 13 1023 62 10000 7.2 160 16:39 15.01.2020
4568 Clouds 13 1023 62 10000 7.2 160 16:21 15.01.2020
4569 Clouds 13 1024 71 10000 6.7 160 15:44 15.01.2020
4570 Clouds 13 1024 71 10000 6.2 160 15:21 15.01.2020
4571 Clouds 12 1024 71 10000 6.2 160 14:59 15.01.2020
4572 Clouds 12 1024 71 10000 6.2 160 14:41 15.01.2020
4573 Clouds 12 1024 76 10000 6.2 170 14:18 15.01.2020
4574 Clouds 12 1024 76 10000 6.7 160 13:46 15.01.2020
4575 Clouds 12 1024 71 10000 5.7 160 13:26 15.01.2020
4576 Clouds 12 1024 71 10000 5.7 160 12:59 15.01.2020
4577 Clouds 12 1024 66 10000 6.2 170 12:39 15.01.2020
4578 Clouds 13 1024 66 10000 6.2 170 12:19 15.01.2020
4579 Clouds 13 1024 58 10000 7.2 160 11:56 15.01.2020
4580 Clouds 13 1024 62 10000 7.2 160 11:37 15.01.2020
4581 Clouds 13 1024 62 10000 7.2 160 11:19 15.01.2020
4582 Clouds 13 1024 62 10000 6.2 140 10:42 15.01.2020
4583 Clouds 13 1024 67 10000 7.7 140 10:24 15.01.2020
4584 Clouds 13 1024 67 10000 7.7 150 09:42 15.01.2020
4585 Clouds 13 1023 67 10000 8.2 150 09:23 15.01.2020
4586 Clouds 13 1023 71 10000 8.7 150 08:56 15.01.2020
4587 Clouds 14 1023 71 10000 8.7 150 08:37 15.01.2020
4588 Clouds 15 1023 71 10000 8.7 150 08:19 15.01.2020
4589 Clouds 16 1023 67 10000 9.3 150 07:50 15.01.2020
4590 Clouds 16 1023 63 10000 9.3 150 07:29 15.01.2020
4591 Clouds 15 1023 67 10000 9.3 150 06:44 15.01.2020
4592 Clouds 16 1023 67 10000 9.3 160 06:18 15.01.2020
4593 Clouds 18 1023 59 10000 8.7 150 04:34 15.01.2020
4594 Clouds 18 1023 63 10000 7.7 160 02:30 15.01.2020
4595 Clouds 17 1024 55 10000 6.7 160 01:25 15.01.2020
4596 Clouds 18 1024 59 10000 5.7 170 00:45 15.01.2020
4597 Clouds 18 1024 63 10000 6.2 170 00:26 15.01.2020
4598 Clouds 18 1024 63 10000 6.7 170 23:48 14.01.2020
4599 Clouds 17 1024 67 10000 6.2 170 23:29 14.01.2020
4600 Clouds 15 1024 67 10000 6.2 170 22:59 14.01.2020
4601 Clouds 16 1024 62 10000 6.2 170 22:40 14.01.2020
4602 Clouds 15 1024 62 10000 6.2 170 22:19 14.01.2020
4603 Clouds 15 1024 62 10000 6.2 170 22:19 14.01.2020
4604 Clouds 16 1024 67 10000 6.7 170 21:58 14.01.2020
4605 Clouds 15 1024 67 10000 7.2 170 21:39 14.01.2020
4606 Clouds 15 1024 67 10000 7.2 170 21:21 14.01.2020
4607 Clouds 14 1024 71 10000 6.7 170 20:58 14.01.2020
4608 Clouds 14 1024 66 10000 5.7 180 20:39 14.01.2020
4609 Clouds 12 1024 66 10000 5.7 180 20:19 14.01.2020
4610 Clouds 12 1024 66 10000 5.7 180 19:55 14.01.2020
4611 Clouds 12 1024 66 10000 5.7 170 19:37 14.01.2020
4612 Clouds 10 1024 66 10000 5.7 170 19:18 14.01.2020
4613 Clouds 10 1024 66 10000 5.7 170 18:41 14.01.2020
4614 Clouds 10 1023 71 10000 5.1 160 18:20 14.01.2020
4615 Clouds 10 1023 71 10000 5.1 160 17:59 14.01.2020
4616 Clouds 10 1023 71 10000 4.6 170 17:37 14.01.2020
4617 Clouds 9 1023 71 10000 4.6 170 17:19 14.01.2020
4618 Clouds 9 1023 76 10000 4.6 160 16:55 14.01.2020
4619 Clouds 9 1023 76 10000 4.1 140 16:37 14.01.2020
4620 Clouds 9 1023 76 10000 4.1 140 16:18 14.01.2020
4621 Clouds 9 1023 76 10000 4.6 150 15:42 14.01.2020
4622 Clouds 9 1023 81 10000 2.6 160 15:19 14.01.2020
4623 Clouds 9 1024 81 10000 2.1 150 14:47 14.01.2020
4624 Clouds 10 1024 76 10000 2.1 150 14:23 14.01.2020
4625 Clear 10 1024 76 10000 2.6 160 13:59 14.01.2020
4626 Clear 10 1024 76 10000 2.6 160 13:59 14.01.2020
4627 Clear 10 1024 76 10000 2.6 160 13:40 14.01.2020
4628 Clear 10 1024 71 10000 2.1 150 13:19 14.01.2020
4629 Clear 10 1024 71 10000 3.1 140 12:42 14.01.2020
4630 Clear 11 1024 71 10000 3.1 140 12:23 14.01.2020
4631 Clear 11 1024 71 10000 4.1 140 11:57 14.01.2020
4632 Clear 12 1024 71 10000 4.1 150 11:38 14.01.2020
4633 Clear 12 1024 71 10000 4.1 150 11:20 14.01.2020
4634 Clear 12 1025 71 10000 5.1 160 10:55 14.01.2020
4635 Clear 13 1024 71 10000 5.1 160 10:36 14.01.2020
4636 Clear 13 1024 71 10000 5.1 160 10:18 14.01.2020
4637 Clear 13 1024 71 10000 5.1 160 10:18 14.01.2020
4638 Clear 13 1024 71 10000 6.2 150 09:42 14.01.2020
4639 Clear 13 1024 67 10000 6.2 160 09:22 14.01.2020
4640 Clear 13 1024 67 10000 6.2 160 08:57 14.01.2020
4641 Clear 14 1024 67 10000 6.2 160 08:39 14.01.2020
4642 Clouds 14 1024 67 10000 6.2 160 08:20 14.01.2020
4643 Clouds 16 1024 51 10000 5.7 160 07:40 14.01.2020
4644 Clouds 16 1024 51 10000 6.2 160 06:59 14.01.2020
4645 Clouds 16 1024 51 10000 6.2 160 06:59 14.01.2020
4646 Clouds 16 1024 51 10000 6.2 160 06:40 14.01.2020
4647 Clouds 17 1025 59 10000 7.7 160 05:35 14.01.2020
4648 Clouds 17 1025 59 10000 7.7 170 04:24 14.01.2020
4649 Clouds 18 1025 55 10000 8.2 160 03:45 14.01.2020
4650 Clouds 19 1025 59 10000 7.7 160 02:30 14.01.2020
4651 Clouds 17 1025 59 10000 7.7 160 01:18 14.01.2020
4652 Clouds 17 1026 67 10000 7.7 160 00:42 14.01.2020
4653 Clouds 17 1026 67 10000 8.2 150 00:21 14.01.2020
4654 Clouds 17 1026 67 10000 7.7 160 23:42 13.01.2020
4655 Clear 17 1026 67 10000 7.7 160 23:18 13.01.2020
4656 Clear 16 1026 67 10000 8.2 160 22:55 13.01.2020
4657 Clear 16 1026 67 10000 7.7 150 22:37 13.01.2020
4658 Clear 16 1026 67 10000 7.7 150 22:19 13.01.2020
4659 Clear 16 1026 67 10000 7.7 150 21:54 13.01.2020
4660 Clear 16 1026 67 10000 6.7 150 21:36 13.01.2020
4661 Clear 16 1026 67 10000 6.7 150 21:18 13.01.2020
4662 Clear 15 1026 71 10000 7.7 150 20:42 13.01.2020
4663 Clear 14 1026 71 10000 8.2 150 20:23 13.01.2020
4664 Clouds 14 1025 71 10000 7.7 150 19:59 13.01.2020
4665 Clouds 13 1025 71 10000 7.7 150 19:41 13.01.2020
4666 Clouds 13 1025 76 10000 7.2 150 19:20 13.01.2020
4667 Clouds 13 1025 76 10000 7.2 150 19:20 13.01.2020
4668 Clouds 13 1025 76 10000 7.2 160 18:58 13.01.2020
4669 Clouds 12 1025 76 10000 6.7 150 18:38 13.01.2020
4670 Clouds 12 1025 76 10000 6.7 150 18:19 13.01.2020
4671 Clouds 12 1025 76 10000 7.2 150 17:55 13.01.2020
4672 Clouds 13 1024 76 10000 6.7 160 17:36 13.01.2020
4673 Clouds 13 1024 76 10000 6.7 160 17:18 13.01.2020
4674 Clouds 13 1019 86 0 7.48 147 16:40 13.01.2020
4675 Clouds 13 1019 86 0 7.48 147 16:40 13.01.2020
4676 Clouds 13 1019 87 0 0.45 150 16:22 13.01.2020
4677 Clouds 13 1022 89 0 0.45 63 15:55 13.01.2020
4678 Clouds 13 1019 90 0 0.89 7 15:36 13.01.2020
4679 Clouds 13 1019 89 0 0.45 217 15:18 13.01.2020
4680 Clouds 13 1019 88 0 0.45 193 14:42 13.01.2020
4681 Clouds 13 1022 88 0 0.45 208 14:23 13.01.2020
4682 Clouds 13 1019 88 0 0.45 186 13:57 13.01.2020
4683 Clouds 13 1019 87 0 0.45 45 13:39 13.01.2020
4684 Clouds 13 1019 87 0 0.45 232 13:21 13.01.2020
4685 Clouds 13 1024 76 10000 7.7 170 12:54 13.01.2020
4686 Clouds 13 1024 76 10000 7.7 170 12:36 13.01.2020
4687 Clouds 13 1024 76 10000 7.7 170 12:18 13.01.2020
4688 Clouds 13 1024 76 10000 8.2 160 11:39 13.01.2020
4689 Clouds 13 1024 76 10000 8.2 160 11:19 13.01.2020
4690 Clouds 13 1023 82 10000 6.7 150 10:57 13.01.2020
4691 Clouds 13 1023 76 10000 6.7 150 10:38 13.01.2020
4692 Clouds 13 1023 76 10000 6.7 150 10:20 13.01.2020
4693 Clouds 13 1023 76 10000 6.7 160 09:55 13.01.2020
4694 Clouds 14 1022 76 10000 8.2 160 09:37 13.01.2020
4695 Clouds 14 1022 76 10000 8.2 160 09:19 13.01.2020
4696 Clouds 14 1022 82 10000 7.7 170 08:39 13.01.2020
4697 Clouds 14 1022 82 10000 7.7 170 08:20 13.01.2020
4698 Clouds 14 1022 82 10000 7.7 170 08:20 13.01.2020
4699 Clouds 15 1021 82 10000 8.7 170 07:46 13.01.2020
4700 Clouds 15 1021 77 10000 7.7 160 07:27 13.01.2020
4701 Clouds 15 1020 77 10000 8.2 170 06:40 13.01.2020
4702 Clouds 15 1020 77 10000 8.2 170 06:18 13.01.2020
4703 Clouds 16 1020 77 10000 7.2 180 05:20 13.01.2020
4704 Clouds 16 1019 77 10000 5.7 190 03:47 13.01.2020
4705 Clouds 16 1019 82 10000 6.2 190 02:51 13.01.2020
4706 Clouds 16 1019 82 10000 6.7 190 02:31 13.01.2020
4707 Rain 15 1018 82 10000 7.7 190 01:47 13.01.2020
4708 Rain 15 1018 93 9000 6.7 200 00:59 13.01.2020
4709 Rain 15 1018 87 9000 6.7 190 00:37 13.01.2020
4710 Rain 15 1018 87 9000 6.7 190 00:19 13.01.2020
4711 Rain 14 1017 87 9000 7.2 190 23:41 12.01.2020
4712 Rain 14 1017 87 9000 7.2 190 23:22 12.01.2020
4713 Rain 14 1017 87 9000 7.7 190 22:57 12.01.2020
4714 Rain 14 1017 93 8000 7.2 190 22:39 12.01.2020
4715 Rain 14 1017 93 8000 7.2 190 22:20 12.01.2020
4716 Rain 14 1017 93 5000 6.2 190 21:55 12.01.2020
4717 Rain 14 1017 93 7000 6.2 190 21:37 12.01.2020
4718 Rain 14 1017 93 7000 6.2 190 21:19 12.01.2020
4719 Rain 14 1016 93 9000 6.7 190 20:55 12.01.2020
4720 Rain 14 1015 100 3600 5.1 190 20:37 12.01.2020
4721 Rain 15 1015 100 3600 5.1 190 20:19 12.01.2020
4722 Rain 15 1015 100 3400 5.1 190 19:55 12.01.2020
4723 Rain 16 1014 100 2100 5.7 210 19:36 12.01.2020
4724 Rain 16 1014 100 2100 5.7 210 19:18 12.01.2020
4725 Rain 17 1013 93 8000 5.7 340 18:56 12.01.2020
4726 Rain 17 1013 93 6000 8.2 340 18:38 12.01.2020
4727 Rain 17 1013 93 6000 8.2 340 18:19 12.01.2020
4728 Rain 17 1013 93 7000 6.7 350 17:42 12.01.2020
4729 Drizzle 18 1013 93 4700 6.7 340 17:21 12.01.2020
4730 Rain 18 1013 93 10000 6.7 340 16:58 12.01.2020
4731 Rain 18 1013 93 10000 8.2 360 16:38 12.01.2020
4732 Rain 18 1013 93 10000 8.2 360 16:20 12.01.2020
4733 Rain 18 1013 93 7000 6.2 360 15:55 12.01.2020
4734 Rain 18 1013 93 7000 6.2 360 15:55 12.01.2020
4735 Clouds 18 1013 88 10000 11.3 360 15:36 12.01.2020
4736 Clouds 18 1013 88 10000 11.3 360 15:18 12.01.2020
4737 Clouds 18 1013 88 10000 8.2 340 14:42 12.01.2020
4738 Clouds 18 1013 88 10000 10.3 340 14:22 12.01.2020
4739 Clouds 18 1014 88 10000 9.3 330 13:56 12.01.2020
4740 Clouds 18 1014 88 10000 9.8 330 13:38 12.01.2020
4741 Clouds 18 1014 88 10000 9.8 330 13:20 12.01.2020
4742 Clouds 18 1013 88 10000 11.8 330 12:44 12.01.2020
4743 Clouds 18 1013 88 10000 12.3 340 12:21 12.01.2020
4744 Clouds 18 1013 88 10000 10.3 340 11:59 12.01.2020
4745 Clouds 18 1014 88 10000 9.8 330 11:40 12.01.2020
4746 Clouds 18 1014 88 10000 9.8 330 11:22 12.01.2020
4747 Clouds 18 1014 88 10000 10.3 330 10:56 12.01.2020
4748 Clouds 18 1014 82 10000 10.3 340 10:37 12.01.2020
4749 Clouds 18 1014 82 10000 10.3 340 10:18 12.01.2020
4750 Clouds 18 1013 82 10000 10.3 330 09:41 12.01.2020
4751 Clouds 18 1013 82 10000 9.8 330 09:21 12.01.2020
4752 Clouds 18 1013 82 10000 11.8 330 08:47 12.01.2020
4753 Clouds 18 1013 77 10000 9.3 330 08:22 12.01.2020
4754 Clouds 18 1012 77 10000 9.3 340 07:46 12.01.2020
4755 Clouds 18 1013 77 10000 10.3 330 07:25 12.01.2020
4756 Clouds 18 1013 77 10000 8.7 330 06:54 12.01.2020
4757 Clouds 18 1013 77 10000 9.8 330 06:35 12.01.2020
4758 Clouds 19 1013 72 10000 8.7 330 05:50 12.01.2020
4759 Clouds 19 1014 72 10000 11.3 340 04:54 12.01.2020
4760 Clouds 19 1013 72 10000 12.3 340 03:35 12.01.2020
4761 Clouds 19 1014 72 10000 10.3 350 02:43 12.01.2020
4762 Clouds 19 1014 72 10000 11.8 350 02:24 12.01.2020
4763 Clouds 18 1015 77 10000 10.3 360 01:31 12.01.2020
4764 Clouds 18 1014 77 10000 10.8 350 00:46 12.01.2020
4765 Clouds 18 1014 77 10000 10.8 340 00:22 12.01.2020
4766 Clouds 17 1014 77 10000 10.8 340 23:56 11.01.2020
4767 Clouds 17 1014 77 10000 11.8 350 23:38 11.01.2020
4768 Clouds 17 1014 77 10000 11.8 350 23:18 11.01.2020
4769 Clouds 17 1014 77 10000 12.3 350 22:56 11.01.2020
4770 Clouds 17 1014 77 10000 11.8 350 22:37 11.01.2020
4771 Clouds 17 1014 77 10000 11.8 350 22:18 11.01.2020
4772 Clouds 17 1014 77 10000 11.8 340 21:44 11.01.2020
4773 Clouds 17 1014 82 10000 12.9 340 21:19 11.01.2020
4774 Clouds 17 1014 82 10000 11.8 350 20:56 11.01.2020
4775 Clouds 17 1014 82 10000 10.8 350 20:37 11.01.2020
4776 Clouds 16 1014 82 10000 10.8 350 20:19 11.01.2020
4777 Clouds 16 1014 82 10000 9.8 350 19:55 11.01.2020
4778 Clouds 16 1014 82 10000 9.3 360 19:37 11.01.2020
4779 Clouds 16 1014 82 10000 9.3 360 19:19 11.01.2020
4780 Clouds 16 1014 82 10000 9.3 360 19:19 11.01.2020
4781 Clouds 16 1014 82 10000 8.7 360 18:55 11.01.2020
4782 Clouds 17 1013 77 10000 11.8 360 18:36 11.01.2020
4783 Clouds 17 1013 77 10000 11.8 360 18:18 11.01.2020
4784 Clouds 17 1013 77 10000 11.8 360 18:18 11.01.2020
4785 Clouds 17 1013 77 10000 12.3 350 17:55 11.01.2020
4786 Clouds 17 1013 77 10000 10.8 350 17:36 11.01.2020
4787 Clouds 17 1013 77 10000 10.8 350 17:18 11.01.2020
4788 Clouds 17 1013 77 10000 10.8 350 17:18 11.01.2020
4789 Clouds 17 1013 77 10000 9.8 350 16:43 11.01.2020
4790 Clouds 16 1014 77 10000 11.8 360 16:22 11.01.2020
4791 Clouds 16 1014 77 10000 10.3 350 15:42 11.01.2020
4792 Clouds 16 1014 77 10000 10.3 350 15:24 11.01.2020
4793 Clouds 16 1014 77 10000 11.3 340 14:58 11.01.2020
4794 Clouds 16 1014 77 10000 11.8 350 14:40 11.01.2020
4795 Clouds 16 1014 77 10000 11.8 350 14:22 11.01.2020
4796 Clouds 16 1014 77 10000 11.3 350 13:55 11.01.2020
4797 Clouds 16 1014 72 10000 13.4 350 13:37 11.01.2020
4798 Clouds 16 1014 72 10000 13.4 350 13:18 11.01.2020
4799 Clouds 16 1015 72 10000 11.8 340 12:44 11.01.2020
4800 Clouds 16 1014 72 10000 11.8 340 12:26 11.01.2020
4801 Clouds 16 1014 72 10000 11.8 340 11:55 11.01.2020
4802 Clouds 16 1014 72 10000 14.4 350 11:37 11.01.2020
4803 Clouds 16 1014 72 10000 14.4 350 11:18 11.01.2020
4804 Clouds 16 1014 72 10000 14.4 350 11:18 11.01.2020
4805 Clouds 16 1014 72 10000 12.3 340 10:43 11.01.2020
4806 Clouds 16 1014 72 10000 11.3 340 10:24 11.01.2020
4807 Clouds 16 1013 72 10000 10.3 340 09:40 11.01.2020
4808 Clouds 16 1013 72 10000 10.3 340 09:21 11.01.2020
4809 Clouds 16 1013 72 10000 8.7 350 08:43 11.01.2020
4810 Clouds 17 1014 72 10000 11.8 350 08:23 11.01.2020
4811 Clouds 17 1014 68 10000 11.3 340 07:45 11.01.2020
4812 Clouds 17 1014 68 10000 10.8 350 07:26 11.01.2020
4813 Clouds 17 1014 68 10000 10.8 350 07:26 11.01.2020
4814 Clouds 17 1014 68 10000 12.3 350 06:56 11.01.2020
4815 Clouds 18 1014 68 10000 11.3 330 06:28 11.01.2020
4816 Clouds 18 1014 68 10000 13.9 360 04:49 11.01.2020
4817 Clouds 18 1015 63 10000 13.9 360 04:30 11.01.2020
4818 Clouds 18 1015 63 10000 13.9 350 03:58 11.01.2020
4819 Clouds 18 1015 63 10000 15.9 360 02:43 11.01.2020
4820 Clouds 19 1016 59 10000 13.9 350 01:44 11.01.2020
4821 Clouds 19 1016 63 10000 13.9 360 01:21 11.01.2020
4822 Clouds 19 1016 63 10000 13.9 360 01:21 11.01.2020
4823 Clouds 19 1017 68 10000 11.8 350 00:47 11.01.2020
4824 Clouds 18 1017 63 10000 13.4 10 00:20 11.01.2020
4825 Clouds 19 1017 63 10000 13.4 10 23:41 10.01.2020
4826 Clouds 18 1017 63 10000 13.9 360 23:23 10.01.2020
4827 Clouds 18 1017 68 10000 12.9 360 22:59 10.01.2020
4828 Clouds 18 1018 68 10000 14.4 360 22:41 10.01.2020
4829 Clouds 17 1018 68 10000 14.4 360 22:21 10.01.2020
4830 Clouds 17 1018 72 10000 11.8 360 21:58 10.01.2020
4831 Clouds 17 1018 72 10000 11.3 10 21:39 10.01.2020
4832 Clouds 16 1018 72 10000 11.3 10 21:20 10.01.2020
4833 Clouds 16 1018 72 10000 11.3 360 20:55 10.01.2020
4834 Clouds 16 1018 72 10000 8.7 10 20:37 10.01.2020
4835 Clouds 15 1018 72 10000 8.7 10 20:19 10.01.2020
4836 Clouds 15 1018 77 10000 7.2 10 19:39 10.01.2020
4837 Clouds 15 1018 77 10000 7.2 10 19:20 10.01.2020
4838 Clouds 14 1018 77 10000 7.7 10 18:54 10.01.2020
4839 Clouds 14 1018 77 10000 7.2 10 18:36 10.01.2020
4840 Clouds 14 1018 77 10000 7.2 10 18:18 10.01.2020
4841 Clouds 14 1018 77 10000 7.7 30 17:55 10.01.2020
4842 Clouds 14 1018 77 10000 6.7 20 17:37 10.01.2020
4843 Clouds 14 1018 77 10000 6.7 20 17:18 10.01.2020
4844 Clouds 14 1018 77 10000 7.7 10 16:41 10.01.2020
4845 Clouds 14 1018 77 10000 7.7 10 16:21 10.01.2020
4846 Clouds 14 1018 77 10000 7.7 10 16:21 10.01.2020
4847 Clouds 14 1018 77 10000 7.2 20 15:56 10.01.2020
4848 Clouds 14 1019 77 10000 6.7 10 15:37 10.01.2020
4849 Clouds 14 1019 77 10000 6.7 10 15:19 10.01.2020
4850 Clouds 14 1019 72 10000 7.2 20 14:57 10.01.2020
4851 Clouds 14 1020 77 10000 7.7 10 14:38 10.01.2020
4852 Clouds 14 1020 77 10000 7.7 10 14:19 10.01.2020
4853 Clouds 14 1020 77 10000 7.2 10 13:45 10.01.2020
4854 Clouds 14 1020 77 10000 7.7 360 13:27 10.01.2020
4855 Clouds 14 1020 82 10000 6.7 360 12:59 10.01.2020
4856 Clouds 14 1020 77 10000 6.2 360 12:40 10.01.2020
4857 Clouds 14 1020 77 10000 6.2 360 12:21 10.01.2020
4858 Clouds 15 1020 77 10000 5.7 360 11:57 10.01.2020
4859 Clouds 15 1020 77 10000 5.7 360 11:39 10.01.2020
4860 Clouds 15 1020 77 10000 5.7 360 11:19 10.01.2020
4861 Clouds 15 1020 77 10000 5.1 350 10:58 10.01.2020
4862 Clouds 15 1019 77 10000 4.1 350 10:38 10.01.2020
4863 Clouds 15 1019 77 10000 4.1 350 10:18 10.01.2020
4864 Clouds 16 1019 77 10000 4.1 350 09:45 10.01.2020
4865 Clouds 16 1019 77 10000 4.6 360 09:26 10.01.2020
4866 Clouds 16 1019 72 10000 3.6 350 08:56 10.01.2020
4867 Clouds 17 1019 68 10000 3.1 330 08:37 10.01.2020
4868 Clouds 17 1019 68 10000 3.1 330 08:37 10.01.2020
4869 Clouds 17 1019 68 10000 3.1 330 08:18 10.01.2020
4870 Clouds 17 1018 72 10000 4.1 360 07:41 10.01.2020
4871 Clouds 18 1018 59 10000 4.1 330 07:19 10.01.2020
4872 Clouds 18 1018 52 10000 4.6 340 06:37 10.01.2020
4873 Clouds 19 1018 52 10000 4.6 340 06:19 10.01.2020
4874 Clouds 19 1018 77 10000 3.1 200 05:19 10.01.2020
4875 Clouds 20 1018 72 10000 3.6 210 03:32 10.01.2020
4876 Clouds 19 1018 72 10000 4.1 200 02:52 10.01.2020
4877 Clouds 19 1018 72 10000 4.1 180 02:20 10.01.2020
4878 Clouds 19 1019 72 10000 2.6 200 01:32 10.01.2020
4879 Clouds 20 1019 72 10000 3.6 200 00:51 10.01.2020
4880 Clouds 20 1019 72 10000 3.6 200 00:33 10.01.2020
4881 Clouds 19 1019 72 10000 2.6 200 23:57 09.01.2020
4882 Clouds 19 1019 72 10000 2.6 200 23:57 09.01.2020
4883 Clouds 19 1019 77 10000 4.6 220 23:36 09.01.2020
4884 Clouds 18 1019 77 10000 4.6 220 23:18 09.01.2020
4885 Clouds 18 1019 77 10000 4.6 220 22:56 09.01.2020
4886 Clouds 18 1019 77 10000 3.6 200 22:37 09.01.2020
4887 Clouds 18 1019 77 10000 3.6 200 22:18 09.01.2020
4888 Clouds 18 1019 77 10000 3.6 200 21:54 09.01.2020
4889 Clouds 18 1019 77 10000 2.6 200 21:36 09.01.2020
4890 Clouds 17 1019 77 10000 2.6 200 21:18 09.01.2020
4891 Clouds 17 1018 77 10000 2.6 190 20:54 09.01.2020
4892 Clouds 16 1018 77 10000 1.5 200 20:36 09.01.2020
4893 Clouds 15 1018 77 10000 1.5 200 20:18 09.01.2020
4894 Clouds 14 1018 82 10000 2.6 220 19:39 09.01.2020
4895 Clouds 13 1018 82 10000 3.1 190 19:20 09.01.2020
4896 Clouds 13 1017 87 10000 5.1 200 18:57 09.01.2020
4897 Clouds 13 1017 87 10000 5.1 200 18:39 09.01.2020
4898 Clouds 13 1017 82 10000 2.6 360 18:20 09.01.2020
4899 Clouds 12 1017 82 10000 1 320 17:41 09.01.2020
4900 Clear 13 1016 87 10000 1.5 30 17:19 09.01.2020
4901 Clear 13 1016 82 10000 2.1 350 16:59 09.01.2020
4902 Clear 13 1016 82 10000 2.1 350 16:41 09.01.2020
4903 Clear 13 1016 82 10000 3.6 10 16:21 09.01.2020
4904 Clear 14 1016 82 10000 3.6 360 15:43 09.01.2020
4905 Clear 14 1016 82 10000 3.6 20 15:23 09.01.2020
4906 Clear 14 1016 77 10000 4.1 20 14:58 09.01.2020
4907 Clear 14 1016 77 10000 4.1 20 14:40 09.01.2020
4908 Clouds 15 1016 77 10000 4.6 20 14:19 09.01.2020
4909 Clouds 15 1016 72 10000 4.1 20 13:55 09.01.2020
4910 Clouds 15 1016 72 10000 4.1 20 13:37 09.01.2020
4911 Clouds 15 1016 72 10000 5.1 10 13:18 09.01.2020
4912 Clouds 14 1016 77 10000 5.7 10 12:55 09.01.2020
4913 Clouds 14 1016 77 10000 5.7 10 12:37 09.01.2020
4914 Clouds 14 1016 77 10000 6.2 10 12:18 09.01.2020
4915 Clouds 15 1016 72 10000 6.7 10 11:42 09.01.2020
4916 Clouds 15 1016 77 10000 8.7 360 11:24 09.01.2020
4917 Clouds 15 1016 77 10000 8.2 360 10:57 09.01.2020
4918 Clouds 15 1016 77 10000 8.2 360 10:57 09.01.2020
4919 Clouds 15 1016 77 10000 8.2 360 10:39 09.01.2020
4920 Clouds 15 1016 77 10000 7.7 10 10:20 09.01.2020
4921 Clouds 16 1015 72 10000 8.7 10 09:41 09.01.2020
4922 Clouds 16 1015 59 10000 7.2 10 09:23 09.01.2020
4923 Clouds 16 1015 59 10000 7.2 10 08:57 09.01.2020
4924 Clouds 17 1015 59 10000 7.2 10 08:38 09.01.2020
4925 Clouds 17 1015 52 10000 7.7 10 08:20 09.01.2020
4926 Clouds 18 1015 48 10000 8.2 10 07:46 09.01.2020
4927 Clouds 18 1015 48 10000 8.2 360 07:28 09.01.2020
4928 Clouds 19 1015 42 10000 7.7 360 06:40 09.01.2020
4929 Clouds 19 1015 42 10000 8.2 360 06:21 09.01.2020
4930 Clouds 19 1015 45 10000 8.2 350 05:51 09.01.2020
4931 Clouds 20 1015 52 10000 7.7 360 04:54 09.01.2020
4932 Clouds 20 1015 52 10000 7.7 360 04:36 09.01.2020
4933 Clouds 20 1015 49 10000 7.2 340 03:26 09.01.2020
4934 Clouds 19 1015 49 10000 6.7 340 02:46 09.01.2020
4935 Clear 19 1016 45 10000 7.2 340 01:41 09.01.2020
4936 Clear 19 1016 59 10000 7.2 330 00:57 09.01.2020
4937 Clear 19 1016 59 10000 7.2 330 00:37 09.01.2020
4938 Clear 19 1016 55 10000 6.2 340 00:19 09.01.2020
4939 Clear 19 1016 59 10000 6.7 340 23:39 08.01.2020
4940 Clear 19 1015 55 10000 6.7 360 23:20 08.01.2020
4941 Clear 18 1015 59 10000 7.2 10 22:40 08.01.2020
4942 Clear 18 1015 59 10000 7.2 10 22:22 08.01.2020
4943 Clear 17 1015 63 10000 7.2 20 21:58 08.01.2020
4944 Clear 17 1015 63 10000 7.2 20 21:40 08.01.2020
4945 Clear 16 1015 63 10000 7.2 10 21:21 08.01.2020
4946 Clear 16 1015 67 10000 5.7 30 20:59 08.01.2020
4947 Clear 16 1015 67 10000 5.7 30 20:41 08.01.2020
4948 Clouds 15 1015 67 10000 5.7 40 20:21 08.01.2020
4949 Clouds 14 1015 82 10000 5.1 30 19:58 08.01.2020
4950 Clouds 14 1015 82 10000 5.1 30 19:38 08.01.2020
4951 Clouds 13 1014 76 10000 4.6 30 19:19 08.01.2020
4952 Clouds 13 1014 82 10000 5.1 20 18:58 08.01.2020
4953 Clouds 13 1014 82 10000 5.1 20 18:39 08.01.2020
4954 Clouds 13 1014 82 10000 5.1 20 18:39 08.01.2020
4955 Clouds 13 1014 82 10000 5.7 10 18:19 08.01.2020
4956 Clouds 13 1014 82 10000 5.7 20 17:56 08.01.2020
4957 Clouds 13 1014 82 10000 5.7 20 17:38 08.01.2020
4958 Clouds 13 1014 82 10000 5.7 20 17:19 08.01.2020
4959 Clouds 13 1014 82 10000 5.7 30 16:55 08.01.2020
4960 Clouds 13 1014 82 10000 5.7 30 16:37 08.01.2020
4961 Clouds 13 1015 82 10000 4.6 20 16:18 08.01.2020
4962 Clouds 12 1015 82 10000 4.1 10 15:44 08.01.2020
4963 Clouds 12 1015 82 10000 4.6 10 15:21 08.01.2020
4964 Clouds 12 1015 82 10000 3.6 20 14:58 08.01.2020
4965 Clouds 12 1015 82 10000 3.6 20 14:58 08.01.2020
4966 Clouds 12 1015 82 10000 3.6 20 14:40 08.01.2020
4967 Clouds 12 1015 82 10000 4.1 360 14:20 08.01.2020
4968 Clouds 12 1016 71 10000 3.1 30 13:41 08.01.2020
4969 Clouds 12 1016 71 10000 3.1 20 13:21 08.01.2020
4970 Clouds 12 1016 71 10000 3.1 20 13:21 08.01.2020
4971 Clouds 12 1016 71 10000 2.6 20 12:54 08.01.2020
4972 Clouds 13 1016 71 10000 2.6 20 12:36 08.01.2020
4973 Clouds 12 1016 67 10000 3.1 360 12:18 08.01.2020
4974 Clouds 13 1016 71 10000 2.1 20 11:47 08.01.2020
4975 Clouds 13 1016 67 10000 2.1 360 11:19 08.01.2020
4976 Clouds 13 1016 67 10000 1 350 10:58 08.01.2020
4977 Clouds 13 1016 67 10000 1 350 10:40 08.01.2020
4978 Clouds 14 1016 67 10000 1.5 300 10:19 08.01.2020
4979 Clouds 14 1016 62 10000 1.5 290 09:42 08.01.2020
4980 Clouds 15 1015 67 10000 1.5 210 09:20 08.01.2020
4981 Clouds 15 1015 62 10000 2.1 200 08:58 08.01.2020
4982 Clouds 15 1015 62 10000 2.1 200 08:39 08.01.2020
4983 Clouds 15 1015 62 10000 2.1 190 08:20 08.01.2020
4984 Clouds 15 1015 58 10000 2.6 190 07:51 08.01.2020
4985 Clouds 16 1015 58 10000 2.6 190 07:33 08.01.2020
4986 Clouds 16 1015 62 10000 4.1 170 06:58 08.01.2020
4987 Clouds 16 1015 62 10000 4.1 170 06:40 08.01.2020
4988 Clouds 17 1015 62 10000 4.6 170 05:54 08.01.2020
4989 Clouds 17 1016 59 10000 5.1 180 05:25 08.01.2020
4990 Clouds 17 1016 59 10000 4.6 170 04:35 08.01.2020
4991 Clouds 17 1017 55 10000 5.1 190 02:45 08.01.2020
4992 Clouds 17 1017 55 10000 5.1 190 02:27 08.01.2020
4993 Clouds 16 1017 51 10000 4.6 180 01:52 08.01.2020
4994 Clouds 16 1017 51 10000 4.6 170 01:26 08.01.2020
4995 Clouds 16 1017 51 10000 5.1 160 00:42 08.01.2020
4996 Clouds 16 1017 54 10000 4.6 160 00:21 08.01.2020
4997 Clouds 16 1017 54 10000 5.1 150 23:44 07.01.2020
4998 Clouds 16 1017 59 10000 5.1 150 23:20 07.01.2020
4999 Clouds 15 1017 62 10000 5.1 160 22:41 07.01.2020
5000 Clouds 15 1017 58 10000 5.7 160 22:21 07.01.2020
5001 Clouds 15 1017 62 10000 4.6 170 21:57 07.01.2020
5002 Clouds 14 1017 62 10000 4.6 170 21:39 07.01.2020
5003 Clouds 14 1017 62 10000 4.6 160 21:21 07.01.2020
5004 Clouds 14 1017 62 10000 4.6 160 21:21 07.01.2020
5005 Clouds 14 1017 62 10000 4.6 160 20:57 07.01.2020
5006 Clouds 14 1017 62 10000 4.6 160 20:38 07.01.2020
5007 Clouds 13 1016 58 10000 5.1 160 20:20 07.01.2020
5008 Clouds 13 1016 62 10000 5.1 150 19:55 07.01.2020
5009 Clouds 13 1016 62 10000 5.1 150 19:36 07.01.2020
5010 Clouds 13 1016 62 10000 5.7 150 19:18 07.01.2020
5011 Clouds 13 1016 62 10000 5.7 150 19:18 07.01.2020
5012 Clouds 12 1016 66 10000 5.7 150 18:55 07.01.2020
5013 Clouds 13 1016 66 10000 5.7 150 18:36 07.01.2020
5014 Clouds 12 1015 66 10000 5.7 160 18:18 07.01.2020
5015 Clouds 12 1015 66 10000 6.2 170 17:40 07.01.2020
5016 Clouds 13 1015 67 10000 5.7 180 17:22 07.01.2020
5017 Clouds 12 1015 71 10000 6.2 170 16:57 07.01.2020
5018 Clouds 13 1015 71 10000 6.2 170 16:38 07.01.2020
5019 Clouds 13 1015 71 10000 6.2 170 16:38 07.01.2020
5020 Clouds 13 1015 71 10000 6.2 170 16:38 07.01.2020
5021 Clouds 12 1014 66 10000 6.7 170 16:19 07.01.2020
5022 Clouds 12 1014 66 10000 6.7 170 15:59 07.01.2020
5023 Clouds 13 1014 66 10000 6.7 170 15:40 07.01.2020
5024 Clouds 12 1014 66 10000 6.2 160 15:22 07.01.2020
5025 Clouds 13 1015 66 10000 6.2 160 14:55 07.01.2020
5026 Clouds 13 1015 66 10000 6.2 160 14:37 07.01.2020
5027 Clouds 13 1015 66 10000 6.7 170 14:18 07.01.2020
5028 Clouds 12 1014 62 10000 7.2 170 13:40 07.01.2020
5029 Clouds 12 1014 58 10000 7.2 170 13:19 07.01.2020
5030 Clouds 12 1014 62 10000 6.7 170 12:42 07.01.2020
5031 Clouds 12 1014 62 10000 6.7 170 12:42 07.01.2020
5032 Clouds 12 1014 58 10000 5.7 180 12:21 07.01.2020
5033 Clouds 12 1014 62 10000 5.1 170 11:58 07.01.2020
5034 Clouds 13 1014 62 10000 5.1 170 11:38 07.01.2020
5035 Clouds 13 1014 62 10000 5.7 170 11:20 07.01.2020
5036 Rain 13 1014 67 10000 5.1 190 10:42 07.01.2020
5037 Rain 13 1014 62 10000 5.7 180 10:24 07.01.2020
5038 Clouds 13 1013 54 10000 6.7 180 09:59 07.01.2020
5039 Clouds 13 1013 54 10000 6.7 180 09:38 07.01.2020
5040 Clouds 13 1012 62 10000 6.2 170 09:20 07.01.2020
5041 Clouds 13 1012 62 10000 7.7 170 08:46 07.01.2020
5042 Clouds 14 1012 62 10000 8.2 170 08:26 07.01.2020
5043 Clouds 14 1011 62 10000 7.7 180 07:54 07.01.2020
5044 Clouds 14 1011 67 10000 6.7 170 07:28 07.01.2020
5045 Clouds 14 1011 62 10000 6.7 170 06:54 07.01.2020
5046 Clouds 15 1011 62 10000 6.7 170 06:34 07.01.2020
5047 Clouds 16 1011 59 10000 7.7 170 05:55 07.01.2020
5048 Clouds 17 1011 59 10000 7.7 170 04:41 07.01.2020
5049 Clouds 17 1011 59 10000 7.7 170 04:41 07.01.2020
5050 Clouds 17 1010 63 10000 8.2 170 03:29 07.01.2020
5051 Clouds 17 1010 67 10000 8.7 180 02:22 07.01.2020
5052 Clouds 17 1010 63 10000 8.2 180 01:54 07.01.2020
5053 Clouds 18 1009 59 10000 9.8 180 01:30 07.01.2020
5054 Clouds 18 1009 67 10000 8.7 170 00:37 07.01.2020
5055 Clouds 18 1009 63 10000 8.7 180 00:18 07.01.2020
5056 Clouds 18 1009 63 10000 9.8 170 23:55 06.01.2020
5057 Clouds 18 1009 63 10000 9.8 170 23:36 06.01.2020
5058 Clouds 18 1008 59 10000 8.7 190 23:18 06.01.2020
5059 Rain 17 1008 63 10000 10.8 200 22:42 06.01.2020
5060 Rain 17 1008 63 10000 8.7 200 22:22 06.01.2020
5061 Rain 17 1007 63 10000 8.2 190 21:56 06.01.2020
5062 Clouds 17 1007 63 10000 8.2 190 21:38 06.01.2020
5063 Clouds 16 1007 63 10000 6.7 200 21:20 06.01.2020
5064 Clouds 15 1007 62 10000 7.2 200 20:56 06.01.2020
5065 Clouds 16 1007 62 10000 7.2 200 20:37 06.01.2020
5066 Clouds 13 1006 67 10000 5.7 200 20:19 06.01.2020
5067 Clouds 13 1006 67 10000 2.1 40 19:55 06.01.2020
5068 Clouds 12 1006 67 10000 2.1 40 19:37 06.01.2020
5069 Clouds 10 1005 66 10000 1.5 340 19:19 06.01.2020
5070 Clouds 9 1005 71 10000 2.1 70 18:45 06.01.2020
5071 Clouds 9 1004 76 10000 2.1 20 18:21 06.01.2020
5072 Clouds 8 1004 76 10000 3.1 10 17:56 06.01.2020
5073 Clouds 9 1004 76 10000 3.1 10 17:37 06.01.2020
5074 Clouds 9 1003 71 10000 1 70 17:18 06.01.2020
5075 Clouds 10 1003 81 10000 2.1 80 16:42 06.01.2020
5076 Clouds 10 1003 81 10000 2.1 80 16:42 06.01.2020
5077 Clouds 10 1002 76 10000 1 340 16:23 06.01.2020
5078 Clouds 10 1002 76 10000 2.1 360 15:59 06.01.2020
5079 Clouds 10 1002 76 10000 2.1 360 15:38 06.01.2020
5080 Clouds 10 1002 76 10000 2.1 20 15:18 06.01.2020
5081 Clouds 10 1001 76 10000 1 340 14:42 06.01.2020
5082 Rain 11 1001 76 10000 2.1 60 14:23 06.01.2020
5083 Rain 11 1001 76 10000 3.6 130 13:59 06.01.2020
5084 Rain 11 1001 76 10000 3.6 130 13:40 06.01.2020
5085 Rain 11 1001 76 10000 6.2 140 13:22 06.01.2020
5086 Rain 13 1001 58 10000 6.2 230 12:59 06.01.2020
5087 Rain 12 1001 58 10000 6.2 230 12:40 06.01.2020
5088 Rain 12 1000 54 10000 6.7 250 12:20 06.01.2020
5089 Rain 13 1000 48 10000 7.7 250 11:55 06.01.2020
5090 Rain 13 1000 48 10000 7.7 250 11:37 06.01.2020
5091 Rain 13 1000 44 10000 7.7 250 11:18 06.01.2020
5092 Rain 14 999 44 10000 7.7 260 10:41 06.01.2020
5093 Rain 15 999 41 10000 8.2 250 10:21 06.01.2020
5094 Rain 15 999 41 10000 8.2 250 10:21 06.01.2020
5095 Rain 16 998 48 10000 5.7 250 09:42 06.01.2020
5096 Rain 16 997 45 10000 6.7 250 09:24 06.01.2020
5097 Rain 16 997 42 10000 9.3 260 08:57 06.01.2020
5098 Rain 17 997 42 10000 9.3 260 08:38 06.01.2020
5099 Rain 17 997 42 10000 9.3 260 08:38 06.01.2020
5100 Clouds 17 997 36 10000 9.8 260 08:19 06.01.2020
5101 Clouds 18 996 37 10000 6.2 260 07:44 06.01.2020
5102 Clouds 18 995 50 0 0.89 312 06:55 06.01.2020
5103 Clouds 19 996 30 10000 6.2 280 06:35 06.01.2020
5104 Clouds 19 996 40 10000 8.2 330 05:48 06.01.2020
5105 Clouds 20 996 35 10000 5.7 330 05:24 06.01.2020
5106 Clear 20 997 37 10000 8.7 320 04:24 06.01.2020
5107 Clear 20 997 40 10000 8.7 310 03:51 06.01.2020
5108 Clear 19 998 40 10000 8.7 330 02:28 06.01.2020
5109 Clouds 19 998 37 10000 9.8 320 01:53 06.01.2020
5110 Clouds 19 998 34 10000 10.3 320 01:30 06.01.2020
5111 Clouds 20 998 34 10000 7.7 320 00:46 06.01.2020
5112 Clouds 19 998 34 10000 8.7 310 00:27 06.01.2020
5113 Clouds 20 998 40 10000 7.7 360 23:57 05.01.2020
5114 Clouds 20 998 40 10000 7.7 360 23:57 05.01.2020
5115 Clouds 19 998 40 10000 7.7 360 23:38 05.01.2020
5116 Rain 18 999 34 10000 5.7 320 23:20 05.01.2020
5117 Rain 18 999 34 10000 4.6 320 22:40 05.01.2020
5118 Rain 18 999 36 10000 2.1 310 22:21 05.01.2020
5119 Rain 18 999 39 10000 5.1 300 21:58 05.01.2020
5120 Rain 18 999 39 10000 5.1 300 21:40 05.01.2020
5121 Rain 18 999 42 10000 2.6 260 21:20 05.01.2020
5122 Rain 17 999 48 10000 3.1 290 20:58 05.01.2020
5123 Rain 17 999 48 10000 3.1 290 20:39 05.01.2020
5124 Clouds 15 999 72 10000 3.1 10 20:19 05.01.2020
5125 Clouds 15 999 82 10000 3.6 10 19:58 05.01.2020
5126 Clouds 15 999 82 10000 3.6 10 19:39 05.01.2020
5127 Clouds 14 998 82 10000 3.1 20 19:20 05.01.2020
5128 Clouds 13 998 87 10000 3.6 350 18:55 05.01.2020
5129 Clouds 13 998 87 10000 3.6 350 18:37 05.01.2020
5130 Clouds 12 998 82 10000 2.1 320 18:19 05.01.2020
5131 Clouds 12 999 82 10000 1.5 270 17:58 05.01.2020
5132 Clouds 12 999 82 10000 1.5 270 17:39 05.01.2020
5133 Clouds 12 998 82 10000 2.6 190 17:20 05.01.2020
5134 Clouds 12 998 82 10000 2.6 190 17:19 05.01.2020
5135 Clouds 12 998 82 10000 4.1 180 16:56 05.01.2020
5136 Clouds 13 998 82 10000 4.1 180 16:38 05.01.2020
5137 Clouds 13 999 87 10000 4.1 170 16:19 05.01.2020
5138 Clouds 14 998 82 10000 5.1 180 15:39 05.01.2020
5139 Clouds 14 998 82 10000 5.1 180 15:39 05.01.2020
5140 Clouds 14 999 87 8000 4.1 190 15:20 05.01.2020
5141 Clouds 14 998 87 9000 1.5 230 14:56 05.01.2020
5142 Clouds 14 998 87 9000 1.5 230 14:38 05.01.2020
5143 Clouds 15 999 87 9000 3.1 220 14:19 05.01.2020
5144 Clouds 15 999 82 9000 5.7 230 13:56 05.01.2020
5145 Clouds 15 999 82 9000 5.7 230 13:56 05.01.2020
5146 Clouds 15 999 82 9000 5.7 230 13:37 05.01.2020
5147 Clouds 16 998 77 10000 2.6 270 13:18 05.01.2020
5148 Clouds 16 998 82 10000 6.7 360 12:55 05.01.2020
5149 Clouds 16 998 82 10000 6.7 360 12:37 05.01.2020
5150 Clouds 16 997 82 10000 7.2 360 12:18 05.01.2020
5151 Clouds 16 997 82 10000 7.2 360 12:18 05.01.2020
5152 Clouds 16 997 88 10000 6.2 10 11:43 05.01.2020
5153 Clouds 17 998 82 10000 6.2 10 11:20 05.01.2020
5154 Clouds 17 998 88 10000 6.7 10 10:58 05.01.2020
5155 Clouds 17 998 88 10000 6.7 10 10:39 05.01.2020
5156 Clouds 17 998 88 10000 6.7 10 10:39 05.01.2020
5157 Clouds 17 998 88 10000 6.2 30 10:19 05.01.2020
5158 Clouds 17 998 82 10000 6.7 10 09:42 05.01.2020
5159 Clouds 16 993 94 0 1.34 1 09:22 05.01.2020
5160 Clouds 16 998 88 10000 11.8 340 08:50 05.01.2020
5161 Clouds 16 999 88 10000 10.8 340 08:31 05.01.2020
5162 Clouds 16 999 88 10000 9.3 340 07:57 05.01.2020
5163 Clouds 16 999 88 10000 9.3 340 07:38 05.01.2020
5164 Clouds 15 995 93 0 1.34 352 07:20 05.01.2020
5165 Clouds 16 1001 77 10000 11.3 330 06:20 05.01.2020
5166 Clouds 16 1001 82 10000 13.4 320 05:33 05.01.2020
5167 Clouds 16 1001 82 10000 13.4 320 05:33 05.01.2020
5168 Clouds 16 1002 67 10000 9.3 340 04:44 05.01.2020
5169 Clouds 16 1002 67 10000 10.8 340 04:18 05.01.2020
5170 Clouds 15 1001 67 10000 10.8 350 02:46 05.01.2020
5171 Rain 15 1002 67 10000 12.9 360 02:24 05.01.2020
5172 Clouds 15 1002 67 10000 12.9 10 01:48 05.01.2020
5173 Clouds 16 1003 67 10000 12.3 360 01:19 05.01.2020
5174 Clouds 16 1004 67 10000 12.3 360 00:54 05.01.2020
5175 Clouds 16 1004 67 10000 12.3 360 00:36 05.01.2020
5176 Clouds 16 1004 72 10000 11.8 360 00:18 05.01.2020
5177 Clouds 16 1004 72 10000 11.3 360 23:40 04.01.2020
5178 Clouds 15 1005 72 10000 9.3 360 23:19 04.01.2020
5179 Clouds 15 1005 72 10000 8.7 360 22:40 04.01.2020
5180 Clouds 15 1006 67 10000 7.7 350 22:22 04.01.2020
5181 Clouds 15 1007 67 10000 7.2 350 21:58 04.01.2020
5182 Clouds 15 1007 67 10000 7.2 350 21:40 04.01.2020
5183 Clouds 15 1006 77 10000 6.7 20 21:20 04.01.2020
5184 Clouds 14 1007 82 10000 5.7 30 20:59 04.01.2020
5185 Clouds 14 1007 82 10000 5.7 30 20:40 04.01.2020
5186 Clouds 14 1007 76 10000 5.1 30 20:21 04.01.2020
5187 Clouds 13 1007 71 10000 5.1 20 19:57 04.01.2020
5188 Clouds 13 1007 71 10000 5.1 20 19:57 04.01.2020
5189 Clouds 13 1007 71 10000 5.1 20 19:38 04.01.2020
5190 Clouds 12 1007 81 10000 4.6 30 19:20 04.01.2020
5191 Clouds 12 1007 81 10000 3.6 20 18:55 04.01.2020
5192 Clouds 11 1007 81 10000 3.6 20 18:36 04.01.2020
5193 Clouds 11 1007 81 10000 4.6 20 18:18 04.01.2020
5194 Clouds 11 1007 81 10000 3.6 30 17:41 04.01.2020
5195 Clouds 11 1007 81 10000 3.1 30 17:23 04.01.2020
5196 Clouds 10 1008 76 10000 1.5 40 16:58 04.01.2020
5197 Clouds 10 1008 76 10000 1.5 40 16:39 04.01.2020
5198 Clouds 11 1008 71 10000 1.5 30 16:21 04.01.2020
5199 Clouds 11 1008 71 10000 1.5 150 15:55 04.01.2020
5200 Clouds 11 1008 71 10000 1.5 150 15:37 04.01.2020
5201 Clouds 11 1008 71 10000 1.5 100 15:18 04.01.2020
5202 Clouds 12 1009 71 10000 2.6 140 14:42 04.01.2020
5203 Clouds 12 1009 71 10000 2.6 140 14:42 04.01.2020
5204 Clouds 12 1008 71 10000 2.6 150 14:20 04.01.2020
5205 Clouds 12 1009 67 10000 4.6 160 13:59 04.01.2020
5206 Clouds 12 1009 67 10000 4.6 160 13:38 04.01.2020
5207 Clouds 13 1009 67 10000 5.1 170 13:19 04.01.2020
5208 Clouds 12 1010 71 10000 5.1 170 12:57 04.01.2020
5209 Clouds 13 1010 71 10000 5.1 170 12:39 04.01.2020
5210 Clouds 13 1010 67 10000 5.7 160 12:18 04.01.2020
5211 Clouds 13 1010 67 10000 5.7 170 11:57 04.01.2020
5212 Clouds 13 1010 67 10000 5.7 170 11:38 04.01.2020
5213 Clouds 13 1010 67 10000 5.7 170 11:37 04.01.2020
5214 Clouds 13 1009 67 10000 5.7 160 11:18 04.01.2020
5215 Clouds 13 1009 67 10000 6.2 170 10:41 04.01.2020
5216 Clouds 13 1009 67 10000 5.7 160 10:22 04.01.2020
5217 Clouds 13 1008 67 10000 5.7 160 09:48 04.01.2020
5218 Clouds 13 1008 62 10000 6.2 170 09:26 04.01.2020
5219 Clouds 14 1008 62 10000 6.7 160 08:57 04.01.2020
5220 Clouds 14 1008 62 10000 6.7 160 08:37 04.01.2020
5221 Clouds 14 1008 62 10000 7.2 170 08:19 04.01.2020
5222 Clouds 15 1007 62 10000 7.2 170 07:42 04.01.2020
5223 Clouds 16 1006 62 10000 7.2 170 06:49 04.01.2020
5224 Clouds 16 1006 63 10000 7.2 170 05:59 04.01.2020
5225 Clouds 17 1006 59 10000 8.2 170 05:18 04.01.2020
5226 Clouds 17 1006 63 10000 8.2 170 04:33 04.01.2020
5227 Clouds 18 1006 63 10000 8.7 150 03:39 04.01.2020
5228 Clouds 18 1006 63 10000 7.7 160 03:18 04.01.2020
5229 Clouds 18 1006 63 10000 6.7 160 02:21 04.01.2020
5230 Clouds 18 1006 63 10000 5.7 170 01:53 04.01.2020
5231 Clouds 18 1006 67 10000 5.1 170 01:30 04.01.2020
5232 Clouds 18 1006 59 10000 4.6 170 00:41 04.01.2020
5233 Clouds 17 1006 67 10000 4.6 170 00:22 04.01.2020
5234 Clouds 18 1006 67 10000 3.6 180 23:41 03.01.2020
5235 Rain 16 1006 67 10000 3.1 190 23:23 03.01.2020
5236 Rain 16 1006 67 10000 3.1 200 22:41 03.01.2020
5237 Rain 17 1006 67 10000 2.6 170 22:20 03.01.2020
5238 Rain 17 1005 67 10000 4.1 150 21:58 03.01.2020
5239 Rain 16 1005 67 10000 4.1 150 21:38 03.01.2020
5240 Rain 16 1005 76 10000 4.1 160 21:19 03.01.2020
5241 Rain 14 1005 76 10000 3.6 150 20:57 03.01.2020
5242 Rain 14 1005 76 10000 3.6 150 20:39 03.01.2020
5243 Rain 14 1005 71 10000 4.1 140 20:18 03.01.2020
5244 Rain 13 1004 76 10000 3.6 140 19:55 03.01.2020
5245 Rain 13 1004 76 10000 3.6 140 19:55 03.01.2020
5246 Rain 12 1004 76 10000 3.6 140 19:37 03.01.2020
5247 Rain 12 1004 76 10000 2.1 140 19:18 03.01.2020
5248 Rain 12 1004 76 10000 2.1 140 18:43 03.01.2020
5249 Rain 12 1004 81 10000 6.7 140 18:24 03.01.2020
5250 Rain 12 1003 82 10000 6.7 150 17:55 03.01.2020
5251 Rain 12 1003 82 10000 6.7 150 17:36 03.01.2020
5252 Rain 12 1003 82 10000 5.1 150 17:18 03.01.2020
5253 Rain 12 1002 82 10000 6.2 150 16:42 03.01.2020
5254 Rain 12 1002 87 10000 7.2 150 16:22 03.01.2020
5255 Rain 12 1001 87 10000 8.2 150 15:44 03.01.2020
5256 Rain 12 1001 87 10000 7.7 150 15:19 03.01.2020
5257 Rain 12 1001 87 10000 7.7 150 15:19 03.01.2020
5258 Rain 12 1001 87 10000 5.1 150 14:59 03.01.2020
5259 Rain 13 1001 87 10000 5.1 150 14:38 03.01.2020
5260 Rain 13 1001 93 10000 8.2 160 14:19 03.01.2020
5261 Rain 14 1001 87 10000 7.7 150 13:43 03.01.2020
5262 Rain 14 1001 87 10000 6.2 150 13:24 03.01.2020
5263 Rain 14 1001 93 10000 7.2 160 12:58 03.01.2020
5264 Rain 14 1001 93 10000 7.2 160 12:38 03.01.2020
5265 Rain 14 1001 87 10000 3.6 180 12:20 03.01.2020
5266 Rain 15 1001 82 10000 2.6 230 11:44 03.01.2020
5267 Rain 15 1001 87 6000 2.1 170 11:21 03.01.2020
5268 Rain 15 1001 87 10000 5.1 150 10:44 03.01.2020
5269 Drizzle 16 1001 82 10000 3.6 180 10:25 03.01.2020
5270 Rain 16 1001 82 10000 4.6 180 09:58 03.01.2020
5271 Rain 16 1001 82 10000 4.6 180 09:39 03.01.2020
5272 Rain 16 1001 82 10000 3.1 210 09:21 03.01.2020
5273 Rain 16 1001 82 10000 6.2 160 08:56 03.01.2020
5274 Rain 16 1001 82 10000 6.2 160 08:38 03.01.2020
5275 Rain 17 1001 82 10000 5.7 160 08:19 03.01.2020
5276 Rain 17 1001 82 10000 6.7 160 07:40 03.01.2020
5277 Rain 17 1001 87 10000 6.7 160 07:18 03.01.2020
5278 Rain 17 1001 87 10000 6.7 160 07:18 03.01.2020
5279 Rain 18 1001 82 10000 8.2 150 06:47 03.01.2020
5280 Rain 18 1001 82 10000 8.2 150 06:47 03.01.2020
5281 Rain 18 1001 82 10000 8.2 150 06:29 03.01.2020
5282 Rain 19 1002 77 10000 6.7 170 05:39 03.01.2020
5283 Rain 19 1003 72 10000 5.1 200 04:21 03.01.2020
5284 Rain 19 1003 82 10000 5.1 190 02:56 03.01.2020
5285 Rain 19 1003 82 10000 5.1 190 02:56 03.01.2020
5286 Rain 19 1003 77 10000 5.1 190 02:28 03.01.2020
5287 Rain 20 1003 82 10000 5.1 180 01:42 03.01.2020
5288 Rain 21 1003 82 10000 4.6 180 00:49 03.01.2020
5289 Rain 22 1000 61 0 0.45 185 00:29 03.01.2020
5290 Rain 21 1003 82 10000 3.6 180 23:55 02.01.2020
5291 Rain 20 1000 73 0 0.45 3 23:37 02.01.2020
5292 Rain 18 1003 82 10000 3.6 180 23:18 02.01.2020
5293 Rain 18 1003 87 10000 3.1 200 22:45 02.01.2020
5294 Rain 18 1003 87 10000 3.1 190 22:21 02.01.2020
5295 Rain 18 1003 87 10000 3.1 190 22:21 02.01.2020
5296 Rain 17 1003 87 10000 3.6 180 21:59 02.01.2020
5297 Rain 17 1003 87 10000 3.6 180 21:41 02.01.2020
5298 Rain 17 1003 93 10000 3.6 160 21:23 02.01.2020
5299 Rain 17 1003 93 10000 3.6 170 20:58 02.01.2020
5300 Rain 16 1003 93 10000 3.6 170 20:39 02.01.2020
5301 Rain 16 1003 93 10000 3.6 170 20:39 02.01.2020
5302 Haze 16 1003 93 7000 4.1 200 20:21 02.01.2020
5303 Clouds 16 1002 93 6000 3.1 190 19:55 02.01.2020
5304 Clouds 16 1002 93 6000 3.1 190 19:55 02.01.2020
5305 Clouds 16 1002 93 6000 3.1 190 19:55 02.01.2020
5306 Clouds 16 1002 93 7000 1.5 200 19:37 02.01.2020
5307 Clouds 16 1002 93 7000 1.5 200 19:19 02.01.2020
5308 Drizzle 16 1002 93 7000 2.1 170 18:56 02.01.2020
5309 Drizzle 15 1002 93 7000 2.1 170 18:38 02.01.2020
5310 Drizzle 16 1002 87 7000 4.6 220 18:20 02.01.2020
5311 Clouds 16 1002 93 7000 3.1 10 17:56 02.01.2020
5312 Clouds 16 1002 93 7000 3.1 10 17:36 02.01.2020
5313 Clouds 16 1002 88 8000 4.1 10 17:18 02.01.2020
5314 Clouds 16 1002 93 8000 5.7 10 16:56 02.01.2020
5315 Clouds 16 1002 93 8000 5.7 10 16:38 02.01.2020
5316 Clouds 16 1002 93 6000 6.7 30 16:19 02.01.2020
5317 Clouds 16 1003 93 7000 5.1 20 15:44 02.01.2020
5318 Clouds 16 1003 88 8000 6.7 20 15:24 02.01.2020
5319 Clouds 16 1003 88 9000 6.2 10 14:58 02.01.2020
5320 Clouds 16 1004 88 10000 5.7 10 14:38 02.01.2020
5321 Clear 16 1004 88 10000 5.7 10 14:20 02.01.2020
5322 Clear 16 1004 88 10000 5.1 360 13:58 02.01.2020
5323 Clear 17 1004 88 10000 5.1 360 13:39 02.01.2020
5324 Clear 17 1004 88 10000 5.7 350 13:18 02.01.2020
5325 Clear 17 1004 93 10000 7.2 10 12:42 02.01.2020
5326 Clear 17 1004 93 10000 7.7 20 12:21 02.01.2020
5327 Clear 17 1004 93 10000 7.7 20 11:42 02.01.2020
5328 Clear 18 1004 88 10000 10.8 10 11:21 02.01.2020
5329 Clear 18 1004 88 10000 8.7 20 10:46 02.01.2020
5330 Clear 17 1004 93 10000 11.3 30 10:28 02.01.2020
5331 Clear 18 1004 93 10000 10.8 10 09:57 02.01.2020
5332 Clear 17 1004 93 10000 10.8 10 09:35 02.01.2020
5333 Clear 17 1005 93 10000 11.3 10 08:59 02.01.2020
5334 Clear 17 1005 93 10000 11.3 10 08:39 02.01.2020
5335 Clouds 17 1005 93 10000 9.8 10 08:19 02.01.2020
5336 Clouds 17 1005 93 9000 10.8 10 07:47 02.01.2020
5337 Rain 17 1005 93 9000 9.8 10 07:26 02.01.2020
5338 Clouds 17 1006 93 7000 9.8 10 06:41 02.01.2020
5339 Clouds 18 1006 88 10000 11.3 10 05:40 02.01.2020
5340 Clouds 19 1007 82 10000 12.9 10 04:35 02.01.2020
5341 Clouds 19 1008 77 10000 12.3 360 03:44 02.01.2020
5342 Clouds 19 1008 72 10000 13.4 360 02:21 02.01.2020
5343 Clouds 19 1009 72 10000 12.3 360 01:53 02.01.2020
5344 Clouds 18 1009 77 10000 12.3 10 01:26 02.01.2020
5345 Clouds 19 1010 72 10000 11.8 360 00:49 02.01.2020
5346 Clouds 19 1010 68 10000 12.3 360 00:26 02.01.2020
5347 Clouds 19 1010 68 10000 11.8 350 23:43 01.01.2020
5348 Clouds 19 1010 72 10000 12.9 360 23:23 01.01.2020
5349 Clouds 19 1010 72 10000 12.3 360 22:39 01.01.2020
5350 Clouds 19 1010 72 10000 10.8 360 22:21 01.01.2020
5351 Clouds 18 1011 72 10000 10.3 360 21:58 01.01.2020
5352 Clouds 18 1011 72 10000 10.3 360 21:58 01.01.2020
5353 Clouds 18 1011 72 10000 10.3 360 21:40 01.01.2020
5354 Clouds 18 1011 77 10000 11.3 360 21:20 01.01.2020
5355 Clouds 18 1011 77 10000 11.3 360 21:20 01.01.2020
5356 Clouds 18 1011 77 10000 11.3 360 21:20 01.01.2020
5357 Clouds 17 1011 77 10000 11.3 360 20:58 01.01.2020
5358 Clouds 17 1011 77 10000 11.3 360 20:38 01.01.2020
5359 Clouds 17 1011 82 10000 9.3 360 20:20 01.01.2020
5360 Clouds 16 1011 82 10000 10.3 350 19:57 01.01.2020
5361 Clouds 16 1011 82 10000 10.3 350 19:38 01.01.2020
5362 Clouds 16 1010 82 10000 9.3 10 19:20 01.01.2020
5363 Clouds 16 1011 82 10000 9.8 360 18:57 01.01.2020
5364 Clouds 16 1011 82 10000 9.8 360 18:37 01.01.2020
5365 Clouds 16 1011 87 10000 9.3 360 18:19 01.01.2020
5366 Clouds 16 1011 82 10000 7.2 10 17:57 01.01.2020
5367 Clouds 16 1011 82 10000 7.2 10 17:39 01.01.2020
5368 Clouds 16 1011 82 10000 7.2 10 17:39 01.01.2020
5369 Clouds 16 1011 82 10000 7.2 20 17:19 01.01.2020
5370 Clouds 16 1012 82 10000 6.7 20 16:57 01.01.2020
5371 Clouds 16 1012 82 10000 6.7 20 16:37 01.01.2020
5372 Clouds 16 1012 82 10000 6.7 20 16:37 01.01.2020
5373 Clouds 16 1012 82 10000 7.7 10 16:19 01.01.2020
5374 Clouds 16 1012 82 10000 7.7 10 16:19 01.01.2020
5375 Clouds 16 1012 82 10000 7.2 20 15:54 01.01.2020
5376 Clouds 16 1012 82 10000 7.2 20 15:36 01.01.2020
5377 Clouds 16 1013 82 10000 7.2 20 15:18 01.01.2020
5378 Clouds 16 1013 82 10000 7.2 20 14:41 01.01.2020
5379 Clouds 16 1013 82 10000 7.7 20 14:23 01.01.2020
5380 Clouds 16 1014 82 10000 7.2 20 13:57 01.01.2020
5381 Clouds 16 1014 82 10000 7.2 20 13:38 01.01.2020
5382 Clouds 16 1014 82 10000 7.7 20 13:19 01.01.2020
5383 Clear 16 1014 82 10000 8.7 10 12:57 01.01.2020
5384 Clear 16 1014 82 10000 8.7 10 12:39 01.01.2020
5385 Clear 16 1014 82 10000 9.3 10 12:19 01.01.2020
5386 Clear 16 1014 82 10000 9.8 10 11:56 01.01.2020
5387 Clear 16 1014 82 10000 9.8 10 11:38 01.01.2020
5388 Clear 16 1015 82 10000 9.8 10 11:19 01.01.2020
5389 Clear 16 1015 82 10000 9.8 10 10:54 01.01.2020
5390 Clear 16 1015 82 10000 9.8 10 10:36 01.01.2020
5391 Clear 16 1015 82 10000 9.8 10 10:18 01.01.2020
5392 Clear 16 1014 82 10000 9.3 10 09:39 01.01.2020
5393 Clear 16 1014 82 10000 9.8 10 09:19 01.01.2020
5394 Clear 16 1014 82 10000 9.8 10 09:19 01.01.2020
5395 Clear 16 1014 77 10000 10.3 10 08:56 01.01.2020
5396 Clear 16 1014 77 10000 10.3 10 08:37 01.01.2020
5397 Clear 17 1014 77 10000 9.8 10 08:19 01.01.2020
5398 Clear 17 1014 77 10000 11.3 10 07:55 01.01.2020
5399 Clear 17 1014 77 10000 11.3 10 07:37 01.01.2020
5400 Clear 17 1013 77 10000 11.3 360 06:46 01.01.2020
5401 Clear 18 1014 77 10000 11.3 360 06:22 01.01.2020
5402 Clear 18 1014 77 10000 12.3 360 05:45 01.01.2020
5403 Clear 19 1014 72 10000 13.4 10 03:47 01.01.2020
5404 Clear 19 1014 72 10000 13.4 10 03:28 01.01.2020
5405 Clear 19 1014 72 10000 12.3 10 02:59 01.01.2020
5406 Clear 20 1014 72 10000 12.3 10 02:40 01.01.2020
5407 Clear 20 1014 68 10000 13.4 10 02:21 01.01.2020
5408 Clear 20 1014 68 10000 14.4 360 01:39 01.01.2020
5409 Clear 20 1014 68 10000 14.4 360 01:39 01.01.2020
5410 Clear 20 1015 72 10000 11.8 10 01:21 01.01.2020
5411 Clear 18 1015 82 10000 11.3 10 00:44 01.01.2020
5412 Clear 18 1015 77 10000 11.3 360 00:26 01.01.2020
5413 Clear 18 1014 77 10000 13.9 10 23:42 31.12.2019
5414 Clear 17 1014 77 10000 13.4 10 23:22 31.12.2019
5415 Clear 17 1015 77 10000 12.3 360 22:59 31.12.2019
5416 Clear 17 1015 77 10000 12.3 360 22:39 31.12.2019
5417 Clear 17 1015 72 10000 12.3 360 22:20 31.12.2019
5418 Clear 17 1015 77 10000 11.8 10 21:59 31.12.2019
5419 Clear 17 1015 77 10000 11.8 10 21:40 31.12.2019
5420 Clear 17 1015 77 10000 11.3 360 21:22 31.12.2019
5421 Clear 16 1015 82 10000 10.3 360 20:57 31.12.2019
5422 Clear 16 1015 82 10000 10.3 360 20:37 31.12.2019
5423 Clear 15 1015 82 10000 11.3 360 20:19 31.12.2019
5424 Clear 16 1015 82 10000 12.3 10 19:55 31.12.2019
5425 Clear 16 1015 82 10000 12.3 10 19:36 31.12.2019
5426 Clear 15 1015 82 10000 9.8 10 19:18 31.12.2019
5427 Clear 16 1015 82 10000 10.8 10 18:54 31.12.2019
5428 Clear 15 1015 82 10000 10.8 10 18:36 31.12.2019
5429 Clear 15 1014 82 10000 10.3 10 18:18 31.12.2019
5430 Clear 15 1014 82 10000 8.7 10 17:54 31.12.2019
5431 Clear 15 1014 82 10000 8.7 10 17:36 31.12.2019
5432 Clear 15 1014 82 10000 8.2 20 17:18 31.12.2019
5433 Clear 15 1014 82 10000 8.2 20 17:18 31.12.2019
5434 Clear 15 1014 82 10000 9.3 20 16:55 31.12.2019
5435 Clear 15 1014 82 10000 9.3 20 16:36 31.12.2019
5436 Clear 15 1015 87 10000 8.7 30 16:18 31.12.2019
5437 Clear 15 1015 87 10000 9.3 10 15:55 31.12.2019
5438 Clear 15 1015 87 10000 9.3 10 15:37 31.12.2019
5439 Clear 15 1015 82 10000 9.8 20 15:18 31.12.2019
5440 Clear 15 1015 87 10000 9.8 20 14:55 31.12.2019
5441 Clear 15 1015 87 10000 9.8 20 14:36 31.12.2019
5442 Clear 15 1016 87 10000 9.3 10 14:18 31.12.2019
5443 Clear 15 1016 87 10000 8.2 20 13:54 31.12.2019
5444 Clear 15 1016 87 10000 8.2 20 13:36 31.12.2019
5445 Clear 15 1016 82 10000 8.2 20 13:18 31.12.2019
5446 Clear 16 1016 82 10000 7.7 20 12:40 31.12.2019
5447 Clear 16 1016 82 10000 7.7 20 12:20 31.12.2019
5448 Clear 16 1016 82 10000 7.7 20 12:20 31.12.2019
5449 Clear 16 1016 82 10000 7.2 20 11:57 31.12.2019
5450 Clear 16 1016 82 10000 7.2 20 11:39 31.12.2019
5451 Clear 16 1016 77 10000 8.2 10 11:21 31.12.2019
5452 Clear 16 1016 77 10000 7.7 20 10:58 31.12.2019
5453 Clear 16 1016 77 10000 7.7 20 10:39 31.12.2019
5454 Clear 16 1016 72 10000 6.2 10 10:20 31.12.2019
5455 Clear 17 1016 72 10000 6.2 20 09:59 31.12.2019
5456 Clear 17 1016 72 10000 6.2 20 09:40 31.12.2019
5457 Clear 17 1015 68 10000 7.2 10 09:21 31.12.2019
5458 Clear 17 1015 63 10000 6.7 10 08:58 31.12.2019
5459 Clear 18 1015 63 10000 6.7 10 08:39 31.12.2019
5460 Clear 19 1015 63 10000 6.7 360 08:20 31.12.2019
5461 Clear 19 1015 60 10000 6.7 360 07:44 31.12.2019
5462 Clear 19 1015 64 10000 6.7 10 07:22 31.12.2019
5463 Clear 20 1015 60 10000 6.7 10 06:51 31.12.2019
5464 Clear 21 1015 56 10000 4.6 340 05:59 31.12.2019
5465 Clear 20 1016 68 10000 3.6 190 04:30 31.12.2019
5466 Clear 20 1016 68 10000 3.6 190 03:59 31.12.2019
5467 Clear 20 1017 68 10000 4.1 200 02:56 31.12.2019
5468 Clear 20 1017 67 10000 5.1 190 02:19 31.12.2019
5469 Clear 19 1017 67 10000 5.1 190 01:48 31.12.2019
5470 Clear 19 1017 67 10000 5.1 190 01:48 31.12.2019
5471 Clear 19 1017 63 10000 5.1 190 01:28 31.12.2019
5472 Clear 20 1017 72 10000 4.6 200 00:47 31.12.2019
5473 Clear 20 1017 67 10000 4.1 190 00:23 31.12.2019
5474 Clear 20 1015 62 0 3.74 170 23:57 30.12.2019
5475 Clear 20 1015 64 0 3.74 170 23:38 30.12.2019
5476 Clear 19 1017 67 10000 3.6 190 23:20 30.12.2019
5477 Clear 19 1017 72 10000 3.6 200 22:58 30.12.2019
5478 Clear 18 1017 72 10000 3.6 200 22:40 30.12.2019
5479 Clear 18 1018 72 10000 3.6 200 22:20 30.12.2019
5480 Clear 17 1018 72 10000 3.6 190 21:57 30.12.2019
5481 Clear 17 1018 72 10000 3.6 190 21:39 30.12.2019
5482 Clear 16 1018 82 10000 3.6 170 21:19 30.12.2019
5483 Clear 16 1017 82 10000 3.6 160 20:57 30.12.2019
5484 Clear 16 1017 82 10000 3.6 160 20:39 30.12.2019
5485 Clouds 15 1017 82 10000 3.1 160 20:20 30.12.2019
5486 Clouds 15 1017 82 10000 2.6 170 19:58 30.12.2019
5487 Clouds 14 1017 82 10000 2.6 170 19:38 30.12.2019
5488 Clouds 13 1017 87 10000 2.6 200 19:19 30.12.2019
5489 Clouds 13 1016 87 10000 2.1 210 18:57 30.12.2019
5490 Clouds 13 1016 87 10000 2.1 210 18:38 30.12.2019
5491 Clouds 13 1016 82 10000 1 180 18:20 30.12.2019
5492 Clouds 13 1016 82 10000 3.1 170 17:55 30.12.2019
5493 Clouds 13 1016 82 10000 3.1 170 17:37 30.12.2019
5494 Clouds 13 1016 87 10000 3.6 160 17:18 30.12.2019
5495 Clouds 13 1016 87 10000 4.1 170 16:57 30.12.2019
5496 Clouds 13 1016 87 10000 4.1 170 16:37 30.12.2019
5497 Clouds 13 1016 87 10000 3.1 180 16:18 30.12.2019
5498 Clouds 13 1016 87 10000 3.6 180 15:55 30.12.2019
5499 Clouds 13 1016 87 10000 3.6 180 15:37 30.12.2019
5500 Clouds 13 1016 82 10000 3.6 180 15:18 30.12.2019
5501 Clouds 13 1016 82 10000 3.6 170 14:42 30.12.2019
5502 Clouds 14 1016 87 10000 3.6 170 14:20 30.12.2019
5503 Clouds 14 1016 87 10000 3.6 170 13:56 30.12.2019
5504 Clouds 14 1016 87 10000 3.6 170 13:37 30.12.2019
5505 Clouds 14 1016 87 10000 4.1 160 13:19 30.12.2019
5506 Clouds 13 1016 87 10000 4.6 180 12:43 30.12.2019
5507 Clouds 13 1016 87 10000 4.6 180 12:22 30.12.2019
5508 Clouds 14 1016 93 10000 5.7 170 11:59 30.12.2019
5509 Clouds 14 1016 93 10000 5.7 170 11:40 30.12.2019
5510 Clouds 15 1016 82 10000 6.2 180 11:19 30.12.2019
5511 Clouds 15 1016 82 10000 6.2 180 11:19 30.12.2019
5512 Clouds 15 1016 87 10000 5.7 190 10:45 30.12.2019
5513 Rain 15 1015 87 10000 6.7 190 10:22 30.12.2019
5514 Clouds 15 1015 87 10000 5.1 200 09:59 30.12.2019
5515 Clouds 15 1015 87 10000 5.1 200 09:41 30.12.2019
5516 Clouds 15 1014 87 10000 5.7 190 09:20 30.12.2019
5517 Clouds 15 1014 87 10000 6.7 190 08:54 30.12.2019
5518 Clouds 15 1014 87 10000 6.7 190 08:36 30.12.2019
5519 Clouds 15 1014 87 10000 6.7 190 08:36 30.12.2019
5520 Clouds 16 1014 87 10000 5.7 190 08:18 30.12.2019
5521 Clouds 15 1013 87 10000 5.1 190 07:39 30.12.2019
5522 Clouds 16 1013 87 10000 5.7 190 06:52 30.12.2019
5523 Clouds 16 1012 82 10000 7.2 190 05:24 30.12.2019
5524 Clouds 17 1012 77 10000 5.7 180 03:58 30.12.2019
5525 Clouds 18 1012 77 10000 5.7 180 03:19 30.12.2019
5526 Clouds 18 1012 82 10000 5.7 210 02:40 30.12.2019
5527 Clouds 19 1011 77 10000 5.7 210 01:56 30.12.2019
5528 Clouds 18 1011 77 10000 5.7 200 01:25 30.12.2019
5529 Clouds 18 1011 77 10000 6.7 210 00:45 30.12.2019
5530 Clouds 20 1011 82 10000 8.2 220 00:23 30.12.2019
5531 Clouds 20 1011 82 10000 5.7 210 23:40 29.12.2019
5532 Clouds 20 1010 72 10000 4.1 10 23:21 29.12.2019
5533 Clouds 20 1010 72 10000 5.7 10 22:56 29.12.2019
5534 Clouds 20 1010 72 10000 5.7 10 22:37 29.12.2019
5535 Clouds 20 1010 72 10000 5.1 10 22:18 29.12.2019
5536 Clouds 19 1010 77 10000 5.1 360 21:43 29.12.2019
5537 Clouds 19 1010 77 10000 7.2 10 21:21 29.12.2019
5538 Clouds 19 1010 77 10000 7.2 10 21:21 29.12.2019
5539 Clouds 18 1010 77 10000 6.7 10 20:58 29.12.2019
5540 Clouds 18 1010 77 10000 6.7 10 20:39 29.12.2019
5541 Clouds 17 1010 82 10000 7.2 10 20:21 29.12.2019
5542 Clouds 17 1010 82 10000 6.2 20 19:59 29.12.2019
5543 Clouds 17 1010 82 10000 6.2 20 19:40 29.12.2019
5544 Clouds 16 1009 82 10000 7.2 20 19:21 29.12.2019
5545 Clouds 16 1009 87 10000 6.7 20 18:58 29.12.2019
5546 Clouds 16 1009 87 10000 6.7 20 18:39 29.12.2019
5547 Clouds 16 1009 87 10000 7.2 20 18:20 29.12.2019
5548 Clouds 15 1009 87 10000 7.2 20 17:58 29.12.2019
5549 Clouds 15 1009 87 10000 7.2 20 17:39 29.12.2019
5550 Clouds 15 1009 87 10000 7.7 20 17:20 29.12.2019
5551 Clouds 16 1009 82 10000 8.2 30 16:57 29.12.2019
5552 Clouds 16 1009 82 10000 8.2 30 16:39 29.12.2019
5553 Clouds 16 1009 82 10000 8.7 30 16:21 29.12.2019
5554 Clouds 16 1010 82 10000 7.7 20 15:58 29.12.2019
5555 Clouds 16 1010 82 10000 7.7 20 15:39 29.12.2019
5556 Clouds 16 1010 77 10000 8.2 20 15:20 29.12.2019
5557 Clouds 16 1010 77 10000 8.2 20 14:58 29.12.2019
5558 Clouds 16 1010 77 10000 8.2 20 14:39 29.12.2019
5559 Clouds 16 1011 77 10000 8.7 20 14:18 29.12.2019
5560 Clouds 16 1010 77 10000 9.8 10 13:58 29.12.2019
5561 Clouds 16 1010 77 10000 9.8 10 13:39 29.12.2019
5562 Clouds 16 1011 72 10000 7.2 30 13:21 29.12.2019
5563 Clouds 16 1011 77 10000 7.7 30 12:56 29.12.2019
5564 Clouds 15 1011 77 10000 7.7 30 12:38 29.12.2019
5565 Clouds 15 1011 77 10000 8.2 20 12:19 29.12.2019
5566 Clouds 15 1011 72 10000 8.2 20 11:40 29.12.2019
5567 Clouds 15 1011 72 10000 9.3 20 11:21 29.12.2019
5568 Clouds 15 1011 72 10000 9.3 20 10:56 29.12.2019
5569 Clouds 15 1011 72 10000 9.3 20 10:37 29.12.2019
5570 Clouds 15 1011 72 10000 9.3 20 10:18 29.12.2019
5571 Clouds 15 1011 72 10000 9.3 20 09:44 29.12.2019
5572 Clouds 15 1011 67 10000 10.3 20 09:26 29.12.2019
5573 Clouds 15 1011 72 10000 11.3 20 08:52 29.12.2019
5574 Clouds 15 1011 72 10000 10.8 10 08:29 29.12.2019
5575 Clouds 16 1011 67 10000 10.8 20 07:59 29.12.2019
5576 Clouds 16 1011 67 10000 10.8 20 07:32 29.12.2019
5577 Clouds 18 1011 59 10000 11.3 10 06:59 29.12.2019
5578 Clouds 18 1011 59 10000 10.3 10 06:27 29.12.2019
5579 Clouds 18 1012 55 10000 10.8 10 05:55 29.12.2019
5580 Clear 19 1013 55 10000 11.8 10 04:47 29.12.2019
5581 Clear 19 1013 52 10000 10.8 360 04:28 29.12.2019
5582 Clear 20 1014 48 10000 10.8 360 03:28 29.12.2019
5583 Clouds 19 1014 45 10000 9.3 350 02:22 29.12.2019
5584 Clouds 19 1015 52 10000 8.7 360 01:42 29.12.2019
5585 Clouds 19 1015 52 10000 9.3 360 01:23 29.12.2019
5586 Clear 20 1015 55 10000 7.2 360 00:44 29.12.2019
5587 Clear 19 1015 48 10000 5.7 350 00:24 29.12.2019
5588 Clear 18 1016 72 10000 2.6 170 23:45 28.12.2019
5589 Clear 17 1016 72 10000 4.1 200 23:19 28.12.2019
5590 Clear 17 1016 72 10000 4.1 200 23:19 28.12.2019
5591 Clear 17 1016 72 10000 4.1 200 23:19 28.12.2019
5592 Clear 17 1016 72 10000 4.1 210 22:59 28.12.2019
5593 Clear 17 1016 72 10000 4.1 210 22:37 28.12.2019
5594 Clear 17 1016 72 10000 4.6 200 22:18 28.12.2019
5595 Clear 18 1016 67 10000 2.1 40 21:55 28.12.2019
5596 Clear 17 1016 67 10000 2.1 40 21:37 28.12.2019
5597 Clear 17 1016 67 10000 2.6 10 21:19 28.12.2019
5598 Clear 16 1016 72 10000 3.1 350 20:40 28.12.2019
5599 Clouds 14 1015 72 10000 3.1 350 20:22 28.12.2019
5600 Clouds 14 1015 76 10000 2.6 360 19:59 28.12.2019
5601 Clouds 14 1015 76 10000 2.6 360 19:40 28.12.2019
5602 Clouds 13 1015 82 10000 1.5 350 19:22 28.12.2019
5603 Clouds 13 1015 82 10000 1 360 18:59 28.12.2019
5604 Clouds 12 1015 82 10000 1 360 18:40 28.12.2019
5605 Clouds 12 1015 82 10000 2.6 30 18:20 28.12.2019
5606 Clouds 12 1015 87 10000 3.1 20 17:57 28.12.2019
5607 Clouds 12 1015 87 10000 3.1 20 17:38 28.12.2019
5608 Clouds 12 1014 82 10000 2.6 30 17:19 28.12.2019
5609 Clouds 13 1015 82 10000 2.1 40 16:47 28.12.2019
5610 Clouds 13 1014 82 10000 3.1 20 16:26 28.12.2019
5611 Clouds 13 1014 76 10000 3.1 40 15:57 28.12.2019
5612 Clouds 13 1014 76 10000 3.1 40 15:39 28.12.2019
5613 Clouds 13 1014 76 10000 4.1 50 15:20 28.12.2019
5614 Clouds 13 1014 76 10000 4.6 20 14:45 28.12.2019
5615 Clouds 13 1015 76 10000 6.2 10 14:24 28.12.2019
5616 Clouds 14 1015 71 10000 6.2 10 13:58 28.12.2019
5617 Clouds 14 1015 71 10000 6.2 10 13:38 28.12.2019
5618 Clouds 14 1014 67 10000 6.7 10 13:19 28.12.2019
5619 Clouds 14 1015 67 10000 5.1 20 12:44 28.12.2019
5620 Clouds 14 1015 67 10000 5.1 20 12:44 28.12.2019
5621 Clouds 14 1015 67 10000 5.1 20 12:25 28.12.2019
5622 Clouds 15 1015 67 10000 6.2 20 11:58 28.12.2019
5623 Clouds 15 1015 67 10000 6.2 20 11:39 28.12.2019
5624 Clouds 15 1014 67 10000 7.7 20 11:20 28.12.2019
5625 Clouds 15 1014 63 10000 7.7 20 10:46 28.12.2019
5626 Clouds 15 1014 67 10000 7.7 20 10:22 28.12.2019
5627 Clouds 15 1014 67 10000 7.7 20 10:22 28.12.2019
5628 Clouds 15 1014 67 10000 7.7 20 10:22 28.12.2019
5629 Clouds 15 1014 67 10000 7.7 20 10:22 28.12.2019
5630 Clouds 15 1014 63 10000 7.2 20 09:58 28.12.2019
5631 Clouds 15 1014 63 10000 7.2 20 09:40 28.12.2019
5632 Clouds 15 1014 63 10000 8.2 10 09:20 28.12.2019
5633 Clouds 15 1014 63 10000 8.2 10 09:20 28.12.2019
5634 Clouds 16 1014 59 10000 8.2 360 08:44 28.12.2019
5635 Clouds 16 1014 51 10000 7.2 360 08:26 28.12.2019
5636 Clear 17 1014 45 10000 7.2 360 07:57 28.12.2019
5637 Clear 18 1014 45 10000 7.2 360 07:39 28.12.2019
5638 Clear 19 1014 45 10000 6.7 340 06:42 28.12.2019
5639 Clear 18 1014 51 10000 4.1 180 05:19 28.12.2019
5640 Clear 19 1014 55 10000 3.6 180 03:47 28.12.2019
5641 Clear 19 1014 51 10000 3.1 170 02:49 28.12.2019
5642 Clouds 18 1014 51 10000 4.6 170 02:19 28.12.2019
5643 Clouds 18 1014 51 10000 4.6 170 01:42 28.12.2019
5644 Clouds 18 1014 59 10000 5.1 160 01:18 28.12.2019
5645 Clouds 19 1014 59 10000 5.1 160 00:40 28.12.2019
5646 Clouds 19 1014 59 10000 4.6 180 00:21 28.12.2019
5647 Clouds 18 1014 55 10000 5.1 160 23:44 27.12.2019
5648 Rain 17 1014 59 10000 5.1 150 23:20 27.12.2019
5649 Rain 17 1014 62 10000 5.7 150 22:58 27.12.2019
5650 Rain 17 1014 62 10000 5.7 150 22:39 27.12.2019
5651 Rain 17 1014 59 10000 5.1 160 22:20 27.12.2019
5652 Rain 17 1014 55 10000 5.1 150 21:58 27.12.2019
5653 Rain 16 1014 55 10000 5.1 150 21:37 27.12.2019
5654 Rain 16 1013 62 10000 4.6 160 21:19 27.12.2019
5655 Rain 14 1013 66 10000 5.1 160 20:42 27.12.2019
5656 Rain 13 1013 71 10000 5.7 160 20:23 27.12.2019
5657 Rain 13 1013 71 10000 6.7 150 19:54 27.12.2019
5658 Rain 13 1013 71 10000 6.7 150 19:36 27.12.2019
5659 Rain 13 1012 76 10000 5.1 150 19:18 27.12.2019
5660 Rain 13 1012 76 10000 7.2 150 18:40 27.12.2019
5661 Rain 13 1012 82 10000 8.2 160 18:22 27.12.2019
5662 Rain 13 1011 87 10000 7.2 170 17:58 27.12.2019
5663 Rain 13 1011 87 10000 7.2 170 17:40 27.12.2019
5664 Clouds 14 1011 82 8000 7.7 180 17:19 27.12.2019
5665 Clouds 15 1009 82 10000 11.3 210 16:59 27.12.2019
5666 Clouds 15 1009 82 10000 11.3 210 16:39 27.12.2019
5667 Clouds 15 1009 82 10000 11.3 210 16:39 27.12.2019
5668 Clouds 15 1009 82 10000 4.1 320 16:20 27.12.2019
5669 Clouds 15 1009 82 10000 4.1 360 15:45 27.12.2019
5670 Clouds 15 1009 87 10000 4.1 350 15:23 27.12.2019
5671 Clouds 16 1009 82 10000 6.7 340 14:58 27.12.2019
5672 Clouds 16 1009 82 10000 6.7 340 14:40 27.12.2019
5673 Clouds 15 1009 87 10000 8.7 340 14:21 27.12.2019
5674 Clouds 15 1009 82 10000 7.2 330 13:57 27.12.2019
5675 Clouds 15 1009 82 10000 7.2 330 13:39 27.12.2019
5676 Clouds 15 1009 82 10000 7.2 330 13:39 27.12.2019
5677 Clouds 15 1009 82 10000 7.2 330 13:39 27.12.2019
5678 Clouds 15 1009 82 10000 9.3 340 13:21 27.12.2019
5679 Clouds 16 1009 82 10000 10.8 330 12:44 27.12.2019
5680 Clouds 16 1009 77 10000 8.2 330 12:25 27.12.2019
5681 Clouds 16 1010 77 10000 8.2 350 11:55 27.12.2019
5682 Clouds 16 1010 77 10000 8.2 350 11:37 27.12.2019
5683 Clouds 16 1010 77 10000 10.3 340 11:18 27.12.2019
5684 Clouds 16 1011 77 10000 11.3 350 10:41 27.12.2019
5685 Clouds 16 1011 72 10000 11.3 350 10:23 27.12.2019
5686 Clouds 16 1011 72 10000 12.3 360 09:49 27.12.2019
5687 Clouds 16 1011 72 10000 12.9 360 09:22 27.12.2019
5688 Clouds 16 1011 72 10000 13.4 350 08:59 27.12.2019
5689 Clouds 15 1011 72 10000 13.4 350 08:40 27.12.2019
5690 Clear 16 1011 72 10000 13.4 360 08:18 27.12.2019
5691 Clear 16 1011 67 10000 14.9 360 07:38 27.12.2019
5692 Clear 16 1011 63 10000 13.4 350 06:43 27.12.2019
5693 Clear 17 1011 59 10000 14.9 350 06:22 27.12.2019
5694 Clear 19 1012 55 10000 13.9 340 04:33 27.12.2019
5695 Clear 18 1014 67 10000 14.9 360 02:28 27.12.2019
5696 Clear 19 1014 63 10000 14.9 360 01:42 27.12.2019
5697 Clear 19 1014 59 10000 12.9 350 01:20 27.12.2019
5698 Clear 19 1014 59 10000 12.9 350 00:46 27.12.2019
5699 Clear 19 1014 55 10000 11.8 340 00:25 27.12.2019
5700 Clear 19 1014 55 10000 11.8 350 23:54 26.12.2019
5701 Clear 18 1014 55 10000 11.8 350 23:36 26.12.2019
5702 Clear 19 1014 59 10000 12.9 360 23:18 26.12.2019
5703 Clear 18 1014 68 10000 12.3 360 22:38 26.12.2019
5704 Clear 17 1015 68 10000 13.4 10 22:18 26.12.2019
5705 Clear 17 1015 63 10000 11.8 360 21:40 26.12.2019
5706 Clear 17 1015 63 10000 10.8 360 21:21 26.12.2019
5707 Clear 17 1015 67 10000 11.3 360 20:57 26.12.2019
5708 Clear 17 1015 67 10000 11.3 360 20:38 26.12.2019
5709 Clear 16 1015 72 10000 10.8 360 20:19 26.12.2019
5710 Clear 15 1015 72 10000 10.3 350 19:55 26.12.2019
5711 Clear 15 1015 72 10000 10.3 350 19:37 26.12.2019
5712 Clear 15 1015 77 10000 9.8 360 19:19 26.12.2019
5713 Clear 14 1015 77 10000 9.8 10 18:55 26.12.2019
5714 Clear 14 1015 77 10000 9.8 10 18:36 26.12.2019
5715 Clear 14 1015 77 10000 10.3 20 18:18 26.12.2019
5716 Clear 14 1015 77 10000 9.8 360 17:41 26.12.2019
5717 Clear 13 1015 77 10000 8.7 350 17:21 26.12.2019
5718 Clear 13 1015 77 10000 9.3 360 16:50 26.12.2019
5719 Clear 13 1016 82 10000 9.3 360 16:27 26.12.2019
5720 Clear 13 1016 82 10000 7.7 10 15:57 26.12.2019
5721 Clear 14 1016 82 10000 7.7 10 15:39 26.12.2019
5722 Clear 14 1016 82 10000 8.2 10 15:19 26.12.2019
5723 Clear 14 1017 87 10000 8.2 360 14:41 26.12.2019
5724 Clear 14 1017 87 10000 7.2 360 14:23 26.12.2019
5725 Clear 14 1017 87 10000 8.2 10 13:57 26.12.2019
5726 Clear 14 1017 87 10000 8.2 10 13:39 26.12.2019
5727 Clear 14 1017 87 10000 6.7 20 13:18 26.12.2019
5728 Clear 14 1017 82 10000 5.7 30 12:45 26.12.2019
5729 Clear 14 1018 87 10000 5.1 10 12:26 26.12.2019
5730 Clear 14 1018 82 10000 5.1 20 11:59 26.12.2019
5731 Clear 14 1018 82 10000 5.1 20 11:40 26.12.2019
5732 Clouds 14 1018 82 10000 5.7 10 11:22 26.12.2019
5733 Clouds 14 1018 82 10000 5.1 20 10:51 26.12.2019
5734 Clouds 15 1018 77 10000 5.7 20 10:28 26.12.2019
5735 Clouds 15 1017 72 10000 4.6 10 09:59 26.12.2019
5736 Clouds 15 1017 72 10000 4.6 10 09:41 26.12.2019
5737 Clouds 15 1017 67 10000 5.1 340 09:22 26.12.2019
5738 Clouds 16 1017 63 10000 4.1 340 08:40 26.12.2019
5739 Clouds 17 1017 55 10000 2.1 330 08:21 26.12.2019
5740 Clouds 18 1017 68 10000 1.5 210 07:44 26.12.2019
5741 Clouds 18 1017 72 10000 2.6 190 07:24 26.12.2019
5742 Clouds 19 1017 68 10000 3.1 190 06:39 26.12.2019
5743 Clouds 19 1017 68 10000 3.1 200 06:20 26.12.2019
5744 Clouds 20 1016 59 0 0.45 259 05:43 26.12.2019
5745 Clouds 20 1018 68 10000 3.6 200 04:36 26.12.2019
5746 Clouds 20 1019 68 10000 5.7 210 03:32 26.12.2019
5747 Clouds 20 1019 72 10000 5.7 210 02:47 26.12.2019
5748 Clouds 20 1019 68 10000 5.1 210 02:29 26.12.2019
5749 Clear 19 1019 72 10000 5.1 180 01:44 26.12.2019
5750 Clear 20 1019 72 10000 4.1 180 01:26 26.12.2019
5751 Clear 20 1019 68 10000 3.6 200 00:47 26.12.2019
5752 Clear 20 1019 72 10000 4.1 180 00:23 26.12.2019
5753 Clear 20 1019 59 10000 3.6 190 23:58 25.12.2019
5754 Clear 19 1019 59 10000 3.6 190 23:38 25.12.2019
5755 Clear 19 1020 67 10000 3.6 190 23:19 25.12.2019
5756 Clear 18 1020 67 10000 3.6 200 22:57 25.12.2019
5757 Clear 18 1020 67 10000 3.6 200 22:37 25.12.2019
5758 Clear 18 1020 67 10000 3.1 180 22:19 25.12.2019
5759 Clear 18 1020 67 10000 2.1 200 21:57 25.12.2019
5760 Clear 17 1020 67 10000 2.1 200 21:39 25.12.2019
5761 Clear 17 1020 77 10000 2.1 190 21:19 25.12.2019
5762 Clear 16 1020 72 10000 2.6 170 20:41 25.12.2019
5763 Clear 16 1020 72 10000 2.6 170 20:41 25.12.2019
5764 Clear 14 1019 76 10000 2.6 180 20:21 25.12.2019
5765 Clear 14 1019 76 10000 3.1 200 19:59 25.12.2019
5766 Clear 13 1019 76 10000 3.1 200 19:41 25.12.2019
5767 Clear 13 1019 76 10000 1 110 19:22 25.12.2019
5768 Clear 12 1019 81 10000 1 10 18:41 25.12.2019
5769 Clear 12 1019 76 10000 0.5 90 18:21 25.12.2019
5770 Clear 12 1018 71 10000 1.5 220 17:59 25.12.2019
5771 Clear 13 1018 71 10000 1.5 220 17:39 25.12.2019
5772 Clear 13 1018 76 10000 1.5 260 17:18 25.12.2019
5773 Clear 13 1018 71 10000 2.1 150 16:55 25.12.2019
5774 Clear 13 1018 71 10000 2.1 150 16:55 25.12.2019
5775 Clear 13 1018 71 10000 2.1 150 16:36 25.12.2019
5776 Clear 13 1018 71 10000 2.1 160 16:18 25.12.2019
5777 Clear 12 1018 67 10000 1 150 15:56 25.12.2019
5778 Clear 12 1018 67 10000 1 150 15:37 25.12.2019
5779 Clear 12 1018 71 10000 1.5 160 15:18 25.12.2019
5780 Clear 12 1019 71 10000 3.1 130 14:54 25.12.2019
5781 Clear 12 1019 71 10000 3.1 130 14:36 25.12.2019
5782 Clouds 13 1019 71 10000 3.1 130 14:18 25.12.2019
5783 Clouds 13 1019 67 10000 2.1 130 13:41 25.12.2019
5784 Clouds 13 1019 71 10000 2.6 140 13:20 25.12.2019
5785 Clouds 13 1019 67 10000 1 220 12:44 25.12.2019
5786 Clouds 13 1018 71 10000 2.1 60 12:22 25.12.2019
5787 Clouds 13 1018 71 10000 2.6 90 11:58 25.12.2019
5788 Clouds 13 1018 71 10000 2.6 90 11:40 25.12.2019
5789 Clouds 14 1018 72 10000 2.6 90 11:21 25.12.2019
5790 Clouds 14 1018 67 10000 2.1 70 10:39 25.12.2019
5791 Clouds 14 1017 72 10000 1.5 80 10:21 25.12.2019
5792 Clouds 14 1017 77 10000 0.5 200 09:59 25.12.2019
5793 Clouds 14 1017 77 10000 0.5 200 09:40 25.12.2019
5794 Clouds 15 1017 77 10000 2.1 260 09:22 25.12.2019
5795 Clouds 15 1016 72 10000 1.5 250 08:43 25.12.2019
5796 Clouds 16 1016 72 10000 4.6 150 08:24 25.12.2019
5797 Clouds 16 1015 72 10000 6.7 150 07:43 25.12.2019
5798 Clouds 17 1015 67 10000 7.7 150 07:22 25.12.2019
5799 Clouds 17 1015 72 10000 9.3 150 06:24 25.12.2019
5800 Clouds 17 1015 72 10000 9.3 150 06:24 25.12.2019
5801 Clouds 17 1016 67 10000 8.7 160 05:51 25.12.2019
5802 Clouds 17 1016 72 10000 8.7 170 04:46 25.12.2019
5803 Clouds 17 1016 72 10000 9.3 160 04:24 25.12.2019
5804 Clouds 17 1016 67 10000 8.7 160 03:44 25.12.2019
5805 Clouds 17 1016 67 10000 8.7 160 03:44 25.12.2019
5806 Clouds 18 1016 67 10000 8.2 170 03:18 25.12.2019
5807 Clouds 17 1016 72 10000 8.7 160 02:30 25.12.2019
5808 Clouds 18 1016 72 10000 8.2 160 01:53 25.12.2019
5809 Clouds 17 1016 67 10000 8.7 160 01:22 25.12.2019
5810 Clouds 18 1016 67 10000 8.7 160 00:45 25.12.2019
5811 Clouds 18 1015 72 10000 8.7 160 00:26 25.12.2019
5812 Clouds 18 1015 67 10000 8.2 170 23:40 24.12.2019
5813 Clouds 16 1015 67 10000 7.7 170 23:20 24.12.2019
5814 Clouds 16 1015 67 10000 7.2 170 22:58 24.12.2019
5815 Clouds 18 1015 67 10000 7.2 170 22:37 24.12.2019
5816 Clouds 16 1015 63 10000 5.7 160 22:19 24.12.2019
5817 Clouds 17 1015 62 10000 5.7 160 21:41 24.12.2019
5818 Clouds 17 1015 62 10000 5.7 160 21:41 24.12.2019
5819 Clouds 16 1015 67 10000 5.7 160 21:22 24.12.2019
5820 Clouds 14 1015 67 10000 3.1 160 20:43 24.12.2019
5821 Clouds 14 1014 67 10000 2.1 140 20:24 24.12.2019
5822 Clouds 13 1014 67 10000 4.6 150 19:57 24.12.2019
5823 Clouds 13 1014 67 10000 4.6 150 19:37 24.12.2019
5824 Clouds 12 1014 71 10000 4.6 160 19:18 24.12.2019
5825 Clouds 12 1014 76 10000 3.6 150 18:42 24.12.2019
5826 Clouds 11 1013 71 10000 5.1 150 18:19 24.12.2019
5827 Clouds 12 1013 76 10000 5.1 170 17:45 24.12.2019
5828 Clouds 12 1013 76 10000 4.6 150 17:23 24.12.2019
5829 Clouds 12 1013 76 10000 4.6 150 16:59 24.12.2019
5830 Clouds 12 1013 76 10000 4.6 150 16:59 24.12.2019
5831 Clouds 12 1013 76 10000 4.6 150 16:40 24.12.2019
5832 Clouds 12 1013 76 10000 5.7 170 16:22 24.12.2019
5833 Clouds 12 1013 76 10000 6.2 170 15:58 24.12.2019
5834 Clouds 12 1013 76 10000 6.2 170 15:58 24.12.2019
5835 Clouds 12 1013 76 10000 6.2 170 15:38 24.12.2019
5836 Clouds 12 1013 76 10000 6.2 170 15:20 24.12.2019
5837 Clouds 12 1013 71 10000 6.2 170 14:59 24.12.2019
5838 Clouds 12 1013 71 10000 6.2 170 14:40 24.12.2019
5839 Clear 12 1013 76 10000 6.2 160 14:22 24.12.2019
5840 Clear 12 1013 76 10000 6.2 150 13:57 24.12.2019
5841 Clear 12 1011 87 0 4.14 122 13:39 24.12.2019
5842 Clouds 12 1013 76 10000 6.2 160 13:20 24.12.2019
5843 Clouds 12 1013 76 10000 6.2 160 13:20 24.12.2019
5844 Clouds 12 1012 85 0 3.8 127 12:57 24.12.2019
5845 Clouds 12 1013 76 10000 6.7 150 12:38 24.12.2019
5846 Clouds 12 1013 76 10000 6.7 150 12:38 24.12.2019
5847 Clouds 12 1013 71 10000 6.7 150 12:19 24.12.2019
5848 Clouds 12 1013 71 10000 6.7 150 12:19 24.12.2019
5849 Clouds 12 1013 67 10000 7.2 150 11:58 24.12.2019
5850 Clouds 12 1009 80 0 3.8 127 11:38 24.12.2019
5851 Clouds 12 1009 80 0 3.8 127 11:38 24.12.2019
5852 Clear 13 1014 71 10000 6.7 160 11:20 24.12.2019
5853 Clear 13 1014 71 10000 5.7 150 10:57 24.12.2019
5854 Clear 13 1014 71 10000 5.7 150 10:38 24.12.2019
5855 Clear 13 1014 71 10000 6.2 140 10:20 24.12.2019
5856 Clear 13 1013 71 10000 6.7 150 09:59 24.12.2019
5857 Clear 13 1013 71 10000 6.7 150 09:41 24.12.2019
5858 Clear 13 1013 71 10000 7.7 150 09:22 24.12.2019
5859 Clear 14 1013 76 10000 7.2 160 08:56 24.12.2019
5860 Clear 14 1013 76 10000 7.2 160 08:37 24.12.2019
5861 Clear 14 1012 82 10000 7.7 170 08:18 24.12.2019
5862 Clear 15 1012 82 10000 7.7 170 07:43 24.12.2019
5863 Clear 15 1012 77 10000 7.7 170 07:21 24.12.2019
5864 Clear 15 1012 82 10000 7.2 170 06:40 24.12.2019
5865 Clear 16 1012 72 10000 7.7 170 06:22 24.12.2019
5866 Clear 16 1012 77 10000 7.7 170 05:55 24.12.2019
5867 Clouds 16 1012 77 10000 7.7 170 05:19 24.12.2019
5868 Clouds 17 1013 72 10000 7.7 170 04:21 24.12.2019
5869 Clouds 17 1013 72 10000 7.7 170 03:48 24.12.2019
5870 Clouds 18 1013 72 10000 8.2 170 02:29 24.12.2019
5871 Clouds 17 1013 72 10000 8.7 170 01:57 24.12.2019
5872 Clouds 18 1013 72 10000 8.2 170 01:27 24.12.2019
5873 Clouds 18 1013 72 10000 8.2 180 00:58 24.12.2019
5874 Clouds 16 1013 72 10000 8.2 180 00:40 24.12.2019
5875 Clouds 17 1013 72 10000 8.7 170 00:20 24.12.2019
5876 Clouds 16 1013 77 10000 8.7 170 23:43 23.12.2019
5877 Clouds 16 1013 77 10000 9.3 180 23:24 23.12.2019
5878 Rain 15 1013 82 10000 9.3 180 22:57 23.12.2019
5879 Rain 15 1013 82 10000 9.3 180 22:38 23.12.2019
5880 Rain 15 1013 82 10000 9.3 180 22:38 23.12.2019
5881 Rain 15 1013 82 10000 9.8 180 22:20 23.12.2019
5882 Rain 15 1013 82 10000 9.3 180 21:57 23.12.2019
5883 Rain 15 1013 82 10000 9.3 180 21:57 23.12.2019
5884 Rain 15 1013 82 10000 9.3 180 21:37 23.12.2019
5885 Rain 15 1013 82 10000 8.7 180 21:19 23.12.2019
5886 Rain 15 1013 82 10000 8.7 180 20:59 23.12.2019
5887 Rain 14 1013 82 10000 8.7 180 20:41 23.12.2019
5888 Rain 14 1013 82 10000 8.7 170 20:19 23.12.2019
5889 Rain 14 1013 82 10000 8.7 170 20:19 23.12.2019
5890 Rain 13 1013 82 10000 8.7 180 19:59 23.12.2019
5891 Rain 13 1013 82 10000 8.7 180 19:40 23.12.2019
5892 Rain 13 1013 82 10000 8.7 180 19:40 23.12.2019
5893 Rain 13 1013 82 10000 8.2 180 19:21 23.12.2019
5894 Rain 13 1012 82 10000 8.7 170 18:58 23.12.2019
5895 Rain 13 1012 82 10000 8.7 170 18:39 23.12.2019
5896 Rain 13 1012 82 10000 9.3 170 18:21 23.12.2019
5897 Rain 13 1012 87 10000 8.7 170 17:59 23.12.2019
5898 Rain 13 1012 87 10000 8.7 170 17:40 23.12.2019
5899 Rain 13 1012 87 10000 8.7 180 17:19 23.12.2019
5900 Rain 13 1012 87 10000 8.7 180 17:19 23.12.2019
5901 Rain 13 1012 87 10000 9.3 180 16:58 23.12.2019
5902 Rain 13 1012 87 10000 9.3 180 16:40 23.12.2019
5903 Rain 13 1012 87 10000 8.7 180 16:19 23.12.2019
5904 Rain 13 1012 87 10000 8.7 180 16:19 23.12.2019
5905 Rain 13 1012 87 10000 9.3 180 15:58 23.12.2019
5906 Rain 13 1012 87 10000 9.3 180 15:58 23.12.2019
5907 Rain 13 1012 87 10000 9.3 180 15:37 23.12.2019
5908 Rain 13 1012 87 10000 8.7 180 15:19 23.12.2019
5909 Rain 13 1012 93 10000 9.3 180 14:56 23.12.2019
5910 Rain 13 1012 93 10000 9.3 180 14:38 23.12.2019
5911 Rain 14 1012 93 8000 8.7 180 14:19 23.12.2019
5912 Rain 14 1013 93 6000 9.3 180 13:56 23.12.2019
5913 Rain 14 1013 93 6000 9.3 180 13:38 23.12.2019
5914 Rain 14 1013 87 9000 9.3 180 13:20 23.12.2019
5915 Rain 14 1013 87 9000 8.7 180 12:55 23.12.2019
5916 Rain 14 1013 87 9000 8.7 180 12:36 23.12.2019
5917 Rain 14 1013 87 8000 8.7 180 12:18 23.12.2019
5918 Rain 13 1013 87 9000 9.3 190 11:42 23.12.2019
5919 Rain 13 1013 87 9000 9.3 190 11:42 23.12.2019
5920 Rain 14 1013 87 10000 9.8 190 11:24 23.12.2019
5921 Rain 14 1013 87 10000 9.8 190 10:56 23.12.2019
5922 Rain 14 1013 87 10000 9.8 190 10:38 23.12.2019
5923 Rain 13 1013 87 10000 9.3 190 10:20 23.12.2019
5924 Rain 14 1012 87 10000 8.7 180 09:58 23.12.2019
5925 Rain 14 1012 87 10000 8.7 180 09:39 23.12.2019
5926 Rain 13 1012 87 10000 9.3 180 09:19 23.12.2019
5927 Rain 13 1013 93 10000 9.3 180 08:55 23.12.2019
5928 Rain 13 1013 93 10000 9.3 180 08:37 23.12.2019
5929 Rain 13 1012 93 10000 9.8 180 08:18 23.12.2019
5930 Rain 14 1012 93 10000 10.3 170 07:42 23.12.2019
5931 Rain 15 1012 87 10000 10.3 180 07:19 23.12.2019
5932 Rain 15 1012 87 10000 10.3 180 06:45 23.12.2019
5933 Rain 13 1012 93 6000 11.3 180 06:23 23.12.2019
5934 Rain 14 1012 87 6000 11.3 180 05:47 23.12.2019
5935 Rain 14 1012 87 4900 11.3 180 05:18 23.12.2019
5936 Rain 15 1011 87 8000 11.8 190 04:19 23.12.2019
5937 Rain 16 1012 82 9000 12.3 190 02:48 23.12.2019
5938 Rain 15 1012 82 8000 11.8 190 02:23 23.12.2019
5939 Rain 16 1012 82 8000 11.8 190 01:51 23.12.2019
5940 Rain 16 1012 87 9000 12.3 190 01:32 23.12.2019
5941 Rain 15 1012 87 10000 10.8 190 00:54 23.12.2019
5942 Rain 15 1012 87 10000 10.8 190 00:35 23.12.2019
5943 Rain 16 1012 77 9000 11.8 190 23:57 22.12.2019
5944 Rain 16 1012 77 9000 11.8 190 23:38 22.12.2019
5945 Rain 16 1012 77 10000 10.8 190 23:20 22.12.2019
5946 Rain 15 1011 77 10000 9.3 180 22:57 22.12.2019
5947 Rain 15 1011 77 10000 9.3 180 22:38 22.12.2019
5948 Rain 15 1011 77 10000 10.8 190 22:19 22.12.2019
5949 Rain 15 1011 77 10000 10.3 190 21:56 22.12.2019
5950 Rain 15 1011 77 10000 10.3 190 21:38 22.12.2019
5951 Rain 15 1011 77 10000 9.8 180 21:20 22.12.2019
5952 Rain 15 1010 77 10000 9.3 180 20:43 22.12.2019
5953 Rain 14 1010 87 10000 9.3 180 20:20 22.12.2019
5954 Rain 14 1010 87 10000 9.3 180 20:20 22.12.2019
5955 Rain 14 1010 87 10000 9.3 190 19:58 22.12.2019
5956 Rain 14 1010 87 10000 9.3 190 19:40 22.12.2019
5957 Rain 14 1009 87 10000 7.7 180 19:20 22.12.2019
5958 Rain 14 1009 82 10000 7.2 180 18:58 22.12.2019
5959 Rain 14 1009 82 10000 7.2 180 18:38 22.12.2019
5960 Rain 14 1008 82 10000 5.7 170 18:19 22.12.2019
5961 Rain 14 1008 82 10000 0.5 280 17:55 22.12.2019
5962 Rain 14 1008 82 10000 0.5 280 17:37 22.12.2019
5963 Clear 14 1008 82 9000 1 360 17:18 22.12.2019
5964 Clear 14 1007 82 10000 2.6 340 16:42 22.12.2019
5965 Clear 13 1007 82 10000 4.6 360 16:23 22.12.2019
5966 Clear 13 1006 82 10000 5.7 20 15:58 22.12.2019
5967 Clear 13 1006 82 10000 5.7 20 15:39 22.12.2019
5968 Clear 13 1006 82 10000 7.2 10 15:21 22.12.2019
5969 Clear 13 1006 82 10000 8.2 10 14:59 22.12.2019
5970 Clear 13 1006 82 10000 8.2 10 14:38 22.12.2019
5971 Clouds 14 1006 82 10000 8.2 10 14:19 22.12.2019
5972 Clouds 14 1007 77 10000 8.2 10 13:56 22.12.2019
5973 Clouds 14 1007 77 10000 8.2 10 13:38 22.12.2019
5974 Clouds 14 1007 77 10000 8.2 20 13:19 22.12.2019
5975 Clouds 14 1007 77 10000 8.2 10 12:57 22.12.2019
5976 Clouds 14 1007 77 10000 8.2 10 12:57 22.12.2019
5977 Clouds 14 1007 77 10000 8.2 10 12:38 22.12.2019
5978 Clouds 14 1007 77 10000 8.7 10 12:19 22.12.2019
5979 Clouds 14 1007 77 10000 8.7 10 12:19 22.12.2019
5980 Clouds 14 1007 77 10000 8.7 10 12:19 22.12.2019
5981 Clouds 14 1007 77 10000 9.8 10 11:58 22.12.2019
5982 Clouds 14 1007 77 10000 9.8 10 11:39 22.12.2019
5983 Clouds 14 1007 77 10000 9.8 10 11:20 22.12.2019
5984 Clouds 15 1007 77 10000 9.8 10 10:57 22.12.2019
5985 Clouds 15 1007 77 10000 9.8 10 10:39 22.12.2019
5986 Clouds 15 1007 77 10000 8.7 10 10:19 22.12.2019
5987 Clouds 15 1007 77 10000 8.7 10 09:58 22.12.2019
5988 Clouds 15 1007 77 10000 8.7 10 09:39 22.12.2019
5989 Clouds 15 1007 72 10000 9.3 10 09:21 22.12.2019
5990 Clouds 16 1007 77 10000 9.3 10 08:45 22.12.2019
5991 Clouds 17 1007 72 10000 9.8 10 08:23 22.12.2019
5992 Clouds 17 1007 67 10000 9.3 10 07:50 22.12.2019
5993 Clouds 17 1007 63 10000 10.3 10 07:22 22.12.2019
5994 Clouds 17 1007 63 10000 10.8 10 06:56 22.12.2019
5995 Clouds 18 1007 55 10000 10.8 10 06:27 22.12.2019
5996 Clouds 18 1008 59 10000 8.7 10 05:41 22.12.2019
5997 Clouds 18 1008 55 10000 8.7 350 05:20 22.12.2019
5998 Clouds 18 1009 68 10000 9.3 10 04:26 22.12.2019
5999 Clouds 18 1010 63 10000 10.8 360 02:56 22.12.2019
6000 Clouds 18 1010 63 10000 10.8 360 02:34 22.12.2019
6001 Clouds 18 1011 52 10000 9.8 360 01:32 22.12.2019
6002 Clouds 19 1011 55 10000 10.8 360 00:57 22.12.2019
6003 Clouds 19 1011 55 10000 10.8 360 00:38 22.12.2019
6004 Clouds 18 1012 52 10000 9.3 360 00:20 22.12.2019
6005 Clouds 18 1012 59 10000 9.8 360 23:41 21.12.2019
6006 Clouds 18 1012 59 10000 10.3 360 23:22 21.12.2019
6007 Clouds 17 1012 63 10000 9.8 10 22:57 21.12.2019
6008 Clouds 17 1012 63 10000 9.8 10 22:39 21.12.2019
6009 Clouds 16 1012 67 10000 10.3 10 22:18 21.12.2019
6010 Clouds 16 1013 67 10000 9.3 20 21:56 21.12.2019
6011 Clouds 16 1013 67 10000 9.3 20 21:37 21.12.2019
6012 Clouds 16 1013 67 10000 6.7 10 21:18 21.12.2019
6013 Clouds 15 1013 72 10000 7.7 40 20:57 21.12.2019
6014 Clouds 15 1013 72 10000 7.7 40 20:57 21.12.2019
6015 Clouds 15 1013 72 10000 7.7 40 20:37 21.12.2019
6016 Clouds 15 1013 72 10000 7.7 40 20:37 21.12.2019
6017 Clear 14 1013 76 10000 7.2 30 20:19 21.12.2019
6018 Clear 14 1013 76 10000 5.7 40 19:56 21.12.2019
6019 Clear 13 1013 76 10000 5.7 40 19:36 21.12.2019
6020 Clear 11 1014 81 10000 5.1 30 19:18 21.12.2019
6021 Clear 10 1014 81 10000 4.6 20 18:42 21.12.2019
6022 Clear 9 1014 81 10000 4.1 20 18:23 21.12.2019
6023 Clear 9 1014 81 10000 4.1 20 17:57 21.12.2019
6024 Clear 9 1014 81 10000 4.1 20 17:39 21.12.2019
6025 Clear 9 1014 81 10000 5.1 20 17:20 21.12.2019
6026 Clear 9 1014 81 10000 3.6 20 16:57 21.12.2019
6027 Clear 9 1014 81 10000 3.6 20 16:39 21.12.2019
6028 Clear 9 1014 81 10000 3.6 20 16:18 21.12.2019
6029 Clear 8 1014 81 10000 4.1 20 15:56 21.12.2019
6030 Clear 10 1014 81 10000 4.1 20 15:37 21.12.2019
6031 Clear 10 1015 81 10000 3.6 30 15:18 21.12.2019
6032 Clear 9 1015 81 10000 2.6 30 14:42 21.12.2019
6033 Clear 9 1015 81 10000 2.6 350 14:23 21.12.2019
6034 Clear 10 1016 81 10000 3.1 20 13:58 21.12.2019
6035 Clear 10 1016 81 10000 3.1 20 13:40 21.12.2019
6036 Clear 9 1016 76 10000 2.6 40 13:19 21.12.2019
6037 Clear 10 1016 81 10000 1.5 40 12:57 21.12.2019
6038 Clear 10 1016 81 10000 1.5 40 12:38 21.12.2019
6039 Clear 10 1016 76 10000 1.5 50 12:20 21.12.2019
6040 Clear 10 1016 71 10000 1.5 40 11:55 21.12.2019
6041 Clear 11 1016 71 10000 1.5 40 11:37 21.12.2019
6042 Clear 12 1016 66 10000 1 30 11:19 21.12.2019
6043 Clear 11 1016 66 10000 2.6 160 10:41 21.12.2019
6044 Clear 12 1016 66 10000 3.6 150 10:22 21.12.2019
6045 Clear 12 1016 62 10000 4.1 150 09:58 21.12.2019
6046 Clear 13 1016 62 10000 4.1 150 09:39 21.12.2019
6047 Clear 13 1016 67 10000 5.7 160 09:19 21.12.2019
6048 Clear 14 1016 67 10000 5.7 160 08:51 21.12.2019
6049 Clear 15 1015 67 10000 5.7 160 08:27 21.12.2019
6050 Clear 15 1015 67 10000 5.1 180 07:58 21.12.2019
6051 Clear 15 1015 67 10000 5.1 180 07:58 21.12.2019
6052 Clear 15 1015 67 10000 5.1 180 07:39 21.12.2019
6053 Clear 16 1015 62 10000 5.1 180 07:20 21.12.2019
6054 Clear 16 1015 67 10000 5.7 180 06:40 21.12.2019
6055 Clear 16 1015 63 10000 5.7 190 06:22 21.12.2019
6056 Clear 16 1015 59 10000 5.1 190 05:25 21.12.2019
6057 Clouds 16 1015 59 10000 5.7 180 04:55 21.12.2019
6058 Clouds 17 1015 59 10000 5.7 170 03:56 21.12.2019
6059 Clouds 18 1015 67 10000 6.2 170 02:25 21.12.2019
6060 Rain 16 1015 62 10000 5.7 160 01:50 21.12.2019
6061 Clouds 17 1016 67 10000 6.2 160 01:25 21.12.2019
6062 Clouds 17 1016 67 10000 6.7 160 00:48 21.12.2019
6063 Clouds 17 1015 67 10000 7.7 150 00:28 21.12.2019
6064 Clouds 17 1015 72 10000 8.7 170 23:39 20.12.2019
6065 Clouds 17 1015 72 10000 8.7 170 23:39 20.12.2019
6066 Rain 16 1015 63 10000 7.2 170 23:21 20.12.2019
6067 Rain 15 1015 67 10000 7.2 170 22:59 20.12.2019
6068 Rain 15 1015 67 10000 7.2 170 22:39 20.12.2019
6069 Rain 15 1015 62 10000 7.2 180 22:19 20.12.2019
6070 Rain 15 1015 62 10000 8.2 160 21:54 20.12.2019
6071 Rain 15 1015 62 10000 8.2 160 21:36 20.12.2019
6072 Rain 14 1014 67 10000 8.2 170 21:18 20.12.2019
6073 Rain 14 1014 67 10000 8.2 170 21:18 20.12.2019
6074 Rain 14 1014 62 10000 8.7 180 20:38 20.12.2019
6075 Clouds 13 1013 66 10000 8.7 170 20:19 20.12.2019
6076 Clouds 13 1013 66 10000 9.3 180 19:56 20.12.2019
6077 Clouds 12 1013 66 10000 9.3 180 19:38 20.12.2019
6078 Rain 11 1012 76 9000 8.2 180 19:19 20.12.2019
6079 Rain 11 1012 71 10000 9.3 180 18:41 20.12.2019
6080 Rain 10 1011 71 10000 9.8 170 18:23 20.12.2019
6081 Clouds 10 1011 66 10000 9.8 170 17:58 20.12.2019
6082 Clouds 10 1011 66 10000 9.8 170 17:40 20.12.2019
6083 Rain 10 1011 66 10000 9.8 170 17:20 20.12.2019
6084 Rain 10 1010 71 10000 9.3 170 16:57 20.12.2019
6085 Rain 10 1010 71 10000 9.8 170 16:38 20.12.2019
6086 Rain 10 1010 71 10000 9.8 170 16:19 20.12.2019
6087 Rain 10 1010 71 10000 9.3 170 15:55 20.12.2019
6088 Rain 10 1010 66 10000 10.3 170 15:37 20.12.2019
6089 Rain 10 1010 66 10000 10.3 170 15:37 20.12.2019
6090 Rain 10 1010 66 10000 10.3 170 15:19 20.12.2019
6091 Rain 10 1009 66 10000 9.8 170 14:43 20.12.2019
6092 Rain 10 1009 71 10000 9.3 170 14:24 20.12.2019
6093 Clouds 10 1007 93 0 7.87 185 13:57 20.12.2019
6094 Clouds 10 1004 89 0 7.87 185 13:38 20.12.2019
6095 Rain 10 1004 89 0 9.6 188 13:19 20.12.2019
6096 Rain 10 1007 93 0 0.45 213 12:57 20.12.2019
6097 Rain 10 1004 89 0 9.6 188 12:37 20.12.2019
6098 Rain 10 1004 89 0 9.6 188 12:18 20.12.2019
6099 Rain 10 1007 93 0 9.6 188 11:57 20.12.2019
6100 Rain 11 1008 87 10000 2.1 170 11:39 20.12.2019
6101 Rain 11 1008 87 10000 2.1 170 11:18 20.12.2019
6102 Rain 11 1008 87 10000 2.1 170 11:18 20.12.2019
6103 Rain 11 1008 87 10000 1 120 10:56 20.12.2019
6104 Drizzle 11 1007 87 10000 2.1 120 10:38 20.12.2019
6105 Drizzle 11 1007 87 10000 2.1 120 10:19 20.12.2019
6106 Rain 11 1007 87 10000 2.6 150 09:43 20.12.2019
6107 Rain 11 1006 81 10000 5.7 180 09:21 20.12.2019
6108 Rain 11 1006 87 10000 6.2 180 08:57 20.12.2019
6109 Rain 11 1005 87 10000 7.7 170 08:38 20.12.2019
6110 Rain 11 1005 87 10000 7.7 170 08:20 20.12.2019
6111 Rain 11 1005 87 10000 7.7 170 08:20 20.12.2019
6112 Rain 12 1005 87 10000 8.7 170 07:57 20.12.2019
6113 Rain 12 1004 87 10000 9.8 180 07:38 20.12.2019
6114 Rain 12 1004 87 10000 9.8 180 07:18 20.12.2019
6115 Rain 13 1004 87 9000 8.7 170 06:46 20.12.2019
6116 Rain 12 1003 87 8000 9.3 170 06:28 20.12.2019
6117 Rain 14 1003 82 10000 8.7 160 05:48 20.12.2019
6118 Drizzle 15 1001 76 10000 11.3 200 05:18 20.12.2019
6119 Rain 19 999 45 10000 7.7 320 03:49 20.12.2019
6120 Rain 19 999 45 10000 7.2 340 03:20 20.12.2019
6121 Clouds 19 998 45 10000 8.7 330 02:20 20.12.2019
6122 Clouds 19 999 49 10000 8.2 350 01:36 20.12.2019
6123 Clouds 19 998 55 10000 7.7 340 00:57 20.12.2019
6124 Clouds 19 998 52 10000 9.3 340 00:35 20.12.2019
6125 Clouds 19 998 52 10000 9.3 340 23:58 19.12.2019
6126 Clouds 19 998 52 10000 9.3 340 23:58 19.12.2019
6127 Clouds 19 999 55 10000 8.2 330 23:40 19.12.2019
6128 Clouds 18 999 55 10000 8.2 330 23:21 19.12.2019
6129 Clouds 17 999 63 10000 9.8 340 22:40 19.12.2019
6130 Clouds 17 999 63 10000 9.8 340 22:22 19.12.2019
6131 Clouds 17 998 59 10000 9.8 340 21:59 19.12.2019
6132 Clouds 17 998 59 10000 9.8 340 21:59 19.12.2019
6133 Clouds 17 998 72 10000 10.3 330 21:41 19.12.2019
6134 Clouds 17 998 72 10000 10.3 330 21:19 19.12.2019
6135 Clouds 16 998 72 10000 11.8 330 20:57 19.12.2019
6136 Clouds 16 998 82 10000 13.4 340 20:38 19.12.2019
6137 Rain 16 998 82 10000 13.4 340 20:20 19.12.2019
6138 Rain 16 998 88 10000 14.9 340 19:58 19.12.2019
6139 Rain 16 998 82 10000 14.4 340 19:40 19.12.2019
6140 Rain 16 998 82 10000 14.4 340 19:19 19.12.2019
6141 Rain 16 998 82 10000 14.4 340 19:19 19.12.2019
6142 Rain 16 998 82 10000 14.4 340 19:19 19.12.2019
6143 Rain 16 998 82 10000 14.4 340 19:19 19.12.2019
6144 Rain 16 998 82 10000 15.4 340 18:58 19.12.2019
6145 Rain 16 999 87 6000 12.3 330 18:40 19.12.2019
6146 Rain 15 999 87 6000 12.3 330 18:20 19.12.2019
6147 Rain 15 999 87 10000 14.9 340 17:56 19.12.2019
6148 Rain 15 998 87 10000 15.4 340 17:38 19.12.2019
6149 Rain 15 998 87 10000 15.4 340 17:18 19.12.2019
6150 Rain 15 998 87 8000 19 340 16:56 19.12.2019
6151 Rain 15 1000 87 4700 17 340 16:37 19.12.2019
6152 Rain 15 1000 87 4700 17 340 16:19 19.12.2019
6153 Rain 15 1000 87 10000 15.9 340 15:57 19.12.2019
6154 Rain 15 1000 87 10000 15.9 340 15:57 19.12.2019
6155 Rain 15 1001 87 3100 15.9 340 15:37 19.12.2019
6156 Rain 15 1001 87 3100 15.9 340 15:19 19.12.2019
6157 Rain 16 1002 82 10000 15.9 340 14:54 19.12.2019
6158 Rain 15 1002 77 10000 13.9 340 14:36 19.12.2019
6159 Rain 15 1002 77 10000 13.9 340 14:18 19.12.2019
6160 Rain 15 1003 77 10000 15.4 340 13:38 19.12.2019
6161 Rain 15 1003 77 10000 15.4 340 13:38 19.12.2019
6162 Rain 15 1003 77 10000 15.4 340 13:20 19.12.2019
6163 Rain 15 1004 87 3200 13.9 340 12:58 19.12.2019
6164 Clouds 15 1004 77 10000 15.4 340 12:40 19.12.2019
6165 Clouds 15 1004 77 10000 15.4 340 12:19 19.12.2019
6166 Clouds 15 1004 77 10000 15.4 340 12:19 19.12.2019
6167 Clouds 15 1005 72 10000 12.9 340 11:59 19.12.2019
6168 Clouds 15 1006 72 10000 12.3 350 11:40 19.12.2019
6169 Clouds 15 1006 72 10000 12.3 350 11:18 19.12.2019
6170 Clouds 15 1007 77 8000 11.8 340 10:58 19.12.2019
6171 Rain 15 1007 77 10000 11.8 340 10:38 19.12.2019
6172 Rain 15 1007 77 10000 11.8 340 10:20 19.12.2019
6173 Clouds 15 1007 72 10000 9.8 330 09:56 19.12.2019
6174 Clouds 15 1007 72 10000 14.9 350 09:37 19.12.2019
6175 Clouds 15 1007 72 10000 14.9 350 09:19 19.12.2019
6176 Clouds 15 1008 72 10000 9.8 340 08:55 19.12.2019
6177 Clouds 15 1008 72 10000 9.8 340 08:55 19.12.2019
6178 Clouds 15 1007 72 10000 11.3 340 08:36 19.12.2019
6179 Clouds 15 1007 72 10000 11.3 340 08:18 19.12.2019
6180 Clouds 15 1007 67 10000 9.8 350 07:41 19.12.2019
6181 Clouds 15 1007 67 10000 9.8 350 07:23 19.12.2019
6182 Rain 15 1008 67 10000 10.8 350 06:58 19.12.2019
6183 Clouds 14 1008 67 10000 10.3 350 06:39 19.12.2019
6184 Clouds 15 1008 67 10000 10.3 350 06:21 19.12.2019
6185 Clouds 15 1009 63 10000 10.3 340 05:42 19.12.2019
6186 Clouds 15 1009 63 10000 10.3 340 05:19 19.12.2019
6187 Clouds 16 1010 67 10000 9.8 350 03:51 19.12.2019
6188 Clouds 17 1011 55 10000 9.3 360 02:28 19.12.2019
6189 Clouds 17 1011 55 10000 8.7 360 01:24 19.12.2019
6190 Clouds 18 1011 48 10000 9.3 350 00:57 19.12.2019
6191 Clouds 18 1011 55 10000 9.8 350 00:38 19.12.2019
6192 Clouds 18 1011 55 10000 9.8 350 00:19 19.12.2019
6193 Clouds 18 1011 55 10000 10.8 360 23:44 18.12.2019
6194 Clouds 17 1011 55 10000 9.8 350 23:19 18.12.2019
6195 Clouds 17 1011 51 10000 8.7 340 22:56 18.12.2019
6196 Clouds 17 1010 51 10000 8.7 340 22:38 18.12.2019
6197 Clouds 17 1010 51 10000 8.7 340 22:20 18.12.2019
6198 Clouds 16 1010 51 10000 7.7 350 21:58 18.12.2019
6199 Clouds 16 1010 55 10000 7.7 360 21:39 18.12.2019
6200 Clouds 16 1010 55 10000 7.7 360 21:20 18.12.2019
6201 Clouds 15 1010 54 10000 6.2 350 20:57 18.12.2019
6202 Clouds 15 1009 51 10000 6.2 350 20:38 18.12.2019
6203 Clouds 14 1009 51 10000 6.2 350 20:20 18.12.2019
6204 Rain 13 1009 62 10000 6.7 360 19:56 18.12.2019
6205 Rain 13 1008 58 10000 5.7 340 19:38 18.12.2019
6206 Rain 13 1008 58 10000 5.7 340 19:38 18.12.2019
6207 Rain 13 1008 58 10000 5.7 340 19:18 18.12.2019
6208 Clouds 12 1008 67 10000 5.7 350 18:54 18.12.2019
6209 Clouds 12 1008 71 10000 5.1 20 18:36 18.12.2019
6210 Clouds 12 1008 71 10000 5.1 20 18:18 18.12.2019
6211 Clouds 12 1008 67 10000 5.1 350 17:55 18.12.2019
6212 Clouds 12 1008 82 10000 3.1 10 17:37 18.12.2019
6213 Clouds 11 1008 82 10000 3.1 10 17:18 18.12.2019
6214 Clouds 11 1008 87 10000 3.1 20 16:42 18.12.2019
6215 Clouds 11 1008 93 10000 2.6 50 16:23 18.12.2019
6216 Clouds 11 1008 87 10000 4.1 20 15:57 18.12.2019
6217 Rain 11 1008 87 10000 4.1 20 15:39 18.12.2019
6218 Rain 11 1008 93 10000 3.1 20 15:21 18.12.2019
6219 Rain 10 1008 93 10000 3.1 20 14:56 18.12.2019
6220 Clouds 10 1008 93 10000 3.1 20 14:38 18.12.2019
6221 Clouds 10 1008 93 10000 4.1 10 14:19 18.12.2019
6222 Clouds 10 1008 93 10000 2.1 10 13:55 18.12.2019
6223 Clouds 11 1008 93 10000 2.1 10 13:36 18.12.2019
6224 Haze 10 1008 87 5000 1.5 350 13:18 18.12.2019
6225 Haze 10 1008 87 5000 1.5 350 13:18 18.12.2019
6226 Haze 11 1008 93 3700 1.5 320 12:40 18.12.2019
6227 Clouds 11 1007 87 10000 2.1 30 12:21 18.12.2019
6228 Drizzle 11 1008 82 9000 0.5 230 11:57 18.12.2019
6229 Drizzle 11 1008 82 9000 0.5 230 11:39 18.12.2019
6230 Drizzle 11 1007 81 10000 0.5 200 11:20 18.12.2019
6231 Drizzle 11 1007 87 10000 1 110 10:58 18.12.2019
6232 Drizzle 11 1007 87 10000 1 110 10:39 18.12.2019
6233 Rain 11 1007 81 8000 1.5 340 10:20 18.12.2019
6234 Rain 12 1006 81 10000 3.1 20 09:57 18.12.2019
6235 Rain 12 1006 76 5000 2.1 320 09:20 18.12.2019
6236 Rain 13 1004 80 0 3.41 4 08:43 18.12.2019
6237 Rain 13 1004 67 10000 3.6 10 08:24 18.12.2019
6238 Clouds 14 1004 62 10000 2.6 20 07:57 18.12.2019
6239 Clouds 14 1004 62 10000 2.6 20 07:39 18.12.2019
6240 Clouds 15 1003 62 7000 1 230 07:20 18.12.2019
6241 Clouds 15 1003 58 10000 2.1 180 06:52 18.12.2019
6242 Clouds 15 1003 62 10000 2.1 210 06:24 18.12.2019
6243 Clouds 15 1002 59 10000 4.6 180 05:36 18.12.2019
6244 Clouds 16 1002 59 10000 6.7 170 04:31 18.12.2019
6245 Clouds 15 1001 62 10000 9.3 190 02:47 18.12.2019
6246 Clouds 15 1000 62 10000 12.9 200 02:28 18.12.2019
6247 Rain 14 1000 67 10000 10.8 190 01:45 18.12.2019
6248 Rain 13 1000 71 10000 8.7 190 01:27 18.12.2019
6249 Rain 13 999 71 10000 9.3 190 00:55 18.12.2019
6250 Rain 12 999 71 10000 9.3 190 00:36 18.12.2019
6251 Drizzle 12 999 71 10000 12.9 190 00:18 18.12.2019
6252 Rain 11 999 76 7000 12.3 190 23:43 17.12.2019
6253 Rain 11 998 76 8000 12.3 190 23:23 17.12.2019
6254 Drizzle 11 998 76 4800 13.4 200 22:57 17.12.2019
6255 Drizzle 11 998 76 4800 13.4 200 22:39 17.12.2019
6256 Rain 9 998 93 3900 13.4 190 22:20 17.12.2019
6257 Rain 10 998 81 6000 12.9 200 21:57 17.12.2019
6258 Rain 10 998 81 6000 12.9 200 21:39 17.12.2019
6259 Rain 10 997 81 6000 14.4 200 21:20 17.12.2019
6260 Rain 10 997 81 6000 14.4 200 21:20 17.12.2019
6261 Rain 10 997 87 5000 15.4 200 20:59 17.12.2019
6262 Rain 10 997 87 5000 15.4 200 20:40 17.12.2019
6263 Drizzle 9 996 93 3900 15.9 200 20:19 17.12.2019
6264 Rain 10 996 87 5000 15.4 200 19:57 17.12.2019
6265 Rain 10 996 87 5000 15.4 200 19:39 17.12.2019
6266 Drizzle 10 995 87 6000 16.5 200 19:20 17.12.2019
6267 Rain 10 994 81 6000 14.4 200 18:57 17.12.2019
6268 Rain 9 989 92 0 1.34 82 18:38 17.12.2019
6269 Rain 9 989 92 0 0.89 139 18:20 17.12.2019
6270 Rain 10 993 95 0 1.34 207 17:55 17.12.2019
6271 Drizzle 10 994 87 6000 15.4 200 17:37 17.12.2019
6272 Drizzle 10 994 87 6000 15.4 200 17:18 17.12.2019
6273 Drizzle 10 993 87 7000 15.4 200 16:55 17.12.2019
6274 Drizzle 11 993 87 7000 15.4 200 16:36 17.12.2019
6275 Rain 11 993 87 8000 17 200 16:18 17.12.2019
6276 Rain 11 993 87 8000 17 200 16:18 17.12.2019
6277 Rain 11 993 87 8000 16.5 200 15:38 17.12.2019
6278 Rain 11 994 87 7000 15.9 200 15:20 17.12.2019
6279 Drizzle 11 994 87 7000 14.4 200 14:56 17.12.2019
6280 Drizzle 11 994 87 7000 14.4 200 14:38 17.12.2019
6281 Rain 12 994 87 7000 14.4 200 14:19 17.12.2019
6282 Rain 12 994 87 7000 14.4 200 14:19 17.12.2019
6283 Rain 11 994 100 4000 13.9 190 13:58 17.12.2019
6284 Rain 11 994 100 4000 13.9 190 13:39 17.12.2019
6285 Rain 12 995 93 6000 12.3 180 13:19 17.12.2019
6286 Rain 12 995 93 6000 12.9 190 12:59 17.12.2019
6287 Rain 12 995 93 6000 12.9 190 12:38 17.12.2019
6288 Rain 12 996 93 6000 12.3 180 12:18 17.12.2019
6289 Rain 12 996 100 7000 9.3 180 11:57 17.12.2019
6290 Rain 12 996 100 3700 14.4 190 11:37 17.12.2019
6291 Rain 13 996 100 3700 14.4 190 11:18 17.12.2019
6292 Rain 13 996 100 1800 14.9 190 10:57 17.12.2019
6293 Rain 13 996 100 1800 14.9 190 10:38 17.12.2019
6294 Rain 13 996 100 3400 12.3 190 10:19 17.12.2019
6295 Rain 13 996 100 3400 12.3 190 10:19 17.12.2019
6296 Rain 13 996 93 4800 10.8 190 09:55 17.12.2019
6297 Rain 13 996 93 4800 10.8 190 09:37 17.12.2019
6298 Rain 14 996 93 5000 9.8 190 09:18 17.12.2019
6299 Rain 14 997 100 8000 9.3 210 08:40 17.12.2019
6300 Rain 15 996 93 8000 8.7 180 08:22 17.12.2019
6301 Rain 15 997 100 7000 8.2 200 07:59 17.12.2019
6302 Rain 16 997 100 7000 8.2 200 07:41 17.12.2019
6303 Rain 17 996 100 7000 7.2 210 07:22 17.12.2019
6304 Drizzle 18 996 100 10000 6.2 220 06:42 17.12.2019
6305 Drizzle 18 996 100 10000 4.1 210 06:24 17.12.2019
6306 Drizzle 18 996 100 10000 4.1 210 06:24 17.12.2019
6307 Rain 18 997 100 4900 3.6 200 05:41 17.12.2019
6308 Rain 18 998 93 10000 2.1 200 04:58 17.12.2019
6309 Rain 18 999 93 9000 3.1 340 03:55 17.12.2019
6310 Rain 20 1000 77 10000 4.1 360 02:26 17.12.2019
6311 Clouds 19 1001 73 10000 4.6 320 01:22 17.12.2019
6312 Clouds 19 1001 77 10000 5.7 320 00:47 17.12.2019
6313 Clouds 19 1002 77 10000 5.1 340 00:21 17.12.2019
6314 Clouds 18 1002 82 10000 4.6 340 23:57 16.12.2019
6315 Rain 18 1002 82 10000 7.2 340 23:38 16.12.2019
6316 Rain 18 1002 82 10000 7.2 340 23:18 16.12.2019
6317 Clouds 18 1002 77 10000 6.7 340 22:54 16.12.2019
6318 Rain 18 1003 77 10000 8.7 340 22:36 16.12.2019
6319 Rain 18 1003 77 10000 8.7 340 22:18 16.12.2019
6320 Rain 18 1003 77 10000 7.7 330 21:54 16.12.2019
6321 Rain 18 1003 77 10000 7.7 330 21:36 16.12.2019
6322 Drizzle 18 1003 72 10000 8.2 330 21:18 16.12.2019
6323 Clouds 19 1002 64 10000 9.8 20 20:54 16.12.2019
6324 Clouds 20 1002 64 10000 9.8 20 20:36 16.12.2019
6325 Rain 19 1002 68 10000 7.7 20 20:18 16.12.2019
6326 Rain 18 1002 77 10000 6.7 30 19:54 16.12.2019
6327 Rain 18 1002 77 10000 6.7 30 19:36 16.12.2019
6328 Rain 19 1002 77 10000 7.2 30 19:18 16.12.2019
6329 Rain 19 1002 77 10000 7.2 30 19:18 16.12.2019
6330 Rain 19 1002 82 10000 6.7 30 18:42 16.12.2019
6331 Drizzle 18 1002 88 10000 6.2 30 18:20 16.12.2019
6332 Rain 18 1002 88 10000 6.2 30 17:59 16.12.2019
6333 Rain 18 1002 88 10000 6.2 30 17:40 16.12.2019
6334 Rain 18 1002 88 10000 6.2 30 17:40 16.12.2019
6335 Rain 18 1003 88 10000 6.7 30 17:21 16.12.2019
6336 Drizzle 18 1003 93 10000 5.7 30 16:58 16.12.2019
6337 Drizzle 17 1003 93 10000 5.7 30 16:39 16.12.2019
6338 Rain 17 1003 93 10000 4.1 30 16:20 16.12.2019
6339 Rain 17 1004 93 6000 5.1 10 15:59 16.12.2019
6340 Rain 17 1004 93 6000 5.1 10 15:39 16.12.2019
6341 Rain 17 1004 93 6000 4.1 20 15:21 16.12.2019
6342 Rain 17 1005 93 10000 4.6 30 14:57 16.12.2019
6343 Rain 17 1005 93 10000 4.6 30 14:37 16.12.2019
6344 Rain 17 1005 93 10000 4.6 30 14:37 16.12.2019
6345 Rain 17 1005 93 10000 4.6 30 14:37 16.12.2019
6346 Rain 17 1005 93 10000 5.7 20 14:19 16.12.2019
6347 Drizzle 17 1005 88 10000 4.6 20 13:56 16.12.2019
6348 Drizzle 17 1005 88 10000 4.6 20 13:38 16.12.2019
6349 Rain 17 1006 88 10000 5.1 20 13:19 16.12.2019
6350 Rain 17 1006 88 10000 5.1 20 13:19 16.12.2019
6351 Drizzle 17 1006 88 10000 3.1 10 12:58 16.12.2019
6352 Drizzle 17 1006 88 10000 3.1 10 12:39 16.12.2019
6353 Rain 17 1007 93 10000 3.1 360 12:19 16.12.2019
6354 Rain 16 1007 100 10000 4.1 20 11:58 16.12.2019
6355 Rain 16 1007 100 10000 4.1 20 11:40 16.12.2019
6356 Rain 17 1007 100 10000 5.1 20 11:20 16.12.2019
6357 Rain 17 1008 93 10000 5.1 20 10:57 16.12.2019
6358 Rain 17 1008 93 10000 5.1 20 10:38 16.12.2019
6359 Rain 17 1007 93 10000 4.1 10 10:19 16.12.2019
6360 Rain 17 1007 82 10000 4.1 10 09:45 16.12.2019
6361 Rain 18 1008 82 10000 3.6 10 09:27 16.12.2019
6362 Rain 18 1008 82 10000 5.1 10 08:55 16.12.2019
6363 Rain 18 1008 82 10000 5.1 10 08:37 16.12.2019
6364 Clouds 18 1008 77 10000 5.1 10 08:18 16.12.2019
6365 Clouds 19 1008 77 10000 5.7 10 07:42 16.12.2019
6366 Clouds 19 1008 72 10000 6.2 360 07:21 16.12.2019
6367 Clouds 19 1008 72 10000 7.7 360 06:45 16.12.2019
6368 Clouds 20 1008 68 10000 7.7 360 06:22 16.12.2019
6369 Clouds 20 1008 72 10000 7.2 360 05:49 16.12.2019
6370 Clouds 20 1008 72 10000 8.2 360 05:30 16.12.2019
6371 Clouds 20 1008 72 10000 7.7 360 04:21 16.12.2019
6372 Clouds 19 1010 77 10000 8.7 360 01:58 16.12.2019
6373 Clouds 19 1010 77 10000 8.7 360 01:40 16.12.2019
6374 Clouds 19 1010 77 10000 8.7 360 01:40 16.12.2019
6375 Clouds 18 1010 82 10000 8.7 360 00:42 16.12.2019
6376 Clouds 18 1010 82 10000 9.3 10 00:23 16.12.2019
6377 Clouds 17 1010 88 10000 7.7 360 23:58 15.12.2019
6378 Clouds 18 1010 88 10000 8.2 10 23:38 15.12.2019
6379 Clouds 17 1010 88 10000 8.2 10 23:19 15.12.2019
6380 Rain 17 1010 93 10000 7.2 20 22:55 15.12.2019
6381 Rain 16 1010 93 10000 7.2 20 22:37 15.12.2019
6382 Drizzle 16 1010 93 10000 6.7 10 22:18 15.12.2019
6383 Rain 16 1011 88 10000 6.2 360 21:55 15.12.2019
6384 Rain 17 1011 88 10000 6.2 360 21:37 15.12.2019
6385 Rain 16 1010 88 10000 8.2 360 21:18 15.12.2019
6386 Rain 17 1010 82 10000 7.2 360 20:55 15.12.2019
6387 Clouds 17 1010 82 10000 7.2 360 20:36 15.12.2019
6388 Clouds 17 1010 88 10000 6.7 360 20:18 15.12.2019
6389 Rain 17 1010 88 10000 6.7 360 20:18 15.12.2019
6390 Clouds 17 1010 82 10000 7.2 350 19:55 15.12.2019
6391 Clouds 17 1010 82 10000 7.2 350 19:37 15.12.2019
6392 Clouds 16 1010 82 10000 7.2 350 19:18 15.12.2019
6393 Clouds 16 1010 88 10000 7.7 350 18:55 15.12.2019
6394 Rain 16 1010 88 10000 6.2 340 18:36 15.12.2019
6395 Rain 16 1010 88 10000 6.2 340 18:18 15.12.2019
6396 Rain 16 1010 88 10000 6.7 340 17:55 15.12.2019
6397 Rain 16 1010 88 7000 8.2 330 17:36 15.12.2019
6398 Rain 16 1010 88 7000 8.2 330 17:18 15.12.2019
6399 Rain 16 1009 77 10000 8.2 330 16:42 15.12.2019
6400 Clouds 16 1010 88 10000 7.7 340 16:23 15.12.2019
6401 Clouds 16 1009 88 10000 10.3 330 15:57 15.12.2019
6402 Clouds 16 1009 88 10000 10.3 330 15:39 15.12.2019
6403 Clouds 16 1009 88 10000 8.7 340 15:19 15.12.2019
6404 Clouds 16 1009 88 10000 8.7 340 15:19 15.12.2019
6405 Clouds 16 1009 88 10000 8.7 350 14:56 15.12.2019
6406 Clouds 16 1009 88 10000 8.7 350 14:37 15.12.2019
6407 Clouds 16 1009 88 10000 9.8 350 14:19 15.12.2019
6408 Rain 16 1009 88 6000 10.8 340 13:58 15.12.2019
6409 Rain 16 1009 88 6000 10.8 340 13:39 15.12.2019
6410 Drizzle 17 1010 82 10000 9.3 340 13:20 15.12.2019
6411 Rain 17 1009 82 10000 10.8 330 12:57 15.12.2019
6412 Rain 17 1009 82 10000 10.8 330 12:57 15.12.2019
6413 Rain 17 1009 82 10000 10.8 330 12:39 15.12.2019
6414 Clouds 17 1009 77 10000 10.3 330 12:21 15.12.2019
6415 Clouds 17 1009 82 10000 9.8 340 11:59 15.12.2019
6416 Rain 17 1009 82 10000 10.8 350 11:37 15.12.2019
6417 Rain 17 1009 82 10000 10.8 350 11:19 15.12.2019
6418 Clouds 17 1009 77 10000 9.3 350 10:55 15.12.2019
6419 Clouds 17 1009 77 10000 9.3 350 10:37 15.12.2019
6420 Clouds 17 1009 77 10000 10.8 350 10:19 15.12.2019
6421 Clouds 17 1009 77 10000 9.8 360 09:41 15.12.2019
6422 Clouds 17 1009 77 10000 8.2 350 09:20 15.12.2019
6423 Clouds 17 1009 72 10000 8.7 350 08:59 15.12.2019
6424 Clouds 17 1009 72 10000 8.7 350 08:41 15.12.2019
6425 Clouds 17 1009 77 10000 10.3 350 08:22 15.12.2019
6426 Clouds 17 1009 77 10000 10.3 350 08:22 15.12.2019
6427 Clouds 17 1008 72 10000 11.8 340 07:56 15.12.2019
6428 Clouds 17 1008 72 10000 11.8 340 07:36 15.12.2019
6429 Clouds 17 1008 72 10000 12.9 340 06:56 15.12.2019
6430 Clouds 17 1007 68 10000 12.9 330 06:21 15.12.2019
6431 Clouds 18 1008 63 10000 11.3 340 05:39 15.12.2019
6432 Clouds 18 1008 59 10000 12.3 340 05:19 15.12.2019
6433 Clouds 18 1008 59 10000 12.3 340 03:56 15.12.2019
6434 Clouds 18 1008 59 10000 11.3 340 02:35 15.12.2019
6435 Clouds 18 1009 52 10000 13.4 340 01:55 15.12.2019
6436 Clouds 18 1009 52 10000 13.4 340 01:37 15.12.2019
6437 Clouds 18 1009 55 10000 10.3 350 01:18 15.12.2019
6438 Clouds 18 1009 59 10000 12.9 360 00:42 15.12.2019
6439 Clouds 18 1009 63 10000 11.3 360 00:23 15.12.2019
6440 Clouds 18 1009 63 10000 12.3 360 23:40 14.12.2019
6441 Clouds 18 1009 59 10000 11.8 360 23:21 14.12.2019
6442 Clouds 18 1009 63 10000 11.3 350 22:58 14.12.2019
6443 Clouds 18 1009 63 10000 11.3 350 22:40 14.12.2019
6444 Clouds 18 1009 59 10000 10.3 350 22:21 14.12.2019
6445 Clouds 17 1009 63 10000 10.3 350 21:56 14.12.2019
6446 Clouds 16 1009 63 10000 10.3 350 21:38 14.12.2019
6447 Clouds 16 1009 67 10000 8.7 350 21:19 14.12.2019
6448 Clouds 16 1009 63 10000 9.8 360 20:57 14.12.2019
6449 Clouds 16 1009 63 10000 9.8 360 20:38 14.12.2019
6450 Clouds 15 1009 63 10000 9.3 360 20:19 14.12.2019
6451 Clouds 15 1008 67 10000 9.3 350 19:56 14.12.2019
6452 Clouds 14 1008 67 10000 9.3 350 19:37 14.12.2019
6453 Clouds 14 1008 59 10000 10.3 350 19:18 14.12.2019
6454 Clouds 14 1008 67 10000 10.8 350 18:56 14.12.2019
6455 Clouds 14 1008 67 10000 9.8 350 18:36 14.12.2019
6456 Clouds 14 1008 67 10000 9.8 350 18:18 14.12.2019
6457 Clouds 14 1008 67 10000 9.3 360 17:43 14.12.2019
6458 Clouds 14 1008 67 10000 8.7 10 17:23 14.12.2019
6459 Clear 14 1008 67 10000 7.7 350 16:56 14.12.2019
6460 Clear 14 1008 67 10000 7.7 350 16:38 14.12.2019
6461 Clear 14 1008 67 10000 7.2 350 16:18 14.12.2019
6462 Clear 14 1008 67 10000 6.7 350 15:42 14.12.2019
6463 Clear 14 1009 72 10000 6.7 350 15:21 14.12.2019
6464 Clear 14 1009 72 10000 7.7 350 14:58 14.12.2019
6465 Clear 14 1009 72 10000 7.7 350 14:38 14.12.2019
6466 Clear 14 1009 72 10000 8.2 350 14:19 14.12.2019
6467 Clear 14 1009 72 10000 8.2 350 14:19 14.12.2019
6468 Clear 14 1009 72 10000 8.7 350 13:45 14.12.2019
6469 Clear 14 1009 72 10000 10.3 360 13:21 14.12.2019
6470 Clear 14 1009 72 10000 10.3 360 13:21 14.12.2019
6471 Clear 14 1009 72 10000 10.3 360 12:59 14.12.2019
6472 Clear 14 1009 72 10000 10.3 360 12:41 14.12.2019
6473 Clear 14 1009 72 10000 10.8 350 12:21 14.12.2019
6474 Clear 14 1009 72 10000 10.8 350 12:21 14.12.2019
6475 Clear 14 1009 72 10000 10.8 350 12:21 14.12.2019
6476 Clear 14 1009 67 10000 9.3 350 11:59 14.12.2019
6477 Clear 14 1009 67 10000 9.3 350 11:40 14.12.2019
6478 Clear 14 1009 72 10000 10.8 360 11:20 14.12.2019
6479 Clear 14 1009 72 10000 9.8 360 10:59 14.12.2019
6480 Clear 14 1009 72 10000 9.8 360 10:59 14.12.2019
6481 Clear 14 1009 72 10000 9.8 360 10:40 14.12.2019
6482 Clear 14 1009 67 10000 9.8 360 10:22 14.12.2019
6483 Clear 14 1008 72 10000 10.8 10 09:59 14.12.2019
6484 Clear 15 1008 72 10000 10.8 10 09:40 14.12.2019
6485 Clear 15 1008 67 10000 11.3 360 09:20 14.12.2019
6486 Clear 15 1008 63 10000 10.3 360 08:43 14.12.2019
6487 Clouds 15 1008 63 10000 11.3 360 08:20 14.12.2019
6488 Clouds 16 1007 59 10000 11.3 360 07:44 14.12.2019
6489 Clouds 16 1007 59 10000 12.3 360 07:24 14.12.2019
6490 Clouds 17 1007 59 10000 10.3 360 06:58 14.12.2019
6491 Clouds 17 1007 55 10000 10.8 360 06:38 14.12.2019
6492 Clouds 17 1007 55 10000 10.8 360 06:18 14.12.2019
6493 Clouds 19 1007 59 10000 10.3 360 04:48 14.12.2019
6494 Clouds 19 1007 52 10000 8.2 350 02:41 14.12.2019
6495 Clouds 19 1007 52 10000 8.2 360 02:19 14.12.2019
6496 Clouds 19 1007 52 10000 7.2 10 01:37 14.12.2019
6497 Clouds 19 1007 55 10000 6.7 360 00:49 14.12.2019
6498 Clouds 19 1007 52 10000 8.2 360 00:28 14.12.2019
6499 Clouds 19 1007 55 10000 6.7 350 23:57 13.12.2019
6500 Clouds 19 1007 55 10000 6.7 350 23:38 13.12.2019
6501 Clouds 18 1007 55 10000 6.7 350 23:19 13.12.2019
6502 Clouds 18 1007 55 10000 6.7 360 22:42 13.12.2019
6503 Clouds 18 1006 52 10000 5.1 360 22:19 13.12.2019
6504 Clouds 18 1006 52 10000 5.1 20 21:56 13.12.2019
6505 Clouds 17 1006 52 10000 5.1 20 21:38 13.12.2019
6506 Clouds 17 1006 52 10000 5.1 40 21:20 13.12.2019
6507 Clouds 17 1005 59 10000 5.1 340 20:54 13.12.2019
6508 Clouds 16 1005 59 10000 5.1 340 20:36 13.12.2019
6509 Clouds 16 1004 72 10000 7.2 340 20:18 13.12.2019
6510 Clouds 16 1005 82 10000 8.2 350 19:42 13.12.2019
6511 Clouds 16 1005 82 10000 8.2 350 19:23 13.12.2019
6512 Clouds 15 1005 82 10000 9.3 360 18:59 13.12.2019
6513 Clouds 15 1004 82 10000 9.8 360 18:41 13.12.2019
6514 Clouds 15 1004 82 10000 9.8 360 18:19 13.12.2019
6515 Clouds 14 1004 82 10000 9.8 360 17:57 13.12.2019
6516 Clouds 14 1003 87 10000 8.2 360 17:38 13.12.2019
6517 Clear 15 1003 87 10000 8.2 360 17:18 13.12.2019
6518 Clear 14 1003 82 10000 7.7 350 16:54 13.12.2019
6519 Clear 15 1003 82 10000 7.7 350 16:36 13.12.2019
6520 Clear 15 1003 82 10000 7.7 350 16:18 13.12.2019
6521 Clear 15 1003 82 10000 6.2 350 15:38 13.12.2019
6522 Clear 15 1003 82 10000 6.2 350 15:20 13.12.2019
6523 Clear 15 1003 77 10000 8.2 350 14:42 13.12.2019
6524 Clouds 16 1003 77 10000 8.2 350 14:22 13.12.2019
6525 Clouds 16 1003 82 10000 9.3 350 13:58 13.12.2019
6526 Clouds 16 1003 82 10000 8.7 350 13:40 13.12.2019
6527 Clouds 17 1003 82 10000 8.7 350 13:21 13.12.2019
6528 Clouds 17 1003 82 10000 8.2 350 12:44 13.12.2019
6529 Clouds 17 1003 82 10000 8.2 350 12:44 13.12.2019
6530 Clouds 17 1003 88 10000 7.7 340 12:23 13.12.2019
6531 Clouds 17 1003 88 10000 8.2 340 11:59 13.12.2019
6532 Clouds 17 1003 93 10000 8.7 340 11:41 13.12.2019
6533 Clouds 17 1003 93 10000 8.7 340 11:23 13.12.2019
6534 Clouds 17 1003 93 9000 9.8 340 10:56 13.12.2019
6535 Clouds 16 1003 88 10000 7.7 330 10:38 13.12.2019
6536 Clouds 16 1003 88 10000 7.7 330 10:19 13.12.2019
6537 Clouds 16 1003 88 10000 8.7 340 09:41 13.12.2019
6538 Clouds 17 1003 88 10000 8.7 340 09:20 13.12.2019
6539 Clouds 17 1003 88 10000 8.7 340 09:20 13.12.2019
6540 Clouds 17 1003 82 10000 9.3 350 08:44 13.12.2019
6541 Clouds 17 1002 82 10000 10.8 350 08:25 13.12.2019
6542 Clouds 17 1002 77 10000 10.8 340 07:47 13.12.2019
6543 Clouds 17 1002 77 10000 9.3 340 07:24 13.12.2019
6544 Clouds 17 1002 72 10000 9.8 340 06:55 13.12.2019
6545 Clouds 18 1002 68 10000 8.2 340 06:29 13.12.2019
6546 Clouds 18 1002 68 10000 12.9 10 05:51 13.12.2019
6547 Clouds 18 1003 68 10000 12.9 20 05:30 13.12.2019
6548 Clouds 18 1003 72 10000 12.9 10 04:46 13.12.2019
6549 Clouds 19 1003 63 10000 13.4 360 03:48 13.12.2019
6550 Clouds 20 1004 52 10000 12.3 360 02:35 13.12.2019
6551 Clear 20 1004 49 10000 11.8 350 01:49 13.12.2019
6552 Clear 20 1004 56 10000 11.3 360 01:19 13.12.2019
6553 Clear 21 1004 56 10000 10.3 360 00:45 13.12.2019
6554 Clear 21 1005 56 10000 10.3 360 00:22 13.12.2019
6555 Clear 21 1005 60 10000 10.3 360 23:41 12.12.2019
6556 Clear 20 1005 60 10000 10.3 360 23:22 12.12.2019
6557 Clear 20 1005 60 10000 9.3 360 22:56 12.12.2019
6558 Clear 19 1006 63 10000 9.8 360 22:37 12.12.2019
6559 Clear 19 1006 63 10000 9.8 360 22:19 12.12.2019
6560 Clear 19 1005 59 10000 9.3 360 21:55 12.12.2019
6561 Clear 19 1005 59 10000 9.3 360 21:55 12.12.2019
6562 Clear 19 1005 59 10000 9.3 360 21:55 12.12.2019
6563 Clear 19 1005 59 10000 9.8 360 21:37 12.12.2019
6564 Clear 18 1005 59 10000 9.8 360 21:19 12.12.2019
6565 Clear 18 1005 68 10000 8.7 10 20:56 12.12.2019
6566 Clear 17 1005 67 10000 7.7 20 20:38 12.12.2019
6567 Clear 17 1005 67 10000 7.7 20 20:20 12.12.2019
6568 Clear 16 1006 77 10000 6.7 20 19:43 12.12.2019
6569 Clear 16 1006 77 10000 6.7 20 19:43 12.12.2019
6570 Clear 15 1006 82 10000 6.2 20 19:23 12.12.2019
6571 Clear 13 1006 93 10000 6.2 360 18:58 12.12.2019
6572 Clear 11 1006 93 10000 5.1 10 18:40 12.12.2019
6573 Clear 11 1006 93 10000 5.1 10 18:21 12.12.2019
6574 Clear 11 1006 93 10000 5.1 10 18:21 12.12.2019
6575 Clear 11 1006 93 10000 3.6 20 17:59 12.12.2019
6576 Clear 11 1006 93 10000 3.6 20 17:40 12.12.2019
6577 Clear 11 1006 93 10000 3.6 20 17:21 12.12.2019
6578 Clear 11 1007 87 10000 1.5 30 16:59 12.12.2019
6579 Clear 11 1007 87 10000 1.5 20 16:41 12.12.2019
6580 Clear 12 1007 87 10000 1.5 20 16:21 12.12.2019
6581 Clear 12 1007 93 10000 1 30 15:59 12.12.2019
6582 Clear 12 1008 87 10000 0.5 360 15:41 12.12.2019
6583 Clear 12 1008 87 10000 0.5 360 15:19 12.12.2019
6584 Clear 12 1008 87 10000 0.5 360 15:19 12.12.2019
6585 Clear 12 1008 93 10000 1.5 330 14:57 12.12.2019
6586 Clear 12 1008 87 10000 1 30 14:36 12.12.2019
6587 Clear 12 1008 87 10000 1 30 14:18 12.12.2019
6588 Clear 12 1009 87 10000 1.5 40 13:54 12.12.2019
6589 Clear 12 1009 87 10000 1.5 20 13:36 12.12.2019
6590 Clear 12 1009 87 10000 1.5 20 13:18 12.12.2019
6591 Clear 13 1009 82 10000 6.2 250 12:41 12.12.2019
6592 Clear 13 1009 82 10000 6.2 250 12:22 12.12.2019
6593 Clear 13 1009 87 10000 6.7 240 11:59 12.12.2019
6594 Clear 13 1010 82 10000 7.2 240 11:40 12.12.2019
6595 Clear 13 1010 82 10000 7.2 240 11:21 12.12.2019
6596 Clear 13 1010 87 10000 5.1 230 10:58 12.12.2019
6597 Clear 14 1010 82 10000 6.2 230 10:40 12.12.2019
6598 Clear 14 1010 82 10000 6.2 230 10:22 12.12.2019
6599 Clear 14 1010 82 10000 8.2 210 09:56 12.12.2019
6600 Clear 14 1010 82 10000 7.2 220 09:38 12.12.2019
6601 Clear 15 1010 82 10000 7.2 220 09:19 12.12.2019
6602 Clear 15 1010 82 10000 6.2 190 08:47 12.12.2019
6603 Clear 15 1010 77 10000 7.7 180 08:28 12.12.2019
6604 Clear 17 1010 82 10000 8.2 170 07:55 12.12.2019
6605 Clear 17 1010 77 10000 7.7 180 07:36 12.12.2019
6606 Clear 17 1010 77 10000 7.7 180 07:18 12.12.2019
6607 Clear 18 1011 77 10000 8.2 190 06:41 12.12.2019
6608 Clear 18 1011 77 10000 8.2 190 06:21 12.12.2019
6609 Clear 18 1011 77 10000 8.2 180 05:28 12.12.2019
6610 Clear 19 1011 77 10000 8.7 170 04:46 12.12.2019
6611 Clear 20 1012 72 10000 9.8 160 02:42 12.12.2019
6612 Clear 20 1012 72 10000 9.8 160 02:24 12.12.2019
6613 Clear 20 1013 72 10000 9.3 170 01:59 12.12.2019
6614 Clear 20 1013 72 10000 9.8 160 01:36 12.12.2019
6615 Clear 20 1013 72 10000 8.7 160 00:49 12.12.2019
6616 Clear 20 1013 72 10000 8.2 170 00:22 12.12.2019
6617 Clear 20 1014 77 10000 8.2 160 23:58 11.12.2019
6618 Clear 19 1014 77 10000 8.2 160 23:37 11.12.2019
6619 Clear 18 1014 77 10000 8.2 160 23:18 11.12.2019
6620 Clear 18 1014 77 10000 8.2 160 22:55 11.12.2019
6621 Clear 18 1014 77 10000 7.7 160 22:37 11.12.2019
6622 Clear 18 1014 77 10000 7.7 160 22:18 11.12.2019
6623 Clear 18 1014 82 10000 6.7 160 21:54 11.12.2019
6624 Clear 17 1014 82 10000 7.2 160 21:36 11.12.2019
6625 Clear 17 1014 82 10000 7.2 160 21:18 11.12.2019
6626 Clear 17 1014 82 10000 6.7 170 20:54 11.12.2019
6627 Clear 16 1014 82 10000 6.2 160 20:36 11.12.2019
6628 Clouds 16 1014 82 10000 6.2 160 20:18 11.12.2019
6629 Clouds 15 1014 82 10000 5.1 160 19:41 11.12.2019
6630 Clouds 14 1014 82 10000 5.1 160 19:23 11.12.2019
6631 Clouds 14 1014 82 10000 5.1 170 18:59 11.12.2019
6632 Clouds 14 1014 82 10000 4.1 180 18:39 11.12.2019
6633 Clouds 13 1014 82 10000 4.1 180 18:19 11.12.2019
6634 Clouds 13 1014 87 10000 5.1 170 17:56 11.12.2019
6635 Clouds 13 1013 82 10000 3.6 160 17:37 11.12.2019
6636 Clouds 13 1013 82 10000 3.6 160 17:18 11.12.2019
6637 Clouds 13 1013 76 10000 2.1 160 16:55 11.12.2019
6638 Clouds 13 1013 87 10000 2.1 170 16:37 11.12.2019
6639 Clouds 13 1013 87 10000 2.1 170 16:18 11.12.2019
6640 Clouds 13 1013 87 10000 0.5 180 15:55 11.12.2019
6641 Clouds 14 1013 82 10000 4.1 200 15:36 11.12.2019
6642 Clouds 14 1013 82 10000 4.1 200 15:18 11.12.2019
6643 Clouds 14 1013 87 10000 4.6 220 14:54 11.12.2019
6644 Clouds 14 1013 82 10000 2.6 180 14:36 11.12.2019
6645 Clouds 14 1013 82 10000 2.6 180 14:18 11.12.2019
6646 Clouds 15 1013 77 10000 0.5 10 13:42 11.12.2019
6647 Clouds 15 1013 77 10000 0.5 10 13:42 11.12.2019
6648 Clouds 14 1013 77 10000 0.5 10 13:21 11.12.2019
6649 Clouds 14 1013 77 10000 1.5 10 12:58 11.12.2019
6650 Clouds 14 1013 77 10000 1.5 30 12:39 11.12.2019
6651 Clouds 14 1013 77 10000 1.5 30 12:21 11.12.2019
6652 Clouds 14 1013 77 10000 1.5 30 12:21 11.12.2019
6653 Clouds 14 1013 77 10000 1.5 20 11:58 11.12.2019
6654 Clouds 15 1013 67 10000 2.6 230 11:39 11.12.2019
6655 Clouds 16 1013 67 10000 2.6 230 11:19 11.12.2019
6656 Clouds 15 1013 72 10000 5.1 240 10:57 11.12.2019
6657 Clouds 16 1013 72 10000 6.7 230 10:39 11.12.2019
6658 Clouds 16 1013 72 10000 6.7 230 10:20 11.12.2019
6659 Clouds 16 1012 77 10000 6.2 220 09:44 11.12.2019
6660 Clouds 16 1012 77 10000 6.2 220 09:44 11.12.2019
6661 Clouds 17 1012 77 10000 6.2 220 09:21 11.12.2019
6662 Clouds 17 1012 72 10000 5.7 220 08:58 11.12.2019
6663 Clouds 17 1012 52 10000 4.1 190 08:40 11.12.2019
6664 Clouds 18 1012 52 10000 4.1 190 08:20 11.12.2019
6665 Clouds 19 1012 45 10000 4.6 190 07:59 11.12.2019
6666 Clouds 19 1012 63 10000 5.1 220 07:41 11.12.2019
6667 Clouds 19 1012 63 10000 5.1 220 07:22 11.12.2019
6668 Clouds 19 1012 63 10000 5.1 220 06:44 11.12.2019
6669 Clouds 20 1012 59 10000 5.7 220 06:23 11.12.2019
6670 Clouds 20 1012 55 10000 5.7 220 05:46 11.12.2019
6671 Clouds 20 1012 63 1000